ftp/pub/mcmurdo/arrivalheights/2019/08032019.txt

Download

		Temp	Hi	Low	Wind	Wind	Wind	Hi	Wind		Heat	Cool	In 	In	Arc.
Date	Time	Out	Temp	Temp	Speed	Dir	Run	Speed	Chill	Bar  	D-D 	D-D 	Temp	Hum	Int.
08/02/19	12:01 a	-38.8	-38.7	-38.8	36.5	ESE	0.61	39.1	-63.4	730.7	0.040	0.000	13.1	92	1
08/02/19	12:02 a	-38.8	-38.7	-38.8	37.4	ESE	0.62	40.0	-63.6	730.7	0.040	0.000	13.1	92	1
08/02/19	12:03 a	-38.7	-38.7	-38.8	36.5	ESE	0.61	38.3	-63.3	730.8	0.040	0.000	13.1	92	1
08/02/19	12:04 a	-38.8	-38.7	-38.8	35.7	ESE	0.59	40.0	-63.2	730.8	0.040	0.000	13.1	91	1
08/02/19	12:05 a	-38.8	-38.7	-38.8	34.8	ESE	0.58	39.1	-62.9	730.8	0.040	0.000	13.1	91	1
08/02/19	12:06 a	-38.8	-38.7	-38.8	37.4	ESE	0.62	40.0	-63.6	730.6	0.040	0.000	13.1	91	1
08/02/19	12:07 a	-38.8	-38.8	-38.8	37.4	ESE	0.62	40.9	-63.6	730.7	0.040	0.000	13.0	91	1
08/02/19	12:08 a	-38.8	-38.8	-38.8	37.4	ESE	0.62	40.0	-63.6	730.7	0.040	0.000	13.0	90	1
08/02/19	12:09 a	-38.8	-38.8	-38.8	37.4	ESE	0.62	39.1	-63.6	730.6	0.040	0.000	13.0	86	1
08/02/19	12:10 a	-38.8	-38.8	-38.8	38.3	ESE	0.64	42.6	-63.8	730.6	0.040	0.000	13.0	85	1
08/02/19	12:11 a	-38.8	-38.8	-38.8	38.3	ESE	0.64	40.9	-63.8	730.7	0.040	0.000	12.9	83	1
08/02/19	12:12 a	-38.8	-38.8	-38.8	37.4	ESE	0.62	42.6	-63.6	730.7	0.040	0.000	12.9	84	1
08/02/19	12:13 a	-38.8	-38.8	-38.9	37.4	ESE	0.62	39.1	-63.6	730.6	0.040	0.000	12.9	86	1
08/02/19	12:14 a	-38.9	-38.8	-38.9	37.4	ESE	0.62	40.0	-63.7	730.6	0.040	0.000	12.9	86	1
08/02/19	12:15 a	-38.9	-38.9	-38.9	36.5	ESE	0.61	41.7	-63.5	730.7	0.040	0.000	12.9	81	1
08/02/19	12:16 a	-38.9	-38.8	-38.9	39.1	ESE	0.65	40.9	-64.1	730.7	0.040	0.000	12.9	78	1
08/02/19	12:17 a	-38.9	-38.8	-38.9	37.4	ESE	0.62	39.1	-63.7	730.7	0.040	0.000	12.9	78	1
08/02/19	12:18 a	-38.9	-38.8	-38.9	36.5	ESE	0.61	38.3	-63.5	730.7	0.040	0.000	12.9	80	1
08/02/19	12:19 a	-38.9	-38.8	-38.9	37.4	ESE	0.62	40.9	-63.7	730.7	0.040	0.000	12.8	80	1
08/02/19	12:20 a	-38.9	-38.8	-38.9	37.4	ESE	0.62	41.7	-63.7	730.6	0.040	0.000	12.8	71	1
08/02/19	12:21 a	-38.9	-38.8	-38.9	36.5	ESE	0.61	38.3	-63.5	730.7	0.040	0.000	12.8	76	1
08/02/19	12:22 a	-38.9	-38.9	-39.0	36.5	ESE	0.61	38.3	-63.6	730.8	0.040	0.000	12.8	84	1
08/02/19	12:23 a	-38.9	-38.9	-39.0	37.4	ESE	0.62	40.0	-63.8	730.7	0.040	0.000	12.8	85	1
08/02/19	12:24 a	-39.0	-38.9	-39.0	37.4	ESE	0.62	40.0	-63.9	730.7	0.040	0.000	12.8	88	1
08/02/19	12:25 a	-39.1	-39.0	-39.1	37.4	ESE	0.62	40.9	-63.9	730.7	0.040	0.000	12.8	85	1
08/02/19	12:26 a	-39.1	-39.0	-39.1	37.4	ESE	0.62	39.1	-63.9	730.7	0.040	0.000	12.8	69	1
08/02/19	12:27 a	-39.1	-39.1	-39.1	37.4	ESE	0.62	41.7	-63.9	730.7	0.040	0.000	12.7	80	1
08/02/19	12:28 a	-39.1	-39.1	-39.2	37.4	ESE	0.62	40.0	-64.0	730.7	0.040	0.000	12.7	66	1
08/02/19	12:29 a	-39.2	-39.1	-39.2	38.3	ESE	0.64	41.7	-64.3	730.9	0.040	0.000	12.7	21	1
08/02/19	12:30 a	-39.1	-39.1	-39.2	36.5	ESE	0.61	40.0	-63.8	730.8	0.040	0.000	12.7	64	1
08/02/19	12:31 a	-39.1	-39.1	-39.2	37.4	ESE	0.62	40.9	-64.0	730.8	0.040	0.000	12.7	89	1
08/02/19	12:32 a	-39.2	-39.2	-39.2	37.4	ESE	0.62	40.9	-64.1	730.8	0.040	0.000	12.7	88	1
08/02/19	12:33 a	-39.2	-39.2	-39.2	38.3	ESE	0.64	42.6	-64.4	730.9	0.040	0.000	12.7	87	1
08/02/19	12:34 a	-39.2	-39.2	-39.3	35.7	ESE	0.59	40.0	-63.8	730.9	0.040	0.000	12.7	76	1
08/02/19	12:35 a	-39.3	-39.2	-39.3	36.5	ESE	0.61	38.3	-64.1	730.8	0.040	0.000	12.6	67	1
08/02/19	12:36 a	-39.3	-39.3	-39.4	34.8	ESE	0.58	36.5	-63.7	730.7	0.040	0.000	12.6	70	1
08/02/19	12:37 a	-39.4	-39.4	-39.4	38.3	ESE	0.64	41.7	-64.7	730.6	0.040	0.000	12.6	76	1
08/02/19	12:38 a	-39.4	-39.4	-39.5	39.1	ESE	0.65	40.9	-64.9	730.6	0.040	0.000	12.6	71	1
08/02/19	12:39 a	-39.4	-39.4	-39.5	37.4	ESE	0.62	40.0	-64.5	730.5	0.040	0.000	12.6	52	1
08/02/19	12:40 a	-39.5	-39.4	-39.5	39.1	ESE	0.65	41.7	-64.9	730.5	0.040	0.000	12.6	69	1
08/02/19	12:41 a	-39.5	-39.5	-39.6	38.3	ESE	0.64	41.7	-64.8	730.5	0.040	0.000	12.6	69	1
08/02/19	12:42 a	-39.6	-39.6	-39.7	40.0	ESE	0.67	42.6	-65.2	730.4	0.040	0.000	12.5	69	1
08/02/19	12:43 a	-39.7	-39.6	-39.7	40.9	ESE	0.68	44.3	-65.6	730.4	0.040	0.000	12.5	65	1
08/02/19	12:44 a	-39.7	-39.6	-39.8	40.9	ESE	0.68	45.2	-65.7	730.5	0.040	0.000	12.5	63	1
08/02/19	12:45 a	-39.7	-39.7	-39.8	40.0	ESE	0.67	42.6	-65.4	730.4	0.040	0.000	12.5	39	1
08/02/19	12:46 a	-39.7	-39.7	-39.8	40.9	ESE	0.68	43.5	-65.7	730.5	0.040	0.000	12.5	15	1
08/02/19	12:47 a	-39.8	-39.7	-39.8	39.1	ESE	0.65	42.6	-65.3	730.4	0.040	0.000	12.4	11	1
08/02/19	12:48 a	-39.8	-39.8	-39.8	40.0	ESE	0.67	43.5	-65.6	730.5	0.040	0.000	12.4	65	1
08/02/19	12:49 a	-39.8	-39.8	-39.8	40.9	ESE	0.68	43.5	-65.8	730.4	0.040	0.000	12.4	73	1
08/02/19	12:50 a	-39.9	-39.8	-39.9	40.0	ESE	0.67	44.3	-65.7	730.4	0.040	0.000	12.4	71	1
08/02/19	12:51 a	-39.9	-39.9	-39.9	40.9	ESE	0.68	43.5	-65.9	730.3	0.040	0.000	12.4	79	1
08/02/19	12:52 a	-39.9	-39.9	-39.9	41.7	ESE	0.70	45.2	-66.2	730.3	0.040	0.000	12.4	85	1
08/02/19	12:53 a	-39.9	-39.9	-40.0	42.6	ESE	0.71	46.1	-66.3	730.4	0.040	0.000	12.4	86	1
08/02/19	12:54 a	-40.0	-39.9	-40.1	43.5	ESE	0.72	46.1	-66.6	730.3	0.041	0.000	12.3	86	1
08/02/19	12:55 a	-40.1	-40.0	-40.1	42.6	ESE	0.71	46.1	-66.5	730.3	0.041	0.000	12.3	87	1
08/02/19	12:56 a	-40.0	-39.9	-40.1	43.5	ESE	0.72	47.0	-66.6	730.5	0.041	0.000	12.3	75	1
08/02/19	12:57 a	-40.0	-39.9	-40.1	41.7	ESE	0.70	44.3	-66.2	730.6	0.041	0.000	12.3	72	1
08/02/19	12:58 a	-40.0	-40.0	-40.1	40.9	ESE	0.68	44.3	-66.1	730.5	0.041	0.000	12.3	85	1
08/02/19	12:59 a	-40.1	-40.1	-40.1	41.7	ESE	0.70	45.2	-66.3	730.4	0.041	0.000	12.3	65	1
08/02/19	1:00 a	-40.1	-40.1	-40.2	42.6	ESE	0.71	47.0	-66.6	730.3	0.041	0.000	12.3	75	1
08/02/19	1:01 a	-40.1	-40.0	-40.1	41.7	ESE	0.70	44.3	-66.3	730.4	0.041	0.000	12.2	79	1
08/02/19	1:02 a	-40.0	-39.9	-40.1	41.7	ESE	0.70	44.3	-66.2	730.4	0.041	0.000	12.2	84	1
08/02/19	1:03 a	-40.1	-40.0	-40.1	41.7	ESE	0.70	43.5	-66.3	730.4	0.041	0.000	12.2	86	1
08/02/19	1:04 a	-40.1	-40.1	-40.2	42.6	ESE	0.71	45.2	-66.6	730.4	0.041	0.000	12.2	86	1
08/02/19	1:05 a	-40.1	-40.0	-40.2	43.5	ESE	0.72	44.3	-66.7	730.4	0.041	0.000	12.2	87	1
08/02/19	1:06 a	-40.1	-40.1	-40.2	41.7	ESE	0.70	45.2	-66.4	730.5	0.041	0.000	12.2	86	1
08/02/19	1:07 a	-40.1	-40.1	-40.2	42.6	ESE	0.71	44.3	-66.6	730.5	0.041	0.000	12.2	85	1
08/02/19	1:08 a	-40.1	-40.1	-40.2	40.9	ESE	0.68	42.6	-66.2	730.5	0.041	0.000	12.2	79	1
08/02/19	1:09 a	-40.2	-40.2	-40.2	40.9	ESE	0.68	44.3	-66.3	730.7	0.041	0.000	12.1	84	1
08/02/19	1:10 a	-40.2	-40.1	-40.2	40.9	ESE	0.68	45.2	-66.3	730.5	0.041	0.000	12.1	87	1
08/02/19	1:11 a	-40.2	-40.1	-40.3	40.9	ESE	0.68	43.5	-66.3	730.6	0.041	0.000	12.1	86	1
08/02/19	1:12 a	-40.2	-40.1	-40.2	39.1	ESE	0.65	42.6	-65.9	730.6	0.041	0.000	12.1	86	1
08/02/19	1:13 a	-40.2	-40.2	-40.3	40.9	ESE	0.68	44.3	-66.3	730.4	0.041	0.000	12.1	87	1
08/02/19	1:14 a	-40.3	-40.2	-40.3	40.9	ESE	0.68	43.5	-66.4	730.6	0.041	0.000	12.1	86	1
08/02/19	1:15 a	-40.3	-40.3	-40.3	40.9	ESE	0.68	43.5	-66.5	730.5	0.041	0.000	12.0	85	1
08/02/19	1:16 a	-40.3	-40.3	-40.3	40.9	ESE	0.68	43.5	-66.4	730.5	0.041	0.000	12.0	79	1
08/02/19	1:17 a	-40.3	-40.2	-40.3	40.9	ESE	0.68	43.5	-66.4	730.5	0.041	0.000	12.0	65	1
08/02/19	1:18 a	-40.3	-40.3	-40.3	41.7	ESE	0.70	44.3	-66.7	730.5	0.041	0.000	12.0	58	1
08/02/19	1:19 a	-40.3	-40.3	-40.3	41.7	ESE	0.70	45.2	-66.7	730.5	0.041	0.000	11.9	43	1
08/02/19	1:20 a	-40.4	-40.3	-40.4	40.9	ESE	0.68	43.5	-66.6	730.5	0.041	0.000	11.9	24	1
08/02/19	1:21 a	-40.4	-40.4	-40.4	41.7	ESE	0.70	43.5	-66.8	730.4	0.041	0.000	11.9	38	1
08/02/19	1:22 a	-40.4	-40.4	-40.5	42.6	ESE	0.71	45.2	-67.1	730.3	0.041	0.000	11.9	41	1
08/02/19	1:23 a	-40.4	-40.4	-40.4	43.5	ESE	0.72	47.0	-67.2	730.3	0.041	0.000	11.9	48	1
08/02/19	1:24 a	-40.4	-40.4	-40.5	42.6	ESE	0.71	44.3	-67.1	730.4	0.041	0.000	11.9	41	1
08/02/19	1:25 a	-40.5	-40.4	-40.6	40.9	ESE	0.68	42.6	-66.7	730.5	0.041	0.000	11.8	34	1
08/02/19	1:26 a	-40.5	-40.5	-40.6	41.7	ESE	0.70	44.3	-66.9	730.4	0.041	0.000	11.8	24	1
08/02/19	1:27 a	-40.6	-40.5	-40.6	41.7	ESE	0.70	45.2	-67.0	730.4	0.041	0.000	11.8	19	1
08/02/19	1:28 a	-40.6	-40.6	-40.6	43.5	ESE	0.72	46.1	-67.4	730.4	0.041	0.000	11.8	13	1
08/02/19	1:29 a	-40.6	-40.5	-40.6	43.5	ESE	0.72	45.2	-67.4	730.4	0.041	0.000	11.8	12	1
08/02/19	1:30 a	-40.6	-40.6	-40.7	40.9	ESE	0.68	44.3	-66.9	730.5	0.041	0.000	11.8	11	1
08/02/19	1:31 a	-40.6	-40.6	-40.7	41.7	ESE	0.70	43.5	-67.1	730.5	0.041	0.000	11.8	12	1
08/02/19	1:32 a	-40.7	-40.6	-40.8	40.9	ESE	0.68	43.5	-67.0	730.4	0.041	0.000	11.7	14	1
08/02/19	1:33 a	-40.7	-40.6	-40.8	41.7	ESE	0.70	43.5	-67.2	730.3	0.041	0.000	11.7	13	1
08/02/19	1:34 a	-40.8	-40.7	-40.8	42.6	ESE	0.71	45.2	-67.5	730.3	0.041	0.000	11.7	12	1
08/02/19	1:35 a	-40.8	-40.7	-40.8	42.6	ESE	0.71	46.1	-67.5	730.4	0.041	0.000	11.7	15	1
08/02/19	1:36 a	-40.8	-40.8	-40.8	40.9	ESE	0.68	44.3	-67.2	730.5	0.041	0.000	11.7	14	1
08/02/19	1:37 a	-40.8	-40.8	-40.8	40.9	ESE	0.68	42.6	-67.2	730.5	0.041	0.000	11.7	14	1
08/02/19	1:38 a	-40.8	-40.8	-40.9	40.9	ESE	0.68	44.3	-67.2	730.5	0.041	0.000	11.7	13	1
08/02/19	1:39 a	-40.9	-40.9	-40.9	42.6	ESE	0.71	45.2	-67.7	730.4	0.041	0.000	11.6	14	1
08/02/19	1:40 a	-40.9	-40.8	-40.9	40.9	ESE	0.68	45.2	-67.3	730.5	0.041	0.000	11.6	12	1
08/02/19	1:41 a	-40.9	-40.8	-40.9	41.7	ESE	0.70	44.3	-67.5	730.4	0.041	0.000	11.6	11	1
08/02/19	1:42 a	-41.0	-40.9	-41.0	42.6	ESE	0.71	44.3	-67.8	730.2	0.041	0.000	11.6	11	1
08/02/19	1:43 a	-40.9	-40.9	-41.0	44.3	ESE	0.74	46.1	-68.0	730.1	0.041	0.000	11.6	11	1
08/02/19	1:44 a	-41.0	-40.9	-41.1	44.3	ESE	0.74	46.1	-68.2	730.2	0.041	0.000	11.5	10	1
08/02/19	1:45 a	-40.9	-40.9	-41.0	42.6	ESE	0.71	44.3	-67.7	730.3	0.041	0.000	11.5	12	1
08/02/19	1:46 a	-41.0	-40.8	-41.1	42.6	ESE	0.71	47.0	-67.8	730.5	0.041	0.000	11.5	25	1
08/02/19	1:47 a	-41.1	-41.1	-41.1	41.7	ESE	0.70	43.5	-67.7	730.4	0.041	0.000	11.4	42	1
08/02/19	1:48 a	-41.0	-41.0	-41.1	43.5	ESE	0.72	46.1	-68.0	730.2	0.041	0.000	11.4	49	1
08/02/19	1:49 a	-41.1	-41.1	-41.2	44.3	ESE	0.74	47.0	-68.3	730.2	0.041	0.000	11.4	41	1
08/02/19	1:50 a	-41.1	-41.0	-41.1	44.3	ESE	0.74	47.0	-68.3	730.3	0.041	0.000	11.4	20	1
08/02/19	1:51 a	-41.1	-41.0	-41.1	42.6	ESE	0.71	45.2	-67.9	730.4	0.041	0.000	11.4	9	1
08/02/19	1:52 a	-41.1	-41.0	-41.2	41.7	ESE	0.70	45.2	-67.8	730.3	0.041	0.000	11.4	9	1
08/02/19	1:53 a	-41.1	-41.0	-41.1	43.5	ESE	0.72	47.8	-68.1	730.1	0.041	0.000	11.4	16	1
08/02/19	1:54 a	-41.1	-41.1	-41.1	47.0	ESE	0.78	49.6	-68.8	730.1	0.041	0.000	11.3	13	1
08/02/19	1:55 a	-41.1	-41.0	-41.1	45.2	ESE	0.75	47.0	-68.4	730.3	0.041	0.000	11.3	10	1
08/02/19	1:56 a	-41.1	-41.0	-41.1	42.6	ESE	0.71	47.0	-67.9	730.4	0.041	0.000	11.3	25	1
08/02/19	1:57 a	-41.1	-41.0	-41.1	42.6	ESE	0.71	43.5	-67.9	730.3	0.041	0.000	11.3	33	1
08/02/19	1:58 a	-41.1	-41.1	-41.1	45.2	ESE	0.75	49.6	-68.5	730.0	0.041	0.000	11.3	33	1
08/02/19	1:59 a	-41.1	-41.0	-41.1	46.1	ESE	0.77	50.4	-68.6	730.1	0.041	0.000	11.2	26	1
08/02/19	2:00 a	-41.0	-40.9	-41.1	44.3	ESE	0.74	46.1	-68.2	730.2	0.041	0.000	11.2	28	1
08/02/19	2:01 a	-41.0	-40.9	-41.1	44.3	ESE	0.74	47.8	-68.2	730.2	0.041	0.000	11.2	29	1
08/02/19	2:02 a	-41.0	-40.9	-41.1	44.3	ESE	0.74	48.7	-68.2	730.1	0.041	0.000	11.2	27	1
08/02/19	2:03 a	-41.0	-41.0	-41.1	46.1	ESE	0.77	47.0	-68.5	730.0	0.041	0.000	11.2	25	1
08/02/19	2:04 a	-40.9	-40.9	-41.0	45.2	ESE	0.75	47.8	-68.3	730.2	0.041	0.000	11.2	17	1
08/02/19	2:05 a	-40.9	-40.9	-41.1	45.2	ESE	0.75	47.0	-68.3	730.0	0.041	0.000	11.1	13	1
08/02/19	2:06 a	-41.0	-40.9	-41.0	46.1	ESE	0.77	48.7	-68.5	730.1	0.041	0.000	11.1	10	1
08/02/19	2:07 a	-40.9	-40.8	-40.9	45.2	ESE	0.75	47.0	-68.2	730.2	0.041	0.000	11.1	9	1
08/02/19	2:08 a	-40.9	-40.8	-41.0	43.5	ESE	0.72	45.2	-67.9	730.3	0.041	0.000	11.1	7	1
08/02/19	2:09 a	-40.9	-40.8	-40.9	42.6	ESE	0.71	46.1	-67.7	730.1	0.041	0.000	11.1	7	1
08/02/19	2:10 a	-40.9	-40.8	-40.9	47.0	ESE	0.78	51.3	-68.6	729.9	0.041	0.000	11.1	7	1
08/02/19	2:11 a	-40.9	-40.8	-41.0	45.2	ESE	0.75	50.4	-68.2	730.2	0.041	0.000	11.0	6	1
08/02/19	2:12 a	-40.8	-40.8	-40.9	43.5	ESE	0.72	46.1	-67.8	730.3	0.041	0.000	11.0	6	1
08/02/19	2:13 a	-40.8	-40.8	-40.9	43.5	ESE	0.72	46.1	-67.8	730.3	0.041	0.000	11.0	6	1
08/02/19	2:14 a	-40.9	-40.9	-40.9	42.6	ESE	0.71	45.2	-67.7	730.4	0.041	0.000	10.9	6	1
08/02/19	2:15 a	-40.8	-40.8	-40.9	43.5	ESE	0.72	46.1	-67.8	730.2	0.041	0.000	10.9	6	1
08/02/19	2:16 a	-40.9	-40.8	-40.9	44.3	ESE	0.74	47.0	-68.0	730.3	0.041	0.000	10.9	6	1
08/02/19	2:17 a	-40.8	-40.8	-40.9	45.2	ESE	0.75	47.8	-68.1	730.1	0.041	0.000	10.9	6	1
08/02/19	2:18 a	-40.8	-40.8	-40.9	45.2	ESE	0.75	49.6	-68.1	730.5	0.041	0.000	10.9	6	1
08/02/19	2:19 a	-40.8	-40.8	-40.8	43.5	ESE	0.72	46.1	-67.8	730.4	0.041	0.000	10.9	6	1
08/02/19	2:20 a	-40.9	-40.8	-41.0	43.5	ESE	0.72	45.2	-67.8	730.4	0.041	0.000	10.8	6	1
08/02/19	2:21 a	-40.9	-40.9	-40.9	43.5	ESE	0.72	47.0	-67.8	730.4	0.041	0.000	10.8	6	1
08/02/19	2:22 a	-40.9	-40.8	-40.9	43.5	ESE	0.72	47.0	-67.8	730.4	0.041	0.000	10.8	6	1
08/02/19	2:23 a	-40.8	-40.8	-40.8	42.6	ESE	0.71	45.2	-67.6	730.5	0.041	0.000	10.8	6	1
08/02/19	2:24 a	-40.8	-40.8	-40.9	44.3	ESE	0.74	47.8	-67.9	730.4	0.041	0.000	10.8	6	1
08/02/19	2:25 a	-40.8	-40.8	-40.8	44.3	ESE	0.74	47.8	-67.9	730.4	0.041	0.000	10.7	6	1
08/02/19	2:26 a	-40.8	-40.8	-40.9	42.6	ESE	0.71	46.1	-67.6	730.6	0.041	0.000	10.7	6	1
08/02/19	2:27 a	-40.8	-40.8	-40.9	43.5	ESE	0.72	46.1	-67.8	730.5	0.041	0.000	10.7	6	1
08/02/19	2:28 a	-40.8	-40.8	-40.9	44.3	ESE	0.74	47.8	-67.9	730.5	0.041	0.000	10.7	6	1
08/02/19	2:29 a	-40.8	-40.8	-40.9	43.5	ESE	0.72	46.1	-67.8	730.4	0.041	0.000	10.7	6	1
08/02/19	2:30 a	-40.8	-40.8	-40.9	43.5	ESE	0.72	45.2	-67.8	730.5	0.041	0.000	10.7	6	1
08/02/19	2:31 a	-40.8	-40.8	-40.9	41.7	ESE	0.70	44.3	-67.4	730.6	0.041	0.000	10.6	6	1
08/02/19	2:32 a	-40.8	-40.8	-40.8	42.6	ESE	0.71	45.2	-67.5	730.6	0.041	0.000	10.6	6	1
08/02/19	2:33 a	-40.8	-40.8	-40.8	43.5	ESE	0.72	46.1	-67.7	730.6	0.041	0.000	10.6	6	1
08/02/19	2:34 a	-40.8	-40.7	-40.8	43.5	ESE	0.72	46.1	-67.7	730.6	0.041	0.000	10.6	6	1
08/02/19	2:35 a	-40.8	-40.7	-40.8	43.5	ESE	0.72	46.1	-67.7	730.4	0.041	0.000	10.6	6	1
08/02/19	2:36 a	-40.7	-40.7	-40.8	43.5	E	0.72	47.0	-67.6	730.5	0.041	0.000	10.5	6	1
08/02/19	2:37 a	-40.8	-40.7	-40.8	43.5	ESE	0.72	47.0	-67.7	730.7	0.041	0.000	10.5	6	1
08/02/19	2:38 a	-40.7	-40.6	-40.8	43.5	ESE	0.72	47.0	-67.6	730.7	0.041	0.000	10.5	6	1
08/02/19	2:39 a	-40.7	-40.6	-40.8	43.5	ESE	0.72	49.6	-67.6	730.6	0.041	0.000	10.5	6	1
08/02/19	2:40 a	-40.6	-40.5	-40.7	42.6	ESE	0.71	45.2	-67.3	730.6	0.041	0.000	10.4	6	1
08/02/19	2:41 a	-40.7	-40.6	-40.7	42.6	ESE	0.71	45.2	-67.3	730.6	0.041	0.000	10.4	6	1
08/02/19	2:42 a	-40.7	-40.6	-40.7	43.5	ESE	0.72	47.0	-67.6	730.6	0.041	0.000	10.4	6	1
08/02/19	2:43 a	-40.7	-40.6	-40.7	42.6	ESE	0.71	45.2	-67.3	730.8	0.041	0.000	10.4	5	1
08/02/19	2:44 a	-40.6	-40.5	-40.6	40.9	ESE	0.68	43.5	-66.8	730.8	0.041	0.000	10.4	4	1
08/02/19	2:45 a	-40.6	-40.5	-40.6	40.0	ESE	0.67	42.6	-66.6	730.8	0.041	0.000	10.3	3	1
08/02/19	2:46 a	-40.5	-40.5	-40.5	40.9	ESE	0.68	44.3	-66.7	730.7	0.041	0.000	10.3	3	1
08/02/19	2:47 a	-40.5	-40.4	-40.6	41.7	ESE	0.70	46.1	-66.9	731.0	0.041	0.000	10.3	3	1
08/02/19	2:48 a	-40.4	-40.4	-40.5	39.1	ESE	0.65	41.7	-66.3	731.0	0.041	0.000	10.3	3	1
08/02/19	2:49 a	-40.4	-40.3	-40.4	40.0	ESE	0.67	42.6	-66.4	731.0	0.041	0.000	10.3	3	1
08/02/19	2:50 a	-40.4	-40.3	-40.5	41.7	ESE	0.70	45.2	-66.8	730.9	0.041	0.000	10.3	3	1
08/02/19	2:51 a	-40.3	-40.3	-40.3	41.7	ESE	0.70	44.3	-66.7	731.0	0.041	0.000	10.2	3	1
08/02/19	2:52 a	-40.3	-40.3	-40.3	40.0	ESE	0.67	42.6	-66.3	731.0	0.041	0.000	10.2	3	1
08/02/19	2:53 a	-40.3	-40.3	-40.3	40.0	ESE	0.67	43.5	-66.3	731.1	0.041	0.000	10.2	3	1
08/02/19	2:54 a	-40.3	-40.3	-40.3	40.0	ESE	0.67	43.5	-66.3	730.9	0.041	0.000	10.2	3	1
08/02/19	2:55 a	-40.3	-40.3	-40.3	40.9	ESE	0.68	44.3	-66.5	730.8	0.041	0.000	10.2	3	1
08/02/19	2:56 a	-40.3	-40.3	-40.3	43.5	ESE	0.72	47.0	-67.1	730.9	0.041	0.000	10.2	3	1
08/02/19	2:57 a	-40.3	-40.2	-40.3	40.9	ESE	0.68	45.2	-66.4	731.1	0.041	0.000	10.1	3	1
08/02/19	2:58 a	-40.2	-40.2	-40.3	39.1	ESE	0.65	41.7	-66.0	731.1	0.041	0.000	10.1	3	1
08/02/19	2:59 a	-40.2	-40.2	-40.3	40.9	ESE	0.68	44.3	-66.3	730.8	0.041	0.000	10.1	3	1
08/02/19	3:00 a	-40.3	-40.2	-40.3	43.5	ESE	0.72	46.1	-67.0	731.0	0.041	0.000	10.1	3	1
08/02/19	3:01 a	-40.2	-40.2	-40.3	40.9	ESE	0.68	43.5	-66.3	731.0	0.041	0.000	10.1	3	1
08/02/19	3:02 a	-40.2	-40.2	-40.2	40.9	ESE	0.68	43.5	-66.3	731.0	0.041	0.000	10.1	3	1
08/02/19	3:03 a	-40.2	-40.1	-40.3	41.7	ESE	0.70	45.2	-66.6	731.1	0.041	0.000	10.0	3	1
08/02/19	3:04 a	-40.2	-40.2	-40.2	40.0	ESE	0.67	43.5	-66.1	731.1	0.041	0.000	10.0	3	1
08/02/19	3:05 a	-40.2	-40.1	-40.2	42.6	ESE	0.71	44.3	-66.7	731.0	0.041	0.000	10.0	3	1
08/02/19	3:06 a	-40.1	-40.1	-40.2	41.7	ESE	0.70	48.7	-66.4	731.1	0.041	0.000	9.9	3	1
08/02/19	3:07 a	-40.1	-40.1	-40.2	41.7	ESE	0.70	44.3	-66.4	731.1	0.041	0.000	9.9	3	1
08/02/19	3:08 a	-40.1	-40.1	-40.2	40.9	ESE	0.68	43.5	-66.2	731.1	0.041	0.000	9.9	3	1
08/02/19	3:09 a	-40.1	-40.1	-40.2	40.9	ESE	0.68	43.5	-66.2	731.2	0.041	0.000	9.9	3	1
08/02/19	3:10 a	-40.1	-40.0	-40.2	40.9	ESE	0.68	42.6	-66.1	731.2	0.041	0.000	9.9	3	1
08/02/19	3:11 a	-40.1	-40.1	-40.2	40.0	ESE	0.67	42.6	-66.0	731.2	0.041	0.000	9.9	3	1
08/02/19	3:12 a	-40.1	-40.0	-40.1	40.0	ESE	0.67	42.6	-65.9	731.1	0.041	0.000	9.9	3	1
08/02/19	3:13 a	-40.1	-40.0	-40.1	40.9	ESE	0.68	42.6	-66.1	731.2	0.041	0.000	9.8	3	1
08/02/19	3:14 a	-40.1	-40.1	-40.2	40.9	ESE	0.68	42.6	-66.2	731.3	0.041	0.000	9.8	3	1
08/02/19	3:15 a	-40.1	-40.0	-40.1	40.0	ESE	0.67	41.7	-66.0	731.2	0.041	0.000	9.8	3	1
08/02/19	3:16 a	-40.1	-40.0	-40.1	40.0	ESE	0.67	42.6	-65.9	731.3	0.041	0.000	9.8	3	1
08/02/19	3:17 a	-40.0	-40.0	-40.1	38.3	ESE	0.64	40.9	-65.4	731.4	0.041	0.000	9.8	3	1
08/02/19	3:18 a	-40.1	-40.0	-40.1	39.1	ESE	0.65	42.6	-65.7	731.2	0.041	0.000	9.8	3	1
08/02/19	3:19 a	-40.1	-40.1	-40.1	40.0	ESE	0.67	42.6	-65.9	731.2	0.041	0.000	9.7	3	1
08/02/19	3:20 a	-40.1	-40.0	-40.1	39.1	ESE	0.65	41.7	-65.7	731.4	0.041	0.000	9.7	3	1
08/02/19	3:21 a	-40.0	-40.0	-40.1	39.1	ESE	0.65	40.9	-65.7	731.3	0.041	0.000	9.7	3	1
08/02/19	3:22 a	-40.1	-40.0	-40.1	39.1	ESE	0.65	41.7	-65.7	731.3	0.041	0.000	9.7	3	1
08/02/19	3:23 a	-40.1	-40.0	-40.2	40.9	ESE	0.68	43.5	-66.1	731.3	0.041	0.000	9.7	3	1
08/02/19	3:24 a	-40.1	-40.0	-40.1	38.3	ESE	0.64	40.9	-65.6	731.5	0.041	0.000	9.7	3	1
08/02/19	3:25 a	-40.0	-39.9	-40.1	37.4	ESE	0.62	39.1	-65.3	731.4	0.041	0.000	9.6	2	1
08/02/19	3:26 a	-40.1	-40.0	-40.1	38.3	ESE	0.64	40.9	-65.6	731.4	0.041	0.000	9.6	2	1
08/02/19	3:27 a	-40.1	-40.1	-40.1	38.3	ESE	0.64	40.9	-65.6	731.4	0.041	0.000	9.6	3	1
08/02/19	3:28 a	-40.1	-40.0	-40.1	39.1	ESE	0.65	41.7	-65.7	731.4	0.041	0.000	9.6	3	1
08/02/19	3:29 a	-40.1	-40.0	-40.1	40.0	ESE	0.67	40.9	-65.9	731.4	0.041	0.000	9.6	3	1
08/02/19	3:30 a	-40.0	-39.9	-40.1	40.0	ESE	0.67	42.6	-65.8	731.3	0.041	0.000	9.6	3	1
08/02/19	3:31 a	-40.1	-40.0	-40.1	38.3	ESE	0.64	40.9	-65.6	731.3	0.041	0.000	9.5	3	1
08/02/19	3:32 a	-40.0	-39.9	-40.1	40.0	ESE	0.67	42.6	-65.8	731.3	0.041	0.000	9.5	3	1
08/02/19	3:33 a	-40.0	-39.9	-40.0	39.1	ESE	0.65	40.9	-65.7	731.4	0.041	0.000	9.5	3	1
08/02/19	3:34 a	-40.0	-39.9	-40.1	39.1	ESE	0.65	40.9	-65.7	731.3	0.041	0.000	9.4	3	1
08/02/19	3:35 a	-39.9	-39.9	-40.0	40.0	ESE	0.67	41.7	-65.8	731.3	0.040	0.000	9.4	3	1
08/02/19	3:36 a	-40.0	-39.9	-40.0	39.1	ESE	0.65	41.7	-65.7	731.5	0.041	0.000	9.4	3	1
08/02/19	3:37 a	-40.0	-39.9	-40.1	38.3	ESE	0.64	40.0	-65.4	731.4	0.041	0.000	9.4	3	1
08/02/19	3:38 a	-39.9	-39.9	-40.1	38.3	ESE	0.64	40.9	-65.4	731.4	0.040	0.000	9.4	2	1
08/02/19	3:39 a	-39.9	-39.9	-39.9	39.1	ESE	0.65	41.7	-65.6	731.2	0.040	0.000	9.4	2	1
08/02/19	3:40 a	-39.9	-39.9	-39.9	40.0	ESE	0.67	42.6	-65.8	731.3	0.040	0.000	9.4	1	1
08/02/19	3:41 a	-39.9	-39.9	-40.0	39.1	ESE	0.65	40.0	-65.6	731.4	0.040	0.000	9.3	3	1
08/02/19	3:42 a	-39.9	-39.8	-40.0	39.1	ESE	0.65	40.9	-65.6	731.3	0.040	0.000	9.3	3	1
08/02/19	3:43 a	-39.9	-39.8	-39.9	39.1	ESE	0.65	40.9	-65.5	731.3	0.040	0.000	9.3	3	1
08/02/19	3:44 a	-39.9	-39.9	-39.9	39.1	ESE	0.65	40.9	-65.6	731.4	0.040	0.000	9.3	3	1
08/02/19	3:45 a	-39.9	-39.8	-39.9	38.3	ESE	0.64	40.9	-65.3	731.4	0.040	0.000	9.3	3	1
08/02/19	3:46 a	-39.9	-39.8	-39.9	38.3	ESE	0.64	41.7	-65.3	731.4	0.040	0.000	9.3	3	1
08/02/19	3:47 a	-39.9	-39.9	-39.9	40.0	ESE	0.67	42.6	-65.7	731.3	0.040	0.000	9.2	3	1
08/02/19	3:48 a	-39.9	-39.8	-39.9	39.1	ESE	0.65	40.0	-65.5	731.5	0.040	0.000	9.2	3	1
08/02/19	3:49 a	-39.9	-39.8	-39.9	38.3	ESE	0.64	40.9	-65.3	731.4	0.040	0.000	9.2	3	1
08/02/19	3:50 a	-39.9	-39.8	-39.9	39.1	ESE	0.65	40.9	-65.5	731.4	0.040	0.000	9.2	3	1
08/02/19	3:51 a	-39.9	-39.8	-39.9	39.1	E	0.65	40.0	-65.5	731.3	0.040	0.000	9.2	4	1
08/02/19	3:52 a	-39.9	-39.8	-39.9	38.3	ESE	0.64	40.0	-65.3	731.5	0.040	0.000	9.2	4	1
08/02/19	3:53 a	-39.9	-39.9	-39.9	38.3	ESE	0.64	40.9	-65.3	731.4	0.040	0.000	9.1	6	1
08/02/19	3:54 a	-39.8	-39.8	-39.8	39.1	E	0.65	40.0	-65.4	731.4	0.040	0.000	9.1	7	1
08/02/19	3:55 a	-39.8	-39.8	-39.9	39.1	ESE	0.65	40.0	-65.4	731.4	0.040	0.000	9.1	7	1
08/02/19	3:56 a	-39.8	-39.8	-39.8	38.3	ESE	0.64	40.0	-65.2	731.5	0.040	0.000	9.1	8	1
08/02/19	3:57 a	-39.8	-39.8	-39.9	38.3	ESE	0.64	40.0	-65.2	731.4	0.040	0.000	9.1	7	1
08/02/19	3:58 a	-39.8	-39.8	-39.8	38.3	ESE	0.64	40.0	-65.2	731.4	0.040	0.000	9.1	9	1
08/02/19	3:59 a	-39.8	-39.7	-39.8	38.3	ESE	0.64	40.9	-65.2	731.5	0.040	0.000	9.1	9	1
08/02/19	4:00 a	-39.8	-39.8	-39.8	39.1	ESE	0.65	41.7	-65.4	731.4	0.040	0.000	9.0	14	1
08/02/19	4:01 a	-39.8	-39.8	-39.8	40.9	ESE	0.68	41.7	-65.8	731.4	0.040	0.000	9.0	23	1
08/02/19	4:02 a	-39.8	-39.8	-39.8	39.1	ESE	0.65	40.9	-65.3	731.5	0.040	0.000	9.0	29	1
08/02/19	4:03 a	-39.8	-39.8	-39.8	39.1	ESE	0.65	41.7	-65.3	731.5	0.040	0.000	8.9	33	1
08/02/19	4:04 a	-39.8	-39.8	-39.8	39.1	ESE	0.65	40.9	-65.4	731.5	0.040	0.000	8.9	35	1
08/02/19	4:05 a	-39.8	-39.7	-39.8	39.1	ESE	0.65	41.7	-65.3	731.4	0.040	0.000	8.9	37	1
08/02/19	4:06 a	-39.8	-39.7	-39.8	39.1	ESE	0.65	40.9	-65.3	731.4	0.040	0.000	8.9	37	1
08/02/19	4:07 a	-39.7	-39.7	-39.8	40.0	ESE	0.67	40.9	-65.4	731.5	0.040	0.000	8.9	37	1
08/02/19	4:08 a	-39.8	-39.7	-39.8	39.1	ESE	0.65	41.7	-65.3	731.4	0.040	0.000	8.9	39	1
08/02/19	4:09 a	-39.8	-39.8	-39.8	40.0	ESE	0.67	41.7	-65.6	731.4	0.040	0.000	8.9	39	1
08/02/19	4:10 a	-39.7	-39.7	-39.8	38.3	ESE	0.64	40.9	-65.1	731.4	0.040	0.000	8.9	41	1
08/02/19	4:11 a	-39.7	-39.6	-39.8	39.1	ESE	0.65	40.9	-65.3	731.5	0.040	0.000	8.8	41	1
08/02/19	4:12 a	-39.7	-39.7	-39.7	38.3	ESE	0.64	40.9	-65.0	731.5	0.040	0.000	8.8	41	1
08/02/19	4:13 a	-39.7	-39.6	-39.7	38.3	ESE	0.64	40.9	-65.0	731.5	0.040	0.000	8.8	41	1
08/02/19	4:14 a	-39.7	-39.6	-39.7	37.4	ESE	0.62	40.9	-64.8	731.6	0.040	0.000	8.8	41	1
08/02/19	4:15 a	-39.6	-39.6	-39.7	37.4	ESE	0.62	40.0	-64.7	731.6	0.040	0.000	8.8	41	1
08/02/19	4:16 a	-39.7	-39.6	-39.7	37.4	ESE	0.62	40.0	-64.8	731.6	0.040	0.000	8.7	41	1
08/02/19	4:17 a	-39.6	-39.5	-39.6	37.4	ESE	0.62	40.0	-64.7	731.6	0.040	0.000	8.7	41	1
08/02/19	4:18 a	-39.6	-39.5	-39.6	36.5	ESE	0.61	38.3	-64.5	731.7	0.040	0.000	8.7	41	1
08/02/19	4:19 a	-39.6	-39.5	-39.6	35.7	ESE	0.59	37.4	-64.2	731.7	0.040	0.000	8.7	41	1
08/02/19	4:20 a	-39.5	-39.4	-39.6	35.7	ESE	0.59	38.3	-64.2	731.8	0.040	0.000	8.7	41	1
08/02/19	4:21 a	-39.6	-39.5	-39.6	35.7	ESE	0.59	38.3	-64.2	731.8	0.040	0.000	8.7	41	1
08/02/19	4:22 a	-39.6	-39.5	-39.7	35.7	ESE	0.59	37.4	-64.2	731.8	0.040	0.000	8.7	41	1
08/02/19	4:23 a	-39.5	-39.4	-39.5	36.5	ESE	0.61	39.1	-64.4	731.8	0.040	0.000	8.6	41	1
08/02/19	4:24 a	-39.5	-39.4	-39.5	35.7	E	0.59	37.4	-64.2	731.9	0.040	0.000	8.6	41	1
08/02/19	4:25 a	-39.4	-39.4	-39.6	35.7	E	0.59	37.4	-64.1	731.9	0.040	0.000	8.6	41	1
08/02/19	4:26 a	-39.5	-39.4	-39.5	34.8	E	0.58	38.3	-63.9	732.0	0.040	0.000	8.6	41	1
08/02/19	4:27 a	-39.4	-39.4	-39.5	34.8	E	0.58	36.5	-63.9	732.0	0.040	0.000	8.6	45	1
08/02/19	4:28 a	-39.4	-39.4	-39.5	34.8	E	0.58	37.4	-63.9	731.9	0.040	0.000	8.6	60	1
08/02/19	4:29 a	-39.4	-39.4	-39.4	35.7	E	0.59	37.4	-64.1	731.9	0.040	0.000	8.6	51	1
08/02/19	4:30 a	-39.4	-39.4	-39.4	34.8	E	0.58	36.5	-63.9	732.0	0.040	0.000	8.6	48	1
08/02/19	4:31 a	-39.4	-39.4	-39.5	34.8	E	0.58	37.4	-63.9	732.1	0.040	0.000	8.5	49	1
08/02/19	4:32 a	-39.4	-39.4	-39.5	35.7	E	0.59	37.4	-64.1	732.0	0.040	0.000	8.5	50	1
08/02/19	4:33 a	-39.4	-39.4	-39.5	33.9	E	0.57	37.4	-63.7	732.0	0.040	0.000	8.5	53	1
08/02/19	4:34 a	-39.4	-39.4	-39.5	33.9	E	0.57	35.7	-63.7	732.1	0.040	0.000	8.4	52	1
08/02/19	4:35 a	-39.4	-39.4	-39.5	33.9	E	0.57	37.4	-63.7	732.0	0.040	0.000	8.4	60	1
08/02/19	4:36 a	-39.5	-39.4	-39.5	34.8	E	0.58	36.5	-63.9	732.0	0.040	0.000	8.4	77	1
08/02/19	4:37 a	-39.5	-39.4	-39.5	35.7	E	0.59	37.4	-64.2	731.9	0.040	0.000	8.4	79	1
08/02/19	4:38 a	-39.5	-39.4	-39.6	35.7	E	0.59	36.5	-64.2	732.0	0.040	0.000	8.4	77	1
08/02/19	4:39 a	-39.5	-39.4	-39.6	34.8	E	0.58	36.5	-63.9	732.0	0.040	0.000	8.4	71	1
08/02/19	4:40 a	-39.5	-39.4	-39.6	34.8	E	0.58	36.5	-63.9	732.0	0.040	0.000	8.4	73	1
08/02/19	4:41 a	-39.5	-39.4	-39.6	34.8	E	0.58	36.5	-63.9	732.0	0.040	0.000	8.4	70	1
08/02/19	4:42 a	-39.5	-39.4	-39.6	32.2	E	0.54	33.9	-63.3	732.2	0.040	0.000	8.3	68	1
08/02/19	4:43 a	-39.5	-39.4	-39.6	33.9	E	0.57	35.7	-63.7	732.2	0.040	0.000	8.3	68	1
08/02/19	4:44 a	-39.5	-39.4	-39.5	33.0	E	0.55	34.8	-63.6	732.2	0.040	0.000	8.3	62	1
08/02/19	4:45 a	-39.4	-39.4	-39.5	32.2	E	0.54	34.8	-63.2	732.2	0.040	0.000	8.3	73	1
08/02/19	4:46 a	-39.4	-39.4	-39.5	33.0	E	0.55	34.8	-63.4	732.2	0.040	0.000	8.3	71	1
08/02/19	4:47 a	-39.4	-39.4	-39.5	32.2	E	0.54	34.8	-63.2	732.3	0.040	0.000	8.3	71	1
08/02/19	4:48 a	-39.4	-39.4	-39.4	33.0	E	0.55	34.8	-63.4	732.2	0.040	0.000	8.3	77	1
08/02/19	4:49 a	-39.4	-39.4	-39.5	31.3	E	0.52	33.0	-63.0	732.2	0.040	0.000	8.3	79	1
08/02/19	4:50 a	-39.4	-39.4	-39.4	32.2	E	0.54	34.8	-63.2	732.2	0.040	0.000	8.2	81	1
08/02/19	4:51 a	-39.4	-39.4	-39.5	33.0	E	0.55	34.8	-63.4	732.3	0.040	0.000	8.2	85	1
08/02/19	4:52 a	-39.4	-39.4	-39.4	32.2	E	0.54	33.9	-63.2	732.3	0.040	0.000	8.2	82	1
08/02/19	4:53 a	-39.4	-39.4	-39.5	31.3	E	0.52	33.0	-63.0	732.3	0.040	0.000	8.2	76	1
08/02/19	4:54 a	-39.4	-39.4	-39.4	32.2	E	0.54	34.8	-63.2	732.2	0.040	0.000	8.2	85	1
08/02/19	4:55 a	-39.4	-39.3	-39.4	31.3	E	0.52	33.0	-62.9	732.4	0.040	0.000	8.2	85	1
08/02/19	4:56 a	-39.4	-39.3	-39.6	30.4	E	0.51	32.2	-62.8	732.4	0.040	0.000	8.2	82	1
08/02/19	4:57 a	-39.4	-39.4	-39.5	29.6	E	0.49	32.2	-62.6	732.4	0.040	0.000	8.2	84	1
08/02/19	4:58 a	-39.4	-39.4	-39.5	30.4	E	0.51	32.2	-62.8	732.5	0.040	0.000	8.2	84	1
08/02/19	4:59 a	-39.4	-39.4	-39.5	29.6	E	0.49	31.3	-62.6	732.5	0.040	0.000	8.1	84	1
08/02/19	5:00 a	-39.4	-39.4	-39.5	30.4	E	0.51	31.3	-62.8	732.5	0.040	0.000	8.1	86	1
08/02/19	5:01 a	-39.4	-39.3	-39.4	28.7	E	0.48	32.2	-62.2	732.5	0.040	0.000	8.1	86	1
08/02/19	5:02 a	-39.4	-39.4	-39.5	29.6	E	0.49	30.4	-62.6	732.5	0.040	0.000	8.1	87	1
08/02/19	5:03 a	-39.4	-39.4	-39.4	28.7	E	0.48	30.4	-62.3	732.5	0.040	0.000	8.1	88	1
08/02/19	5:04 a	-39.4	-39.4	-39.5	29.6	E	0.49	31.3	-62.6	732.5	0.040	0.000	8.1	88	1
08/02/19	5:05 a	-39.4	-39.4	-39.4	27.8	E	0.46	30.4	-62.1	732.6	0.040	0.000	8.1	89	1
08/02/19	5:06 a	-39.4	-39.4	-39.5	27.0	E	0.45	28.7	-61.8	732.6	0.040	0.000	8.1	88	1
08/02/19	5:07 a	-39.4	-39.4	-39.4	27.0	E	0.45	27.8	-61.8	732.6	0.040	0.000	8.1	88	1
08/02/19	5:08 a	-39.4	-39.4	-39.5	27.8	E	0.46	29.6	-61.9	732.5	0.040	0.000	8.1	89	1
08/02/19	5:09 a	-39.4	-39.4	-39.5	27.8	E	0.46	29.6	-62.1	732.6	0.040	0.000	8.1	87	1
08/02/19	5:10 a	-39.4	-39.3	-39.4	27.8	E	0.46	29.6	-61.9	732.6	0.040	0.000	8.0	89	1
08/02/19	5:11 a	-39.4	-39.3	-39.4	27.8	E	0.46	29.6	-61.9	732.6	0.040	0.000	8.0	87	1
08/02/19	5:12 a	-39.4	-39.3	-39.4	27.0	E	0.45	27.8	-61.7	732.6	0.040	0.000	8.0	88	1
08/02/19	5:13 a	-39.3	-39.3	-39.4	27.0	E	0.45	28.7	-61.6	732.7	0.040	0.000	8.0	89	1
08/02/19	5:14 a	-39.3	-39.3	-39.4	26.1	E	0.43	27.8	-61.4	732.8	0.040	0.000	8.0	90	1
08/02/19	5:15 a	-39.3	-39.3	-39.4	24.3	E	0.41	27.0	-60.8	732.8	0.040	0.000	7.9	82	1
08/02/19	5:16 a	-39.3	-39.3	-39.3	27.0	E	0.45	29.6	-61.6	732.7	0.040	0.000	7.9	72	1
08/02/19	5:17 a	-39.3	-39.3	-39.3	27.0	E	0.45	28.7	-61.6	732.8	0.040	0.000	7.9	88	1
08/02/19	5:18 a	-39.2	-39.2	-39.3	26.1	E	0.43	27.8	-61.2	732.9	0.040	0.000	7.9	70	1
08/02/19	5:19 a	-39.2	-39.2	-39.2	27.0	E	0.45	27.8	-61.5	732.9	0.040	0.000	7.9	64	1
08/02/19	5:20 a	-39.2	-39.2	-39.2	26.1	E	0.43	27.8	-61.2	732.9	0.040	0.000	7.9	88	1
08/02/19	5:21 a	-39.2	-39.2	-39.2	25.2	E	0.42	26.1	-60.9	732.9	0.040	0.000	7.9	87	1
08/02/19	5:22 a	-39.2	-39.2	-39.2	24.3	E	0.41	27.0	-60.6	733.0	0.040	0.000	7.9	87	1
08/02/19	5:23 a	-39.2	-39.1	-39.2	24.3	E	0.41	27.0	-60.6	733.0	0.040	0.000	7.9	89	1
08/02/19	5:24 a	-39.1	-39.1	-39.2	23.5	E	0.39	26.1	-60.2	733.0	0.040	0.000	7.9	87	1
08/02/19	5:25 a	-39.1	-39.1	-39.1	24.3	E	0.41	26.1	-60.5	733.0	0.040	0.000	7.9	84	1
08/02/19	5:26 a	-39.1	-39.1	-39.1	24.3	E	0.41	26.1	-60.5	733.1	0.040	0.000	7.8	87	1
08/02/19	5:27 a	-39.1	-39.1	-39.1	23.5	E	0.39	25.2	-60.2	733.0	0.040	0.000	7.8	84	1
08/02/19	5:28 a	-39.1	-39.0	-39.1	25.2	E	0.42	27.0	-60.7	733.0	0.040	0.000	7.8	82	1
08/02/19	5:29 a	-39.1	-39.0	-39.1	25.2	E	0.42	27.0	-60.7	733.0	0.040	0.000	7.8	86	1
08/02/19	5:30 a	-39.0	-39.0	-39.0	25.2	E	0.42	27.0	-60.7	733.1	0.040	0.000	7.8	84	1
08/02/19	5:31 a	-39.0	-38.9	-39.0	24.3	E	0.41	26.1	-60.4	733.2	0.040	0.000	7.8	85	1
08/02/19	5:32 a	-38.9	-38.9	-38.9	24.3	E	0.41	27.0	-60.3	733.0	0.040	0.000	7.8	88	1
08/02/19	5:33 a	-38.9	-38.9	-38.9	24.3	E	0.41	26.1	-60.2	733.1	0.040	0.000	7.8	88	1
08/02/19	5:34 a	-38.9	-38.8	-38.9	24.3	E	0.41	26.1	-60.2	733.2	0.040	0.000	7.8	86	1
08/02/19	5:35 a	-38.9	-38.8	-38.9	20.0	E	0.33	23.5	-58.7	733.3	0.040	0.000	7.8	88	1
08/02/19	5:36 a	-38.8	-38.8	-38.9	22.6	E	0.38	24.3	-59.6	733.1	0.040	0.000	7.8	88	1
08/02/19	5:37 a	-38.8	-38.8	-38.9	25.2	E	0.42	27.0	-60.4	733.1	0.040	0.000	7.7	88	1
08/02/19	5:38 a	-38.8	-38.8	-38.8	25.2	E	0.42	27.0	-60.4	733.2	0.040	0.000	7.8	88	1
08/02/19	5:39 a	-38.8	-38.8	-38.8	22.6	E	0.38	24.3	-59.6	733.3	0.040	0.000	7.7	88	1
08/02/19	5:40 a	-38.8	-38.8	-38.8	21.7	E	0.36	26.1	-59.2	733.2	0.040	0.000	7.7	89	1
08/02/19	5:41 a	-38.8	-38.8	-38.8	26.1	E	0.43	28.7	-60.6	733.1	0.040	0.000	7.7	89	1
08/02/19	5:42 a	-38.7	-38.7	-38.8	23.5	E	0.39	26.1	-59.7	733.2	0.040	0.000	7.7	89	1
08/02/19	5:43 a	-38.7	-38.7	-38.8	22.6	E	0.38	23.5	-59.4	733.3	0.040	0.000	7.7	89	1
08/02/19	5:44 a	-38.7	-38.6	-38.7	22.6	E	0.38	25.2	-59.4	733.2	0.040	0.000	7.7	88	1
08/02/19	5:45 a	-38.7	-38.6	-38.7	22.6	E	0.38	25.2	-59.3	733.3	0.040	0.000	7.7	88	1
08/02/19	5:46 a	-38.7	-38.6	-38.7	24.3	E	0.41	26.1	-59.9	733.0	0.040	0.000	7.7	88	1
08/02/19	5:47 a	-38.6	-38.6	-38.7	22.6	E	0.38	25.2	-59.3	733.3	0.040	0.000	7.7	89	1
08/02/19	5:48 a	-38.6	-38.6	-38.7	22.6	E	0.38	26.1	-59.3	733.1	0.040	0.000	7.7	89	1
08/02/19	5:49 a	-38.6	-38.6	-38.6	25.2	E	0.42	27.0	-60.1	733.1	0.040	0.000	7.7	88	1
08/02/19	5:50 a	-38.6	-38.5	-38.6	23.5	E	0.39	27.0	-59.5	733.2	0.040	0.000	7.6	89	1
08/02/19	5:51 a	-38.5	-38.5	-38.5	25.2	E	0.42	27.0	-59.9	733.1	0.039	0.000	7.6	89	1
08/02/19	5:52 a	-38.5	-38.4	-38.5	24.3	E	0.41	27.8	-59.7	733.1	0.039	0.000	7.6	89	1
08/02/19	5:53 a	-38.4	-38.4	-38.4	25.2	E	0.42	27.0	-59.9	733.0	0.039	0.000	7.6	89	1
08/02/19	5:54 a	-38.4	-38.4	-38.5	24.3	E	0.41	26.1	-59.6	733.1	0.039	0.000	7.6	89	1
08/02/19	5:55 a	-38.4	-38.4	-38.4	24.3	E	0.41	27.0	-59.6	733.1	0.039	0.000	7.6	89	1
08/02/19	5:56 a	-38.4	-38.3	-38.4	24.3	E	0.41	27.0	-59.6	733.2	0.039	0.000	7.6	88	1
08/02/19	5:57 a	-38.4	-38.3	-38.4	24.3	E	0.41	26.1	-59.6	733.2	0.039	0.000	7.6	88	1
08/02/19	5:58 a	-38.3	-38.3	-38.4	25.2	ESE	0.42	26.1	-59.7	733.0	0.039	0.000	7.6	86	1
08/02/19	5:59 a	-38.3	-38.3	-38.4	25.2	E	0.42	27.8	-59.7	733.2	0.039	0.000	7.6	78	1
08/02/19	6:00 a	-38.3	-38.2	-38.3	23.5	E	0.39	26.1	-59.1	733.2	0.039	0.000	7.6	77	1
08/02/19	6:01 a	-38.2	-38.2	-38.3	24.3	ESE	0.41	27.0	-59.3	733.2	0.039	0.000	7.6	78	1
08/02/19	6:02 a	-38.2	-38.2	-38.2	23.5	ESE	0.39	25.2	-59.1	733.2	0.039	0.000	7.6	71	1
08/02/19	6:03 a	-38.2	-38.2	-38.2	24.3	ESE	0.41	26.1	-59.3	733.2	0.039	0.000	7.6	72	1
08/02/19	6:04 a	-38.2	-38.2	-38.2	22.6	E	0.38	25.2	-58.7	733.4	0.039	0.000	7.6	70	1
08/02/19	6:05 a	-38.2	-38.2	-38.2	20.0	E	0.33	20.9	-57.8	733.3	0.039	0.000	7.5	70	1
08/02/19	6:06 a	-38.2	-38.2	-38.2	21.7	ESE	0.36	24.3	-58.4	733.2	0.039	0.000	7.5	69	1
08/02/19	6:07 a	-38.2	-38.1	-38.2	21.7	ESE	0.36	23.5	-58.4	733.2	0.039	0.000	7.5	69	1
08/02/19	6:08 a	-38.2	-38.1	-38.2	22.6	ESE	0.38	24.3	-58.7	733.2	0.039	0.000	7.5	69	1
08/02/19	6:09 a	-38.2	-38.2	-38.2	23.5	ESE	0.39	25.2	-58.9	733.2	0.039	0.000	7.5	69	1
08/02/19	6:10 a	-38.2	-38.2	-38.2	23.5	ESE	0.39	26.1	-59.1	733.2	0.039	0.000	7.4	69	1
08/02/19	6:11 a	-38.2	-38.1	-38.2	21.7	ESE	0.36	23.5	-58.4	733.3	0.039	0.000	7.5	69	1
08/02/19	6:12 a	-38.2	-38.2	-38.3	20.0	ESE	0.33	21.7	-57.8	733.3	0.039	0.000	7.4	69	1
08/02/19	6:13 a	-38.2	-38.2	-38.2	21.7	ESE	0.36	23.5	-58.4	733.3	0.039	0.000	7.4	69	1
08/02/19	6:14 a	-38.2	-38.2	-38.2	23.5	ESE	0.39	24.3	-59.1	733.3	0.039	0.000	7.4	69	1
08/02/19	6:15 a	-38.2	-38.2	-38.3	23.5	ESE	0.39	24.3	-59.1	733.3	0.039	0.000	7.4	69	1
08/02/19	6:16 a	-38.2	-38.2	-38.3	22.6	ESE	0.38	24.3	-58.7	733.3	0.039	0.000	7.4	69	1
08/02/19	6:17 a	-38.3	-38.2	-38.3	21.7	ESE	0.36	23.5	-58.5	733.3	0.039	0.000	7.4	69	1
08/02/19	6:18 a	-38.3	-38.3	-38.3	22.6	ESE	0.38	24.3	-58.9	733.2	0.039	0.000	7.4	69	1
08/02/19	6:19 a	-38.3	-38.3	-38.3	23.5	ESE	0.39	25.2	-59.2	733.2	0.039	0.000	7.4	69	1
08/02/19	6:20 a	-38.3	-38.3	-38.4	22.6	ESE	0.38	23.5	-58.9	733.3	0.039	0.000	7.4	69	1
08/02/19	6:21 a	-38.4	-38.4	-38.4	22.6	ESE	0.38	24.3	-59.1	733.2	0.039	0.000	7.4	69	1
08/02/19	6:22 a	-38.4	-38.3	-38.4	22.6	ESE	0.38	25.2	-58.9	733.3	0.039	0.000	7.4	69	1
08/02/19	6:23 a	-38.4	-38.4	-38.4	22.6	ESE	0.38	24.3	-59.1	733.2	0.039	0.000	7.4	69	1
08/02/19	6:24 a	-38.4	-38.3	-38.4	21.7	ESE	0.36	23.5	-58.7	733.3	0.039	0.000	7.4	69	1
08/02/19	6:25 a	-38.4	-38.4	-38.5	21.7	ESE	0.36	25.2	-58.7	733.3	0.039	0.000	7.4	69	1
08/02/19	6:26 a	-38.4	-38.4	-38.5	22.6	ESE	0.38	23.5	-59.1	733.3	0.039	0.000	7.4	69	1
08/02/19	6:27 a	-38.5	-38.4	-38.5	21.7	ESE	0.36	25.2	-58.8	733.3	0.039	0.000	7.3	69	1
08/02/19	6:28 a	-38.5	-38.5	-38.6	21.7	ESE	0.36	24.3	-58.8	733.2	0.039	0.000	7.3	69	1
08/02/19	6:29 a	-38.6	-38.5	-38.6	22.6	ESE	0.38	24.3	-59.2	733.2	0.040	0.000	7.3	69	1
08/02/19	6:30 a	-38.6	-38.5	-38.6	22.6	ESE	0.38	24.3	-59.2	733.3	0.040	0.000	7.3	69	1
08/02/19	6:31 a	-38.6	-38.6	-38.6	21.7	ESE	0.36	24.3	-58.9	733.3	0.040	0.000	7.3	69	1
08/02/19	6:32 a	-38.6	-38.6	-38.6	20.9	ESE	0.35	22.6	-58.6	733.4	0.040	0.000	7.3	69	1
08/02/19	6:33 a	-38.6	-38.6	-38.6	20.9	ESE	0.35	22.6	-58.6	733.4	0.040	0.000	7.3	69	1
08/02/19	6:34 a	-38.6	-38.6	-38.6	20.9	ESE	0.35	22.6	-58.6	733.5	0.040	0.000	7.3	69	1
08/02/19	6:35 a	-38.6	-38.6	-38.6	20.9	ESE	0.35	22.6	-58.6	733.5	0.040	0.000	7.3	69	1
08/02/19	6:36 a	-38.6	-38.6	-38.6	20.0	ESE	0.33	22.6	-58.2	733.5	0.040	0.000	7.3	69	1
08/02/19	6:37 a	-38.6	-38.6	-38.6	20.9	ESE	0.35	22.6	-58.6	733.5	0.040	0.000	7.3	69	1
08/02/19	6:38 a	-38.6	-38.6	-38.6	20.0	ESE	0.33	21.7	-58.2	733.5	0.040	0.000	7.3	69	1
08/02/19	6:39 a	-38.6	-38.6	-38.6	19.1	ESE	0.32	20.9	-57.9	733.5	0.040	0.000	7.3	69	1
08/02/19	6:40 a	-38.6	-38.6	-38.6	18.3	ESE	0.30	20.0	-57.6	733.6	0.040	0.000	7.3	69	1
08/02/19	6:41 a	-38.6	-38.6	-38.6	19.1	ESE	0.32	20.9	-57.9	733.6	0.040	0.000	7.3	69	1
08/02/19	6:42 a	-38.6	-38.6	-38.6	20.0	ESE	0.33	20.9	-58.3	733.7	0.040	0.000	7.3	69	1
08/02/19	6:43 a	-38.6	-38.6	-38.6	18.3	ESE	0.30	20.0	-57.6	733.5	0.040	0.000	7.3	69	1
08/02/19	6:44 a	-38.6	-38.6	-38.6	19.1	ESE	0.32	20.0	-57.9	733.6	0.040	0.000	7.3	69	1
08/02/19	6:45 a	-38.6	-38.6	-38.6	18.3	ESE	0.30	19.1	-57.6	733.6	0.040	0.000	7.2	69	1
08/02/19	6:46 a	-38.6	-38.6	-38.6	20.0	ESE	0.33	22.6	-58.2	733.6	0.040	0.000	7.2	69	1
08/02/19	6:47 a	-38.6	-38.6	-38.6	20.0	ESE	0.33	21.7	-58.2	733.5	0.040	0.000	7.2	69	1
08/02/19	6:48 a	-38.6	-38.6	-38.6	21.7	ESE	0.36	22.6	-58.9	733.6	0.040	0.000	7.2	69	1
08/02/19	6:49 a	-38.6	-38.6	-38.6	20.0	ESE	0.33	22.6	-58.2	733.6	0.040	0.000	7.2	69	1
08/02/19	6:50 a	-38.6	-38.6	-38.6	20.9	ESE	0.35	23.5	-58.6	733.6	0.040	0.000	7.2	69	1
08/02/19	6:51 a	-38.6	-38.5	-38.6	18.3	ESE	0.30	21.7	-57.6	733.6	0.040	0.000	7.2	69	1
08/02/19	6:52 a	-38.6	-38.5	-38.6	17.4	ESE	0.29	19.1	-57.2	733.7	0.040	0.000	7.2	69	1
08/02/19	6:53 a	-38.6	-38.6	-38.6	17.4	ESE	0.29	20.9	-57.2	733.7	0.040	0.000	7.2	69	1
08/02/19	6:54 a	-38.6	-38.5	-38.6	18.3	ESE	0.30	19.1	-57.6	733.7	0.040	0.000	7.2	69	1
08/02/19	6:55 a	-38.6	-38.5	-38.6	19.1	ESE	0.32	20.9	-57.9	733.7	0.040	0.000	7.2	69	1
08/02/19	6:56 a	-38.5	-38.4	-38.5	19.1	ESE	0.32	20.9	-57.8	733.7	0.039	0.000	7.2	69	1
08/02/19	6:57 a	-38.5	-38.4	-38.5	18.3	ESE	0.30	20.0	-57.5	733.7	0.039	0.000	7.2	69	1
08/02/19	6:58 a	-38.5	-38.5	-38.5	17.4	ESE	0.29	19.1	-57.1	733.7	0.039	0.000	7.2	69	1
08/02/19	6:59 a	-38.5	-38.5	-38.5	19.1	ESE	0.32	20.9	-57.8	733.7	0.039	0.000	7.1	69	1
08/02/19	7:00 a	-38.4	-38.4	-38.4	19.1	ESE	0.32	20.9	-57.7	733.7	0.039	0.000	7.1	69	1
08/02/19	7:01 a	-38.4	-38.4	-38.4	16.5	ESE	0.28	19.1	-56.6	733.7	0.039	0.000	7.1	71	1
08/02/19	7:02 a	-38.4	-38.4	-38.4	17.4	ESE	0.29	19.1	-57.1	733.7	0.039	0.000	7.1	72	1
08/02/19	7:03 a	-38.4	-38.4	-38.5	18.3	ESE	0.30	20.0	-57.4	733.7	0.039	0.000	7.1	71	1
08/02/19	7:04 a	-38.4	-38.4	-38.4	17.4	ESE	0.29	20.0	-57.0	733.8	0.039	0.000	7.1	72	1
08/02/19	7:05 a	-38.4	-38.4	-38.4	18.3	ESE	0.30	19.1	-57.4	733.8	0.039	0.000	7.1	74	1
08/02/19	7:06 a	-38.3	-38.3	-38.4	18.3	ESE	0.30	20.0	-57.3	733.8	0.039	0.000	7.1	77	1
08/02/19	7:07 a	-38.3	-38.3	-38.3	18.3	ESE	0.30	20.9	-57.3	733.9	0.039	0.000	7.1	76	1
08/02/19	7:08 a	-38.4	-38.3	-38.4	17.4	ESE	0.29	19.1	-57.0	733.8	0.039	0.000	7.1	77	1
08/02/19	7:09 a	-38.4	-38.3	-38.4	16.5	ESE	0.28	17.4	-56.6	733.8	0.039	0.000	7.1	79	1
08/02/19	7:10 a	-38.4	-38.3	-38.4	17.4	ESE	0.29	19.1	-57.0	733.9	0.039	0.000	7.1	82	1
08/02/19	7:11 a	-38.3	-38.3	-38.4	19.1	ESE	0.32	20.9	-57.6	733.8	0.039	0.000	7.1	85	1
08/02/19	7:12 a	-38.3	-38.3	-38.3	19.1	ESE	0.32	20.0	-57.6	733.8	0.039	0.000	7.1	85	1
08/02/19	7:13 a	-38.4	-38.4	-38.4	18.3	ESE	0.30	20.0	-57.3	733.8	0.039	0.000	7.0	85	1
08/02/19	7:14 a	-38.3	-38.3	-38.4	17.4	ESE	0.29	20.0	-56.9	733.8	0.039	0.000	7.0	86	1
08/02/19	7:15 a	-38.3	-38.3	-38.4	18.3	ESE	0.30	20.9	-57.3	733.8	0.039	0.000	7.1	87	1
08/02/19	7:16 a	-38.3	-38.3	-38.3	19.1	ESE	0.32	20.9	-57.6	733.8	0.039	0.000	7.1	87	1
08/02/19	7:17 a	-38.3	-38.3	-38.4	18.3	E	0.30	20.0	-57.3	733.9	0.039	0.000	7.1	88	1
08/02/19	7:18 a	-38.3	-38.3	-38.4	19.1	E	0.32	21.7	-57.6	733.8	0.039	0.000	7.0	88	1
08/02/19	7:19 a	-38.3	-38.3	-38.4	18.3	E	0.30	20.0	-57.3	733.8	0.039	0.000	7.0	88	1
08/02/19	7:20 a	-38.4	-38.3	-38.4	17.4	E	0.29	19.1	-57.0	733.9	0.039	0.000	7.0	88	1
08/02/19	7:21 a	-38.4	-38.3	-38.4	19.1	ESE	0.32	20.0	-57.7	733.9	0.039	0.000	7.1	88	1
08/02/19	7:22 a	-38.3	-38.3	-38.4	18.3	ESE	0.30	20.0	-57.3	733.8	0.039	0.000	7.0	88	1
08/02/19	7:23 a	-38.4	-38.3	-38.4	17.4	ESE	0.29	19.1	-57.0	733.9	0.039	0.000	7.0	89	1
08/02/19	7:24 a	-38.4	-38.3	-38.4	16.5	ESE	0.28	18.3	-56.6	733.9	0.039	0.000	7.0	88	1
08/02/19	7:25 a	-38.4	-38.4	-38.5	16.5	ESE	0.28	19.1	-56.7	733.8	0.039	0.000	7.0	88	1
08/02/19	7:26 a	-38.5	-38.4	-38.5	16.5	ESE	0.28	19.1	-56.7	733.9	0.039	0.000	7.0	88	1
08/02/19	7:27 a	-38.4	-38.4	-38.5	19.1	ESE	0.32	20.9	-57.8	733.9	0.039	0.000	7.0	88	1
08/02/19	7:28 a	-38.5	-38.4	-38.6	17.4	ESE	0.29	20.0	-57.1	733.8	0.039	0.000	7.0	88	1
08/02/19	7:29 a	-38.5	-38.4	-38.6	20.0	E	0.33	20.9	-58.2	733.9	0.039	0.000	7.0	88	1
08/02/19	7:30 a	-38.5	-38.5	-38.6	20.9	E	0.35	22.6	-58.5	733.8	0.039	0.000	7.0	88	1
08/02/19	7:31 a	-38.5	-38.5	-38.5	20.0	E	0.33	22.6	-58.2	733.9	0.039	0.000	7.0	88	1
08/02/19	7:32 a	-38.5	-38.4	-38.6	20.0	E	0.33	21.7	-58.2	733.8	0.039	0.000	7.0	87	1
08/02/19	7:33 a	-38.6	-38.6	-38.6	20.9	E	0.35	21.7	-58.6	733.9	0.040	0.000	7.0	86	1
08/02/19	7:34 a	-38.6	-38.5	-38.6	20.0	E	0.33	21.7	-58.2	733.9	0.040	0.000	7.0	87	1
08/02/19	7:35 a	-38.6	-38.6	-38.6	20.9	E	0.35	23.5	-58.6	733.8	0.040	0.000	7.0	87	1
08/02/19	7:36 a	-38.6	-38.6	-38.6	21.7	E	0.36	22.6	-58.9	733.7	0.040	0.000	7.0	86	1
08/02/19	7:37 a	-38.6	-38.6	-38.7	20.9	E	0.35	22.6	-58.7	733.7	0.040	0.000	7.0	87	1
08/02/19	7:38 a	-38.6	-38.6	-38.7	21.7	E	0.36	23.5	-58.9	733.8	0.040	0.000	7.0	86	1
08/02/19	7:39 a	-38.6	-38.6	-38.7	20.0	E	0.33	21.7	-58.3	733.8	0.040	0.000	7.0	86	1
08/02/19	7:40 a	-38.7	-38.6	-38.7	20.9	E	0.35	22.6	-58.7	733.7	0.040	0.000	6.9	86	1
08/02/19	7:41 a	-38.7	-38.7	-38.7	21.7	E	0.36	23.5	-59.1	733.6	0.040	0.000	6.9	86	1
08/02/19	7:42 a	-38.7	-38.7	-38.8	22.6	E	0.38	24.3	-59.4	733.7	0.040	0.000	6.9	86	1
08/02/19	7:43 a	-38.7	-38.7	-38.7	23.5	E	0.39	24.3	-59.7	733.6	0.040	0.000	6.9	85	1
08/02/19	7:44 a	-38.8	-38.7	-38.8	20.0	E	0.33	20.9	-58.6	733.7	0.040	0.000	6.9	85	1
08/02/19	7:45 a	-38.8	-38.7	-38.8	20.9	E	0.35	22.6	-58.9	733.7	0.040	0.000	6.9	85	1
08/02/19	7:46 a	-38.8	-38.7	-38.8	20.0	E	0.33	21.7	-58.6	733.7	0.040	0.000	6.9	86	1
08/02/19	7:47 a	-38.8	-38.7	-38.8	18.3	E	0.30	20.0	-57.8	733.7	0.040	0.000	6.9	86	1
08/02/19	7:48 a	-38.8	-38.8	-38.8	18.3	E	0.30	20.0	-57.9	733.8	0.040	0.000	6.9	86	1
08/02/19	7:49 a	-38.8	-38.8	-38.9	19.1	E	0.32	20.9	-58.3	733.8	0.040	0.000	6.9	85	1
08/02/19	7:50 a	-38.9	-38.9	-38.9	18.3	E	0.30	20.0	-58.0	733.8	0.040	0.000	6.9	85	1
08/02/19	7:51 a	-38.9	-38.9	-38.9	17.4	E	0.29	20.0	-57.7	733.9	0.040	0.000	6.9	84	1
08/02/19	7:52 a	-38.9	-38.9	-39.0	16.5	E	0.28	18.3	-57.3	733.8	0.040	0.000	6.9	85	1
08/02/19	7:53 a	-39.0	-38.9	-39.0	17.4	E	0.29	20.0	-57.8	733.9	0.040	0.000	6.9	85	1
08/02/19	7:54 a	-39.0	-38.9	-39.1	14.8	E	0.25	16.5	-56.6	733.9	0.040	0.000	6.9	83	1
08/02/19	7:55 a	-39.0	-38.9	-39.1	18.3	E	0.30	20.0	-58.2	733.9	0.040	0.000	6.9	84	1
08/02/19	7:56 a	-39.1	-39.0	-39.1	18.3	E	0.30	20.0	-58.2	733.8	0.040	0.000	6.9	84	1
08/02/19	7:57 a	-39.1	-39.1	-39.1	18.3	E	0.30	20.0	-58.2	733.8	0.040	0.000	6.9	84	1
08/02/19	7:58 a	-39.1	-39.1	-39.1	17.4	E	0.29	19.1	-57.8	733.9	0.040	0.000	6.9	84	1
08/02/19	7:59 a	-39.1	-39.1	-39.1	17.4	E	0.29	18.3	-57.9	733.9	0.040	0.000	6.9	83	1
08/02/19	8:00 a	-39.1	-39.1	-39.2	17.4	E	0.29	20.0	-57.9	733.9	0.040	0.000	6.9	83	1
08/02/19	8:01 a	-39.2	-39.1	-39.2	19.1	E	0.32	20.9	-58.7	733.8	0.040	0.000	6.9	83	1
08/02/19	8:02 a	-39.2	-39.1	-39.2	19.1	E	0.32	21.7	-58.7	733.8	0.040	0.000	6.9	83	1
08/02/19	8:03 a	-39.2	-39.1	-39.2	20.0	E	0.33	23.5	-59.1	733.9	0.040	0.000	6.9	82	1
08/02/19	8:04 a	-39.2	-39.2	-39.2	20.9	E	0.35	23.5	-59.4	733.9	0.040	0.000	6.9	83	1
08/02/19	8:05 a	-39.2	-39.2	-39.2	20.9	E	0.35	24.3	-59.4	733.9	0.040	0.000	6.9	83	1
08/02/19	8:06 a	-39.2	-39.1	-39.2	20.9	E	0.35	21.7	-59.4	734.0	0.040	0.000	6.9	83	1
08/02/19	8:07 a	-39.2	-39.1	-39.2	20.9	E	0.35	23.5	-59.4	734.0	0.040	0.000	6.9	83	1
08/02/19	8:08 a	-39.2	-39.1	-39.2	20.9	E	0.35	23.5	-59.4	733.9	0.040	0.000	6.9	82	1
08/02/19	8:09 a	-39.2	-39.1	-39.2	21.7	E	0.36	23.5	-59.7	734.0	0.040	0.000	6.9	82	1
08/02/19	8:10 a	-39.2	-39.2	-39.3	20.9	ESE	0.35	23.5	-59.4	734.0	0.040	0.000	6.9	80	1
08/02/19	8:11 a	-39.2	-39.1	-39.2	21.7	E	0.36	23.5	-59.7	734.0	0.040	0.000	6.9	82	1
08/02/19	8:12 a	-39.2	-39.2	-39.2	21.7	E	0.36	24.3	-59.8	734.0	0.040	0.000	6.9	82	1
08/02/19	8:13 a	-39.2	-39.2	-39.2	23.5	E	0.39	25.2	-60.4	733.9	0.040	0.000	6.9	81	1
08/02/19	8:14 a	-39.2	-39.2	-39.2	20.0	E	0.33	23.5	-59.1	734.1	0.040	0.000	6.9	81	1
08/02/19	8:15 a	-39.2	-39.2	-39.2	19.1	E	0.32	21.7	-58.8	734.0	0.040	0.000	6.9	81	1
08/02/19	8:16 a	-39.2	-39.2	-39.2	21.7	E	0.36	23.5	-59.8	733.8	0.040	0.000	6.9	81	1
08/02/19	8:17 a	-39.2	-39.2	-39.2	21.7	E	0.36	25.2	-59.8	733.9	0.040	0.000	6.9	82	1
08/02/19	8:18 a	-39.2	-39.2	-39.3	20.0	E	0.33	22.6	-59.1	734.0	0.040	0.000	6.9	83	1
08/02/19	8:19 a	-39.2	-39.2	-39.3	20.0	E	0.33	22.6	-59.1	733.9	0.040	0.000	6.9	81	1
08/02/19	8:20 a	-39.3	-39.2	-39.3	20.0	E	0.33	24.3	-59.2	733.9	0.040	0.000	6.9	80	1
08/02/19	8:21 a	-39.3	-39.2	-39.3	21.7	E	0.36	24.3	-59.8	733.9	0.040	0.000	6.9	81	1
08/02/19	8:22 a	-39.3	-39.3	-39.4	20.0	E	0.33	22.6	-59.3	733.9	0.040	0.000	6.9	80	1
08/02/19	8:23 a	-39.3	-39.3	-39.4	20.9	E	0.35	21.7	-59.6	734.0	0.040	0.000	6.9	80	1
08/02/19	8:24 a	-39.4	-39.3	-39.4	20.9	E	0.35	24.3	-59.7	733.9	0.040	0.000	6.9	80	1
08/02/19	8:25 a	-39.3	-39.3	-39.4	21.7	E	0.36	23.5	-59.9	734.0	0.040	0.000	6.8	79	1
08/02/19	8:26 a	-39.3	-39.3	-39.4	20.0	E	0.33	21.7	-59.3	733.9	0.040	0.000	6.9	79	1
08/02/19	8:27 a	-39.3	-39.3	-39.4	23.5	E	0.39	26.1	-60.6	733.9	0.040	0.000	6.8	77	1
08/02/19	8:28 a	-39.4	-39.4	-39.4	20.0	E	0.33	23.5	-59.3	733.9	0.040	0.000	6.8	78	1
08/02/19	8:29 a	-39.4	-39.4	-39.5	22.6	E	0.38	24.3	-60.4	733.9	0.040	0.000	6.8	78	1
08/02/19	8:30 a	-39.4	-39.4	-39.5	23.5	E	0.39	24.3	-60.7	733.9	0.040	0.000	6.8	79	1
08/02/19	8:31 a	-39.4	-39.3	-39.4	22.6	E	0.38	24.3	-60.3	733.9	0.040	0.000	6.8	80	1
08/02/19	8:32 a	-39.4	-39.4	-39.5	20.0	E	0.33	21.7	-59.4	733.9	0.040	0.000	6.8	80	1
08/02/19	8:33 a	-39.4	-39.4	-39.6	21.7	E	0.36	23.5	-60.1	733.9	0.040	0.000	6.8	81	1
08/02/19	8:34 a	-39.6	-39.4	-39.6	20.0	E	0.33	22.6	-59.6	733.9	0.040	0.000	6.8	76	1
08/02/19	8:35 a	-39.4	-39.4	-39.5	19.1	E	0.32	23.5	-59.1	733.9	0.040	0.000	6.8	77	1
08/02/19	8:36 a	-39.4	-39.4	-39.5	21.7	E	0.36	26.1	-60.1	733.8	0.040	0.000	6.8	79	1
08/02/19	8:37 a	-39.5	-39.4	-39.6	20.9	E	0.35	25.2	-59.8	733.9	0.040	0.000	6.8	79	1
08/02/19	8:38 a	-39.5	-39.4	-39.5	21.7	E	0.36	22.6	-60.2	733.9	0.040	0.000	6.8	79	1
08/02/19	8:39 a	-39.5	-39.4	-39.6	20.0	E	0.33	22.6	-59.5	733.9	0.040	0.000	6.8	81	1
08/02/19	8:40 a	-39.5	-39.4	-39.6	18.3	E	0.30	24.3	-58.8	733.8	0.040	0.000	6.8	80	1
08/02/19	8:41 a	-39.5	-39.4	-39.6	20.9	E	0.35	24.3	-59.8	733.9	0.040	0.000	6.8	81	1
08/02/19	8:42 a	-39.5	-39.4	-39.6	18.3	E	0.30	21.7	-58.8	733.8	0.040	0.000	6.8	81	1
08/02/19	8:43 a	-39.6	-39.4	-39.6	20.0	E	0.33	21.7	-59.6	733.8	0.040	0.000	6.8	81	1
08/02/19	8:44 a	-39.6	-39.4	-39.6	20.0	E	0.33	22.6	-59.6	733.8	0.040	0.000	6.8	81	1
08/02/19	8:45 a	-39.5	-39.4	-39.6	19.1	E	0.32	21.7	-59.2	733.9	0.040	0.000	6.8	81	1
08/02/19	8:46 a	-39.5	-39.4	-39.6	20.9	E	0.35	22.6	-59.8	733.9	0.040	0.000	6.8	81	1
08/02/19	8:47 a	-39.6	-39.6	-39.6	20.9	E	0.35	22.6	-59.9	733.9	0.040	0.000	6.8	82	1
08/02/19	8:48 a	-39.6	-39.5	-39.6	20.9	E	0.35	23.5	-59.9	733.8	0.040	0.000	6.8	82	1
08/02/19	8:49 a	-39.6	-39.5	-39.6	20.9	E	0.35	23.5	-59.9	733.8	0.040	0.000	6.8	81	1
08/02/19	8:50 a	-39.6	-39.5	-39.6	20.9	E	0.35	21.7	-59.9	733.8	0.040	0.000	6.8	80	1
08/02/19	8:51 a	-39.6	-39.5	-39.6	19.1	E	0.32	21.7	-59.2	733.8	0.040	0.000	6.8	80	1
08/02/19	8:52 a	-39.5	-39.4	-39.6	19.1	E	0.32	23.5	-59.2	733.8	0.040	0.000	6.8	79	1
08/02/19	8:53 a	-39.5	-39.4	-39.6	21.7	E	0.36	24.3	-60.2	733.8	0.040	0.000	6.8	79	1
08/02/19	8:54 a	-39.5	-39.4	-39.6	22.6	E	0.38	23.5	-60.4	733.8	0.040	0.000	6.8	79	1
08/02/19	8:55 a	-39.5	-39.4	-39.5	20.0	E	0.33	21.7	-59.5	733.8	0.040	0.000	6.8	79	1
08/02/19	8:56 a	-39.5	-39.4	-39.5	20.9	E	0.35	22.6	-59.8	733.8	0.040	0.000	6.8	80	1
08/02/19	8:57 a	-39.5	-39.4	-39.6	21.7	E	0.36	23.5	-60.2	733.8	0.040	0.000	6.8	81	1
08/02/19	8:58 a	-39.4	-39.4	-39.6	20.9	E	0.35	22.6	-59.8	733.8	0.040	0.000	6.8	81	1
08/02/19	8:59 a	-39.4	-39.4	-39.5	21.7	E	0.36	23.5	-60.1	733.7	0.040	0.000	6.8	80	1
08/02/19	9:00 a	-39.4	-39.4	-39.5	21.7	E	0.36	23.5	-60.1	733.7	0.040	0.000	6.8	81	1
08/02/19	9:01 a	-39.4	-39.4	-39.5	22.6	E	0.38	24.3	-60.4	733.7	0.040	0.000	6.8	80	1
08/02/19	9:02 a	-39.4	-39.4	-39.5	22.6	E	0.38	24.3	-60.4	733.7	0.040	0.000	6.8	80	1
08/02/19	9:03 a	-39.4	-39.4	-39.5	22.6	E	0.38	24.3	-60.4	733.7	0.040	0.000	6.8	80	1
08/02/19	9:04 a	-39.4	-39.3	-39.4	23.5	E	0.39	25.2	-60.6	733.7	0.040	0.000	6.8	80	1
08/02/19	9:05 a	-39.4	-39.3	-39.4	22.6	E	0.38	25.2	-60.3	733.7	0.040	0.000	6.8	79	1
08/02/19	9:06 a	-39.4	-39.3	-39.4	23.5	E	0.39	25.2	-60.6	733.7	0.040	0.000	6.8	79	1
08/02/19	9:07 a	-39.3	-39.3	-39.4	23.5	E	0.39	25.2	-60.6	733.7	0.040	0.000	6.8	79	1
08/02/19	9:08 a	-39.4	-39.3	-39.4	22.6	E	0.38	24.3	-60.3	733.7	0.040	0.000	6.8	79	1
08/02/19	9:09 a	-39.3	-39.3	-39.4	23.5	E	0.39	26.1	-60.6	733.7	0.040	0.000	6.8	80	1
08/02/19	9:10 a	-39.3	-39.3	-39.3	23.5	E	0.39	25.2	-60.4	733.7	0.040	0.000	6.8	80	1
08/02/19	9:11 a	-39.3	-39.3	-39.3	23.5	E	0.39	25.2	-60.4	733.6	0.040	0.000	6.8	80	1
08/02/19	9:12 a	-39.3	-39.2	-39.3	24.3	E	0.41	26.1	-60.7	733.6	0.040	0.000	6.7	80	1
08/02/19	9:13 a	-39.2	-39.2	-39.3	23.5	E	0.39	26.1	-60.4	733.7	0.040	0.000	6.8	79	1
08/02/19	9:14 a	-39.2	-39.2	-39.3	24.3	E	0.41	25.2	-60.7	733.7	0.040	0.000	6.8	80	1
08/02/19	9:15 a	-39.2	-39.2	-39.2	23.5	E	0.39	25.2	-60.4	733.8	0.040	0.000	6.7	80	1
08/02/19	9:16 a	-39.2	-39.2	-39.3	24.3	E	0.41	26.1	-60.7	733.8	0.040	0.000	6.7	80	1
08/02/19	9:17 a	-39.3	-39.2	-39.3	23.5	E	0.39	24.3	-60.4	733.8	0.040	0.000	6.7	81	1
08/02/19	9:18 a	-39.2	-39.2	-39.2	23.5	E	0.39	26.1	-60.4	733.7	0.040	0.000	6.7	81	1
08/02/19	9:19 a	-39.2	-39.2	-39.2	24.3	E	0.41	26.1	-60.6	733.7	0.040	0.000	6.7	81	1
08/02/19	9:20 a	-39.2	-39.2	-39.2	23.5	E	0.39	25.2	-60.4	733.8	0.040	0.000	6.7	80	1
08/02/19	9:21 a	-39.2	-39.2	-39.2	23.5	E	0.39	25.2	-60.4	733.8	0.040	0.000	6.7	80	1
08/02/19	9:22 a	-39.2	-39.2	-39.2	23.5	E	0.39	25.2	-60.4	733.8	0.040	0.000	6.7	81	1
08/02/19	9:23 a	-39.2	-39.2	-39.2	23.5	E	0.39	25.2	-60.4	733.8	0.040	0.000	6.7	81	1
08/02/19	9:24 a	-39.2	-39.2	-39.2	23.5	E	0.39	24.3	-60.4	733.7	0.040	0.000	6.7	81	1
08/02/19	9:25 a	-39.2	-39.2	-39.2	23.5	E	0.39	24.3	-60.4	733.8	0.040	0.000	6.7	81	1
08/02/19	9:26 a	-39.2	-39.1	-39.2	22.6	E	0.38	26.1	-60.0	733.9	0.040	0.000	6.7	81	1
08/02/19	9:27 a	-39.2	-39.1	-39.3	22.6	E	0.38	23.5	-60.1	733.8	0.040	0.000	6.7	81	1
08/02/19	9:28 a	-39.2	-39.2	-39.2	22.6	E	0.38	24.3	-60.0	733.8	0.040	0.000	6.7	81	1
08/02/19	9:29 a	-39.2	-39.2	-39.2	22.6	E	0.38	24.3	-60.1	733.9	0.040	0.000	6.7	81	1
08/02/19	9:30 a	-39.2	-39.1	-39.2	22.6	E	0.38	23.5	-60.0	733.9	0.040	0.000	6.7	81	1
08/02/19	9:31 a	-39.2	-39.2	-39.3	21.7	E	0.36	25.2	-59.8	733.8	0.040	0.000	6.7	81	1
08/02/19	9:32 a	-39.2	-39.1	-39.2	22.6	E	0.38	24.3	-60.0	733.9	0.040	0.000	6.7	80	1
08/02/19	9:33 a	-39.2	-39.1	-39.2	20.9	E	0.35	23.5	-59.4	733.9	0.040	0.000	6.7	81	1
08/02/19	9:34 a	-39.2	-39.2	-39.2	22.6	E	0.38	24.3	-60.1	733.8	0.040	0.000	6.7	81	1
08/02/19	9:35 a	-39.2	-39.2	-39.2	23.5	E	0.39	24.3	-60.3	733.8	0.040	0.000	6.7	81	1
08/02/19	9:36 a	-39.2	-39.2	-39.2	24.3	E	0.41	25.2	-60.7	733.8	0.040	0.000	6.7	81	1
08/02/19	9:37 a	-39.2	-39.2	-39.2	24.3	E	0.41	26.1	-60.7	733.9	0.040	0.000	6.7	81	1
08/02/19	9:38 a	-39.2	-39.2	-39.2	23.5	E	0.39	24.3	-60.4	733.9	0.040	0.000	6.7	81	1
08/02/19	9:39 a	-39.2	-39.2	-39.2	21.7	E	0.36	23.5	-59.7	733.9	0.040	0.000	6.7	81	1
08/02/19	9:40 a	-39.2	-39.2	-39.2	21.7	E	0.36	23.5	-59.7	734.0	0.040	0.000	6.7	81	1
08/02/19	9:41 a	-39.2	-39.2	-39.2	21.7	E	0.36	24.3	-59.7	734.0	0.040	0.000	6.7	81	1
08/02/19	9:42 a	-39.2	-39.2	-39.2	21.7	E	0.36	22.6	-59.8	734.0	0.040	0.000	6.7	80	1
08/02/19	9:43 a	-39.2	-39.1	-39.2	21.7	E	0.36	23.5	-59.7	734.0	0.040	0.000	6.7	81	1
08/02/19	9:44 a	-39.2	-39.2	-39.3	20.9	E	0.35	21.7	-59.4	734.0	0.040	0.000	6.7	81	1
08/02/19	9:45 a	-39.2	-39.2	-39.2	20.0	E	0.33	21.7	-59.1	734.0	0.040	0.000	6.7	82	1
08/02/19	9:46 a	-39.2	-39.2	-39.2	20.9	E	0.35	22.6	-59.4	734.0	0.040	0.000	6.7	82	1
08/02/19	9:47 a	-39.2	-39.2	-39.2	20.0	E	0.33	21.7	-59.1	734.1	0.040	0.000	6.7	81	1
08/02/19	9:48 a	-39.2	-39.2	-39.3	20.9	E	0.35	22.6	-59.4	734.0	0.040	0.000	6.7	81	1
08/02/19	9:49 a	-39.2	-39.2	-39.2	20.0	E	0.33	20.9	-59.1	734.0	0.040	0.000	6.7	81	1
08/02/19	9:50 a	-39.2	-39.2	-39.2	20.0	E	0.33	21.7	-59.1	734.1	0.040	0.000	6.7	81	1
08/02/19	9:51 a	-39.2	-39.2	-39.2	20.0	E	0.33	21.7	-59.1	734.1	0.040	0.000	6.7	81	1
08/02/19	9:52 a	-39.2	-39.2	-39.3	20.9	E	0.35	22.6	-59.4	734.0	0.040	0.000	6.6	80	1
08/02/19	9:53 a	-39.2	-39.1	-39.2	19.1	E	0.32	23.5	-58.7	734.0	0.040	0.000	6.7	81	1
08/02/19	9:54 a	-39.2	-39.2	-39.2	20.9	E	0.35	22.6	-59.4	734.0	0.040	0.000	6.6	81	1
08/02/19	9:55 a	-39.2	-39.2	-39.2	20.9	E	0.35	21.7	-59.4	734.0	0.040	0.000	6.6	81	1
08/02/19	9:56 a	-39.2	-39.2	-39.2	20.9	ESE	0.35	23.5	-59.4	734.0	0.040	0.000	6.6	81	1
08/02/19	9:57 a	-39.3	-39.2	-39.3	20.0	ESE	0.33	21.7	-59.2	734.0	0.040	0.000	6.6	81	1
08/02/19	9:58 a	-39.3	-39.2	-39.3	20.0	ESE	0.33	21.7	-59.2	734.0	0.040	0.000	6.6	81	1
08/02/19	9:59 a	-39.2	-39.2	-39.3	20.9	ESE	0.35	23.5	-59.4	734.0	0.040	0.000	6.6	82	1
08/02/19	10:00 a	-39.2	-39.2	-39.3	20.9	ESE	0.35	22.6	-59.4	734.0	0.040	0.000	6.6	81	1
08/02/19	10:01 a	-39.2	-39.2	-39.3	20.0	ESE	0.33	22.6	-59.1	734.0	0.040	0.000	6.6	82	1
08/02/19	10:02 a	-39.2	-39.2	-39.3	20.9	ESE	0.35	23.5	-59.4	734.0	0.040	0.000	6.6	82	1
08/02/19	10:03 a	-39.3	-39.2	-39.3	22.6	ESE	0.38	24.3	-60.2	733.9	0.040	0.000	6.6	82	1
08/02/19	10:04 a	-39.2	-39.2	-39.3	20.9	ESE	0.35	22.6	-59.4	734.0	0.040	0.000	6.6	82	1
08/02/19	10:05 a	-39.2	-39.2	-39.2	20.9	ESE	0.35	24.3	-59.4	734.0	0.040	0.000	6.6	81	1
08/02/19	10:06 a	-39.2	-39.2	-39.2	20.9	ESE	0.35	23.5	-59.4	734.0	0.040	0.000	6.6	81	1
08/02/19	10:07 a	-39.2	-39.1	-39.2	22.6	ESE	0.38	25.2	-60.0	734.0	0.040	0.000	6.6	81	1
08/02/19	10:08 a	-39.2	-39.2	-39.2	23.5	ESE	0.39	25.2	-60.3	734.0	0.040	0.000	6.6	82	1
08/02/19	10:09 a	-39.1	-39.1	-39.1	23.5	ESE	0.39	24.3	-60.2	734.0	0.040	0.000	6.6	82	1
08/02/19	10:10 a	-39.2	-39.2	-39.3	21.7	ESE	0.36	24.3	-59.7	734.0	0.040	0.000	6.6	82	1
08/02/19	10:11 a	-39.2	-39.2	-39.3	22.6	ESE	0.38	24.3	-60.1	734.0	0.040	0.000	6.6	82	1
08/02/19	10:12 a	-39.2	-39.1	-39.2	22.6	ESE	0.38	24.3	-60.0	734.0	0.040	0.000	6.6	81	1
08/02/19	10:13 a	-39.2	-39.1	-39.2	22.6	ESE	0.38	24.3	-60.0	734.0	0.040	0.000	6.6	81	1
08/02/19	10:14 a	-39.2	-39.2	-39.2	21.7	ESE	0.36	24.3	-59.7	734.0	0.040	0.000	6.6	81	1
08/02/19	10:15 a	-39.2	-39.2	-39.2	20.0	ESE	0.33	22.6	-59.1	734.0	0.040	0.000	6.6	82	1
08/02/19	10:16 a	-39.1	-39.1	-39.2	22.6	ESE	0.38	25.2	-59.9	734.0	0.040	0.000	6.6	81	1
08/02/19	10:17 a	-39.2	-39.1	-39.2	21.7	ESE	0.36	23.5	-59.7	733.9	0.040	0.000	6.6	82	1
08/02/19	10:18 a	-39.2	-39.1	-39.2	22.6	ESE	0.38	25.2	-60.0	733.9	0.040	0.000	6.6	82	1
08/02/19	10:19 a	-39.1	-39.1	-39.1	21.7	ESE	0.36	23.5	-59.6	734.0	0.040	0.000	6.6	82	1
08/02/19	10:20 a	-39.1	-39.1	-39.1	22.6	ESE	0.38	23.5	-59.9	734.0	0.040	0.000	6.6	81	1
08/02/19	10:21 a	-39.1	-39.0	-39.1	21.7	ESE	0.36	23.5	-59.6	734.0	0.040	0.000	6.6	82	1
08/02/19	10:22 a	-39.1	-39.1	-39.1	21.7	ESE	0.36	24.3	-59.6	734.0	0.040	0.000	6.6	82	1
08/02/19	10:23 a	-39.1	-39.0	-39.1	21.7	ESE	0.36	24.3	-59.6	734.1	0.040	0.000	6.5	81	1
08/02/19	10:24 a	-39.1	-39.0	-39.1	22.6	ESE	0.38	24.3	-59.8	734.0	0.040	0.000	6.5	82	1
08/02/19	10:25 a	-39.1	-39.0	-39.1	21.7	ESE	0.36	23.5	-59.6	734.0	0.040	0.000	6.5	83	1
08/02/19	10:26 a	-39.0	-39.0	-39.1	21.7	ESE	0.36	23.5	-59.5	734.1	0.040	0.000	6.5	82	1
08/02/19	10:27 a	-39.0	-39.0	-39.0	22.6	ESE	0.38	24.3	-59.8	734.1	0.040	0.000	6.5	82	1
08/02/19	10:28 a	-38.9	-38.9	-39.0	22.6	ESE	0.38	25.2	-59.7	734.1	0.040	0.000	6.5	82	1
08/02/19	10:29 a	-38.9	-38.9	-38.9	22.6	ESE	0.38	23.5	-59.7	734.1	0.040	0.000	6.5	82	1
08/02/19	10:30 a	-38.9	-38.8	-38.9	21.7	ESE	0.36	24.3	-59.3	734.2	0.040	0.000	6.5	82	1
08/02/19	10:31 a	-38.9	-38.8	-38.9	21.7	ESE	0.36	23.5	-59.3	734.1	0.040	0.000	6.5	82	1
08/02/19	10:32 a	-38.8	-38.8	-38.8	21.7	ESE	0.36	23.5	-59.3	734.2	0.040	0.000	6.5	82	1
08/02/19	10:33 a	-38.8	-38.8	-38.8	20.9	ESE	0.35	23.5	-58.9	734.1	0.040	0.000	6.5	82	1
08/02/19	10:34 a	-38.8	-38.8	-38.8	22.6	ESE	0.38	25.2	-59.5	734.2	0.040	0.000	6.5	82	1
08/02/19	10:35 a	-38.8	-38.8	-38.8	21.7	ESE	0.36	23.5	-59.2	734.2	0.040	0.000	6.5	82	1
08/02/19	10:36 a	-38.8	-38.8	-38.8	22.6	ESE	0.38	24.3	-59.5	734.2	0.040	0.000	6.5	83	1
08/02/19	10:37 a	-38.8	-38.8	-38.8	20.9	ESE	0.35	23.5	-58.9	734.2	0.040	0.000	6.4	83	1
08/02/19	10:38 a	-38.7	-38.7	-38.8	20.9	ESE	0.35	21.7	-58.8	734.2	0.040	0.000	6.4	83	1
08/02/19	10:39 a	-38.8	-38.7	-38.8	20.9	ESE	0.35	21.7	-58.9	734.2	0.040	0.000	6.4	83	1
08/02/19	10:40 a	-38.7	-38.7	-38.8	19.1	ESE	0.32	21.7	-58.1	734.3	0.040	0.000	6.4	83	1
08/02/19	10:41 a	-38.7	-38.7	-38.8	20.0	ESE	0.33	21.7	-58.4	734.3	0.040	0.000	6.4	83	1
08/02/19	10:42 a	-38.7	-38.7	-38.7	18.3	ESE	0.30	20.9	-57.8	734.4	0.040	0.000	6.4	83	1
08/02/19	10:43 a	-38.7	-38.7	-38.7	19.1	ESE	0.32	20.9	-58.1	734.3	0.040	0.000	6.4	83	1
08/02/19	10:44 a	-38.7	-38.7	-38.7	19.1	ESE	0.32	20.9	-58.1	734.3	0.040	0.000	6.4	83	1
08/02/19	10:45 a	-38.7	-38.7	-38.7	19.1	ESE	0.32	20.0	-58.1	734.3	0.040	0.000	6.4	83	1
08/02/19	10:46 a	-38.7	-38.6	-38.7	17.4	ESE	0.29	19.1	-57.3	734.4	0.040	0.000	6.4	83	1
08/02/19	10:47 a	-38.7	-38.6	-38.7	19.1	ESE	0.32	20.9	-58.1	734.3	0.040	0.000	6.4	82	1
08/02/19	10:48 a	-38.7	-38.7	-38.7	19.1	ESE	0.32	20.9	-58.1	734.3	0.040	0.000	6.4	82	1
08/02/19	10:49 a	-38.7	-38.7	-38.7	20.0	ESE	0.33	22.6	-58.4	734.2	0.040	0.000	6.4	82	1
08/02/19	10:50 a	-38.7	-38.7	-38.8	20.9	ESE	0.35	22.6	-58.8	734.3	0.040	0.000	6.4	82	1
08/02/19	10:51 a	-38.7	-38.7	-38.7	20.9	ESE	0.35	24.3	-58.8	734.2	0.040	0.000	6.4	81	1
08/02/19	10:52 a	-38.7	-38.7	-38.7	20.9	ESE	0.35	24.3	-58.8	734.3	0.040	0.000	6.4	81	1
08/02/19	10:53 a	-38.7	-38.7	-38.8	20.9	ESE	0.35	22.6	-58.8	734.2	0.040	0.000	6.4	82	1
08/02/19	10:54 a	-38.7	-38.7	-38.7	21.7	ESE	0.36	23.5	-59.1	734.2	0.040	0.000	6.4	82	1
08/02/19	10:55 a	-38.7	-38.7	-38.7	21.7	SE	0.36	27.0	-59.1	734.1	0.040	0.000	6.4	82	1
08/02/19	10:56 a	-38.7	-38.7	-38.8	20.9	SE	0.35	25.2	-58.8	734.2	0.040	0.000	6.4	81	1
08/02/19	10:57 a	-38.7	-38.7	-38.8	21.7	ESE	0.36	24.3	-59.1	734.1	0.040	0.000	6.4	83	1
08/02/19	10:58 a	-38.7	-38.7	-38.7	21.7	ESE	0.36	24.3	-59.1	734.2	0.040	0.000	6.4	82	1
08/02/19	10:59 a	-38.7	-38.7	-38.7	21.7	ESE	0.36	24.3	-59.1	734.2	0.040	0.000	6.4	82	1
08/02/19	11:00 a	-38.7	-38.7	-38.7	22.6	SE	0.38	25.2	-59.3	734.2	0.040	0.000	6.4	82	1
08/02/19	11:01 a	-38.7	-38.7	-38.7	20.9	SE	0.35	23.5	-58.8	734.2	0.040	0.000	6.4	83	1
08/02/19	11:02 a	-38.7	-38.7	-38.7	20.9	SE	0.35	22.6	-58.7	734.2	0.040	0.000	6.4	83	1
08/02/19	11:03 a	-38.7	-38.6	-38.7	24.3	SE	0.41	26.1	-59.9	734.1	0.040	0.000	6.4	83	1
08/02/19	11:04 a	-38.7	-38.6	-38.7	22.6	SE	0.38	26.1	-59.3	734.2	0.040	0.000	6.3	83	1
08/02/19	11:05 a	-38.6	-38.6	-38.7	22.6	SE	0.38	27.0	-59.3	734.1	0.040	0.000	6.3	84	1
08/02/19	11:06 a	-38.6	-38.6	-38.6	22.6	SE	0.38	27.0	-59.3	734.1	0.040	0.000	6.3	83	1
08/02/19	11:07 a	-38.6	-38.5	-38.6	23.5	SE	0.39	26.1	-59.5	734.1	0.040	0.000	6.3	84	1
08/02/19	11:08 a	-38.5	-38.5	-38.6	22.6	SE	0.38	24.3	-59.1	734.2	0.039	0.000	6.3	85	1
08/02/19	11:09 a	-38.5	-38.4	-38.5	23.5	ESE	0.39	25.2	-59.4	734.2	0.039	0.000	6.3	85	1
08/02/19	11:10 a	-38.4	-38.4	-38.5	23.5	SE	0.39	26.1	-59.3	734.1	0.039	0.000	6.3	85	1
08/02/19	11:11 a	-38.4	-38.4	-38.4	24.3	SE	0.41	26.1	-59.6	734.2	0.039	0.000	6.3	84	1
08/02/19	11:12 a	-38.3	-38.3	-38.4	21.7	SE	0.36	24.3	-58.6	734.2	0.039	0.000	6.3	85	1
08/02/19	11:13 a	-38.3	-38.3	-38.3	23.5	SE	0.39	26.1	-59.2	734.2	0.039	0.000	6.3	85	1
08/02/19	11:14 a	-38.2	-38.2	-38.3	22.6	SE	0.38	25.2	-58.7	734.3	0.039	0.000	6.3	85	1
08/02/19	11:15 a	-38.2	-38.2	-38.3	18.3	SE	0.30	20.0	-57.1	734.3	0.039	0.000	6.3	85	1
08/02/19	11:16 a	-38.2	-38.2	-38.3	19.1	SE	0.32	22.6	-57.5	734.3	0.039	0.000	6.3	85	1
08/02/19	11:17 a	-38.2	-38.2	-38.3	18.3	ESE	0.30	21.7	-57.1	734.5	0.039	0.000	6.3	86	1
08/02/19	11:18 a	-38.2	-38.1	-38.2	17.4	ESE	0.29	20.0	-56.7	734.5	0.039	0.000	6.3	86	1
08/02/19	11:19 a	-38.1	-38.1	-38.2	16.5	SE	0.28	20.0	-56.2	734.5	0.039	0.000	6.3	86	1
08/02/19	11:20 a	-38.1	-38.1	-38.1	16.5	SE	0.28	20.0	-56.2	734.5	0.039	0.000	6.3	87	1
08/02/19	11:21 a	-38.1	-38.0	-38.1	16.5	SE	0.28	22.6	-56.2	734.6	0.039	0.000	6.3	87	1
08/02/19	11:22 a	-38.1	-38.0	-38.1	18.3	SE	0.30	20.0	-56.9	734.5	0.039	0.000	6.3	86	1
08/02/19	11:23 a	-38.0	-37.9	-38.1	18.3	SE	0.30	21.7	-56.8	734.6	0.039	0.000	6.3	86	1
08/02/19	11:24 a	-37.9	-37.9	-38.0	18.3	SE	0.30	20.9	-56.8	734.6	0.039	0.000	6.3	87	1
08/02/19	11:25 a	-37.9	-37.9	-37.9	18.3	SE	0.30	20.9	-56.8	734.7	0.039	0.000	6.3	86	1
08/02/19	11:26 a	-37.9	-37.8	-37.9	16.5	SE	0.28	19.1	-56.0	734.7	0.039	0.000	6.3	86	1
08/02/19	11:27 a	-37.9	-37.8	-37.9	17.4	SE	0.29	20.9	-56.3	734.7	0.039	0.000	6.3	87	1
08/02/19	11:28 a	-37.9	-37.8	-37.9	18.3	SE	0.30	21.7	-56.7	734.6	0.039	0.000	6.3	86	1
08/02/19	11:29 a	-37.9	-37.8	-37.9	17.4	SE	0.29	21.7	-56.3	734.5	0.039	0.000	6.3	86	1
08/02/19	11:30 a	-37.8	-37.8	-37.9	18.3	SE	0.30	20.9	-56.6	734.6	0.039	0.000	6.3	87	1
08/02/19	11:31 a	-37.8	-37.8	-37.9	19.1	SE	0.32	20.9	-56.9	734.5	0.039	0.000	6.3	87	1
08/02/19	11:32 a	-37.8	-37.7	-37.9	16.5	SE	0.28	22.6	-55.9	734.4	0.039	0.000	6.3	87	1
08/02/19	11:33 a	-37.8	-37.8	-37.9	17.4	SE	0.29	20.0	-56.3	734.5	0.039	0.000	6.3	87	1
08/02/19	11:34 a	-37.8	-37.7	-37.8	20.0	SE	0.33	21.7	-57.2	734.6	0.039	0.000	6.3	86	1
08/02/19	11:35 a	-37.8	-37.7	-37.8	19.1	SE	0.32	20.9	-56.9	734.5	0.039	0.000	6.3	86	1
08/02/19	11:36 a	-37.7	-37.7	-37.8	19.1	SE	0.32	23.5	-56.8	734.6	0.039	0.000	6.3	86	1
08/02/19	11:37 a	-37.7	-37.7	-37.7	19.1	SE	0.32	22.6	-56.8	734.5	0.039	0.000	6.2	86	1
08/02/19	11:38 a	-37.7	-37.7	-37.7	20.9	SE	0.35	24.3	-57.4	734.4	0.039	0.000	6.2	86	1
08/02/19	11:39 a	-37.7	-37.6	-37.7	21.7	SE	0.36	24.3	-57.7	734.5	0.039	0.000	6.3	86	1
08/02/19	11:40 a	-37.7	-37.6	-37.7	20.9	SE	0.35	23.5	-57.4	734.5	0.039	0.000	6.3	85	1
08/02/19	11:41 a	-37.6	-37.6	-37.7	20.0	SE	0.33	22.6	-57.0	734.5	0.039	0.000	6.2	85	1
08/02/19	11:42 a	-37.6	-37.6	-37.6	17.4	SE	0.29	22.6	-55.9	734.5	0.039	0.000	6.3	85	1
08/02/19	11:43 a	-37.6	-37.5	-37.6	19.1	SE	0.32	20.9	-56.6	734.5	0.039	0.000	6.2	85	1
08/02/19	11:44 a	-37.5	-37.4	-37.6	18.3	SSE	0.30	24.3	-56.2	734.5	0.039	0.000	6.3	86	1
08/02/19	11:45 a	-37.5	-37.4	-37.6	18.3	SE	0.30	20.9	-56.2	734.5	0.039	0.000	6.2	85	1
08/02/19	11:46 a	-37.5	-37.4	-37.5	20.9	SSE	0.35	22.6	-57.2	734.4	0.039	0.000	6.2	85	1
08/02/19	11:47 a	-37.4	-37.4	-37.4	20.9	SE	0.35	23.5	-57.1	734.5	0.039	0.000	6.2	85	1
08/02/19	11:48 a	-37.4	-37.4	-37.4	20.9	SE	0.35	23.5	-57.1	734.4	0.039	0.000	6.2	85	1
08/02/19	11:49 a	-37.4	-37.4	-37.4	20.9	SE	0.35	22.6	-57.0	734.5	0.039	0.000	6.2	86	1
08/02/19	11:50 a	-37.4	-37.3	-37.4	20.9	SE	0.35	23.5	-57.0	734.4	0.039	0.000	6.2	86	1
08/02/19	11:51 a	-37.3	-37.2	-37.4	21.7	SE	0.36	25.2	-57.3	734.5	0.039	0.000	6.2	85	1
08/02/19	11:52 a	-37.2	-37.2	-37.3	20.9	SE	0.35	24.3	-56.8	734.4	0.039	0.000	6.2	86	1
08/02/19	11:53 a	-37.2	-37.1	-37.3	20.9	SSE	0.35	22.6	-56.8	734.5	0.039	0.000	6.2	84	1
08/02/19	11:54 a	-37.2	-37.2	-37.3	20.9	SE	0.35	24.3	-56.8	734.5	0.039	0.000	6.2	86	1
08/02/19	11:55 a	-37.2	-37.1	-37.2	20.9	SE	0.35	24.3	-56.7	734.5	0.039	0.000	6.2	87	1
08/02/19	11:56 a	-37.2	-37.2	-37.2	21.7	SE	0.36	24.3	-57.1	734.5	0.039	0.000	6.2	87	1
08/02/19	11:57 a	-37.2	-37.1	-37.2	23.5	SSE	0.39	25.2	-57.6	734.4	0.039	0.000	6.2	86	1
08/02/19	11:58 a	-37.1	-37.1	-37.2	22.6	SSE	0.38	24.3	-57.3	734.5	0.039	0.000	6.2	86	1
08/02/19	11:59 a	-37.1	-37.0	-37.1	21.7	SSE	0.36	24.3	-56.9	734.5	0.038	0.000	6.2	85	1
08/02/19	12:00 p	-37.1	-37.1	-37.1	20.9	SSE	0.35	23.5	-56.6	734.5	0.038	0.000	6.2	85	1
08/02/19	12:01 p	-37.1	-37.1	-37.1	20.9	SSE	0.35	22.6	-56.7	734.5	0.039	0.000	6.2	85	1
08/02/19	12:02 p	-37.1	-37.0	-37.1	20.9	SSE	0.35	22.6	-56.7	734.5	0.039	0.000	6.2	84	1
08/02/19	12:03 p	-37.1	-37.0	-37.1	22.6	SSE	0.38	24.3	-57.2	734.5	0.038	0.000	6.2	83	1
08/02/19	12:04 p	-37.0	-37.0	-37.1	20.9	SE	0.35	25.2	-56.5	734.5	0.038	0.000	6.2	85	1
08/02/19	12:05 p	-36.9	-36.9	-37.0	20.0	SSE	0.33	24.3	-56.1	734.4	0.038	0.000	6.2	84	1
08/02/19	12:06 p	-37.0	-37.0	-37.1	21.7	SE	0.36	24.3	-56.8	734.4	0.038	0.000	6.2	84	1
08/02/19	12:07 p	-37.0	-36.9	-37.0	21.7	SE	0.36	24.3	-56.8	734.6	0.038	0.000	6.2	83	1
08/02/19	12:08 p	-36.9	-36.9	-36.9	21.7	SE	0.36	22.6	-56.7	734.5	0.038	0.000	6.2	83	1
08/02/19	12:09 p	-37.0	-36.9	-37.0	21.7	SE	0.36	23.5	-56.8	734.5	0.038	0.000	6.2	83	1
08/02/19	12:10 p	-36.9	-36.9	-37.0	23.5	SE	0.39	27.0	-57.3	734.5	0.038	0.000	6.2	83	1
08/02/19	12:11 p	-36.9	-36.9	-37.0	24.3	SE	0.41	27.0	-57.6	734.5	0.038	0.000	6.2	83	1
08/02/19	12:12 p	-36.9	-36.9	-36.9	24.3	SE	0.41	26.1	-57.6	734.5	0.038	0.000	6.2	84	1
08/02/19	12:13 p	-36.9	-36.8	-36.9	23.5	SE	0.39	26.1	-57.2	734.5	0.038	0.000	6.2	82	1
08/02/19	12:14 p	-36.9	-36.9	-36.9	23.5	SE	0.39	27.0	-57.2	734.5	0.038	0.000	6.2	82	1
08/02/19	12:15 p	-36.9	-36.9	-36.9	23.5	SE	0.39	25.2	-57.3	734.5	0.038	0.000	6.2	81	1
08/02/19	12:16 p	-36.9	-36.8	-36.9	21.7	SE	0.36	25.2	-56.7	734.6	0.038	0.000	6.2	82	1
08/02/19	12:17 p	-36.9	-36.9	-36.9	22.6	SE	0.38	25.2	-56.9	734.5	0.038	0.000	6.2	82	1
08/02/19	12:18 p	-36.9	-36.8	-36.9	24.3	SE	0.41	26.1	-57.5	734.5	0.038	0.000	6.2	82	1
08/02/19	12:19 p	-36.9	-36.9	-36.9	20.9	SE	0.35	22.6	-56.3	734.5	0.038	0.000	6.2	80	1
08/02/19	12:20 p	-36.8	-36.8	-36.9	19.1	SE	0.32	22.6	-55.6	734.6	0.038	0.000	6.2	80	1
08/02/19	12:21 p	-36.8	-36.8	-36.9	20.9	SE	0.35	25.2	-56.3	734.5	0.038	0.000	6.2	79	1
08/02/19	12:22 p	-36.8	-36.8	-36.9	23.5	SE	0.39	27.0	-57.2	734.5	0.038	0.000	6.2	79	1
08/02/19	12:23 p	-36.9	-36.9	-36.9	21.7	SE	0.36	24.3	-56.7	734.5	0.038	0.000	6.2	79	1
08/02/19	12:24 p	-36.9	-36.8	-36.9	21.7	SE	0.36	25.2	-56.7	734.6	0.038	0.000	6.2	82	1
08/02/19	12:25 p	-36.8	-36.7	-36.8	21.7	SE	0.36	23.5	-56.5	734.6	0.038	0.000	6.2	83	1
08/02/19	12:26 p	-36.8	-36.8	-36.8	20.9	SE	0.35	23.5	-56.3	734.6	0.038	0.000	6.2	82	1
08/02/19	12:27 p	-36.8	-36.8	-36.8	18.3	SE	0.30	21.7	-55.3	734.6	0.038	0.000	6.2	82	1
08/02/19	12:28 p	-36.8	-36.8	-36.8	20.9	SE	0.35	23.5	-56.3	734.6	0.038	0.000	6.2	81	1
08/02/19	12:29 p	-36.8	-36.8	-36.8	20.9	SE	0.35	22.6	-56.3	734.6	0.038	0.000	6.2	82	1
08/02/19	12:30 p	-36.8	-36.7	-36.8	18.3	SE	0.30	20.9	-55.2	734.7	0.038	0.000	6.2	82	1
08/02/19	12:31 p	-36.8	-36.7	-36.9	20.0	SE	0.33	21.7	-55.9	734.7	0.038	0.000	6.2	82	1
08/02/19	12:32 p	-36.8	-36.8	-36.8	20.0	SE	0.33	22.6	-55.9	734.6	0.038	0.000	6.2	81	1
08/02/19	12:33 p	-36.8	-36.8	-36.8	19.1	SE	0.32	21.7	-55.6	734.6	0.038	0.000	6.2	82	1
08/02/19	12:34 p	-36.8	-36.8	-36.8	20.0	SE	0.33	23.5	-55.9	734.7	0.038	0.000	6.2	82	1
08/02/19	12:35 p	-36.8	-36.8	-36.8	20.0	SE	0.33	20.9	-55.9	734.7	0.038	0.000	6.2	81	1
08/02/19	12:36 p	-36.8	-36.8	-36.8	17.4	SE	0.29	21.7	-54.9	734.7	0.038	0.000	6.2	82	1
08/02/19	12:37 p	-36.8	-36.8	-36.8	16.5	SE	0.28	19.1	-54.6	734.8	0.038	0.000	6.2	81	1
08/02/19	12:38 p	-36.8	-36.7	-36.8	20.0	SE	0.33	22.6	-55.9	734.7	0.038	0.000	6.2	81	1
08/02/19	12:39 p	-36.8	-36.7	-36.8	19.1	SE	0.32	22.6	-55.6	734.7	0.038	0.000	6.2	81	1
08/02/19	12:40 p	-36.8	-36.8	-36.8	20.9	SE	0.35	22.6	-56.3	734.7	0.038	0.000	6.2	81	1
08/02/19	12:41 p	-36.8	-36.7	-36.8	18.3	SE	0.30	20.0	-55.2	734.7	0.038	0.000	6.2	80	1
08/02/19	12:42 p	-36.8	-36.8	-36.9	19.1	SE	0.32	22.6	-55.6	734.7	0.038	0.000	6.2	81	1
08/02/19	12:43 p	-36.8	-36.8	-36.9	18.3	SE	0.30	20.0	-55.3	734.6	0.038	0.000	6.2	80	1
08/02/19	12:44 p	-36.8	-36.8	-36.9	17.4	SE	0.29	20.0	-54.9	734.7	0.038	0.000	6.2	80	1
08/02/19	12:45 p	-36.8	-36.8	-36.8	16.5	SE	0.28	20.9	-54.5	734.7	0.038	0.000	6.2	80	1
08/02/19	12:46 p	-36.8	-36.8	-36.9	16.5	SE	0.28	19.1	-54.6	734.7	0.038	0.000	6.2	80	1
08/02/19	12:47 p	-36.8	-36.8	-36.8	14.8	SE	0.25	20.0	-53.7	734.7	0.038	0.000	6.3	80	1
08/02/19	12:48 p	-36.8	-36.8	-36.9	15.7	SE	0.26	19.1	-54.2	734.6	0.038	0.000	6.3	80	1
08/02/19	12:49 p	-36.8	-36.8	-36.8	17.4	SE	0.29	20.0	-54.9	734.7	0.038	0.000	6.3	80	1
08/02/19	12:50 p	-36.8	-36.8	-36.9	19.1	SE	0.32	20.0	-55.6	734.6	0.038	0.000	6.3	80	1
08/02/19	12:51 p	-36.9	-36.8	-36.9	17.4	SE	0.29	19.1	-55.0	734.6	0.038	0.000	6.2	80	1
08/02/19	12:52 p	-36.9	-36.8	-36.9	13.9	SE	0.23	17.4	-53.4	734.6	0.038	0.000	6.2	79	1
08/02/19	12:53 p	-36.9	-36.8	-36.9	13.9	SE	0.23	18.3	-53.4	734.6	0.038	0.000	6.3	79	1
08/02/19	12:54 p	-36.8	-36.8	-36.9	13.9	SE	0.23	19.1	-53.3	734.6	0.038	0.000	6.3	79	1
08/02/19	12:55 p	-36.9	-36.8	-36.9	16.5	SE	0.28	20.0	-54.7	734.6	0.038	0.000	6.3	79	1
08/02/19	12:56 p	-36.9	-36.9	-36.9	19.1	SE	0.32	20.9	-55.8	734.6	0.038	0.000	6.3	79	1
08/02/19	12:57 p	-36.9	-36.9	-36.9	17.4	SE	0.29	20.0	-55.1	734.6	0.038	0.000	6.3	79	1
08/02/19	12:58 p	-36.9	-36.9	-36.9	20.9	SE	0.35	22.6	-56.4	734.6	0.038	0.000	6.3	79	1
08/02/19	12:59 p	-36.9	-36.9	-37.0	16.5	SE	0.28	20.0	-54.7	734.6	0.038	0.000	6.3	80	1
08/02/19	1:00 p	-36.9	-36.9	-37.0	19.1	SE	0.32	21.7	-55.8	734.6	0.038	0.000	6.3	80	1
08/02/19	1:01 p	-36.9	-36.9	-37.0	20.0	SE	0.33	21.7	-56.1	734.6	0.038	0.000	6.3	80	1
08/02/19	1:02 p	-36.9	-36.9	-37.0	19.1	SE	0.32	21.7	-55.8	734.6	0.038	0.000	6.3	79	1
08/02/19	1:03 p	-36.9	-36.9	-37.0	19.1	SE	0.32	21.7	-55.8	734.6	0.038	0.000	6.3	80	1
08/02/19	1:04 p	-36.9	-36.9	-37.0	19.1	SE	0.32	20.9	-55.8	734.6	0.038	0.000	6.3	79	1
08/02/19	1:05 p	-37.0	-36.9	-37.1	16.5	SE	0.28	19.1	-54.8	734.6	0.038	0.000	6.3	79	1
08/02/19	1:06 p	-37.0	-37.0	-37.0	17.4	SE	0.29	18.3	-55.2	734.7	0.038	0.000	6.3	79	1
08/02/19	1:07 p	-36.9	-36.9	-37.0	13.9	SE	0.23	18.3	-53.5	734.7	0.038	0.000	6.3	79	1
08/02/19	1:08 p	-37.0	-36.9	-37.1	13.9	SE	0.23	18.3	-53.6	734.7	0.038	0.000	6.3	79	1
08/02/19	1:09 p	-37.0	-36.9	-37.0	13.9	SE	0.23	15.7	-53.6	734.7	0.038	0.000	6.3	79	1
08/02/19	1:10 p	-37.0	-36.9	-37.0	15.7	SE	0.26	17.4	-54.4	734.6	0.038	0.000	6.3	79	1
08/02/19	1:11 p	-37.0	-36.9	-37.0	14.8	SE	0.25	17.4	-54.0	734.7	0.038	0.000	6.3	79	1
08/02/19	1:12 p	-36.9	-36.8	-37.0	13.9	SE	0.23	17.4	-53.5	734.7	0.038	0.000	6.3	79	1
08/02/19	1:13 p	-37.0	-36.9	-37.0	13.9	SE	0.23	16.5	-53.6	734.7	0.038	0.000	6.3	79	1
08/02/19	1:14 p	-37.0	-36.9	-37.0	12.2	SE	0.20	16.5	-52.7	734.7	0.038	0.000	6.4	79	1
08/02/19	1:15 p	-37.0	-36.9	-37.1	14.8	SE	0.25	16.5	-54.0	734.7	0.038	0.000	6.4	78	1
08/02/19	1:16 p	-37.0	-36.9	-37.0	13.0	SE	0.22	17.4	-53.1	734.6	0.038	0.000	6.4	79	1
08/02/19	1:17 p	-36.9	-36.9	-37.0	13.9	SE	0.23	18.3	-53.5	734.7	0.038	0.000	6.4	79	1
08/02/19	1:18 p	-37.0	-36.9	-37.1	15.7	SE	0.26	17.4	-54.4	734.7	0.038	0.000	6.4	79	1
08/02/19	1:19 p	-36.9	-36.9	-37.0	13.9	SE	0.23	18.3	-53.5	734.7	0.038	0.000	6.4	79	1
08/02/19	1:20 p	-37.0	-36.9	-37.1	12.2	SE	0.20	17.4	-52.7	734.7	0.038	0.000	6.4	79	1
08/02/19	1:21 p	-37.0	-36.9	-37.0	15.7	SE	0.26	19.1	-54.4	734.7	0.038	0.000	6.4	79	1
08/02/19	1:22 p	-37.0	-37.0	-37.0	16.5	SE	0.28	19.1	-54.8	734.7	0.038	0.000	6.4	79	1
08/02/19	1:23 p	-37.0	-37.0	-37.0	18.3	SE	0.30	20.0	-55.5	734.7	0.038	0.000	6.4	79	1
08/02/19	1:24 p	-37.1	-37.0	-37.1	17.4	SE	0.29	20.9	-55.2	734.7	0.038	0.000	6.4	79	1
08/02/19	1:25 p	-37.1	-37.0	-37.1	19.1	SE	0.32	20.9	-55.9	734.7	0.038	0.000	6.4	79	1
08/02/19	1:26 p	-37.1	-37.0	-37.1	17.4	SE	0.29	19.1	-55.2	734.7	0.038	0.000	6.4	79	1
08/02/19	1:27 p	-37.1	-37.1	-37.1	15.7	SE	0.26	20.0	-54.5	734.7	0.038	0.000	6.4	79	1
08/02/19	1:28 p	-37.1	-37.1	-37.1	17.4	SE	0.29	20.0	-55.2	734.7	0.038	0.000	6.4	79	1
08/02/19	1:29 p	-37.1	-37.1	-37.1	14.8	ESE	0.25	20.0	-54.1	734.8	0.038	0.000	6.4	79	1
08/02/19	1:30 p	-37.1	-37.1	-37.1	18.3	ESE	0.30	20.0	-55.7	734.8	0.039	0.000	6.4	79	1
08/02/19	1:31 p	-37.1	-37.1	-37.1	15.7	ESE	0.26	20.9	-54.6	734.8	0.039	0.000	6.4	79	1
08/02/19	1:32 p	-37.1	-37.1	-37.2	18.3	ESE	0.30	20.9	-55.7	734.8	0.039	0.000	6.4	79	1
08/02/19	1:33 p	-37.1	-37.1	-37.2	18.3	ESE	0.30	20.9	-55.7	734.8	0.039	0.000	6.4	78	1
08/02/19	1:34 p	-37.2	-37.1	-37.2	17.4	ESE	0.29	20.0	-55.4	734.7	0.039	0.000	6.4	78	1
08/02/19	1:35 p	-37.2	-37.1	-37.2	15.7	ESE	0.26	20.0	-54.6	734.7	0.039	0.000	6.4	78	1
08/02/19	1:36 p	-37.2	-37.2	-37.2	16.5	ESE	0.28	19.1	-55.1	734.8	0.039	0.000	6.4	78	1
08/02/19	1:37 p	-37.2	-37.2	-37.3	15.7	ESE	0.26	18.3	-54.7	734.7	0.039	0.000	6.4	78	1
08/02/19	1:38 p	-37.2	-37.2	-37.2	16.5	ESE	0.28	19.1	-55.1	734.7	0.039	0.000	6.4	78	1
08/02/19	1:39 p	-37.2	-37.2	-37.3	17.4	ESE	0.29	19.1	-55.4	734.7	0.039	0.000	6.4	78	1
08/02/19	1:40 p	-37.3	-37.2	-37.3	17.4	ESE	0.29	19.1	-55.5	734.7	0.039	0.000	6.4	78	1
08/02/19	1:41 p	-37.2	-37.2	-37.3	16.5	ESE	0.28	19.1	-55.1	734.7	0.039	0.000	6.4	78	1
08/02/19	1:42 p	-37.3	-37.2	-37.3	15.7	ESE	0.26	19.1	-54.8	734.8	0.039	0.000	6.4	78	1
08/02/19	1:43 p	-37.3	-37.3	-37.3	16.5	ESE	0.28	19.1	-55.2	734.7	0.039	0.000	6.4	78	1
08/02/19	1:44 p	-37.3	-37.3	-37.3	17.4	ESE	0.29	19.1	-55.6	734.7	0.039	0.000	6.4	78	1
08/02/19	1:45 p	-37.3	-37.3	-37.4	17.4	ESE	0.29	19.1	-55.6	734.7	0.039	0.000	6.4	78	1
08/02/19	1:46 p	-37.3	-37.3	-37.4	16.5	ESE	0.28	19.1	-55.2	734.8	0.039	0.000	6.4	78	1
08/02/19	1:47 p	-37.4	-37.3	-37.4	16.5	ESE	0.28	19.1	-55.3	734.7	0.039	0.000	6.4	78	1
08/02/19	1:48 p	-37.4	-37.4	-37.4	16.5	SE	0.28	19.1	-55.3	734.7	0.039	0.000	6.4	78	1
08/02/19	1:49 p	-37.4	-37.3	-37.4	16.5	SE	0.28	19.1	-55.3	734.8	0.039	0.000	6.4	78	1
08/02/19	1:50 p	-37.4	-37.4	-37.4	14.8	SE	0.25	20.0	-54.6	734.7	0.039	0.000	6.4	79	1
08/02/19	1:51 p	-37.4	-37.4	-37.4	17.4	SE	0.29	18.3	-55.7	734.7	0.039	0.000	6.4	79	1
08/02/19	1:52 p	-37.4	-37.3	-37.4	15.7	SE	0.26	19.1	-54.9	734.8	0.039	0.000	6.4	79	1
08/02/19	1:53 p	-37.4	-37.4	-37.5	13.9	SE	0.23	19.1	-54.2	734.7	0.039	0.000	6.4	79	1
08/02/19	1:54 p	-37.4	-37.4	-37.5	13.9	SE	0.23	20.0	-54.2	734.8	0.039	0.000	6.4	79	1
08/02/19	1:55 p	-37.4	-37.4	-37.5	15.7	ESE	0.26	19.1	-55.0	734.8	0.039	0.000	6.4	78	1
08/02/19	1:56 p	-37.5	-37.4	-37.5	13.0	SE	0.22	18.3	-53.8	734.8	0.039	0.000	6.4	79	1
08/02/19	1:57 p	-37.5	-37.4	-37.5	16.5	SE	0.28	18.3	-55.4	734.8	0.039	0.000	6.4	78	1
08/02/19	1:58 p	-37.4	-37.4	-37.5	13.9	SE	0.23	17.4	-54.2	734.7	0.039	0.000	6.4	78	1
08/02/19	1:59 p	-37.5	-37.4	-37.5	13.0	SE	0.22	16.5	-53.8	734.8	0.039	0.000	6.4	78	1
08/02/19	2:00 p	-37.4	-37.4	-37.5	10.4	SE	0.17	16.5	-52.2	734.8	0.039	0.000	6.4	78	1
08/02/19	2:01 p	-37.4	-37.4	-37.5	11.3	SE	0.19	17.4	-52.7	734.8	0.039	0.000	6.4	78	1
08/02/19	2:02 p	-37.4	-37.4	-37.5	13.0	ESE	0.22	16.5	-53.7	734.8	0.039	0.000	6.4	78	1
08/02/19	2:03 p	-37.4	-37.4	-37.4	13.9	ESE	0.23	17.4	-54.2	734.8	0.039	0.000	6.4	78	1
08/02/19	2:04 p	-37.4	-37.4	-37.5	11.3	ESE	0.19	19.1	-52.7	734.8	0.039	0.000	6.4	78	1
08/02/19	2:05 p	-37.4	-37.4	-37.4	13.9	ESE	0.23	19.1	-54.2	734.8	0.039	0.000	6.4	78	1
08/02/19	2:06 p	-37.4	-37.3	-37.4	14.8	ESE	0.25	19.1	-54.5	734.8	0.039	0.000	6.4	78	1
08/02/19	2:07 p	-37.4	-37.4	-37.5	15.7	ESE	0.26	19.1	-55.0	734.7	0.039	0.000	6.4	78	1
08/02/19	2:08 p	-37.4	-37.4	-37.4	13.9	ESE	0.23	20.0	-54.2	734.7	0.039	0.000	6.4	78	1
08/02/19	2:09 p	-37.4	-37.4	-37.4	17.4	ESE	0.29	20.0	-55.7	734.7	0.039	0.000	6.4	78	1
08/02/19	2:10 p	-37.4	-37.4	-37.4	17.4	ESE	0.29	21.7	-55.7	734.7	0.039	0.000	6.4	78	1
08/02/19	2:11 p	-37.4	-37.3	-37.4	20.9	ESE	0.35	21.7	-57.0	734.6	0.039	0.000	6.4	78	1
08/02/19	2:12 p	-37.4	-37.4	-37.4	18.3	ESE	0.30	20.9	-56.1	734.7	0.039	0.000	6.4	78	1
08/02/19	2:13 p	-37.4	-37.4	-37.4	17.4	ESE	0.29	20.9	-55.7	734.8	0.039	0.000	6.4	77	1
08/02/19	2:14 p	-37.3	-37.3	-37.4	17.4	ESE	0.29	20.9	-55.6	734.7	0.039	0.000	6.4	77	1
08/02/19	2:15 p	-37.4	-37.3	-37.4	13.9	E	0.23	19.1	-54.1	734.7	0.039	0.000	6.4	78	1
08/02/19	2:16 p	-37.4	-37.3	-37.4	17.4	E	0.29	20.0	-55.7	734.7	0.039	0.000	6.4	78	1
08/02/19	2:17 p	-37.4	-37.3	-37.4	19.1	E	0.32	21.7	-56.4	734.7	0.039	0.000	6.4	77	1
08/02/19	2:18 p	-37.4	-37.3	-37.4	20.0	E	0.33	21.7	-56.7	734.7	0.039	0.000	6.4	78	1
08/02/19	2:19 p	-37.4	-37.4	-37.5	18.3	E	0.30	21.7	-56.1	734.7	0.039	0.000	6.4	77	1
08/02/19	2:20 p	-37.4	-37.4	-37.5	16.5	E	0.28	20.0	-55.4	734.7	0.039	0.000	6.4	78	1
08/02/19	2:21 p	-37.5	-37.4	-37.5	19.1	E	0.32	20.9	-56.5	734.8	0.039	0.000	6.4	78	1
08/02/19	2:22 p	-37.5	-37.4	-37.6	17.4	E	0.29	20.9	-55.8	734.8	0.039	0.000	6.4	78	1
08/02/19	2:23 p	-37.6	-37.5	-37.6	18.3	E	0.30	21.7	-56.2	734.8	0.039	0.000	6.4	78	1
08/02/19	2:24 p	-37.6	-37.6	-37.6	17.4	E	0.29	20.9	-55.9	734.8	0.039	0.000	6.4	78	1
08/02/19	2:25 p	-37.6	-37.6	-37.7	19.1	E	0.32	20.9	-56.7	734.7	0.039	0.000	6.4	78	1
08/02/19	2:26 p	-37.7	-37.7	-37.7	19.1	E	0.32	21.7	-56.7	734.7	0.039	0.000	6.4	78	1
08/02/19	2:27 p	-37.7	-37.7	-37.7	20.0	E	0.33	22.6	-57.2	734.8	0.039	0.000	6.4	78	1
08/02/19	2:28 p	-37.8	-37.7	-37.8	20.0	E	0.33	21.7	-57.2	734.7	0.039	0.000	6.4	78	1
08/02/19	2:29 p	-37.8	-37.8	-37.8	20.9	E	0.35	22.6	-57.6	734.7	0.039	0.000	6.4	78	1
08/02/19	2:30 p	-37.8	-37.8	-37.9	20.9	E	0.35	23.5	-57.6	734.6	0.039	0.000	6.4	78	1
08/02/19	2:31 p	-37.9	-37.9	-37.9	20.9	E	0.35	23.5	-57.7	734.7	0.039	0.000	6.4	78	1
08/02/19	2:32 p	-37.9	-37.9	-37.9	21.7	E	0.36	23.5	-58.0	734.7	0.039	0.000	6.4	78	1
08/02/19	2:33 p	-38.0	-37.9	-38.0	21.7	E	0.36	23.5	-58.2	734.7	0.039	0.000	6.4	78	1
08/02/19	2:34 p	-38.0	-38.0	-38.1	20.9	E	0.35	23.5	-57.8	734.7	0.039	0.000	6.4	78	1
08/02/19	2:35 p	-38.1	-38.1	-38.1	20.9	E	0.35	23.5	-58.0	734.7	0.039	0.000	6.4	78	1
08/02/19	2:36 p	-38.1	-38.1	-38.2	21.7	E	0.36	23.5	-58.3	734.6	0.039	0.000	6.4	78	1
08/02/19	2:37 p	-38.2	-38.2	-38.2	21.7	E	0.36	23.5	-58.4	734.7	0.039	0.000	6.5	78	1
08/02/19	2:38 p	-38.2	-38.2	-38.2	22.6	E	0.38	23.5	-58.7	734.6	0.039	0.000	6.5	78	1
08/02/19	2:39 p	-38.2	-38.2	-38.3	21.7	E	0.36	23.5	-58.4	734.7	0.039	0.000	6.5	78	1
08/02/19	2:40 p	-38.3	-38.2	-38.4	21.7	E	0.36	23.5	-58.5	734.7	0.039	0.000	6.5	78	1
08/02/19	2:41 p	-38.3	-38.3	-38.3	20.9	E	0.35	23.5	-58.2	734.7	0.039	0.000	6.5	78	1
08/02/19	2:42 p	-38.3	-38.3	-38.4	22.6	E	0.38	23.5	-58.9	734.7	0.039	0.000	6.5	78	1
08/02/19	2:43 p	-38.4	-38.3	-38.4	20.9	E	0.35	22.6	-58.3	734.7	0.039	0.000	6.5	78	1
08/02/19	2:44 p	-38.4	-38.4	-38.4	20.0	E	0.33	21.7	-58.1	734.7	0.039	0.000	6.5	78	1
08/02/19	2:45 p	-38.4	-38.4	-38.4	20.9	E	0.35	23.5	-58.3	734.6	0.039	0.000	6.5	78	1
08/02/19	2:46 p	-38.4	-38.4	-38.4	21.7	ESE	0.36	24.3	-58.7	734.7	0.039	0.000	6.5	78	1
08/02/19	2:47 p	-38.4	-38.4	-38.5	22.6	E	0.38	24.3	-59.1	734.6	0.039	0.000	6.5	78	1
08/02/19	2:48 p	-38.4	-38.4	-38.4	22.6	E	0.38	23.5	-59.1	734.6	0.039	0.000	6.5	78	1
08/02/19	2:49 p	-38.5	-38.4	-38.6	22.6	E	0.38	24.3	-59.1	734.6	0.039	0.000	6.5	78	1
08/02/19	2:50 p	-38.4	-38.4	-38.5	22.6	E	0.38	24.3	-59.1	734.6	0.039	0.000	6.5	78	1
08/02/19	2:51 p	-38.5	-38.4	-38.6	21.7	E	0.36	23.5	-58.8	734.7	0.039	0.000	6.5	78	1
08/02/19	2:52 p	-38.5	-38.5	-38.6	21.7	E	0.36	23.5	-58.8	734.7	0.039	0.000	6.5	78	1
08/02/19	2:53 p	-38.5	-38.5	-38.6	21.7	E	0.36	23.5	-58.8	734.7	0.039	0.000	6.5	78	1
08/02/19	2:54 p	-38.5	-38.5	-38.6	20.9	E	0.35	22.6	-58.5	734.8	0.039	0.000	6.5	78	1
08/02/19	2:55 p	-38.5	-38.5	-38.6	20.0	E	0.33	22.6	-58.2	734.7	0.039	0.000	6.5	78	1
08/02/19	2:56 p	-38.6	-38.5	-38.6	20.9	E	0.35	22.6	-58.6	734.6	0.040	0.000	6.5	78	1
08/02/19	2:57 p	-38.5	-38.4	-38.6	20.9	E	0.35	23.5	-58.5	734.6	0.039	0.000	6.5	78	1
08/02/19	2:58 p	-38.4	-38.4	-38.5	22.6	E	0.38	23.5	-59.1	734.6	0.039	0.000	6.5	78	1
08/02/19	2:59 p	-38.4	-38.4	-38.5	22.6	E	0.38	24.3	-58.9	734.6	0.039	0.000	6.5	78	1
08/02/19	3:00 p	-38.4	-38.4	-38.5	22.6	E	0.38	23.5	-59.1	734.5	0.039	0.000	6.5	78	1
08/02/19	3:01 p	-38.4	-38.3	-38.4	21.7	E	0.36	23.5	-58.7	734.6	0.039	0.000	6.5	78	1
08/02/19	3:02 p	-38.3	-38.3	-38.4	22.6	E	0.38	25.2	-58.9	734.6	0.039	0.000	6.6	78	1
08/02/19	3:03 p	-38.3	-38.3	-38.3	23.5	E	0.39	26.1	-59.2	734.5	0.039	0.000	6.5	78	1
08/02/19	3:04 p	-38.3	-38.2	-38.3	23.5	E	0.39	24.3	-59.1	734.5	0.039	0.000	6.5	78	1
08/02/19	3:05 p	-38.3	-38.2	-38.3	22.6	E	0.38	24.3	-58.8	734.6	0.039	0.000	6.5	78	1
08/02/19	3:06 p	-38.2	-38.2	-38.3	22.6	E	0.38	24.3	-58.7	734.5	0.039	0.000	6.5	78	1
08/02/19	3:07 p	-38.2	-38.2	-38.2	21.7	E	0.36	23.5	-58.4	734.6	0.039	0.000	6.6	78	1
08/02/19	3:08 p	-38.1	-38.1	-38.2	22.6	E	0.38	24.3	-58.6	734.5	0.039	0.000	6.6	78	1
08/02/19	3:09 p	-38.1	-38.1	-38.2	21.7	ESE	0.36	24.3	-58.3	734.5	0.039	0.000	6.5	78	1
08/02/19	3:10 p	-38.1	-38.0	-38.1	22.6	ESE	0.38	23.5	-58.5	734.6	0.039	0.000	6.6	78	1
08/02/19	3:11 p	-38.1	-37.9	-38.1	20.9	ESE	0.35	23.5	-57.9	734.6	0.039	0.000	6.5	78	1
08/02/19	3:12 p	-38.0	-37.9	-38.1	22.6	ESE	0.38	25.2	-58.4	734.6	0.039	0.000	6.6	78	1
08/02/19	3:13 p	-37.9	-37.9	-38.0	23.5	ESE	0.39	25.2	-58.7	734.6	0.039	0.000	6.6	78	1
08/02/19	3:14 p	-37.9	-37.9	-37.9	22.6	ESE	0.38	25.2	-58.4	734.6	0.039	0.000	6.6	78	1
08/02/19	3:15 p	-37.9	-37.9	-37.9	22.6	ESE	0.38	25.2	-58.4	734.5	0.039	0.000	6.6	78	1
08/02/19	3:16 p	-37.9	-37.8	-37.9	23.5	ESE	0.39	25.2	-58.6	734.6	0.039	0.000	6.6	78	1
08/02/19	3:17 p	-37.9	-37.8	-37.9	22.6	ESE	0.38	25.2	-58.3	734.6	0.039	0.000	6.6	78	1
08/02/19	3:18 p	-37.8	-37.8	-37.9	23.5	ESE	0.39	25.2	-58.5	734.6	0.039	0.000	6.6	78	1
08/02/19	3:19 p	-37.8	-37.8	-37.8	24.3	ESE	0.41	25.2	-58.8	734.6	0.039	0.000	6.6	78	1
08/02/19	3:20 p	-37.8	-37.8	-37.8	24.3	ESE	0.41	27.0	-58.7	734.5	0.039	0.000	6.6	78	1
08/02/19	3:21 p	-37.8	-37.8	-37.8	23.5	ESE	0.39	25.2	-58.4	734.5	0.039	0.000	6.6	78	1
08/02/19	3:22 p	-37.8	-37.8	-37.8	24.3	ESE	0.41	26.1	-58.8	734.5	0.039	0.000	6.6	78	1
08/02/19	3:23 p	-37.8	-37.7	-37.8	23.5	ESE	0.39	25.2	-58.5	734.5	0.039	0.000	6.6	78	1
08/02/19	3:24 p	-37.8	-37.7	-37.8	24.3	ESE	0.41	26.1	-58.7	734.5	0.039	0.000	6.6	78	1
08/02/19	3:25 p	-37.8	-37.7	-37.8	24.3	ESE	0.41	26.1	-58.7	734.5	0.039	0.000	6.6	78	1
08/02/19	3:26 p	-37.8	-37.7	-37.8	24.3	ESE	0.41	26.1	-58.7	734.5	0.039	0.000	6.6	78	1
08/02/19	3:27 p	-37.8	-37.7	-37.8	24.3	ESE	0.41	26.1	-58.7	734.5	0.039	0.000	6.6	78	1
08/02/19	3:28 p	-37.7	-37.7	-37.7	24.3	ESE	0.41	27.0	-58.7	734.6	0.039	0.000	6.6	78	1
08/02/19	3:29 p	-37.7	-37.7	-37.8	23.5	ESE	0.39	25.2	-58.4	734.5	0.039	0.000	6.6	78	1
08/02/19	3:30 p	-37.7	-37.7	-37.7	24.3	ESE	0.41	25.2	-58.6	734.6	0.039	0.000	6.6	78	1
08/02/19	3:31 p	-37.7	-37.7	-37.8	24.3	ESE	0.41	26.1	-58.7	734.5	0.039	0.000	6.6	78	1
08/02/19	3:32 p	-37.7	-37.7	-37.7	23.5	ESE	0.39	24.3	-58.4	734.6	0.039	0.000	6.6	78	1
08/02/19	3:33 p	-37.7	-37.7	-37.7	23.5	ESE	0.39	24.3	-58.3	734.5	0.039	0.000	6.6	78	1
08/02/19	3:34 p	-37.7	-37.7	-37.8	21.7	ESE	0.36	23.5	-57.8	734.6	0.039	0.000	6.6	78	1
08/02/19	3:35 p	-37.7	-37.7	-37.7	20.9	ESE	0.35	23.5	-57.4	734.6	0.039	0.000	6.6	78	1
08/02/19	3:36 p	-37.7	-37.6	-37.7	22.6	ESE	0.38	24.3	-58.0	734.6	0.039	0.000	6.6	78	1
08/02/19	3:37 p	-37.7	-37.7	-37.7	20.9	ESE	0.35	23.5	-57.4	734.7	0.039	0.000	6.6	78	1
08/02/19	3:38 p	-37.7	-37.7	-37.8	20.9	ESE	0.35	23.5	-57.4	734.7	0.039	0.000	6.6	78	1
08/02/19	3:39 p	-37.7	-37.6	-37.7	21.7	ESE	0.36	22.6	-57.7	734.6	0.039	0.000	6.6	78	1
08/02/19	3:40 p	-37.7	-37.7	-37.7	21.7	ESE	0.36	22.6	-57.7	734.7	0.039	0.000	6.6	78	1
08/02/19	3:41 p	-37.7	-37.6	-37.7	20.9	ESE	0.35	22.6	-57.4	734.6	0.039	0.000	6.6	78	1
08/02/19	3:42 p	-37.7	-37.6	-37.7	20.9	ESE	0.35	22.6	-57.4	734.7	0.039	0.000	6.6	78	1
08/02/19	3:43 p	-37.7	-37.6	-37.7	21.7	ESE	0.36	23.5	-57.7	734.7	0.039	0.000	6.6	78	1
08/02/19	3:44 p	-37.7	-37.6	-37.7	20.0	ESE	0.33	23.5	-57.1	734.7	0.039	0.000	6.6	78	1
08/02/19	3:45 p	-37.6	-37.6	-37.7	22.6	ESE	0.38	23.5	-57.9	734.7	0.039	0.000	6.6	78	1
08/02/19	3:46 p	-37.6	-37.6	-37.7	21.7	ESE	0.36	23.5	-57.6	734.7	0.039	0.000	6.6	78	1
08/02/19	3:47 p	-37.6	-37.6	-37.7	21.7	ESE	0.36	22.6	-57.6	734.7	0.039	0.000	6.6	78	1
08/02/19	3:48 p	-37.6	-37.6	-37.7	21.7	ESE	0.36	22.6	-57.6	734.6	0.039	0.000	6.6	78	1
08/02/19	3:49 p	-37.6	-37.6	-37.7	22.6	ESE	0.38	24.3	-57.9	734.6	0.039	0.000	6.6	78	1
08/02/19	3:50 p	-37.6	-37.6	-37.7	21.7	ESE	0.36	23.5	-57.6	734.6	0.039	0.000	6.6	78	1
08/02/19	3:51 p	-37.6	-37.6	-37.7	21.7	ESE	0.36	23.5	-57.6	734.7	0.039	0.000	6.6	78	1
08/02/19	3:52 p	-37.6	-37.6	-37.7	20.9	ESE	0.35	23.5	-57.3	734.7	0.039	0.000	6.6	78	1
08/02/19	3:53 p	-37.6	-37.6	-37.7	20.0	ESE	0.33	22.6	-57.0	734.7	0.039	0.000	6.6	78	1
08/02/19	3:54 p	-37.6	-37.5	-37.7	20.9	ESE	0.35	23.5	-57.3	734.7	0.039	0.000	6.6	78	1
08/02/19	3:55 p	-37.6	-37.6	-37.6	18.3	ESE	0.30	22.6	-56.2	734.7	0.039	0.000	6.6	78	1
08/02/19	3:56 p	-37.6	-37.5	-37.6	21.7	ESE	0.36	23.5	-57.6	734.8	0.039	0.000	6.6	78	1
08/02/19	3:57 p	-37.6	-37.6	-37.6	19.1	ESE	0.32	22.6	-56.6	734.7	0.039	0.000	6.6	78	1
08/02/19	3:58 p	-37.6	-37.6	-37.6	17.4	ESE	0.29	22.6	-55.9	734.7	0.039	0.000	6.6	78	1
08/02/19	3:59 p	-37.6	-37.5	-37.6	20.0	ESE	0.33	22.6	-56.9	734.8	0.039	0.000	6.6	77	1
08/02/19	4:00 p	-37.6	-37.6	-37.6	20.0	ESE	0.33	21.7	-56.9	734.7	0.039	0.000	6.6	78	1
08/02/19	4:01 p	-37.6	-37.5	-37.6	20.9	ESE	0.35	23.5	-57.2	734.8	0.039	0.000	6.6	78	1
08/02/19	4:02 p	-37.6	-37.6	-37.6	20.0	ESE	0.33	21.7	-56.9	734.7	0.039	0.000	6.6	78	1
08/02/19	4:03 p	-37.6	-37.5	-37.6	21.7	ESE	0.36	23.5	-57.6	734.7	0.039	0.000	6.6	78	1
08/02/19	4:04 p	-37.6	-37.5	-37.6	22.6	ESE	0.38	23.5	-57.8	734.7	0.039	0.000	6.6	78	1
08/02/19	4:05 p	-37.5	-37.4	-37.6	21.7	ESE	0.36	24.3	-57.5	734.7	0.039	0.000	6.6	78	1
08/02/19	4:06 p	-37.5	-37.5	-37.6	21.7	ESE	0.36	23.5	-57.5	734.6	0.039	0.000	6.6	78	1
08/02/19	4:07 p	-37.5	-37.5	-37.5	21.7	ESE	0.36	25.2	-57.5	734.6	0.039	0.000	6.6	78	1
08/02/19	4:08 p	-37.5	-37.4	-37.6	19.1	ESE	0.32	23.5	-56.5	734.7	0.039	0.000	6.6	77	1
08/02/19	4:09 p	-37.4	-37.4	-37.5	21.7	ESE	0.36	23.5	-57.4	734.7	0.039	0.000	6.6	78	1
08/02/19	4:10 p	-37.5	-37.4	-37.5	20.0	ESE	0.33	22.6	-56.8	734.6	0.039	0.000	6.6	78	1
08/02/19	4:11 p	-37.5	-37.4	-37.5	22.6	ESE	0.38	25.2	-57.8	734.7	0.039	0.000	6.6	78	1
08/02/19	4:12 p	-37.4	-37.4	-37.5	20.0	ESE	0.33	24.3	-56.8	734.6	0.039	0.000	6.6	78	1
08/02/19	4:13 p	-37.4	-37.4	-37.4	20.0	ESE	0.33	23.5	-56.8	734.7	0.039	0.000	6.6	78	1
08/02/19	4:14 p	-37.4	-37.3	-37.4	22.6	ESE	0.38	24.3	-57.6	734.7	0.039	0.000	6.6	78	1
08/02/19	4:15 p	-37.4	-37.3	-37.4	20.0	ESE	0.33	23.5	-56.7	734.7	0.039	0.000	6.6	78	1
08/02/19	4:16 p	-37.3	-37.3	-37.3	22.6	ESE	0.38	25.2	-57.6	734.7	0.039	0.000	6.6	78	1
08/02/19	4:17 p	-37.3	-37.3	-37.4	20.9	ESE	0.35	24.3	-56.9	734.8	0.039	0.000	6.6	78	1
08/02/19	4:18 p	-37.3	-37.3	-37.3	20.0	ESE	0.33	21.7	-56.6	734.8	0.039	0.000	6.6	78	1
08/02/19	4:19 p	-37.3	-37.3	-37.3	20.0	ESE	0.33	23.5	-56.6	734.8	0.039	0.000	6.6	78	1
08/02/19	4:20 p	-37.3	-37.2	-37.3	18.3	ESE	0.30	23.5	-55.9	734.8	0.039	0.000	6.5	78	1
08/02/19	4:21 p	-37.2	-37.2	-37.3	20.0	ESE	0.33	22.6	-56.5	734.8	0.039	0.000	6.5	78	1
08/02/19	4:22 p	-37.2	-37.2	-37.2	20.9	ESE	0.35	27.0	-56.8	734.8	0.039	0.000	6.5	78	1
08/02/19	4:23 p	-37.2	-37.2	-37.2	14.8	ESE	0.25	20.9	-54.2	734.7	0.039	0.000	6.5	78	1
08/02/19	4:24 p	-37.1	-37.1	-37.2	19.1	ESE	0.32	21.7	-56.0	734.8	0.039	0.000	6.5	78	1
08/02/19	4:25 p	-37.1	-37.1	-37.1	15.7	ESE	0.26	22.6	-54.6	734.8	0.039	0.000	6.5	78	1
08/02/19	4:26 p	-37.1	-37.1	-37.1	18.3	ESE	0.30	22.6	-55.6	734.8	0.038	0.000	6.5	78	1
08/02/19	4:27 p	-37.0	-37.0	-37.1	19.1	ESE	0.32	24.3	-55.8	734.7	0.038	0.000	6.5	78	1
08/02/19	4:28 p	-37.0	-36.9	-37.0	19.1	SE	0.32	22.6	-55.8	734.8	0.038	0.000	6.5	78	1
08/02/19	4:29 p	-37.0	-36.9	-37.0	20.0	ESE	0.33	25.2	-56.2	734.7	0.038	0.000	6.5	78	1
08/02/19	4:30 p	-36.9	-36.9	-36.9	21.7	ESE	0.36	25.2	-56.7	734.7	0.038	0.000	6.5	78	1
08/02/19	4:31 p	-36.9	-36.8	-36.9	19.1	ESE	0.32	21.7	-55.7	734.8	0.038	0.000	6.5	78	1
08/02/19	4:32 p	-36.8	-36.8	-36.9	19.1	ESE	0.32	24.3	-55.6	734.7	0.038	0.000	6.5	78	1
08/02/19	4:33 p	-36.8	-36.8	-36.8	17.4	ESE	0.29	22.6	-54.9	734.7	0.038	0.000	6.5	78	1
08/02/19	4:34 p	-36.8	-36.7	-36.8	19.1	ESE	0.32	22.6	-55.6	734.8	0.038	0.000	6.5	78	1
08/02/19	4:35 p	-36.8	-36.7	-36.8	19.1	ESE	0.32	22.6	-55.6	734.9	0.038	0.000	6.5	78	1
08/02/19	4:36 p	-36.7	-36.6	-36.8	20.9	ESE	0.35	23.5	-56.1	734.8	0.038	0.000	6.5	78	1
08/02/19	4:37 p	-36.7	-36.7	-36.7	20.9	SE	0.35	22.6	-56.1	734.8	0.038	0.000	6.5	78	1
08/02/19	4:38 p	-36.6	-36.5	-36.7	21.7	SE	0.36	25.2	-56.3	734.7	0.038	0.000	6.5	78	1
08/02/19	4:39 p	-36.6	-36.6	-36.6	20.9	SE	0.35	24.3	-56.0	734.8	0.038	0.000	6.5	78	1
08/02/19	4:40 p	-36.6	-36.5	-36.6	21.7	ESE	0.36	23.5	-56.3	734.8	0.038	0.000	6.5	78	1
08/02/19	4:41 p	-36.6	-36.5	-36.6	21.7	SE	0.36	23.5	-56.2	734.7	0.038	0.000	6.5	78	1
08/02/19	4:42 p	-36.5	-36.4	-36.6	21.7	ESE	0.36	23.5	-56.2	734.8	0.038	0.000	6.5	78	1
08/02/19	4:43 p	-36.5	-36.4	-36.5	20.9	SE	0.35	21.7	-55.8	734.9	0.038	0.000	6.5	78	1
08/02/19	4:44 p	-36.4	-36.4	-36.5	17.4	SE	0.29	21.7	-54.4	734.8	0.038	0.000	6.5	78	1
08/02/19	4:45 p	-36.4	-36.4	-36.4	17.4	SE	0.29	20.0	-54.4	734.9	0.038	0.000	6.5	78	1
08/02/19	4:46 p	-36.4	-36.4	-36.4	17.4	SE	0.29	21.7	-54.3	734.8	0.038	0.000	6.4	78	1
08/02/19	4:47 p	-36.4	-36.3	-36.4	17.4	SE	0.29	20.0	-54.3	734.9	0.038	0.000	6.4	78	1
08/02/19	4:48 p	-36.4	-36.3	-36.4	13.0	SE	0.22	19.1	-52.3	734.9	0.038	0.000	6.4	77	1
08/02/19	4:49 p	-36.4	-36.4	-36.4	14.8	SE	0.25	19.1	-53.2	734.9	0.038	0.000	6.4	77	1
08/02/19	4:50 p	-36.4	-36.3	-36.4	17.4	SE	0.29	20.9	-54.3	734.8	0.038	0.000	6.4	77	1
08/02/19	4:51 p	-36.4	-36.3	-36.4	13.9	SE	0.23	18.3	-52.8	734.8	0.038	0.000	6.4	78	1
08/02/19	4:52 p	-36.3	-36.2	-36.3	16.5	SE	0.28	19.1	-53.8	734.9	0.038	0.000	6.4	77	1
08/02/19	4:53 p	-36.3	-36.2	-36.4	16.5	SE	0.28	19.1	-53.9	734.8	0.038	0.000	6.4	78	1
08/02/19	4:54 p	-36.3	-36.3	-36.4	15.7	SE	0.26	19.1	-53.6	735.0	0.038	0.000	6.4	77	1
08/02/19	4:55 p	-36.3	-36.2	-36.3	13.0	SE	0.22	18.3	-52.2	735.0	0.038	0.000	6.4	78	1
08/02/19	4:56 p	-36.3	-36.3	-36.4	13.0	SE	0.22	17.4	-52.3	735.0	0.038	0.000	6.4	78	1
08/02/19	4:57 p	-36.3	-36.3	-36.3	9.6	SE	0.16	16.5	-50.2	735.0	0.038	0.000	6.4	77	1
08/02/19	4:58 p	-36.3	-36.3	-36.3	15.7	SE	0.26	16.5	-53.6	735.0	0.038	0.000	6.4	77	1
08/02/19	4:59 p	-36.3	-36.3	-36.4	13.9	SE	0.23	19.1	-52.7	735.1	0.038	0.000	6.4	77	1
08/02/19	5:00 p	-36.3	-36.3	-36.4	10.4	SE	0.17	16.5	-50.8	735.2	0.038	0.000	6.4	77	1
08/02/19	5:01 p	-36.3	-36.3	-36.4	11.3	SE	0.19	15.7	-51.3	735.1	0.038	0.000	6.4	78	1
08/02/19	5:02 p	-36.4	-36.3	-36.4	11.3	ESE	0.19	13.9	-51.4	735.1	0.038	0.000	6.4	78	1
08/02/19	5:03 p	-36.4	-36.3	-36.4	10.4	ESE	0.17	15.7	-50.8	735.1	0.038	0.000	6.4	78	1
08/02/19	5:04 p	-36.4	-36.3	-36.4	12.2	ESE	0.20	16.5	-51.9	735.1	0.038	0.000	6.4	78	1
08/02/19	5:05 p	-36.4	-36.4	-36.4	14.8	ESE	0.25	17.4	-53.2	735.0	0.038	0.000	6.4	78	1
08/02/19	5:06 p	-36.4	-36.4	-36.4	13.9	ESE	0.23	17.4	-52.8	735.0	0.038	0.000	6.4	78	1
08/02/19	5:07 p	-36.4	-36.3	-36.4	13.0	ESE	0.22	18.3	-52.3	735.0	0.038	0.000	6.4	78	1
08/02/19	5:08 p	-36.4	-36.3	-36.4	13.9	ESE	0.23	16.5	-52.8	735.1	0.038	0.000	6.4	78	1
08/02/19	5:09 p	-36.4	-36.3	-36.4	11.3	ESE	0.19	17.4	-51.4	735.0	0.038	0.000	6.4	77	1
08/02/19	5:10 p	-36.4	-36.4	-36.4	12.2	ESE	0.20	18.3	-51.9	735.0	0.038	0.000	6.4	78	1
08/02/19	5:11 p	-36.4	-36.4	-36.4	14.8	ESE	0.25	17.4	-53.2	735.1	0.038	0.000	6.4	78	1
08/02/19	5:12 p	-36.4	-36.4	-36.5	14.8	ESE	0.25	17.4	-53.3	735.1	0.038	0.000	6.4	78	1
08/02/19	5:13 p	-36.4	-36.4	-36.4	13.9	ESE	0.23	17.4	-52.8	735.0	0.038	0.000	6.4	78	1
08/02/19	5:14 p	-36.4	-36.4	-36.4	12.2	ESE	0.20	17.4	-51.9	735.1	0.038	0.000	6.4	78	1
08/02/19	5:15 p	-36.5	-36.4	-36.5	15.7	ESE	0.26	18.3	-53.8	735.0	0.038	0.000	6.4	77	1
08/02/19	5:16 p	-36.5	-36.4	-36.5	15.7	ESE	0.26	19.1	-53.8	735.1	0.038	0.000	6.4	78	1
08/02/19	5:17 p	-36.5	-36.4	-36.5	12.2	ESE	0.20	19.1	-52.0	735.1	0.038	0.000	6.4	78	1
08/02/19	5:18 p	-36.6	-36.5	-36.6	13.0	ESE	0.22	19.1	-52.6	735.1	0.038	0.000	6.4	78	1
08/02/19	5:19 p	-36.6	-36.6	-36.6	16.5	ESE	0.28	19.1	-54.2	735.1	0.038	0.000	6.4	78	1
08/02/19	5:20 p	-36.6	-36.6	-36.6	16.5	SE	0.28	19.1	-54.2	735.1	0.038	0.000	6.4	78	1
08/02/19	5:21 p	-36.6	-36.6	-36.6	14.8	SE	0.25	18.3	-53.4	735.1	0.038	0.000	6.4	78	1
08/02/19	5:22 p	-36.6	-36.6	-36.6	15.7	SE	0.26	19.1	-53.8	735.1	0.038	0.000	6.4	78	1
08/02/19	5:23 p	-36.6	-36.6	-36.6	17.4	SE	0.29	19.1	-54.7	735.1	0.038	0.000	6.4	78	1
08/02/19	5:24 p	-36.6	-36.6	-36.6	17.4	SE	0.29	19.1	-54.7	735.1	0.038	0.000	6.4	78	1
08/02/19	5:25 p	-36.5	-36.5	-36.6	11.3	SE	0.19	17.4	-51.5	735.1	0.038	0.000	6.4	78	1
08/02/19	5:26 p	-36.6	-36.5	-36.6	16.5	SE	0.28	17.4	-54.2	735.2	0.038	0.000	6.4	77	1
08/02/19	5:27 p	-36.6	-36.5	-36.6	14.8	SE	0.25	17.4	-53.4	735.1	0.038	0.000	6.4	77	1
08/02/19	5:28 p	-36.6	-36.6	-36.6	14.8	SE	0.25	16.5	-53.5	735.1	0.038	0.000	6.4	77	1
08/02/19	5:29 p	-36.6	-36.5	-36.7	12.2	SE	0.20	17.4	-52.2	735.1	0.038	0.000	6.4	77	1
08/02/19	5:30 p	-36.6	-36.5	-36.7	13.0	SE	0.22	18.3	-52.6	735.2	0.038	0.000	6.4	76	1
08/02/19	5:31 p	-36.7	-36.6	-36.7	14.8	SE	0.25	16.5	-53.6	735.2	0.038	0.000	6.4	76	1
08/02/19	5:32 p	-36.7	-36.6	-36.7	13.0	ESE	0.22	15.7	-52.7	735.2	0.038	0.000	6.5	76	1
08/02/19	5:33 p	-36.6	-36.6	-36.7	12.2	ESE	0.20	15.7	-52.2	735.3	0.038	0.000	6.5	76	1
08/02/19	5:34 p	-36.7	-36.6	-36.7	13.0	ESE	0.22	16.5	-52.7	735.2	0.038	0.000	6.5	77	1
08/02/19	5:35 p	-36.7	-36.6	-36.7	12.2	ESE	0.20	17.4	-52.2	735.2	0.038	0.000	6.5	76	1
08/02/19	5:36 p	-36.6	-36.6	-36.7	16.5	ESE	0.28	17.4	-54.3	735.2	0.038	0.000	6.5	76	1
08/02/19	5:37 p	-36.7	-36.6	-36.7	14.8	ESE	0.25	18.3	-53.6	735.2	0.038	0.000	6.5	76	1
08/02/19	5:38 p	-36.6	-36.6	-36.7	13.0	ESE	0.22	18.3	-52.6	735.2	0.038	0.000	6.5	76	1
08/02/19	5:39 p	-36.6	-36.6	-36.7	15.7	ESE	0.26	17.4	-53.9	735.2	0.038	0.000	6.5	76	1
08/02/19	5:40 p	-36.7	-36.6	-36.7	11.3	ESE	0.19	16.5	-51.7	735.3	0.038	0.000	6.5	76	1
08/02/19	5:41 p	-36.7	-36.6	-36.7	12.2	ESE	0.20	17.4	-52.2	735.2	0.038	0.000	6.5	76	1
08/02/19	5:42 p	-36.7	-36.6	-36.7	14.8	ESE	0.25	18.3	-53.6	735.2	0.038	0.000	6.5	76	1
08/02/19	5:43 p	-36.7	-36.7	-36.8	13.0	ESE	0.22	17.4	-52.8	735.2	0.038	0.000	6.5	76	1
08/02/19	5:44 p	-36.7	-36.6	-36.8	16.5	ESE	0.28	18.3	-54.4	735.1	0.038	0.000	6.5	76	1
08/02/19	5:45 p	-36.7	-36.7	-36.8	12.2	E	0.20	17.4	-52.3	735.1	0.038	0.000	6.5	76	1
08/02/19	5:46 p	-36.8	-36.7	-36.8	12.2	E	0.20	16.5	-52.3	735.2	0.038	0.000	6.5	76	1
08/02/19	5:47 p	-36.8	-36.8	-36.8	13.0	E	0.22	16.5	-52.8	735.2	0.038	0.000	6.5	76	1
08/02/19	5:48 p	-36.8	-36.8	-36.8	12.2	E	0.20	16.5	-52.3	735.2	0.038	0.000	6.5	76	1
08/02/19	5:49 p	-36.8	-36.8	-36.8	14.8	E	0.25	15.7	-53.7	735.2	0.038	0.000	6.5	76	1
08/02/19	5:50 p	-36.8	-36.8	-36.9	13.9	E	0.23	15.7	-53.3	735.2	0.038	0.000	6.5	76	1
08/02/19	5:51 p	-36.9	-36.9	-36.9	14.8	ESE	0.25	15.7	-53.8	735.2	0.038	0.000	6.5	77	1
08/02/19	5:52 p	-36.9	-36.9	-36.9	15.7	ESE	0.26	16.5	-54.3	735.2	0.038	0.000	6.5	76	1
08/02/19	5:53 p	-36.9	-36.9	-37.0	13.0	ESE	0.22	15.7	-53.1	735.1	0.038	0.000	6.5	76	1
08/02/19	5:54 p	-37.0	-36.9	-37.1	12.2	ESE	0.20	14.8	-52.7	735.1	0.038	0.000	6.5	77	1
08/02/19	5:55 p	-37.1	-37.0	-37.1	11.3	ESE	0.19	13.9	-52.2	735.2	0.038	0.000	6.5	76	1
08/02/19	5:56 p	-37.1	-37.0	-37.1	13.0	E	0.22	16.5	-53.2	735.1	0.038	0.000	6.5	76	1
08/02/19	5:57 p	-37.1	-37.1	-37.1	12.2	E	0.20	15.7	-52.7	735.1	0.038	0.000	6.5	76	1
08/02/19	5:58 p	-37.1	-37.1	-37.1	14.8	E	0.25	16.5	-54.2	735.2	0.039	0.000	6.5	76	1
08/02/19	5:59 p	-37.2	-37.1	-37.2	13.9	E	0.23	16.5	-53.8	735.2	0.039	0.000	6.6	76	1
08/02/19	6:00 p	-37.2	-37.1	-37.2	13.0	E	0.22	14.8	-53.4	735.2	0.039	0.000	6.5	76	1
08/02/19	6:01 p	-37.2	-37.2	-37.3	13.9	E	0.23	16.5	-53.8	735.2	0.039	0.000	6.6	76	1
08/02/19	6:02 p	-37.3	-37.2	-37.3	13.9	ESE	0.23	16.5	-53.9	735.2	0.039	0.000	6.6	77	1
08/02/19	6:03 p	-37.3	-37.2	-37.3	14.8	ESE	0.25	14.8	-54.3	735.3	0.039	0.000	6.6	76	1
08/02/19	6:04 p	-37.3	-37.3	-37.3	11.3	ESE	0.19	14.8	-52.6	735.2	0.039	0.000	6.6	77	1
08/02/19	6:05 p	-37.3	-37.3	-37.4	13.0	ESE	0.22	15.7	-53.6	735.2	0.039	0.000	6.6	77	1
08/02/19	6:06 p	-37.4	-37.3	-37.4	13.9	ESE	0.23	15.7	-54.1	735.2	0.039	0.000	6.6	77	1
08/02/19	6:07 p	-37.4	-37.4	-37.4	12.2	ESE	0.20	15.7	-53.2	735.2	0.039	0.000	6.6	76	1
08/02/19	6:08 p	-37.4	-37.4	-37.5	14.8	ESE	0.25	16.5	-54.6	735.2	0.039	0.000	6.6	77	1
08/02/19	6:09 p	-37.4	-37.4	-37.5	13.0	ESE	0.22	17.4	-53.7	735.2	0.039	0.000	6.6	77	1
08/02/19	6:10 p	-37.5	-37.5	-37.6	14.8	ESE	0.25	17.4	-54.7	735.2	0.039	0.000	6.6	77	1
08/02/19	6:11 p	-37.5	-37.5	-37.6	13.9	ESE	0.23	16.5	-54.2	735.2	0.039	0.000	6.6	77	1
08/02/19	6:12 p	-37.5	-37.5	-37.6	12.2	ESE	0.20	16.5	-53.3	735.1	0.039	0.000	6.6	77	1
08/02/19	6:13 p	-37.6	-37.5	-37.6	14.8	ESE	0.25	17.4	-54.7	735.1	0.039	0.000	6.6	76	1
08/02/19	6:14 p	-37.5	-37.5	-37.6	14.8	ESE	0.25	17.4	-54.7	735.0	0.039	0.000	6.6	77	1
08/02/19	6:15 p	-37.5	-37.5	-37.6	14.8	ESE	0.25	16.5	-54.7	735.1	0.039	0.000	6.6	77	1
08/02/19	6:16 p	-37.6	-37.5	-37.6	11.3	ESE	0.19	16.5	-52.8	734.9	0.039	0.000	6.6	77	1
08/02/19	6:17 p	-37.6	-37.6	-37.7	15.7	ESE	0.26	16.5	-55.2	735.1	0.039	0.000	6.6	77	1
08/02/19	6:18 p	-37.6	-37.6	-37.6	12.2	ESE	0.20	16.5	-53.3	735.1	0.039	0.000	6.6	77	1
08/02/19	6:19 p	-37.6	-37.5	-37.6	13.0	ESE	0.22	18.3	-53.8	735.1	0.039	0.000	6.6	77	1
08/02/19	6:20 p	-37.6	-37.6	-37.7	14.8	ESE	0.25	18.3	-54.8	735.0	0.039	0.000	6.6	77	1
08/02/19	6:21 p	-37.6	-37.6	-37.7	15.7	ESE	0.26	17.4	-55.2	734.9	0.039	0.000	6.6	77	1
08/02/19	6:22 p	-37.6	-37.6	-37.7	14.8	ESE	0.25	17.4	-54.8	735.0	0.039	0.000	6.6	77	1
08/02/19	6:23 p	-37.6	-37.6	-37.7	8.7	ESE	0.14	17.4	-51.2	734.9	0.039	0.000	6.6	77	1
08/02/19	6:24 p	-37.6	-37.6	-37.7	15.7	ESE	0.26	18.3	-55.1	735.0	0.039	0.000	6.7	77	1
08/02/19	6:25 p	-37.6	-37.6	-37.7	10.4	ESE	0.17	17.4	-52.4	735.0	0.039	0.000	6.6	77	1
08/02/19	6:26 p	-37.6	-37.6	-37.6	13.9	ESE	0.23	17.4	-54.3	735.0	0.039	0.000	6.6	77	1
08/02/19	6:27 p	-37.6	-37.6	-37.7	14.8	ESE	0.25	18.3	-54.8	735.0	0.039	0.000	6.6	77	1
08/02/19	6:28 p	-37.6	-37.6	-37.7	15.7	ESE	0.26	18.3	-55.2	734.9	0.039	0.000	6.7	77	1
08/02/19	6:29 p	-37.6	-37.6	-37.7	14.8	ESE	0.25	19.1	-54.8	734.9	0.039	0.000	6.7	77	1
08/02/19	6:30 p	-37.6	-37.6	-37.7	12.2	ESE	0.20	18.3	-53.3	734.9	0.039	0.000	6.7	77	1
08/02/19	6:31 p	-37.6	-37.5	-37.6	16.5	ESE	0.28	19.1	-55.5	734.9	0.039	0.000	6.7	77	1
08/02/19	6:32 p	-37.6	-37.5	-37.6	17.4	ESE	0.29	18.3	-55.9	734.9	0.039	0.000	6.7	77	1
08/02/19	6:33 p	-37.6	-37.6	-37.6	12.2	ESE	0.20	18.3	-53.3	734.9	0.039	0.000	6.7	77	1
08/02/19	6:34 p	-37.6	-37.5	-37.6	16.5	ESE	0.28	18.3	-55.5	734.9	0.039	0.000	6.7	77	1
08/02/19	6:35 p	-37.5	-37.5	-37.6	14.8	ESE	0.25	17.4	-54.7	734.9	0.039	0.000	6.7	77	1
08/02/19	6:36 p	-37.5	-37.5	-37.5	15.7	ESE	0.26	18.3	-55.1	734.8	0.039	0.000	6.7	78	1
08/02/19	6:37 p	-37.5	-37.5	-37.5	16.5	ESE	0.28	19.1	-55.4	734.9	0.039	0.000	6.7	77	1
08/02/19	6:38 p	-37.5	-37.4	-37.5	15.7	ESE	0.26	18.3	-55.1	734.8	0.039	0.000	6.7	78	1
08/02/19	6:39 p	-37.5	-37.4	-37.5	13.9	ESE	0.23	18.3	-54.2	734.9	0.039	0.000	6.7	77	1
08/02/19	6:40 p	-37.5	-37.4	-37.5	14.8	ESE	0.25	18.3	-54.7	734.9	0.039	0.000	6.7	77	1
08/02/19	6:41 p	-37.5	-37.4	-37.5	16.5	ESE	0.28	19.1	-55.4	734.8	0.039	0.000	6.7	77	1
08/02/19	6:42 p	-37.4	-37.4	-37.4	15.7	ESE	0.26	18.3	-55.0	734.9	0.039	0.000	6.7	77	1
08/02/19	6:43 p	-37.4	-37.4	-37.4	16.5	ESE	0.28	18.3	-55.4	734.9	0.039	0.000	6.7	77	1
08/02/19	6:44 p	-37.4	-37.4	-37.4	17.4	ESE	0.29	19.1	-55.7	734.8	0.039	0.000	6.7	77	1
08/02/19	6:45 p	-37.4	-37.4	-37.4	16.5	ESE	0.28	18.3	-55.3	734.7	0.039	0.000	6.7	77	1
08/02/19	6:46 p	-37.4	-37.3	-37.4	15.7	ESE	0.26	18.3	-54.9	734.8	0.039	0.000	6.7	77	1
08/02/19	6:47 p	-37.4	-37.3	-37.4	16.5	ESE	0.28	18.3	-55.3	734.8	0.039	0.000	6.7	77	1
08/02/19	6:48 p	-37.4	-37.3	-37.4	17.4	ESE	0.29	18.3	-55.7	734.8	0.039	0.000	6.7	77	1
08/02/19	6:49 p	-37.3	-37.3	-37.4	16.5	ESE	0.28	18.3	-55.2	734.8	0.039	0.000	6.7	77	1
08/02/19	6:50 p	-37.3	-37.2	-37.3	14.8	ESE	0.25	18.3	-54.3	734.7	0.039	0.000	6.7	77	1
08/02/19	6:51 p	-37.3	-37.3	-37.3	15.7	ESE	0.26	17.4	-54.8	734.8	0.039	0.000	6.7	77	1
08/02/19	6:52 p	-37.3	-37.2	-37.3	16.5	ESE	0.28	18.3	-55.2	734.8	0.039	0.000	6.7	77	1
08/02/19	6:53 p	-37.3	-37.2	-37.3	16.5	ESE	0.28	18.3	-55.2	734.8	0.039	0.000	6.7	77	1
08/02/19	6:54 p	-37.2	-37.2	-37.2	16.5	ESE	0.28	18.3	-55.1	734.9	0.039	0.000	6.7	77	1
08/02/19	6:55 p	-37.2	-37.2	-37.2	17.4	ESE	0.29	19.1	-55.4	734.8	0.039	0.000	6.7	77	1
08/02/19	6:56 p	-37.2	-37.1	-37.2	17.4	ESE	0.29	18.3	-55.4	734.8	0.039	0.000	6.7	77	1
08/02/19	6:57 p	-37.2	-37.1	-37.3	16.5	E	0.28	17.4	-55.1	734.8	0.039	0.000	6.7	77	1
08/02/19	6:58 p	-37.2	-37.1	-37.2	16.5	E	0.28	18.3	-55.0	734.8	0.039	0.000	6.7	77	1
08/02/19	6:59 p	-37.2	-37.1	-37.2	16.5	E	0.28	17.4	-55.0	734.8	0.039	0.000	6.7	77	1
08/02/19	7:00 p	-37.1	-37.1	-37.2	16.5	E	0.28	18.3	-54.9	734.9	0.039	0.000	6.7	77	1
08/02/19	7:01 p	-37.1	-37.1	-37.2	14.8	ESE	0.25	18.3	-54.2	734.8	0.039	0.000	6.8	77	1
08/02/19	7:02 p	-37.1	-37.1	-37.1	16.5	ESE	0.28	17.4	-54.9	735.0	0.039	0.000	6.8	77	1
08/02/19	7:03 p	-37.1	-37.1	-37.2	17.4	E	0.29	18.3	-55.3	734.9	0.039	0.000	6.8	77	1
08/02/19	7:04 p	-37.1	-37.1	-37.1	14.8	E	0.25	18.3	-54.2	734.8	0.039	0.000	6.8	77	1
08/02/19	7:05 p	-37.1	-37.1	-37.1	13.9	E	0.23	18.3	-53.7	734.8	0.039	0.000	6.8	77	1
08/02/19	7:06 p	-37.1	-37.1	-37.2	16.5	ESE	0.28	19.1	-54.9	734.8	0.038	0.000	6.8	77	1
08/02/19	7:07 p	-37.1	-37.1	-37.2	17.4	ESE	0.29	18.3	-55.3	734.8	0.039	0.000	6.8	77	1
08/02/19	7:08 p	-37.1	-37.0	-37.1	16.5	ESE	0.28	17.4	-54.9	734.8	0.038	0.000	6.8	77	1
08/02/19	7:09 p	-37.1	-37.0	-37.1	16.5	ESE	0.28	17.4	-54.9	734.8	0.038	0.000	6.8	77	1
08/02/19	7:10 p	-37.1	-37.0	-37.1	16.5	ESE	0.28	18.3	-54.9	734.8	0.038	0.000	6.8	77	1
08/02/19	7:11 p	-37.1	-37.0	-37.1	16.5	ESE	0.28	17.4	-54.9	734.9	0.038	0.000	6.8	77	1
08/02/19	7:12 p	-37.1	-37.0	-37.1	13.0	ESE	0.22	18.3	-53.2	734.9	0.038	0.000	6.8	77	1
08/02/19	7:13 p	-37.1	-37.0	-37.1	15.7	ESE	0.26	16.5	-54.5	734.8	0.038	0.000	6.8	77	1
08/02/19	7:14 p	-37.1	-37.0	-37.1	14.8	ESE	0.25	14.8	-54.1	734.9	0.038	0.000	6.8	77	1
08/02/19	7:15 p	-37.1	-37.0	-37.1	14.8	E	0.25	15.7	-54.1	734.8	0.038	0.000	6.8	77	1
08/02/19	7:16 p	-37.1	-37.0	-37.1	14.8	E	0.25	15.7	-54.1	734.8	0.038	0.000	6.8	77	1
08/02/19	7:17 p	-37.1	-37.0	-37.1	15.7	E	0.26	17.4	-54.5	734.8	0.038	0.000	6.8	77	1
08/02/19	7:18 p	-37.1	-37.1	-37.1	14.8	E	0.25	16.5	-54.2	734.8	0.039	0.000	6.8	77	1
08/02/19	7:19 p	-37.1	-37.1	-37.1	12.2	E	0.20	16.5	-52.7	734.8	0.038	0.000	6.8	77	1
08/02/19	7:20 p	-37.1	-36.9	-37.1	14.8	ESE	0.25	16.5	-54.1	734.8	0.038	0.000	6.8	77	1
08/02/19	7:21 p	-37.1	-37.1	-37.2	13.9	ESE	0.23	14.8	-53.7	734.8	0.039	0.000	6.8	77	1
08/02/19	7:22 p	-37.1	-37.1	-37.2	14.8	E	0.25	16.5	-54.2	734.8	0.039	0.000	6.8	77	1
08/02/19	7:23 p	-37.1	-37.1	-37.2	16.5	E	0.28	17.4	-54.9	734.7	0.039	0.000	6.8	77	1
08/02/19	7:24 p	-37.2	-37.1	-37.2	15.7	E	0.26	17.4	-54.6	734.8	0.039	0.000	6.8	77	1
08/02/19	7:25 p	-37.2	-37.1	-37.2	15.7	E	0.26	16.5	-54.6	734.8	0.039	0.000	6.8	77	1
08/02/19	7:26 p	-37.2	-37.1	-37.3	14.8	E	0.25	18.3	-54.3	734.8	0.039	0.000	6.8	77	1
08/02/19	7:27 p	-37.2	-37.2	-37.2	15.7	ESE	0.26	17.4	-54.7	734.8	0.039	0.000	6.8	77	1
08/02/19	7:28 p	-37.2	-37.2	-37.2	15.7	E	0.26	17.4	-54.7	734.9	0.039	0.000	6.8	77	1
08/02/19	7:29 p	-37.2	-37.2	-37.3	15.7	E	0.26	17.4	-54.7	734.8	0.039	0.000	6.8	78	1
08/02/19	7:30 p	-37.2	-37.2	-37.3	15.7	E	0.26	16.5	-54.7	734.8	0.039	0.000	6.8	77	1
08/02/19	7:31 p	-37.2	-37.2	-37.3	15.7	ESE	0.26	16.5	-54.7	734.8	0.039	0.000	6.8	77	1
08/02/19	7:32 p	-37.2	-37.2	-37.3	14.8	E	0.25	15.7	-54.3	734.8	0.039	0.000	6.8	77	1
08/02/19	7:33 p	-37.2	-37.2	-37.3	14.8	E	0.25	14.8	-54.3	734.8	0.039	0.000	6.8	77	1
08/02/19	7:34 p	-37.3	-37.2	-37.3	13.9	ESE	0.23	14.8	-53.9	734.8	0.039	0.000	6.8	77	1
08/02/19	7:35 p	-37.3	-37.2	-37.3	13.9	E	0.23	15.7	-53.9	734.8	0.039	0.000	6.8	77	1
08/02/19	7:36 p	-37.2	-37.2	-37.3	14.8	E	0.25	15.7	-54.3	734.8	0.039	0.000	6.9	77	1
08/02/19	7:37 p	-37.2	-37.2	-37.3	14.8	E	0.25	15.7	-54.3	734.8	0.039	0.000	6.9	77	1
08/02/19	7:38 p	-37.2	-37.2	-37.2	14.8	E	0.25	15.7	-54.3	734.8	0.039	0.000	6.9	77	1
08/02/19	7:39 p	-37.2	-37.2	-37.3	14.8	E	0.25	14.8	-54.3	734.9	0.039	0.000	6.9	78	1
08/02/19	7:40 p	-37.2	-37.2	-37.2	14.8	E	0.25	15.7	-54.3	734.9	0.039	0.000	6.9	77	1
08/02/19	7:41 p	-37.2	-37.1	-37.2	13.9	E	0.23	14.8	-53.8	734.8	0.039	0.000	6.9	77	1
08/02/19	7:42 p	-37.2	-37.1	-37.2	13.0	E	0.22	13.9	-53.3	734.9	0.039	0.000	6.9	78	1
08/02/19	7:43 p	-37.2	-37.1	-37.2	13.9	E	0.23	13.9	-53.8	734.9	0.039	0.000	6.9	78	1
08/02/19	7:44 p	-37.2	-37.1	-37.2	13.0	E	0.22	13.9	-53.3	734.9	0.039	0.000	6.9	77	1
08/02/19	7:45 p	-37.2	-37.1	-37.2	13.0	E	0.22	13.9	-53.3	734.9	0.039	0.000	6.9	77	1
08/02/19	7:46 p	-37.1	-37.1	-37.2	13.9	E	0.23	13.9	-53.7	734.9	0.039	0.000	6.9	77	1
08/02/19	7:47 p	-37.2	-37.1	-37.2	13.0	E	0.22	13.9	-53.3	734.9	0.039	0.000	6.9	77	1
08/02/19	7:48 p	-37.1	-37.1	-37.2	13.0	E	0.22	13.9	-53.3	735.0	0.039	0.000	6.9	77	1
08/02/19	7:49 p	-37.1	-37.1	-37.1	13.0	E	0.22	13.9	-53.3	734.9	0.039	0.000	6.9	77	1
08/02/19	7:50 p	-37.1	-37.1	-37.2	13.0	E	0.22	13.0	-53.3	734.9	0.039	0.000	6.9	77	1
08/02/19	7:51 p	-37.1	-37.1	-37.1	13.0	E	0.22	13.9	-53.2	735.0	0.038	0.000	6.9	77	1
08/02/19	7:52 p	-37.1	-37.0	-37.1	13.0	E	0.22	13.0	-53.2	734.9	0.038	0.000	6.9	77	1
08/02/19	7:53 p	-37.1	-37.0	-37.1	12.2	E	0.20	13.0	-52.7	735.1	0.038	0.000	6.9	77	1
08/02/19	7:54 p	-37.1	-37.0	-37.1	11.3	E	0.19	13.0	-52.2	734.9	0.038	0.000	6.9	77	1
08/02/19	7:55 p	-37.0	-37.0	-37.1	12.2	E	0.20	13.0	-52.7	734.9	0.038	0.000	6.9	77	1
08/02/19	7:56 p	-37.0	-37.0	-37.1	12.2	E	0.20	12.2	-52.7	735.0	0.038	0.000	6.9	77	1
08/02/19	7:57 p	-36.9	-36.9	-37.0	12.2	E	0.20	12.2	-52.6	734.9	0.038	0.000	7.0	77	1
08/02/19	7:58 p	-37.0	-36.9	-37.0	13.0	E	0.22	13.9	-53.1	734.9	0.038	0.000	7.0	77	1
08/02/19	7:59 p	-37.0	-36.9	-37.0	13.0	ESE	0.22	13.0	-53.1	734.9	0.038	0.000	7.0	77	1
08/02/19	8:00 p	-36.9	-36.9	-36.9	13.0	E	0.22	13.9	-53.1	734.9	0.038	0.000	7.0	77	1
08/02/19	8:01 p	-36.9	-36.9	-37.0	13.0	E	0.22	13.9	-53.1	734.9	0.038	0.000	7.0	77	1
08/02/19	8:02 p	-36.9	-36.8	-36.9	12.2	E	0.20	13.0	-52.5	734.9	0.038	0.000	7.0	77	1
08/02/19	8:03 p	-36.9	-36.9	-36.9	11.3	E	0.19	12.2	-52.0	735.0	0.038	0.000	7.0	77	1
08/02/19	8:04 p	-36.9	-36.8	-36.9	12.2	ESE	0.20	13.0	-52.5	735.0	0.038	0.000	7.0	77	1
08/02/19	8:05 p	-36.9	-36.8	-36.9	12.2	ESE	0.20	13.0	-52.5	735.0	0.038	0.000	7.0	77	1
08/02/19	8:06 p	-36.8	-36.8	-36.9	12.2	ESE	0.20	12.2	-52.4	735.0	0.038	0.000	7.0	77	1
08/02/19	8:07 p	-36.8	-36.8	-36.8	12.2	ESE	0.20	12.2	-52.4	735.1	0.038	0.000	7.0	77	1
08/02/19	8:08 p	-36.8	-36.8	-36.8	12.2	ESE	0.20	13.0	-52.4	735.0	0.038	0.000	7.1	77	1
08/02/19	8:09 p	-36.8	-36.7	-36.8	12.2	ESE	0.20	12.2	-52.3	735.0	0.038	0.000	7.1	77	1
08/02/19	8:10 p	-36.8	-36.7	-36.8	12.2	ESE	0.20	12.2	-52.3	735.0	0.038	0.000	7.1	77	1
08/02/19	8:11 p	-36.8	-36.8	-36.8	12.2	ESE	0.20	12.2	-52.3	734.9	0.038	0.000	7.1	77	1
08/02/19	8:12 p	-36.8	-36.8	-36.8	9.6	ESE	0.16	13.0	-50.8	734.9	0.038	0.000	7.1	77	1
08/02/19	8:13 p	-36.8	-36.8	-36.8	9.6	ESE	0.16	12.2	-50.8	735.0	0.038	0.000	7.1	77	1
08/02/19	8:14 p	-36.8	-36.8	-36.9	11.3	ESE	0.19	12.2	-51.9	735.0	0.038	0.000	7.1	77	1
08/02/19	8:15 p	-36.8	-36.8	-36.8	11.3	ESE	0.19	12.2	-51.9	735.0	0.038	0.000	7.1	77	1
08/02/19	8:16 p	-36.8	-36.8	-36.8	11.3	ESE	0.19	12.2	-51.9	735.0	0.038	0.000	7.1	77	1
08/02/19	8:17 p	-36.8	-36.8	-36.8	11.3	ESE	0.19	13.0	-51.9	735.0	0.038	0.000	7.1	77	1
08/02/19	8:18 p	-36.8	-36.8	-36.9	11.3	ESE	0.19	12.2	-51.9	735.0	0.038	0.000	7.1	77	1
08/02/19	8:19 p	-36.8	-36.8	-36.9	12.2	ESE	0.20	13.0	-52.4	734.8	0.038	0.000	7.1	77	1
08/02/19	8:20 p	-36.8	-36.8	-36.9	13.0	ESE	0.22	14.8	-52.9	734.9	0.038	0.000	7.1	77	1
08/02/19	8:21 p	-36.8	-36.8	-36.9	13.0	ESE	0.22	13.9	-52.9	734.9	0.038	0.000	7.1	77	1
08/02/19	8:22 p	-36.8	-36.8	-36.9	13.9	ESE	0.23	13.9	-53.3	734.9	0.038	0.000	7.1	77	1
08/02/19	8:23 p	-36.8	-36.7	-36.8	13.9	ESE	0.23	13.9	-53.3	734.9	0.038	0.000	7.1	77	1
08/02/19	8:24 p	-36.8	-36.8	-36.9	13.9	ESE	0.23	14.8	-53.3	734.9	0.038	0.000	7.1	77	1
08/02/19	8:25 p	-36.9	-36.9	-36.9	13.9	ESE	0.23	15.7	-53.4	734.8	0.038	0.000	7.1	77	1
08/02/19	8:26 p	-36.9	-36.9	-36.9	14.8	ESE	0.25	15.7	-53.8	734.8	0.038	0.000	7.1	77	1
08/02/19	8:27 p	-36.9	-36.9	-36.9	14.8	ESE	0.25	15.7	-53.8	734.9	0.038	0.000	7.1	77	1
08/02/19	8:28 p	-36.9	-36.9	-36.9	14.8	ESE	0.25	15.7	-53.9	734.8	0.038	0.000	7.1	77	1
08/02/19	8:29 p	-36.9	-36.9	-36.9	14.8	ESE	0.25	16.5	-53.9	734.8	0.038	0.000	7.1	77	1
08/02/19	8:30 p	-36.9	-36.9	-36.9	14.8	ESE	0.25	17.4	-53.9	734.8	0.038	0.000	7.1	77	1
08/02/19	8:31 p	-36.9	-36.9	-36.9	15.7	ESE	0.26	16.5	-54.3	734.8	0.038	0.000	7.2	77	1
08/02/19	8:32 p	-36.9	-36.9	-36.9	15.7	ESE	0.26	16.5	-54.3	734.8	0.038	0.000	7.2	77	1
08/02/19	8:33 p	-36.9	-36.9	-36.9	15.7	ESE	0.26	16.5	-54.3	734.8	0.038	0.000	7.2	77	1
08/02/19	8:34 p	-36.9	-36.9	-37.0	15.7	ESE	0.26	17.4	-54.3	734.7	0.038	0.000	7.2	77	1
08/02/19	8:35 p	-36.9	-36.9	-36.9	12.2	ESE	0.20	17.4	-52.6	734.7	0.038	0.000	7.2	77	1
08/02/19	8:36 p	-36.9	-36.9	-37.0	16.5	ESE	0.28	17.4	-54.7	734.6	0.038	0.000	7.2	77	1
08/02/19	8:37 p	-36.9	-36.9	-36.9	15.7	ESE	0.26	17.4	-54.3	734.7	0.038	0.000	7.2	77	1
08/02/19	8:38 p	-36.9	-36.9	-37.0	13.0	ESE	0.22	17.4	-53.1	734.7	0.038	0.000	7.2	77	1
08/02/19	8:39 p	-36.9	-36.9	-37.0	16.5	ESE	0.28	17.4	-54.7	734.7	0.038	0.000	7.2	77	1
08/02/19	8:40 p	-36.9	-36.9	-37.0	16.5	ESE	0.28	18.3	-54.7	734.7	0.038	0.000	7.2	77	1
08/02/19	8:41 p	-36.9	-36.9	-37.0	15.7	ESE	0.26	16.5	-54.3	734.7	0.038	0.000	7.2	77	1
08/02/19	8:42 p	-36.9	-36.9	-37.0	15.7	ESE	0.26	17.4	-54.3	734.7	0.038	0.000	7.2	77	1
08/02/19	8:43 p	-36.9	-36.9	-37.0	15.7	ESE	0.26	17.4	-54.3	734.7	0.038	0.000	7.2	77	1
08/02/19	8:44 p	-36.9	-36.9	-37.0	13.9	ESE	0.23	17.4	-53.5	734.7	0.038	0.000	7.2	77	1
08/02/19	8:45 p	-36.9	-36.9	-37.0	16.5	ESE	0.28	17.4	-54.7	734.7	0.038	0.000	7.2	77	1
08/02/19	8:46 p	-36.9	-36.9	-37.0	16.5	ESE	0.28	18.3	-54.7	734.7	0.038	0.000	7.2	77	1
08/02/19	8:47 p	-37.0	-37.0	-37.0	12.2	ESE	0.20	18.3	-52.7	734.7	0.038	0.000	7.2	77	1
08/02/19	8:48 p	-37.0	-36.9	-37.0	16.5	ESE	0.28	18.3	-54.8	734.7	0.038	0.000	7.2	77	1
08/02/19	8:49 p	-37.0	-36.9	-37.0	16.5	ESE	0.28	17.4	-54.8	734.7	0.038	0.000	7.2	77	1
08/02/19	8:50 p	-37.0	-36.9	-37.0	13.0	ESE	0.22	18.3	-53.1	734.7	0.038	0.000	7.2	77	1
08/02/19	8:51 p	-37.0	-36.9	-37.0	16.5	ESE	0.28	17.4	-54.8	734.7	0.038	0.000	7.2	77	1
08/02/19	8:52 p	-37.0	-36.9	-37.0	15.7	ESE	0.26	18.3	-54.4	734.6	0.038	0.000	7.2	77	1
08/02/19	8:53 p	-37.0	-37.0	-37.0	17.4	ESE	0.29	18.3	-55.2	734.7	0.038	0.000	7.2	77	1
08/02/19	8:54 p	-37.0	-37.0	-37.0	14.8	ESE	0.25	17.4	-54.0	734.7	0.038	0.000	7.2	77	1
08/02/19	8:55 p	-37.0	-36.9	-37.0	16.5	ESE	0.28	17.4	-54.8	734.6	0.038	0.000	7.2	77	1
08/02/19	8:56 p	-37.0	-37.0	-37.0	16.5	ESE	0.28	18.3	-54.8	734.7	0.038	0.000	7.2	77	1
08/02/19	8:57 p	-37.0	-37.0	-37.0	16.5	ESE	0.28	18.3	-54.8	734.7	0.038	0.000	7.2	77	1
08/02/19	8:58 p	-37.0	-36.9	-37.0	13.9	ESE	0.23	17.4	-53.6	734.7	0.038	0.000	7.2	77	1
08/02/19	8:59 p	-37.0	-37.0	-37.0	15.7	ESE	0.26	17.4	-54.4	734.7	0.038	0.000	7.2	77	1
08/02/19	9:00 p	-37.0	-36.9	-37.0	15.7	ESE	0.26	16.5	-54.4	734.7	0.038	0.000	7.2	77	1
08/02/19	9:01 p	-36.9	-36.9	-37.0	12.2	ESE	0.20	16.5	-52.6	734.7	0.038	0.000	7.2	77	1
08/02/19	9:02 p	-37.0	-36.9	-37.0	12.2	ESE	0.20	14.8	-52.7	734.8	0.038	0.000	7.2	77	1
08/02/19	9:03 p	-37.0	-37.0	-37.1	13.0	ESE	0.22	14.8	-53.1	734.8	0.038	0.000	7.2	77	1
08/02/19	9:04 p	-37.0	-36.9	-37.0	13.0	ESE	0.22	13.9	-53.1	734.8	0.038	0.000	7.2	77	1
08/02/19	9:05 p	-36.9	-36.9	-37.0	13.0	ESE	0.22	13.9	-53.1	734.8	0.038	0.000	7.3	77	1
08/02/19	9:06 p	-37.0	-37.0	-37.0	13.0	ESE	0.22	15.7	-53.1	734.7	0.038	0.000	7.2	77	1
08/02/19	9:07 p	-37.0	-37.0	-37.0	15.7	ESE	0.26	16.5	-54.4	734.8	0.038	0.000	7.3	77	1
08/02/19	9:08 p	-36.9	-36.9	-37.0	15.7	ESE	0.26	16.5	-54.3	734.7	0.038	0.000	7.3	77	1
08/02/19	9:09 p	-36.9	-36.9	-37.0	15.7	ESE	0.26	16.5	-54.3	734.7	0.038	0.000	7.3	77	1
08/02/19	9:10 p	-36.9	-36.9	-36.9	14.8	ESE	0.25	15.7	-53.9	734.7	0.038	0.000	7.3	77	1
08/02/19	9:11 p	-36.9	-36.9	-36.9	14.8	ESE	0.25	15.7	-53.9	734.8	0.038	0.000	7.3	77	1
08/02/19	9:12 p	-36.9	-36.9	-37.0	14.8	E	0.25	15.7	-53.9	734.8	0.038	0.000	7.3	77	1
08/02/19	9:13 p	-36.9	-36.9	-37.0	13.9	ESE	0.23	14.8	-53.5	734.7	0.038	0.000	7.3	77	1
08/02/19	9:14 p	-36.9	-36.9	-37.0	13.9	ESE	0.23	14.8	-53.5	734.8	0.038	0.000	7.3	77	1
08/02/19	9:15 p	-37.0	-37.0	-37.0	13.0	ESE	0.22	13.9	-53.1	734.8	0.038	0.000	7.3	77	1
08/02/19	9:16 p	-36.9	-36.9	-37.1	13.9	ESE	0.23	15.7	-53.5	734.8	0.038	0.000	7.3	77	1
08/02/19	9:17 p	-37.0	-36.9	-37.1	12.2	ESE	0.20	13.9	-52.7	734.9	0.038	0.000	7.3	77	1
08/02/19	9:18 p	-36.9	-36.9	-37.0	13.9	ESE	0.23	16.5	-53.5	734.8	0.038	0.000	7.3	77	1
08/02/19	9:19 p	-37.0	-36.9	-37.0	14.8	E	0.25	16.5	-54.0	734.8	0.038	0.000	7.3	77	1
08/02/19	9:20 p	-36.9	-36.9	-37.0	15.7	E	0.26	16.5	-54.3	734.8	0.038	0.000	7.3	77	1
08/02/19	9:21 p	-36.9	-36.9	-37.0	13.9	E	0.23	15.7	-53.5	734.8	0.038	0.000	7.3	77	1
08/02/19	9:22 p	-37.0	-36.9	-37.0	14.8	E	0.25	15.7	-54.0	734.7	0.038	0.000	7.3	77	1
08/02/19	9:23 p	-37.0	-36.9	-37.1	13.9	E	0.23	16.5	-53.6	734.8	0.038	0.000	7.3	77	1
08/02/19	9:24 p	-37.0	-36.9	-37.1	13.9	E	0.23	14.8	-53.6	734.8	0.038	0.000	7.3	77	1
08/02/19	9:25 p	-37.0	-36.9	-37.0	14.8	E	0.25	16.5	-54.0	734.8	0.038	0.000	7.3	77	1
08/02/19	9:26 p	-37.0	-36.9	-37.1	14.8	E	0.25	17.4	-54.0	734.8	0.038	0.000	7.3	77	1
08/02/19	9:27 p	-37.0	-37.0	-37.1	13.0	E	0.22	16.5	-53.1	734.8	0.038	0.000	7.3	77	1
08/02/19	9:28 p	-37.0	-36.9	-37.1	15.7	E	0.26	17.4	-54.4	734.9	0.038	0.000	7.3	77	1
08/02/19	9:29 p	-37.0	-36.9	-37.1	14.8	E	0.25	15.7	-54.0	734.9	0.038	0.000	7.3	77	1
08/02/19	9:30 p	-37.0	-36.9	-37.1	13.9	E	0.23	15.7	-53.6	734.9	0.038	0.000	7.3	77	1
08/02/19	9:31 p	-37.0	-37.0	-37.1	12.2	E	0.20	13.0	-52.7	734.9	0.038	0.000	7.3	77	1
08/02/19	9:32 p	-37.0	-36.9	-37.1	12.2	E	0.20	13.0	-52.7	734.9	0.038	0.000	7.3	77	1
08/02/19	9:33 p	-37.0	-36.9	-37.0	12.2	E	0.20	13.0	-52.7	734.9	0.038	0.000	7.3	77	1
08/02/19	9:34 p	-37.0	-36.9	-37.1	12.2	E	0.20	13.0	-52.7	734.9	0.038	0.000	7.3	77	1
08/02/19	9:35 p	-37.0	-36.9	-37.1	12.2	E	0.20	13.0	-52.7	735.0	0.038	0.000	7.3	77	1
08/02/19	9:36 p	-37.0	-36.9	-37.0	12.2	E	0.20	13.0	-52.7	735.0	0.038	0.000	7.3	77	1
08/02/19	9:37 p	-36.9	-36.9	-37.0	11.3	E	0.19	12.2	-52.1	734.9	0.038	0.000	7.3	77	1
08/02/19	9:38 p	-36.9	-36.9	-36.9	10.4	ENE	0.17	12.2	-51.6	734.9	0.038	0.000	7.3	77	1
08/02/19	9:39 p	-36.9	-36.9	-36.9	8.7	E	0.14	10.4	-50.3	735.0	0.038	0.000	7.3	77	1
08/02/19	9:40 p	-36.9	-36.9	-37.0	10.4	E	0.17	13.0	-51.6	735.0	0.038	0.000	7.3	77	1
08/02/19	9:41 p	-36.9	-36.9	-36.9	9.6	E	0.16	10.4	-50.9	735.0	0.038	0.000	7.4	77	1
08/02/19	9:42 p	-36.9	-36.8	-36.9	9.6	E	0.16	10.4	-50.9	735.0	0.038	0.000	7.4	77	1
08/02/19	9:43 p	-36.9	-36.8	-36.9	8.7	ENE	0.14	9.6	-50.3	735.1	0.038	0.000	7.4	77	1
08/02/19	9:44 p	-36.9	-36.8	-36.9	8.7	ENE	0.14	9.6	-50.3	735.0	0.038	0.000	7.4	77	1
08/02/19	9:45 p	-36.8	-36.8	-36.8	7.0	ENE	0.12	7.8	-48.8	735.0	0.038	0.000	7.4	77	1
08/02/19	9:46 p	-36.9	-36.8	-36.9	3.5	ENE	0.06	7.8	-44.7	735.0	0.038	0.000	7.4	77	1
08/02/19	9:47 p	-36.8	-36.8	-36.9	7.0	ENE	0.12	7.8	-48.8	735.0	0.038	0.000	7.4	77	1
08/02/19	9:48 p	-36.8	-36.8	-36.8	7.0	ENE	0.12	8.7	-48.8	735.0	0.038	0.000	7.4	77	1
08/02/19	9:49 p	-36.8	-36.8	-36.8	6.1	ENE	0.10	7.0	-47.9	735.0	0.038	0.000	7.4	77	1
08/02/19	9:50 p	-36.8	-36.7	-36.8	6.1	ENE	0.10	7.0	-47.9	734.9	0.038	0.000	7.4	77	1
08/02/19	9:51 p	-36.7	-36.6	-36.7	6.1	ENE	0.10	7.0	-47.7	735.0	0.038	0.000	7.4	77	1
08/02/19	9:52 p	-36.7	-36.7	-36.7	6.1	ENE	0.10	7.0	-47.8	735.1	0.038	0.000	7.4	77	1
08/02/19	9:53 p	-36.7	-36.6	-36.7	4.3	ENE	0.07	6.1	-45.7	735.0	0.038	0.000	7.4	77	1
08/02/19	9:54 p	-36.6	-36.6	-36.6	1.7	ENE	0.03	1.7	-40.8	735.0	0.038	0.000	7.4	77	1
08/02/19	9:55 p	-36.6	-36.6	-36.6	2.6	ENE	0.04	7.0	-42.8	734.9	0.038	0.000	7.4	77	1
08/02/19	9:56 p	-36.6	-36.6	-36.6	6.1	E	0.10	7.0	-47.6	735.0	0.038	0.000	7.4	77	1
08/02/19	9:57 p	-36.5	-36.5	-36.5	6.1	E	0.10	7.0	-47.6	735.0	0.038	0.000	7.4	77	1
08/02/19	9:58 p	-36.5	-36.4	-36.5	5.2	E	0.09	7.0	-46.6	735.0	0.038	0.000	7.4	77	1
08/02/19	9:59 p	-36.4	-36.4	-36.5	7.0	E	0.12	8.7	-48.3	734.9	0.038	0.000	7.5	77	1
08/02/19	10:00 p	-36.4	-36.3	-36.4	7.0	E	0.12	7.8	-48.2	735.0	0.038	0.000	7.5	77	1
08/02/19	10:01 p	-36.3	-36.3	-36.4	7.8	E	0.13	8.7	-48.9	734.9	0.038	0.000	7.5	77	1
08/02/19	10:02 p	-36.3	-36.2	-36.3	7.0	E	0.12	7.8	-48.1	734.9	0.038	0.000	7.5	77	1
08/02/19	10:03 p	-36.2	-36.2	-36.3	7.0	E	0.12	8.7	-48.1	734.9	0.038	0.000	7.5	77	1
08/02/19	10:04 p	-36.2	-36.1	-36.2	7.8	E	0.13	8.7	-48.7	735.0	0.038	0.000	7.5	77	1
08/02/19	10:05 p	-36.1	-36.1	-36.2	7.0	E	0.12	7.8	-47.9	734.9	0.038	0.000	7.5	77	1
08/02/19	10:06 p	-36.1	-36.1	-36.1	7.0	E	0.12	7.8	-47.9	734.9	0.038	0.000	7.5	77	1
08/02/19	10:07 p	-36.1	-36.0	-36.1	7.0	E	0.12	7.8	-47.8	735.0	0.038	0.000	7.5	77	1
08/02/19	10:08 p	-36.0	-35.9	-36.1	7.8	E	0.13	7.8	-48.5	735.1	0.038	0.000	7.5	77	1
08/02/19	10:09 p	-35.9	-35.9	-35.9	7.0	E	0.12	7.8	-47.7	735.0	0.038	0.000	7.6	77	1
08/02/19	10:10 p	-35.9	-35.8	-36.0	7.8	E	0.13	8.7	-48.4	735.0	0.038	0.000	7.5	77	1
08/02/19	10:11 p	-35.8	-35.8	-35.8	7.8	E	0.13	8.7	-48.3	735.0	0.038	0.000	7.6	77	1
08/02/19	10:12 p	-35.8	-35.8	-35.8	8.7	E	0.14	8.7	-48.9	734.9	0.038	0.000	7.6	77	1
08/02/19	10:13 p	-35.8	-35.7	-35.8	8.7	E	0.14	8.7	-48.9	734.9	0.038	0.000	7.6	77	1
08/02/19	10:14 p	-35.7	-35.7	-35.7	8.7	E	0.14	8.7	-48.8	735.0	0.038	0.000	7.6	77	1
08/02/19	10:15 p	-35.7	-35.7	-35.7	8.7	E	0.14	8.7	-48.7	735.0	0.038	0.000	7.6	77	1
08/02/19	10:16 p	-35.7	-35.7	-35.7	8.7	E	0.14	9.6	-48.7	734.9	0.038	0.000	7.6	77	1
08/02/19	10:17 p	-35.6	-35.6	-35.7	8.7	E	0.14	9.6	-48.7	735.0	0.037	0.000	7.6	77	1
08/02/19	10:18 p	-35.6	-35.6	-35.7	7.8	E	0.13	8.7	-48.0	735.0	0.037	0.000	7.6	77	1
08/02/19	10:19 p	-35.6	-35.5	-35.6	7.8	ESE	0.13	8.7	-47.9	735.0	0.037	0.000	7.6	77	1
08/02/19	10:20 p	-35.6	-35.5	-35.6	7.8	ESE	0.13	8.7	-47.9	735.1	0.037	0.000	7.6	77	1
08/02/19	10:21 p	-35.5	-35.5	-35.6	7.8	ESE	0.13	8.7	-47.9	734.9	0.037	0.000	7.6	77	1
08/02/19	10:22 p	-35.5	-35.5	-35.6	8.7	ESE	0.14	9.6	-48.6	735.0	0.037	0.000	7.6	77	1
08/02/19	10:23 p	-35.6	-35.5	-35.6	8.7	ESE	0.14	10.4	-48.6	734.9	0.037	0.000	7.6	77	1
08/02/19	10:24 p	-35.6	-35.5	-35.6	8.7	ESE	0.14	9.6	-48.6	734.9	0.037	0.000	7.6	77	1
08/02/19	10:25 p	-35.6	-35.5	-35.6	9.6	ESE	0.16	10.4	-49.2	734.9	0.037	0.000	7.6	77	1
08/02/19	10:26 p	-35.4	-35.4	-35.5	9.6	ESE	0.16	9.6	-49.1	734.9	0.037	0.000	7.6	77	1
08/02/19	10:27 p	-35.4	-35.4	-35.5	8.7	ESE	0.14	9.6	-48.4	734.9	0.037	0.000	7.6	77	1
08/02/19	10:28 p	-35.4	-35.4	-35.5	8.7	ESE	0.14	9.6	-48.4	734.8	0.037	0.000	7.6	77	1
08/02/19	10:29 p	-35.4	-35.4	-35.5	6.1	ESE	0.10	9.6	-46.3	734.8	0.037	0.000	7.6	77	1
08/02/19	10:30 p	-35.4	-35.3	-35.5	7.8	ESE	0.13	8.7	-47.8	734.9	0.037	0.000	7.6	77	1
08/02/19	10:31 p	-35.4	-35.4	-35.5	7.8	ESE	0.13	8.7	-47.8	734.8	0.037	0.000	7.6	77	1
08/02/19	10:32 p	-35.4	-35.4	-35.5	7.8	ESE	0.13	7.8	-47.8	734.9	0.037	0.000	7.6	77	1
08/02/19	10:33 p	-35.4	-35.3	-35.5	7.8	ESE	0.13	7.8	-47.7	734.9	0.037	0.000	7.7	77	1
08/02/19	10:34 p	-35.4	-35.4	-35.4	7.0	ESE	0.12	8.7	-47.0	734.9	0.037	0.000	7.7	77	1
08/02/19	10:35 p	-35.4	-35.3	-35.4	6.1	ESE	0.10	7.8	-46.2	734.9	0.037	0.000	7.7	77	1
08/02/19	10:36 p	-35.4	-35.4	-35.5	7.8	E	0.13	7.8	-47.8	734.8	0.037	0.000	7.7	77	1
08/02/19	10:37 p	-35.4	-35.4	-35.4	7.8	E	0.13	8.7	-47.7	734.8	0.037	0.000	7.7	77	1
08/02/19	10:38 p	-35.4	-35.4	-35.4	7.8	E	0.13	8.7	-47.8	734.9	0.037	0.000	7.7	77	1
08/02/19	10:39 p	-35.4	-35.4	-35.4	7.0	E	0.12	8.7	-47.1	734.9	0.037	0.000	7.7	77	1
08/02/19	10:40 p	-35.4	-35.3	-35.4	4.3	E	0.07	7.8	-44.2	734.8	0.037	0.000	7.7	77	1
08/02/19	10:41 p	-35.4	-35.4	-35.4	7.8	E	0.13	8.7	-47.8	734.9	0.037	0.000	7.7	77	1
08/02/19	10:42 p	-35.4	-35.4	-35.4	7.8	E	0.13	8.7	-47.8	734.8	0.037	0.000	7.7	77	1
08/02/19	10:43 p	-35.4	-35.4	-35.5	7.8	E	0.13	8.7	-47.8	734.8	0.037	0.000	7.7	77	1
08/02/19	10:44 p	-35.4	-35.4	-35.6	7.0	E	0.12	7.8	-47.1	734.9	0.037	0.000	7.7	77	1
08/02/19	10:45 p	-35.5	-35.4	-35.5	7.0	E	0.12	7.8	-47.2	734.8	0.037	0.000	7.7	77	1
08/02/19	10:46 p	-35.5	-35.4	-35.5	7.0	E	0.12	7.8	-47.2	734.9	0.037	0.000	7.7	77	1
08/02/19	10:47 p	-35.5	-35.4	-35.6	7.0	E	0.12	7.8	-47.2	734.9	0.037	0.000	7.7	77	1
08/02/19	10:48 p	-35.5	-35.4	-35.5	5.2	ENE	0.09	7.8	-45.4	734.8	0.037	0.000	7.7	77	1
08/02/19	10:49 p	-35.5	-35.5	-35.6	6.1	ENE	0.10	7.8	-46.3	734.9	0.037	0.000	7.7	77	1
08/02/19	10:50 p	-35.5	-35.4	-35.6	6.1	ENE	0.10	7.0	-46.3	734.9	0.037	0.000	7.7	77	1
08/02/19	10:51 p	-35.6	-35.5	-35.6	6.1	E	0.10	7.0	-46.4	734.9	0.037	0.000	7.7	77	1
08/02/19	10:52 p	-35.5	-35.4	-35.6	6.1	E	0.10	7.8	-46.3	735.0	0.037	0.000	7.7	77	1
08/02/19	10:53 p	-35.6	-35.5	-35.6	7.0	E	0.12	7.8	-47.2	734.9	0.037	0.000	7.7	77	1
08/02/19	10:54 p	-35.6	-35.5	-35.6	6.1	E	0.10	7.8	-46.4	734.9	0.037	0.000	7.7	77	1
08/02/19	10:55 p	-35.5	-35.5	-35.6	7.0	ENE	0.12	7.8	-47.2	734.9	0.037	0.000	7.8	77	1
08/02/19	10:56 p	-35.5	-35.5	-35.6	4.3	ENE	0.07	7.0	-44.4	734.9	0.037	0.000	7.8	77	1
08/02/19	10:57 p	-35.5	-35.5	-35.6	5.2	ENE	0.09	7.0	-45.4	735.0	0.037	0.000	7.8	78	1
08/02/19	10:58 p	-35.5	-35.4	-35.6	7.0	ENE	0.12	7.8	-47.2	734.9	0.037	0.000	7.8	77	1
08/02/19	10:59 p	-35.5	-35.4	-35.6	7.0	ENE	0.12	7.0	-47.2	734.9	0.037	0.000	7.8	77	1
08/02/19	11:00 p	-35.5	-35.4	-35.5	7.0	E	0.12	7.8	-47.2	734.9	0.037	0.000	7.8	77	1
08/02/19	11:01 p	-35.5	-35.4	-35.5	5.2	E	0.09	7.0	-45.4	734.9	0.037	0.000	7.8	77	1
08/02/19	11:02 p	-35.5	-35.4	-35.5	5.2	ENE	0.09	7.8	-45.4	734.8	0.037	0.000	7.8	77	1
08/02/19	11:03 p	-35.5	-35.4	-35.6	4.3	ENE	0.07	6.1	-44.4	734.9	0.037	0.000	7.8	77	1
08/02/19	11:04 p	-35.4	-35.4	-35.5	5.2	ENE	0.09	8.7	-45.4	734.9	0.037	0.000	7.8	77	1
08/02/19	11:05 p	-35.4	-35.4	-35.4	7.8	ENE	0.13	8.7	-47.8	734.9	0.037	0.000	7.8	77	1
08/02/19	11:06 p	-35.4	-35.4	-35.4	6.1	ENE	0.10	7.8	-46.2	734.9	0.037	0.000	7.8	77	1
08/02/19	11:07 p	-35.4	-35.3	-35.5	5.2	ENE	0.09	7.8	-45.3	734.8	0.037	0.000	7.8	77	1
08/02/19	11:08 p	-35.4	-35.3	-35.4	7.0	ENE	0.12	7.0	-47.0	734.9	0.037	0.000	7.8	77	1
08/02/19	11:09 p	-35.3	-35.3	-35.4	5.2	ENE	0.09	7.0	-45.2	734.9	0.037	0.000	7.8	77	1
08/02/19	11:10 p	-35.3	-35.3	-35.4	6.1	ENE	0.10	7.0	-46.2	734.8	0.037	0.000	7.8	77	1
08/02/19	11:11 p	-35.3	-35.2	-35.3	6.1	ENE	0.10	7.8	-46.2	734.8	0.037	0.000	7.8	77	1
08/02/19	11:12 p	-35.3	-35.3	-35.3	7.0	ENE	0.12	7.8	-46.9	734.8	0.037	0.000	7.9	77	1
08/02/19	11:13 p	-35.3	-35.2	-35.3	7.0	ENE	0.12	7.0	-46.9	734.8	0.037	0.000	7.8	77	1
08/02/19	11:14 p	-35.3	-35.2	-35.3	5.2	ENE	0.09	7.8	-45.2	734.7	0.037	0.000	7.8	77	1
08/02/19	11:15 p	-35.2	-35.2	-35.3	7.0	ENE	0.12	7.8	-46.8	734.8	0.037	0.000	7.9	77	1
08/02/19	11:16 p	-35.2	-35.2	-35.3	7.0	ENE	0.12	7.8	-46.8	734.8	0.037	0.000	7.9	77	1
08/02/19	11:17 p	-35.2	-35.2	-35.2	7.8	ENE	0.13	8.7	-47.6	734.9	0.037	0.000	7.9	77	1
08/02/19	11:18 p	-35.2	-35.2	-35.2	7.8	ENE	0.13	8.7	-47.4	734.8	0.037	0.000	7.9	77	1
08/02/19	11:19 p	-35.2	-35.2	-35.2	7.0	ENE	0.12	8.7	-46.7	734.8	0.037	0.000	7.9	77	1
08/02/19	11:20 p	-35.2	-35.2	-35.2	6.1	ENE	0.10	7.8	-45.9	734.7	0.037	0.000	7.9	77	1
08/02/19	11:21 p	-35.2	-35.1	-35.2	7.8	ENE	0.13	8.7	-47.4	734.8	0.037	0.000	7.9	77	1
08/02/19	11:22 p	-35.2	-35.1	-35.2	7.8	ENE	0.13	8.7	-47.4	734.8	0.037	0.000	7.9	77	1
08/02/19	11:23 p	-35.1	-35.1	-35.2	7.8	ENE	0.13	8.7	-47.4	734.8	0.037	0.000	7.9	77	1
08/02/19	11:24 p	-35.1	-35.1	-35.2	7.8	ENE	0.13	8.7	-47.4	734.7	0.037	0.000	7.9	77	1
08/02/19	11:25 p	-35.1	-35.1	-35.1	7.8	ENE	0.13	8.7	-47.4	734.8	0.037	0.000	7.9	77	1
08/02/19	11:26 p	-35.1	-35.1	-35.2	8.7	E	0.14	9.6	-48.1	734.7	0.037	0.000	7.9	77	1
08/02/19	11:27 p	-35.1	-35.1	-35.1	8.7	E	0.14	9.6	-48.1	734.8	0.037	0.000	7.9	77	1
08/02/19	11:28 p	-35.1	-35.1	-35.2	8.7	E	0.14	9.6	-48.1	734.7	0.037	0.000	7.9	77	1
08/02/19	11:29 p	-35.1	-35.1	-35.2	9.6	E	0.16	9.6	-48.7	734.7	0.037	0.000	7.9	77	1
08/02/19	11:30 p	-35.1	-35.1	-35.1	8.7	E	0.14	9.6	-48.1	734.7	0.037	0.000	7.9	77	1
08/02/19	11:31 p	-35.1	-35.1	-35.1	8.7	E	0.14	9.6	-48.1	734.7	0.037	0.000	7.9	77	1
08/02/19	11:32 p	-35.1	-35.1	-35.1	8.7	E	0.14	8.7	-48.1	734.7	0.037	0.000	7.9	77	1
08/02/19	11:33 p	-35.1	-35.1	-35.2	8.7	E	0.14	9.6	-48.1	734.7	0.037	0.000	7.9	77	1
08/02/19	11:34 p	-35.1	-35.1	-35.1	8.7	E	0.14	9.6	-48.1	734.7	0.037	0.000	8.0	77	1
08/02/19	11:35 p	-35.1	-35.1	-35.1	7.8	ENE	0.13	8.7	-47.4	734.7	0.037	0.000	8.0	77	1
08/02/19	11:36 p	-35.1	-35.1	-35.2	7.8	ENE	0.13	8.7	-47.4	734.7	0.037	0.000	8.0	77	1
08/02/19	11:37 p	-35.1	-35.1	-35.2	7.8	ENE	0.13	8.7	-47.4	734.7	0.037	0.000	8.0	77	1
08/02/19	11:38 p	-35.1	-35.1	-35.2	7.8	ENE	0.13	8.7	-47.4	734.8	0.037	0.000	8.0	77	1
08/02/19	11:39 p	-35.1	-35.1	-35.2	7.8	ENE	0.13	7.8	-47.4	734.7	0.037	0.000	8.0	77	1
08/02/19	11:40 p	-35.2	-35.1	-35.2	7.0	E	0.12	7.8	-46.7	734.7	0.037	0.000	8.0	77	1
08/02/19	11:41 p	-35.2	-35.1	-35.2	7.8	E	0.13	7.8	-47.4	734.7	0.037	0.000	8.0	77	1
08/02/19	11:42 p	-35.2	-35.1	-35.2	7.8	E	0.13	7.8	-47.4	734.8	0.037	0.000	8.0	77	1
08/02/19	11:43 p	-35.2	-35.1	-35.2	7.8	E	0.13	8.7	-47.4	734.9	0.037	0.000	8.0	77	1
08/02/19	11:44 p	-35.1	-35.1	-35.2	7.8	E	0.13	7.8	-47.4	734.8	0.037	0.000	8.1	77	1
08/02/19	11:45 p	-35.2	-35.1	-35.2	7.8	E	0.13	8.7	-47.4	734.8	0.037	0.000	8.1	77	1
08/02/19	11:49 p	-35.2	-35.1	-35.2	7.0	ENE	0.12	7.8	-46.7	734.8	0.037	0.000	8.6	77	1
08/02/19	11:50 p	-35.1	-35.1	-35.2	7.0	ENE	0.12	7.8	-46.7	734.8	0.037	0.000	8.7	78	1
08/02/19	11:51 p	-35.2	-35.1	-35.2	7.0	ENE	0.12	7.0	-46.7	734.8	0.037	0.000	8.8	79	1
08/02/19	11:52 p	-35.2	-35.1	-35.2	6.1	ENE	0.10	7.8	-45.9	734.8	0.037	0.000	9.0	79	1
08/02/19	11:53 p	-35.1	-35.1	-35.2	7.0	E	0.12	7.8	-46.7	734.8	0.037	0.000	9.1	79	1
08/02/19	11:54 p	-35.2	-35.1	-35.2	7.0	ENE	0.12	7.0	-46.7	734.7	0.037	0.000	9.1	79	1
08/02/19	11:55 p	-35.1	-35.1	-35.2	6.1	E	0.10	7.0	-45.9	734.8	0.037	0.000	8.9	78	1
08/02/19	11:56 p	-35.2	-35.1	-35.2	6.1	ENE	0.10	7.0	-45.9	734.7	0.037	0.000	8.9	79	1
08/02/19	11:57 p	-35.2	-35.1	-35.2	4.3	E	0.07	7.0	-44.0	734.8	0.037	0.000	8.8	79	1
08/02/19	11:58 p	-35.2	-35.2	-35.3	7.0	E	0.12	7.8	-46.8	734.8	0.037	0.000	8.7	78	1
08/02/19	11:59 p	-35.2	-35.2	-35.2	6.1	E	0.10	7.8	-45.9	734.7	0.037	0.000	8.7	78	1
08/03/19	12:00 a	-35.1	-35.1	-35.1	7.0	E	0.12	7.8	-46.7	734.7	0.037	0.000	8.7	78	1
08/03/19	12:01 a	-35.2	-35.2	-35.2	6.1	ENE	0.10	7.0	-45.9	734.8	0.037	0.000	8.6	78	1
08/03/19	12:02 a	-35.2	-35.2	-35.2	5.2	ENE	0.09	6.1	-45.1	734.7	0.037	0.000	8.6	78	1
08/03/19	12:03 a	-35.2	-35.2	-35.2	7.0	ENE	0.12	7.8	-46.7	734.8	0.037	0.000	8.6	78	1
08/03/19	12:04 a	-35.2	-35.1	-35.2	7.0	ENE	0.12	7.8	-46.7	734.8	0.037	0.000	8.6	78	1
08/03/19	12:05 a	-35.2	-35.2	-35.2	7.8	ENE	0.13	8.7	-47.6	734.7	0.037	0.000	8.5	78	1
08/03/19	12:07 a	-35.2	-35.2	-35.2	7.0	ENE	0.12	7.8	-46.8	734.8	0.037	0.000	8.5	78	1
08/03/19	12:08 a	-35.2	-35.2	-35.2	7.8	ENE	0.13	8.7	-47.4	734.7	0.037	0.000	8.5	78	1
08/03/19	12:09 a	-35.2	-35.2	-35.2	7.8	ENE	0.13	8.7	-47.6	734.8	0.037	0.000	8.5	78	1
08/03/19	12:10 a	-35.2	-35.2	-35.2	8.7	ENE	0.14	8.7	-48.2	734.8	0.037	0.000	8.5	77	1
08/03/19	12:11 a	-35.2	-35.2	-35.2	9.6	E	0.16	9.6	-48.7	734.8	0.037	0.000	8.5	77	1
08/03/19	12:12 a	-35.2	-35.2	-35.2	8.7	E	0.14	9.6	-48.2	734.8	0.037	0.000	8.5	77	1
08/03/19	12:13 a	-35.2	-35.2	-35.2	9.6	E	0.16	9.6	-48.7	734.8	0.037	0.000	8.5	77	1
08/03/19	12:14 a	-35.2	-35.2	-35.2	9.6	E	0.16	10.4	-48.8	734.8	0.037	0.000	8.5	76	1
08/03/19	12:15 a	-35.2	-35.2	-35.2	9.6	E	0.16	10.4	-48.8	734.7	0.037	0.000	8.5	76	1
08/03/19	12:16 a	-35.2	-35.2	-35.3	10.4	E	0.17	10.4	-49.4	734.7	0.037	0.000	8.5	76	1
08/03/19	12:17 a	-35.2	-35.2	-35.2	9.6	E	0.16	10.4	-48.8	734.8	0.037	0.000	8.5	76	1
08/03/19	12:18 a	-35.2	-35.2	-35.3	9.6	E	0.16	10.4	-48.8	734.8	0.037	0.000	8.5	77	1
08/03/19	12:19 a	-35.2	-35.2	-35.2	9.6	E	0.16	10.4	-48.8	734.8	0.037	0.000	8.5	77	1
08/03/19	12:20 a	-35.2	-35.2	-35.3	7.8	ENE	0.13	8.7	-47.6	734.8	0.037	0.000	8.5	77	1
08/03/19	12:21 a	-35.2	-35.2	-35.3	9.6	ENE	0.16	10.4	-48.8	734.8	0.037	0.000	8.5	77	1
08/03/19	12:22 a	-35.3	-35.3	-35.3	8.7	ENE	0.14	9.6	-48.3	734.8	0.037	0.000	8.5	77	1
08/03/19	12:23 a	-35.3	-35.2	-35.3	9.6	ENE	0.16	10.4	-48.9	734.8	0.037	0.000	8.5	77	1
08/03/19	12:24 a	-35.3	-35.3	-35.3	7.8	ENE	0.13	8.7	-47.6	734.8	0.037	0.000	8.5	77	1
08/03/19	12:25 a	-35.3	-35.3	-35.3	7.8	ENE	0.13	9.6	-47.6	734.8	0.037	0.000	8.5	77	1
08/03/19	12:26 a	-35.3	-35.3	-35.3	8.7	ENE	0.14	9.6	-48.3	734.8	0.037	0.000	8.5	77	1
08/03/19	12:27 a	-35.3	-35.3	-35.3	8.7	ENE	0.14	9.6	-48.3	734.8	0.037	0.000	8.5	77	1
08/03/19	12:28 a	-35.3	-35.3	-35.3	8.7	ENE	0.14	9.6	-48.3	734.8	0.037	0.000	8.5	77	1
08/03/19	12:29 a	-35.3	-35.3	-35.3	7.8	ENE	0.13	9.6	-47.6	734.8	0.037	0.000	8.5	77	1
08/03/19	12:30 a	-35.3	-35.3	-35.3	7.8	ENE	0.13	9.6	-47.6	734.7	0.037	0.000	8.5	77	1
08/03/19	12:31 a	-35.3	-35.2	-35.3	7.8	ENE	0.13	8.7	-47.6	734.7	0.037	0.000	8.6	77	1
08/03/19	12:32 a	-35.2	-35.2	-35.3	8.7	ENE	0.14	9.6	-48.2	734.7	0.037	0.000	8.6	77	1
08/03/19	12:33 a	-35.3	-35.3	-35.3	9.6	ENE	0.16	10.4	-48.9	734.8	0.037	0.000	8.6	77	1
08/03/19	12:34 a	-35.3	-35.2	-35.3	8.7	ENE	0.14	10.4	-48.3	734.7	0.037	0.000	8.6	77	1
08/03/19	12:35 a	-35.3	-35.2	-35.3	8.7	ENE	0.14	10.4	-48.3	734.7	0.037	0.000	8.6	77	1
08/03/19	12:36 a	-35.3	-35.2	-35.3	8.7	ENE	0.14	9.6	-48.3	734.7	0.037	0.000	8.6	77	1
08/03/19	12:37 a	-35.2	-35.2	-35.3	8.7	ENE	0.14	10.4	-48.2	734.7	0.037	0.000	8.6	77	1
08/03/19	12:38 a	-35.3	-35.3	-35.3	8.7	ENE	0.14	9.6	-48.3	734.7	0.037	0.000	8.6	77	1
08/03/19	12:39 a	-35.2	-35.2	-35.3	8.7	ENE	0.14	9.6	-48.2	734.6	0.037	0.000	8.6	77	1
08/03/19	12:40 a	-35.3	-35.2	-35.3	7.8	ENE	0.13	9.6	-47.6	734.6	0.037	0.000	8.6	77	1
08/03/19	12:41 a	-35.2	-35.2	-35.2	8.7	ENE	0.14	9.6	-48.2	734.6	0.037	0.000	8.6	77	1
08/03/19	12:42 a	-35.2	-35.2	-35.2	8.7	ENE	0.14	9.6	-48.2	734.6	0.037	0.000	8.6	77	1
08/03/19	12:43 a	-35.2	-35.2	-35.2	7.8	ENE	0.13	9.6	-47.6	734.6	0.037	0.000	8.6	77	1
08/03/19	12:44 a	-35.2	-35.2	-35.2	8.7	ENE	0.14	9.6	-48.1	734.6	0.037	0.000	8.6	77	1
08/03/19	12:45 a	-35.2	-35.2	-35.2	8.7	ENE	0.14	9.6	-48.2	734.6	0.037	0.000	8.6	77	1
08/03/19	12:46 a	-35.2	-35.2	-35.2	7.8	ENE	0.13	8.7	-47.4	734.6	0.037	0.000	8.6	77	1
08/03/19	12:47 a	-35.2	-35.2	-35.2	7.8	ENE	0.13	9.6	-47.4	734.6	0.037	0.000	8.6	76	1
08/03/19	12:48 a	-35.2	-35.2	-35.2	7.8	ENE	0.13	8.7	-47.4	734.5	0.037	0.000	8.6	77	1
08/03/19	12:49 a	-35.2	-35.2	-35.2	7.8	ENE	0.13	8.7	-47.4	734.6	0.037	0.000	8.6	77	1
08/03/19	12:50 a	-35.2	-35.2	-35.2	7.8	ENE	0.13	8.7	-47.4	734.6	0.037	0.000	8.7	77	1
08/03/19	12:51 a	-35.2	-35.1	-35.2	7.0	ENE	0.12	7.8	-46.7	734.5	0.037	0.000	8.7	77	1
08/03/19	12:52 a	-35.1	-35.1	-35.1	7.0	ENE	0.12	7.8	-46.7	734.6	0.037	0.000	8.7	76	1
08/03/19	12:53 a	-35.1	-35.1	-35.2	7.0	ENE	0.12	7.8	-46.7	734.5	0.037	0.000	8.7	77	1
08/03/19	12:54 a	-35.1	-35.1	-35.2	6.1	ENE	0.10	7.0	-45.9	734.5	0.037	0.000	8.7	77	1
08/03/19	12:55 a	-35.2	-35.1	-35.2	4.3	ENE	0.07	7.8	-44.0	734.6	0.037	0.000	8.7	77	1
08/03/19	12:56 a	-35.2	-35.1	-35.2	7.0	ENE	0.12	8.7	-46.7	734.5	0.037	0.000	8.7	76	1
08/03/19	12:57 a	-35.1	-35.1	-35.1	7.0	ENE	0.12	8.7	-46.7	734.6	0.037	0.000	8.7	77	1
08/03/19	12:58 a	-35.1	-35.1	-35.1	7.8	E	0.13	8.7	-47.4	734.5	0.037	0.000	8.7	77	1
08/03/19	12:59 a	-35.1	-35.1	-35.1	7.8	E	0.13	8.7	-47.4	734.5	0.037	0.000	8.7	77	1
08/03/19	1:00 a	-35.1	-35.1	-35.1	7.0	E	0.12	7.8	-46.7	734.5	0.037	0.000	8.7	77	1
08/03/19	1:01 a	-35.1	-35.1	-35.1	5.2	ENE	0.09	7.8	-44.9	734.5	0.037	0.000	8.7	77	1
08/03/19	1:02 a	-35.1	-35.1	-35.1	1.7	ENE	0.03	1.7	-39.1	734.5	0.037	0.000	8.7	77	1
08/03/19	1:03 a	-35.1	-35.1	-35.1	1.7	NE	0.03	5.2	-39.1	734.6	0.037	0.000	8.7	76	1
08/03/19	1:04 a	-35.1	-35.0	-35.1	3.5	NE	0.06	5.2	-42.6	734.5	0.037	0.000	8.7	76	1
08/03/19	1:05 a	-35.1	-35.0	-35.1	4.3	NE	0.07	5.2	-43.8	734.5	0.037	0.000	8.7	76	1
08/03/19	1:06 a	-35.1	-35.1	-35.1	4.3	NNE	0.07	5.2	-43.8	734.4	0.037	0.000	8.7	76	1
08/03/19	1:07 a	-35.0	-35.0	-35.1	1.7	NNE	0.03	5.2	-39.0	734.4	0.037	0.000	8.8	76	1
08/03/19	1:08 a	-35.0	-35.0	-35.0	1.7	NNE	0.03	6.1	-39.0	734.4	0.037	0.000	8.8	76	1
08/03/19	1:09 a	-35.0	-34.9	-35.0	5.2	NNE	0.09	6.1	-44.8	734.4	0.037	0.000	8.8	76	1
08/03/19	1:10 a	-34.9	-34.9	-34.9	3.5	N	0.06	5.2	-42.5	734.4	0.037	0.000	8.8	76	1
08/03/19	1:11 a	-34.9	-34.9	-34.9	4.3	NNE	0.07	7.0	-43.7	734.4	0.037	0.000	8.8	76	1
08/03/19	1:12 a	-34.9	-34.9	-34.9	5.2	N	0.09	6.1	-44.8	734.3	0.037	0.000	8.8	76	1
08/03/19	1:13 a	-34.8	-34.8	-34.9	4.3	N	0.07	6.1	-43.6	734.4	0.037	0.000	8.8	76	1
08/03/19	1:14 a	-34.8	-34.8	-34.8	5.2	N	0.09	6.1	-44.6	734.3	0.037	0.000	8.8	76	1
08/03/19	1:15 a	-34.8	-34.7	-34.8	5.2	N	0.09	6.1	-44.6	734.3	0.037	0.000	8.8	76	1
08/03/19	1:16 a	-34.7	-34.7	-34.7	6.1	N	0.10	7.0	-45.4	734.3	0.037	0.000	8.8	77	1
08/03/19	1:17 a	-34.7	-34.6	-34.7	6.1	N	0.10	7.0	-45.3	734.4	0.037	0.000	8.8	77	1
08/03/19	1:18 a	-34.6	-34.6	-34.6	6.1	N	0.10	7.0	-45.3	734.4	0.037	0.000	8.8	77	1
08/03/19	1:19 a	-34.6	-34.5	-34.6	6.1	N	0.10	7.0	-45.2	734.4	0.037	0.000	8.8	76	1
08/03/19	1:20 a	-34.6	-34.5	-34.6	7.0	N	0.12	7.0	-46.0	734.3	0.037	0.000	8.8	76	1
08/03/19	1:21 a	-34.4	-34.4	-34.4	7.0	N	0.12	7.8	-45.9	734.4	0.037	0.000	8.8	75	1
08/03/19	1:22 a	-34.4	-34.4	-34.4	7.0	N	0.12	7.0	-45.9	734.4	0.037	0.000	8.8	75	1
08/03/19	1:23 a	-34.4	-34.4	-34.4	6.1	N	0.10	7.0	-45.0	734.4	0.037	0.000	8.9	75	1
08/03/19	1:24 a	-34.3	-34.3	-34.4	6.1	N	0.10	7.0	-44.9	734.3	0.037	0.000	8.9	75	1
08/03/19	1:25 a	-34.3	-34.3	-34.3	6.1	N	0.10	7.0	-44.9	734.3	0.037	0.000	8.9	76	1
08/03/19	1:26 a	-34.3	-34.3	-34.3	6.1	N	0.10	7.0	-44.9	734.4	0.037	0.000	8.9	75	1
08/03/19	1:27 a	-34.3	-34.3	-34.3	6.1	N	0.10	7.0	-44.9	734.4	0.037	0.000	8.9	75	1
08/03/19	1:28 a	-34.2	-34.2	-34.2	5.2	N	0.09	6.1	-43.9	734.3	0.036	0.000	8.9	75	1
08/03/19	1:29 a	-34.2	-34.2	-34.2	5.2	N	0.09	6.1	-43.8	734.3	0.036	0.000	8.9	75	1
08/03/19	1:30 a	-34.2	-34.2	-34.2	5.2	N	0.09	6.1	-43.9	734.4	0.036	0.000	8.9	75	1
08/03/19	1:31 a	-34.2	-34.2	-34.2	5.2	N	0.09	6.1	-43.8	734.4	0.036	0.000	8.9	75	1
08/03/19	1:32 a	-34.2	-34.2	-34.2	4.3	N	0.07	5.2	-42.8	734.3	0.036	0.000	8.9	75	1
08/03/19	1:33 a	-34.1	-34.1	-34.1	5.2	N	0.09	5.2	-43.8	734.4	0.036	0.000	8.9	75	1
08/03/19	1:34 a	-34.1	-34.1	-34.1	4.3	N	0.07	5.2	-42.7	734.3	0.036	0.000	8.9	75	1
08/03/19	1:35 a	-34.1	-34.1	-34.1	5.2	N	0.09	5.2	-43.7	734.4	0.036	0.000	8.9	75	1
08/03/19	1:36 a	-34.1	-34.1	-34.1	4.3	N	0.07	5.2	-42.7	734.4	0.036	0.000	8.9	75	1
08/03/19	1:37 a	-34.1	-34.0	-34.1	4.3	N	0.07	4.3	-42.7	734.4	0.036	0.000	8.9	74	1
08/03/19	1:38 a	-34.0	-34.0	-34.1	4.3	N	0.07	5.2	-42.6	734.3	0.036	0.000	8.9	74	1
08/03/19	1:39 a	-34.0	-34.0	-34.1	4.3	N	0.07	5.2	-42.6	734.3	0.036	0.000	8.9	74	1
08/03/19	1:40 a	-34.0	-34.0	-34.0	4.3	N	0.07	5.2	-42.6	734.4	0.036	0.000	8.9	74	1
08/03/19	1:41 a	-33.9	-33.9	-34.0	5.2	N	0.09	5.2	-43.6	734.3	0.036	0.000	9.0	74	1
08/03/19	1:42 a	-33.9	-33.9	-33.9	4.3	N	0.07	5.2	-42.6	734.4	0.036	0.000	9.0	74	1
08/03/19	1:43 a	-33.9	-33.9	-33.9	5.2	N	0.09	6.1	-43.6	734.3	0.036	0.000	9.0	75	1
08/03/19	1:44 a	-33.9	-33.9	-33.9	4.3	N	0.07	5.2	-42.6	734.3	0.036	0.000	9.0	76	1
08/03/19	1:45 a	-33.9	-33.9	-33.9	4.3	NNE	0.07	5.2	-42.5	734.3	0.036	0.000	9.0	76	1
08/03/19	1:46 a	-33.9	-33.8	-33.9	4.3	NNE	0.07	5.2	-42.5	734.3	0.036	0.000	9.0	76	1
08/03/19	1:47 a	-33.8	-33.8	-33.9	4.3	NNE	0.07	4.3	-42.4	734.3	0.036	0.000	9.0	76	1
08/03/19	1:48 a	-33.8	-33.8	-33.9	4.3	NNE	0.07	5.2	-42.4	734.2	0.036	0.000	9.0	76	1
08/03/19	1:49 a	-33.8	-33.8	-33.8	4.3	NNE	0.07	4.3	-42.4	734.3	0.036	0.000	9.1	76	1
08/03/19	1:50 a	-33.8	-33.8	-33.8	3.5	NNE	0.06	4.3	-41.2	734.2	0.036	0.000	9.1	75	1
08/03/19	1:51 a	-33.8	-33.8	-33.8	3.5	NNE	0.06	4.3	-41.2	734.3	0.036	0.000	9.1	75	1
08/03/19	1:52 a	-33.8	-33.8	-33.8	3.5	NNE	0.06	4.3	-41.2	734.3	0.036	0.000	9.1	77	1
08/03/19	1:53 a	-33.8	-33.8	-33.8	3.5	NNE	0.06	4.3	-41.2	734.2	0.036	0.000	9.1	77	1
08/03/19	1:54 a	-33.8	-33.8	-33.8	3.5	NNE	0.06	4.3	-41.2	734.2	0.036	0.000	9.1	77	1
08/03/19	1:55 a	-33.7	-33.7	-33.8	3.5	NNE	0.06	4.3	-41.1	734.2	0.036	0.000	9.1	77	1
08/03/19	1:56 a	-33.7	-33.7	-33.8	3.5	NNE	0.06	4.3	-41.1	734.2	0.036	0.000	9.1	76	1
08/03/19	1:57 a	-33.7	-33.7	-33.8	3.5	NNE	0.06	4.3	-41.1	734.2	0.036	0.000	9.1	77	1
08/03/19	1:58 a	-33.7	-33.7	-33.8	3.5	NNE	0.06	4.3	-41.1	734.3	0.036	0.000	9.1	77	1
08/03/19	1:59 a	-33.7	-33.7	-33.7	4.3	NNE	0.07	4.3	-42.3	734.2	0.036	0.000	9.1	77	1
08/03/19	2:00 a	-33.7	-33.7	-33.7	4.3	NNE	0.07	4.3	-42.3	734.2	0.036	0.000	9.1	77	1
08/03/19	2:01 a	-33.8	-33.7	-33.8	4.3	ENE	0.07	5.2	-42.3	734.3	0.036	0.000	9.1	77	1
08/03/19	2:02 a	-33.7	-33.7	-33.7	4.3	NE	0.07	6.1	-42.3	734.2	0.036	0.000	9.1	77	1
08/03/19	2:03 a	-33.7	-33.7	-33.7	4.3	ENE	0.07	5.2	-42.3	734.2	0.036	0.000	9.1	77	1
08/03/19	2:04 a	-33.7	-33.7	-33.7	5.2	ENE	0.09	6.1	-43.3	734.3	0.036	0.000	9.1	77	1
08/03/19	2:05 a	-33.7	-33.7	-33.7	5.2	ENE	0.09	6.1	-43.3	734.2	0.036	0.000	9.1	76	1
08/03/19	2:06 a	-33.7	-33.7	-33.7	6.1	ENE	0.10	7.0	-44.2	734.2	0.036	0.000	9.1	76	1
08/03/19	2:07 a	-33.8	-33.7	-33.8	6.1	ENE	0.10	7.0	-44.3	734.3	0.036	0.000	9.2	76	1
08/03/19	2:08 a	-33.8	-33.8	-33.8	7.0	ENE	0.12	7.0	-45.1	734.3	0.036	0.000	9.2	76	1
08/03/19	2:09 a	-33.8	-33.8	-33.8	7.0	ENE	0.12	7.8	-45.1	734.3	0.036	0.000	9.2	76	1
08/03/19	2:10 a	-33.8	-33.8	-33.8	7.0	ENE	0.12	7.0	-45.1	734.3	0.036	0.000	9.2	76	1
08/03/19	2:11 a	-33.8	-33.8	-33.8	7.0	ENE	0.12	7.8	-45.1	734.3	0.036	0.000	9.2	76	1
08/03/19	2:12 a	-33.8	-33.8	-33.8	6.1	ENE	0.10	7.0	-44.3	734.3	0.036	0.000	9.2	76	1
08/03/19	2:13 a	-33.8	-33.8	-33.9	7.0	ENE	0.12	7.8	-45.1	734.3	0.036	0.000	9.2	75	1
08/03/19	2:14 a	-33.9	-33.9	-33.9	7.0	ENE	0.12	7.8	-45.2	734.3	0.036	0.000	9.2	74	1
08/03/19	2:15 a	-33.9	-33.9	-33.9	7.8	ENE	0.13	8.7	-45.9	734.2	0.036	0.000	9.2	75	1
08/03/19	2:16 a	-33.9	-33.9	-33.9	7.8	ENE	0.13	7.8	-45.9	734.2	0.036	0.000	9.2	75	1
08/03/19	2:17 a	-33.9	-33.9	-34.0	7.0	ENE	0.12	7.8	-45.3	734.2	0.036	0.000	9.2	75	1
08/03/19	2:18 a	-34.0	-34.0	-34.0	7.0	ENE	0.12	7.8	-45.3	734.3	0.036	0.000	9.2	75	1
08/03/19	2:19 a	-34.1	-34.1	-34.1	7.0	ENE	0.12	7.8	-45.4	734.3	0.036	0.000	9.2	75	1
08/03/19	2:20 a	-34.1	-34.1	-34.1	7.0	ENE	0.12	7.8	-45.4	734.3	0.036	0.000	9.2	75	1
08/03/19	2:21 a	-34.1	-34.1	-34.2	7.8	ENE	0.13	7.8	-46.2	734.2	0.036	0.000	9.2	75	1
08/03/19	2:22 a	-34.2	-34.2	-34.2	7.8	ENE	0.13	7.8	-46.2	734.2	0.036	0.000	9.2	75	1
08/03/19	2:23 a	-34.2	-34.2	-34.2	7.8	ENE	0.13	7.8	-46.2	734.2	0.036	0.000	9.2	76	1
08/03/19	2:24 a	-34.2	-34.2	-34.2	7.0	ENE	0.12	7.8	-45.6	734.3	0.036	0.000	9.2	76	1
08/03/19	2:25 a	-34.2	-34.2	-34.2	7.0	ENE	0.12	8.7	-45.6	734.2	0.036	0.000	9.2	76	1
08/03/19	2:26 a	-34.3	-34.3	-34.3	7.0	ENE	0.12	7.8	-45.7	734.2	0.037	0.000	9.2	75	1
08/03/19	2:27 a	-34.3	-34.3	-34.3	7.0	ENE	0.12	7.8	-45.7	734.2	0.037	0.000	9.3	75	1
08/03/19	2:28 a	-34.3	-34.3	-34.3	7.0	ENE	0.12	7.8	-45.7	734.2	0.037	0.000	9.3	75	1
08/03/19	2:29 a	-34.3	-34.3	-34.4	6.1	ENE	0.10	7.8	-44.9	734.2	0.037	0.000	9.3	75	1
08/03/19	2:30 a	-34.4	-34.4	-34.4	4.3	ENE	0.07	7.8	-43.1	734.2	0.037	0.000	9.3	75	1
08/03/19	2:31 a	-34.4	-34.4	-34.4	7.8	ENE	0.13	8.7	-46.5	734.2	0.037	0.000	9.3	75	1
08/03/19	2:32 a	-34.4	-34.4	-34.4	7.8	ENE	0.13	8.7	-46.6	734.2	0.037	0.000	9.3	74	1
08/03/19	2:33 a	-34.5	-34.4	-34.5	7.8	ENE	0.13	9.6	-46.7	734.1	0.037	0.000	9.3	74	1
08/03/19	2:34 a	-34.6	-34.6	-34.6	7.8	ENE	0.13	9.6	-46.7	734.1	0.037	0.000	9.3	75	1
08/03/19	2:35 a	-34.6	-34.6	-34.6	8.7	ENE	0.14	9.6	-47.4	734.2	0.037	0.000	9.3	76	1
08/03/19	2:36 a	-34.6	-34.6	-34.6	8.7	ENE	0.14	9.6	-47.4	734.2	0.037	0.000	9.3	76	1
08/03/19	2:37 a	-34.6	-34.6	-34.7	9.6	ENE	0.16	11.3	-48.1	734.2	0.037	0.000	9.3	76	1
08/03/19	2:38 a	-34.7	-34.7	-34.7	10.4	ENE	0.17	11.3	-48.7	734.2	0.037	0.000	9.3	76	1
08/03/19	2:39 a	-34.7	-34.7	-34.7	9.6	ENE	0.16	10.4	-48.2	734.2	0.037	0.000	9.3	76	1
08/03/19	2:40 a	-34.7	-34.7	-34.8	8.7	ENE	0.14	9.6	-47.6	734.2	0.037	0.000	9.3	76	1
08/03/19	2:41 a	-34.8	-34.8	-34.8	10.4	ENE	0.17	12.2	-48.9	734.1	0.037	0.000	9.3	76	1
08/03/19	2:42 a	-34.8	-34.8	-34.9	9.6	E	0.16	11.3	-48.3	734.1	0.037	0.000	9.3	76	1
08/03/19	2:43 a	-34.9	-34.9	-34.9	9.6	ENE	0.16	11.3	-48.4	734.1	0.037	0.000	9.3	76	1
08/03/19	2:44 a	-34.9	-34.9	-34.9	10.4	ENE	0.17	12.2	-49.0	734.2	0.037	0.000	9.3	76	1
08/03/19	2:45 a	-34.9	-34.9	-34.9	10.4	ENE	0.17	11.3	-49.0	734.1	0.037	0.000	9.3	75	1
08/03/19	2:46 a	-35.1	-34.9	-35.1	11.3	ENE	0.19	13.0	-49.7	734.2	0.037	0.000	9.4	75	1
08/03/19	2:47 a	-35.1	-35.1	-35.1	11.3	ENE	0.19	12.2	-49.7	734.1	0.037	0.000	9.4	75	1
08/03/19	2:48 a	-35.2	-35.1	-35.2	10.4	ENE	0.17	12.2	-49.3	734.1	0.037	0.000	9.4	75	1
08/03/19	2:49 a	-35.2	-35.2	-35.2	10.4	ENE	0.17	11.3	-49.3	734.1	0.037	0.000	9.4	75	1
08/03/19	2:50 a	-35.2	-35.2	-35.3	8.7	ENE	0.14	12.2	-48.2	734.0	0.037	0.000	9.4	75	1
08/03/19	2:51 a	-35.3	-35.3	-35.3	9.6	ENE	0.16	12.2	-48.9	734.0	0.037	0.000	9.4	75	1
08/03/19	2:52 a	-35.3	-35.3	-35.4	10.4	ENE	0.17	12.2	-49.5	734.0	0.037	0.000	9.4	75	1
08/03/19	2:53 a	-35.4	-35.4	-35.4	12.2	ENE	0.20	13.0	-50.6	734.0	0.037	0.000	9.4	75	1
08/03/19	2:54 a	-35.4	-35.4	-35.5	12.2	E	0.20	13.9	-50.7	734.0	0.037	0.000	9.4	75	1
08/03/19	2:55 a	-35.5	-35.5	-35.6	11.3	E	0.19	12.2	-50.2	734.0	0.037	0.000	9.4	74	1
08/03/19	2:56 a	-35.6	-35.5	-35.7	11.3	ENE	0.19	14.8	-50.3	734.0	0.037	0.000	9.4	74	1
08/03/19	2:57 a	-35.7	-35.6	-35.7	12.2	ENE	0.20	13.0	-50.9	734.1	0.038	0.000	9.4	74	1
08/03/19	2:58 a	-35.7	-35.7	-35.7	8.7	ENE	0.14	13.0	-48.8	734.0	0.038	0.000	9.4	75	1
08/03/19	2:59 a	-35.8	-35.7	-35.8	13.9	E	0.23	15.7	-52.0	734.0	0.038	0.000	9.4	74	1
08/03/19	3:00 a	-35.8	-35.8	-36.0	13.0	E	0.22	14.8	-51.6	734.1	0.038	0.000	9.4	75	1
08/03/19	3:01 a	-36.0	-36.0	-36.0	13.9	ENE	0.23	16.5	-52.3	734.0	0.038	0.000	9.4	74	1
08/03/19	3:02 a	-36.1	-36.0	-36.2	11.3	ENE	0.19	13.9	-50.9	734.0	0.038	0.000	9.4	74	1
08/03/19	3:03 a	-36.1	-36.1	-36.2	9.6	NE	0.16	12.2	-49.9	734.0	0.038	0.000	9.4	74	1
08/03/19	3:04 a	-36.2	-36.2	-36.3	12.2	E	0.20	16.5	-51.7	733.9	0.038	0.000	9.4	75	1
08/03/19	3:05 a	-36.3	-36.3	-36.4	10.4	ENE	0.17	15.7	-50.8	733.9	0.038	0.000	9.5	74	1
08/03/19	3:06 a	-36.4	-36.4	-36.4	13.0	ENE	0.22	16.5	-52.3	734.0	0.038	0.000	9.5	75	1
08/03/19	3:07 a	-36.6	-36.5	-36.6	12.2	ENE	0.20	14.8	-52.1	733.9	0.038	0.000	9.5	75	1
08/03/19	3:08 a	-36.6	-36.6	-36.7	12.2	ENE	0.20	14.8	-52.2	734.0	0.038	0.000	9.5	75	1
08/03/19	3:09 a	-36.7	-36.7	-36.8	11.3	E	0.19	13.9	-51.8	733.9	0.038	0.000	9.5	75	1
08/03/19	3:10 a	-36.8	-36.8	-36.9	13.0	E	0.22	13.9	-52.9	733.9	0.038	0.000	9.5	74	1
08/03/19	3:11 a	-36.9	-36.9	-36.9	13.0	E	0.22	13.9	-53.1	733.9	0.038	0.000	9.5	75	1
08/03/19	3:12 a	-37.0	-36.9	-37.1	13.0	E	0.22	14.8	-53.1	733.9	0.038	0.000	9.5	74	1
08/03/19	3:13 a	-37.1	-37.1	-37.2	12.2	E	0.20	13.9	-52.8	733.9	0.039	0.000	9.5	74	1
08/03/19	3:14 a	-37.2	-37.2	-37.2	12.2	ENE	0.20	13.9	-52.8	733.9	0.039	0.000	9.5	74	1
08/03/19	3:15 a	-37.3	-37.2	-37.3	13.0	E	0.22	14.8	-53.5	733.9	0.039	0.000	9.6	74	1
08/03/19	3:16 a	-37.3	-37.3	-37.4	12.2	E	0.20	13.9	-53.1	733.9	0.039	0.000	9.6	74	1
08/03/19	3:17 a	-37.4	-37.3	-37.4	13.9	E	0.23	14.8	-54.1	733.9	0.039	0.000	9.6	74	1
08/03/19	3:18 a	-37.5	-37.4	-37.6	13.9	E	0.23	14.8	-54.2	733.8	0.039	0.000	9.6	74	1
08/03/19	3:19 a	-37.6	-37.6	-37.6	14.8	E	0.25	16.5	-54.7	733.9	0.039	0.000	9.6	75	1
08/03/19	3:20 a	-37.6	-37.6	-37.7	14.8	E	0.25	16.5	-54.8	733.8	0.039	0.000	9.6	75	1
08/03/19	3:21 a	-37.7	-37.7	-37.7	13.0	E	0.22	15.7	-54.1	733.9	0.039	0.000	9.6	75	1
08/03/19	3:22 a	-37.8	-37.7	-37.8	15.7	E	0.26	18.3	-55.4	733.8	0.039	0.000	9.6	75	1
08/03/19	3:23 a	-37.8	-37.8	-37.8	13.0	E	0.22	14.8	-54.2	733.8	0.039	0.000	9.6	74	1
08/03/19	3:24 a	-37.9	-37.8	-37.9	13.0	E	0.22	16.5	-54.3	733.8	0.039	0.000	9.6	74	1
08/03/19	3:25 a	-37.9	-37.9	-37.9	13.0	E	0.22	14.8	-54.3	733.8	0.039	0.000	9.6	75	1
08/03/19	3:26 a	-37.9	-37.9	-38.0	14.8	E	0.25	16.5	-55.2	733.8	0.039	0.000	9.6	75	1
08/03/19	3:27 a	-38.1	-38.0	-38.1	13.9	E	0.23	14.8	-54.9	733.8	0.039	0.000	9.6	75	1
08/03/19	3:28 a	-38.1	-38.1	-38.1	13.9	E	0.23	16.5	-55.0	733.7	0.039	0.000	9.6	75	1
08/03/19	3:29 a	-38.1	-38.1	-38.2	13.0	E	0.22	17.4	-54.6	733.7	0.039	0.000	9.6	75	1
08/03/19	3:30 a	-38.2	-38.2	-38.2	15.7	E	0.26	17.4	-55.9	733.8	0.039	0.000	9.6	75	1
08/03/19	3:31 a	-38.3	-38.2	-38.3	14.8	E	0.25	16.5	-55.7	733.7	0.039	0.000	9.6	75	1
08/03/19	3:32 a	-38.3	-38.3	-38.3	15.7	E	0.26	16.5	-56.1	733.7	0.039	0.000	9.6	74	1
08/03/19	3:33 a	-38.3	-38.3	-38.3	14.8	E	0.25	16.5	-55.7	733.7	0.039	0.000	9.6	75	1
08/03/19	3:34 a	-38.4	-38.3	-38.4	13.9	E	0.23	16.5	-55.3	733.8	0.039	0.000	9.6	75	1
08/03/19	3:35 a	-38.4	-38.4	-38.4	15.7	ENE	0.26	17.4	-56.2	733.8	0.039	0.000	9.7	75	1
08/03/19	3:36 a	-38.4	-38.4	-38.5	13.9	ENE	0.23	15.7	-55.4	733.7	0.039	0.000	9.6	75	1
08/03/19	3:37 a	-38.5	-38.5	-38.5	15.7	E	0.26	17.4	-56.3	733.7	0.039	0.000	9.7	75	1
08/03/19	3:38 a	-38.5	-38.5	-38.6	17.4	E	0.29	18.3	-57.1	733.7	0.039	0.000	9.7	75	1
08/03/19	3:39 a	-38.6	-38.6	-38.6	15.7	E	0.26	17.4	-56.4	733.7	0.040	0.000	9.7	75	1
08/03/19	3:40 a	-38.6	-38.6	-38.6	13.0	E	0.22	16.5	-55.1	733.7	0.040	0.000	9.7	75	1
08/03/19	3:41 a	-38.6	-38.6	-38.6	14.8	E	0.25	17.4	-56.1	733.7	0.040	0.000	9.7	75	1
08/03/19	3:42 a	-38.6	-38.6	-38.7	12.2	E	0.20	17.4	-54.7	733.7	0.040	0.000	9.7	75	1
08/03/19	3:43 a	-38.7	-38.6	-38.7	12.2	ENE	0.20	15.7	-54.8	733.7	0.040	0.000	9.7	76	1
08/03/19	3:44 a	-38.7	-38.7	-38.7	11.3	E	0.19	15.7	-54.2	733.7	0.040	0.000	9.7	75	1
08/03/19	3:45 a	-38.7	-38.7	-38.7	15.7	E	0.26	17.4	-56.6	733.7	0.040	0.000	9.7	75	1
08/03/19	3:46 a	-38.7	-38.7	-38.7	14.8	E	0.25	16.5	-56.2	733.7	0.040	0.000	9.7	75	1
08/03/19	3:47 a	-38.7	-38.7	-38.7	13.9	E	0.23	15.7	-55.8	733.7	0.040	0.000	9.7	75	1
08/03/19	3:48 a	-38.7	-38.7	-38.7	16.5	E	0.28	18.3	-57.1	733.6	0.040	0.000	9.7	75	1
08/03/19	3:49 a	-38.7	-38.7	-38.8	15.7	E	0.26	17.4	-56.7	733.7	0.040	0.000	9.7	75	1
08/03/19	3:50 a	-38.7	-38.7	-38.8	13.9	E	0.23	17.4	-55.8	733.6	0.040	0.000	9.7	75	1
08/03/19	3:51 a	-38.8	-38.7	-38.8	15.7	E	0.26	19.1	-56.7	733.7	0.040	0.000	9.7	75	1
08/03/19	3:52 a	-38.8	-38.8	-38.8	14.8	E	0.25	17.4	-56.3	733.7	0.040	0.000	9.7	75	1
08/03/19	3:53 a	-38.8	-38.7	-38.8	13.0	E	0.22	16.5	-55.4	733.6	0.040	0.000	9.7	75	1
08/03/19	3:54 a	-38.7	-38.7	-38.8	16.5	E	0.28	18.3	-57.1	733.6	0.040	0.000	9.7	75	1
08/03/19	3:55 a	-38.7	-38.7	-38.7	15.7	E	0.26	17.4	-56.7	733.6	0.040	0.000	9.7	75	1
08/03/19	3:56 a	-38.7	-38.7	-38.8	13.9	E	0.23	17.4	-55.8	733.6	0.040	0.000	9.7	75	1
08/03/19	3:57 a	-38.7	-38.7	-38.8	15.7	E	0.26	18.3	-56.7	733.6	0.040	0.000	9.7	75	1
08/03/19	3:58 a	-38.8	-38.8	-38.8	15.7	E	0.26	18.3	-56.7	733.6	0.040	0.000	9.7	75	1
08/03/19	3:59 a	-38.8	-38.7	-38.8	17.4	E	0.29	18.3	-57.5	733.6	0.040	0.000	9.8	75	1
08/03/19	4:00 a	-38.7	-38.7	-38.8	17.4	E	0.29	19.1	-57.4	733.6	0.040	0.000	9.8	75	1
08/03/19	4:01 a	-38.8	-38.7	-38.8	15.7	E	0.26	17.4	-56.7	733.7	0.040	0.000	9.8	75	1
08/03/19	4:02 a	-38.7	-38.7	-38.7	14.8	E	0.25	18.3	-56.2	733.6	0.040	0.000	9.8	75	1
08/03/19	4:03 a	-38.7	-38.7	-38.7	14.8	E	0.25	17.4	-56.2	733.5	0.040	0.000	9.8	75	1
08/03/19	4:04 a	-38.7	-38.7	-38.7	14.8	E	0.25	17.4	-56.2	733.5	0.040	0.000	9.8	76	1
08/03/19	4:05 a	-38.7	-38.7	-38.7	16.5	E	0.28	18.3	-57.1	733.5	0.040	0.000	9.8	75	1
08/03/19	4:06 a	-38.7	-38.7	-38.8	16.5	E	0.28	18.3	-57.1	733.6	0.040	0.000	9.8	75	1
08/03/19	4:07 a	-38.7	-38.6	-38.7	13.9	E	0.23	16.5	-55.7	733.6	0.040	0.000	9.8	75	1
08/03/19	4:08 a	-38.7	-38.6	-38.7	15.7	E	0.26	17.4	-56.6	733.5	0.040	0.000	9.8	75	1
08/03/19	4:09 a	-38.7	-38.7	-38.7	14.8	E	0.25	15.7	-56.2	733.5	0.040	0.000	9.8	75	1
08/03/19	4:10 a	-38.7	-38.7	-38.7	13.9	E	0.23	16.5	-55.7	733.5	0.040	0.000	9.8	75	1
08/03/19	4:11 a	-38.7	-38.6	-38.7	14.8	E	0.25	16.5	-56.2	733.5	0.040	0.000	9.8	75	1
08/03/19	4:12 a	-38.7	-38.6	-38.7	14.8	E	0.25	18.3	-56.2	733.5	0.040	0.000	9.8	76	1
08/03/19	4:13 a	-38.7	-38.7	-38.7	15.7	E	0.26	16.5	-56.6	733.5	0.040	0.000	9.8	76	1
08/03/19	4:14 a	-38.7	-38.6	-38.7	14.8	E	0.25	15.7	-56.2	733.5	0.040	0.000	9.8	76	1
08/03/19	4:15 a	-38.6	-38.6	-38.7	10.4	E	0.17	15.7	-53.6	733.5	0.040	0.000	9.8	76	1
08/03/19	4:16 a	-38.6	-38.6	-38.7	12.2	E	0.20	15.7	-54.7	733.5	0.040	0.000	9.8	76	1
08/03/19	4:17 a	-38.7	-38.7	-38.7	14.8	E	0.25	16.5	-56.2	733.5	0.040	0.000	9.8	75	1
08/03/19	4:18 a	-38.7	-38.7	-38.7	14.8	E	0.25	16.5	-56.2	733.5	0.040	0.000	9.8	75	1
08/03/19	4:19 a	-38.6	-38.6	-38.7	13.9	E	0.23	15.7	-55.7	733.5	0.040	0.000	9.8	75	1
08/03/19	4:20 a	-38.7	-38.7	-38.7	13.0	E	0.22	14.8	-55.3	733.5	0.040	0.000	9.8	75	1
08/03/19	4:21 a	-38.7	-38.7	-38.7	13.0	E	0.22	13.9	-55.3	733.5	0.040	0.000	9.8	75	1
08/03/19	4:22 a	-38.7	-38.6	-38.7	13.0	E	0.22	14.8	-55.3	733.4	0.040	0.000	9.8	75	1
08/03/19	4:23 a	-38.6	-38.6	-38.7	13.0	E	0.22	14.8	-55.2	733.4	0.040	0.000	9.8	75	1
08/03/19	4:24 a	-38.7	-38.7	-38.7	14.8	ENE	0.25	16.5	-56.2	733.3	0.040	0.000	9.8	75	1
08/03/19	4:25 a	-38.7	-38.7	-38.7	13.0	ENE	0.22	14.8	-55.3	733.4	0.040	0.000	9.8	75	1
08/03/19	4:26 a	-38.7	-38.7	-38.7	12.2	ENE	0.20	13.9	-54.8	733.4	0.040	0.000	9.9	75	1
08/03/19	4:27 a	-38.7	-38.6	-38.7	12.2	ENE	0.20	13.9	-54.8	733.5	0.040	0.000	9.9	75	1
08/03/19	4:28 a	-38.7	-38.7	-38.7	13.0	ENE	0.22	15.7	-55.3	733.4	0.040	0.000	9.9	75	1
08/03/19	4:29 a	-38.7	-38.7	-38.7	13.0	ENE	0.22	14.8	-55.3	733.3	0.040	0.000	9.9	75	1
08/03/19	4:30 a	-38.7	-38.7	-38.7	13.0	ENE	0.22	16.5	-55.3	733.4	0.040	0.000	9.9	75	1
08/03/19	4:31 a	-38.7	-38.7	-38.7	12.2	ENE	0.20	15.7	-54.8	733.4	0.040	0.000	9.9	75	1
08/03/19	4:32 a	-38.7	-38.6	-38.7	14.8	ENE	0.25	16.5	-56.2	733.3	0.040	0.000	9.9	75	1
08/03/19	4:33 a	-38.7	-38.6	-38.7	13.0	ENE	0.22	13.9	-55.3	733.4	0.040	0.000	9.9	75	1
08/03/19	4:34 a	-38.6	-38.6	-38.7	13.0	ENE	0.22	15.7	-55.2	733.4	0.040	0.000	9.9	75	1
08/03/19	4:35 a	-38.6	-38.6	-38.6	12.2	ENE	0.20	13.9	-54.7	733.3	0.040	0.000	9.9	75	1
08/03/19	4:36 a	-38.6	-38.6	-38.6	13.0	ENE	0.22	15.7	-55.2	733.4	0.040	0.000	9.9	75	1
08/03/19	4:37 a	-38.6	-38.6	-38.6	13.0	ENE	0.22	15.7	-55.1	733.4	0.040	0.000	9.9	74	1
08/03/19	4:38 a	-38.5	-38.5	-38.5	13.0	ENE	0.22	15.7	-55.1	733.4	0.039	0.000	9.9	75	1
08/03/19	4:39 a	-38.6	-38.5	-38.6	12.2	ENE	0.20	13.9	-54.6	733.4	0.040	0.000	9.9	75	1
08/03/19	4:40 a	-38.5	-38.4	-38.6	11.3	ENE	0.19	12.2	-54.1	733.4	0.039	0.000	9.9	75	1
08/03/19	4:41 a	-38.5	-38.4	-38.5	11.3	ENE	0.19	13.9	-54.1	733.5	0.039	0.000	9.9	75	1
08/03/19	4:42 a	-38.4	-38.4	-38.4	10.4	ENE	0.17	12.2	-53.3	733.4	0.039	0.000	9.9	74	1
08/03/19	4:43 a	-38.4	-38.4	-38.5	10.4	ENE	0.17	12.2	-53.4	733.4	0.039	0.000	9.9	74	1
08/03/19	4:44 a	-38.4	-38.3	-38.4	11.3	ENE	0.19	13.0	-53.9	733.4	0.039	0.000	9.9	74	1
08/03/19	4:45 a	-38.3	-38.3	-38.4	12.2	E	0.20	13.9	-54.3	733.5	0.039	0.000	9.9	74	1
08/03/19	4:46 a	-38.3	-38.3	-38.4	12.2	ENE	0.20	13.9	-54.3	733.5	0.039	0.000	9.9	74	1
08/03/19	4:47 a	-38.3	-38.3	-38.3	14.8	ENE	0.25	16.5	-55.7	733.4	0.039	0.000	9.9	74	1
08/03/19	4:48 a	-38.3	-38.3	-38.3	14.8	ENE	0.25	17.4	-55.7	733.5	0.039	0.000	9.9	74	1
08/03/19	4:49 a	-38.3	-38.3	-38.3	13.9	ENE	0.23	15.7	-55.2	733.5	0.039	0.000	9.9	75	1
08/03/19	4:50 a	-38.3	-38.3	-38.3	14.8	ENE	0.25	16.5	-55.7	733.5	0.039	0.000	9.9	75	1
08/03/19	4:51 a	-38.3	-38.3	-38.3	13.0	E	0.22	16.5	-54.8	733.5	0.039	0.000	9.9	74	1
08/03/19	4:52 a	-38.3	-38.3	-38.3	13.0	E	0.22	18.3	-54.8	733.4	0.039	0.000	10.0	75	1
08/03/19	4:53 a	-38.3	-38.3	-38.3	11.3	E	0.19	15.7	-53.8	733.4	0.039	0.000	10.0	74	1
08/03/19	4:54 a	-38.3	-38.3	-38.4	12.2	E	0.20	18.3	-54.3	733.4	0.039	0.000	10.0	75	1
08/03/19	4:55 a	-38.4	-38.3	-38.4	15.7	E	0.26	16.5	-56.2	733.4	0.039	0.000	10.0	75	1
08/03/19	4:56 a	-38.4	-38.3	-38.4	11.3	E	0.19	15.7	-53.9	733.5	0.039	0.000	10.0	75	1
08/03/19	4:57 a	-38.3	-38.3	-38.3	13.9	E	0.23	15.7	-55.3	733.5	0.039	0.000	10.0	75	1
08/03/19	4:58 a	-38.4	-38.3	-38.4	14.8	E	0.25	17.4	-55.8	733.4	0.039	0.000	10.0	75	1
08/03/19	4:59 a	-38.4	-38.4	-38.5	13.0	E	0.22	14.8	-54.9	733.5	0.039	0.000	10.0	75	1
08/03/19	5:00 a	-38.5	-38.5	-38.5	11.3	E	0.19	13.9	-54.1	733.5	0.039	0.000	10.0	75	1
08/03/19	5:01 a	-38.5	-38.5	-38.5	13.9	E	0.23	14.8	-55.5	733.4	0.039	0.000	10.0	75	1
08/03/19	5:02 a	-38.5	-38.5	-38.5	13.9	E	0.23	15.7	-55.5	733.4	0.039	0.000	10.0	76	1
08/03/19	5:03 a	-38.5	-38.5	-38.6	13.0	E	0.22	14.8	-55.1	733.5	0.039	0.000	10.0	76	1
08/03/19	5:04 a	-38.6	-38.6	-38.6	13.0	E	0.22	16.5	-55.1	733.4	0.040	0.000	10.0	76	1
08/03/19	5:05 a	-38.6	-38.6	-38.7	12.2	ENE	0.20	13.9	-54.7	733.4	0.040	0.000	10.0	76	1
08/03/19	5:06 a	-38.6	-38.6	-38.7	14.8	ENE	0.25	16.5	-56.1	733.4	0.040	0.000	10.0	76	1
08/03/19	5:07 a	-38.7	-38.7	-38.7	13.0	ENE	0.22	14.8	-55.3	733.4	0.040	0.000	10.0	76	1
08/03/19	5:08 a	-38.7	-38.7	-38.7	12.2	ENE	0.20	13.9	-54.8	733.5	0.040	0.000	10.1	75	1
08/03/19	5:09 a	-38.7	-38.7	-38.7	13.0	ENE	0.22	15.7	-55.3	733.3	0.040	0.000	10.1	76	1
08/03/19	5:10 a	-38.7	-38.7	-38.8	13.9	ENE	0.23	15.7	-55.8	733.4	0.040	0.000	10.1	75	1
08/03/19	5:11 a	-38.8	-38.7	-38.8	13.0	ENE	0.22	15.7	-55.4	733.3	0.040	0.000	10.1	75	1
08/03/19	5:12 a	-38.8	-38.8	-38.8	15.7	ENE	0.26	17.4	-56.7	733.4	0.040	0.000	10.1	76	1
08/03/19	5:13 a	-38.8	-38.8	-38.8	12.2	E	0.20	14.8	-55.0	733.4	0.040	0.000	10.1	75	1
08/03/19	5:14 a	-38.8	-38.8	-38.9	14.8	E	0.25	16.5	-56.4	733.4	0.040	0.000	10.1	75	1
08/03/19	5:15 a	-38.8	-38.8	-38.9	16.5	E	0.28	17.4	-57.2	733.3	0.040	0.000	10.1	76	1
08/03/19	5:16 a	-38.8	-38.8	-38.8	15.7	E	0.26	16.5	-56.8	733.4	0.040	0.000	10.1	76	1
08/03/19	5:17 a	-38.8	-38.8	-38.9	13.0	E	0.22	16.5	-55.4	733.4	0.040	0.000	10.1	75	1
08/03/19	5:18 a	-38.8	-38.8	-38.9	11.3	ENE	0.19	14.8	-54.4	733.5	0.040	0.000	10.1	75	1
08/03/19	5:19 a	-38.9	-38.9	-38.9	13.0	ENE	0.22	14.8	-55.6	733.4	0.040	0.000	10.1	75	1
08/03/19	5:20 a	-38.9	-38.9	-38.9	14.8	ENE	0.25	16.5	-56.5	733.4	0.040	0.000	10.1	76	1
08/03/19	5:21 a	-38.9	-38.8	-38.9	15.7	ENE	0.26	17.4	-56.8	733.4	0.040	0.000	10.1	76	1
08/03/19	5:22 a	-38.9	-38.8	-38.9	12.2	ENE	0.20	13.9	-55.1	733.4	0.040	0.000	10.1	76	1
08/03/19	5:23 a	-38.9	-38.9	-38.9	14.8	ENE	0.25	18.3	-56.5	733.4	0.040	0.000	10.1	76	1
08/03/19	5:24 a	-38.9	-38.9	-39.0	14.8	ENE	0.25	18.3	-56.5	733.3	0.040	0.000	10.1	76	1
08/03/19	5:25 a	-38.9	-38.9	-38.9	14.8	ENE	0.25	15.7	-56.5	733.5	0.040	0.000	10.1	76	1
08/03/19	5:26 a	-38.9	-38.8	-38.9	12.2	ENE	0.20	16.5	-55.1	733.4	0.040	0.000	10.1	76	1
08/03/19	5:27 a	-38.9	-38.9	-38.9	12.2	ENE	0.20	15.7	-55.1	733.3	0.040	0.000	10.1	76	1
08/03/19	5:28 a	-38.9	-38.9	-38.9	13.9	ENE	0.23	14.8	-56.1	733.3	0.040	0.000	10.1	76	1
08/03/19	5:29 a	-38.9	-38.8	-39.0	12.2	E	0.20	14.8	-55.1	733.2	0.040	0.000	10.1	76	1
08/03/19	5:30 a	-38.9	-38.9	-39.0	11.3	E	0.19	14.8	-54.6	733.3	0.040	0.000	10.1	76	1
08/03/19	5:31 a	-38.9	-38.9	-38.9	11.3	E	0.19	13.9	-54.6	733.3	0.040	0.000	10.1	76	1
08/03/19	5:32 a	-38.9	-38.8	-38.9	11.3	E	0.19	13.0	-54.6	733.3	0.040	0.000	10.1	75	1
08/03/19	5:33 a	-38.9	-38.9	-38.9	13.9	E	0.23	15.7	-56.0	733.2	0.040	0.000	10.1	76	1
08/03/19	5:34 a	-38.9	-38.9	-38.9	13.0	E	0.22	14.8	-55.6	733.2	0.040	0.000	10.1	75	1
08/03/19	5:35 a	-38.9	-38.8	-38.9	12.2	E	0.20	14.8	-55.1	733.3	0.040	0.000	10.1	76	1
08/03/19	5:36 a	-38.9	-38.8	-38.9	11.3	ENE	0.19	14.8	-54.6	733.2	0.040	0.000	10.1	76	1
08/03/19	5:37 a	-38.8	-38.8	-38.8	12.2	ENE	0.20	14.8	-55.0	733.3	0.040	0.000	10.1	76	1
08/03/19	5:38 a	-38.8	-38.8	-38.8	12.2	ENE	0.20	13.9	-55.0	733.3	0.040	0.000	10.1	75	1
08/03/19	5:39 a	-38.8	-38.8	-38.8	13.0	ENE	0.22	14.8	-55.4	733.3	0.040	0.000	10.1	76	1
08/03/19	5:40 a	-38.8	-38.8	-38.8	13.0	ENE	0.22	14.8	-55.4	733.4	0.040	0.000	10.1	76	1
08/03/19	5:41 a	-38.8	-38.7	-38.8	13.9	ENE	0.23	15.7	-55.8	733.3	0.040	0.000	10.1	76	1
08/03/19	5:42 a	-38.7	-38.7	-38.8	10.4	ENE	0.17	15.7	-53.8	733.3	0.040	0.000	10.1	76	1
08/03/19	5:43 a	-38.7	-38.7	-38.7	13.9	ENE	0.23	14.8	-55.7	733.3	0.040	0.000	10.1	76	1
08/03/19	5:44 a	-38.7	-38.7	-38.7	14.8	ENE	0.25	15.7	-56.2	733.2	0.040	0.000	10.1	76	1
08/03/19	5:45 a	-38.6	-38.6	-38.7	14.8	ENE	0.25	15.7	-56.1	733.2	0.040	0.000	10.2	76	1
08/03/19	5:46 a	-38.6	-38.6	-38.6	13.0	ENE	0.22	14.8	-55.2	733.3	0.040	0.000	10.2	76	1
08/03/19	5:47 a	-38.6	-38.6	-38.6	11.3	ENE	0.19	13.9	-54.1	733.2	0.040	0.000	10.2	76	1
08/03/19	5:48 a	-38.6	-38.4	-38.6	13.0	ENE	0.22	13.9	-55.1	733.3	0.040	0.000	10.2	76	1
08/03/19	5:49 a	-38.4	-38.4	-38.4	14.8	ENE	0.25	16.5	-55.9	733.3	0.039	0.000	10.2	76	1
08/03/19	5:50 a	-38.4	-38.3	-38.4	14.8	ENE	0.25	15.7	-55.9	733.3	0.039	0.000	10.2	76	1
08/03/19	5:51 a	-38.3	-38.3	-38.3	13.9	ENE	0.23	15.7	-55.3	733.3	0.039	0.000	10.2	75	1
08/03/19	5:52 a	-38.3	-38.2	-38.3	13.0	ENE	0.22	14.8	-54.8	733.3	0.039	0.000	10.2	75	1
08/03/19	5:53 a	-38.3	-38.2	-38.3	13.0	ENE	0.22	15.7	-54.8	733.3	0.039	0.000	10.2	74	1
08/03/19	5:54 a	-38.2	-38.2	-38.3	13.9	ENE	0.23	15.7	-55.2	733.3	0.039	0.000	10.2	74	1
08/03/19	5:55 a	-38.2	-38.1	-38.2	14.8	ENE	0.25	15.7	-55.5	733.3	0.039	0.000	10.2	74	1
08/03/19	5:56 a	-38.1	-38.1	-38.1	14.8	ENE	0.25	15.7	-55.4	733.2	0.039	0.000	10.2	75	1
08/03/19	5:57 a	-38.1	-38.1	-38.1	14.8	ENE	0.25	15.7	-55.4	733.2	0.039	0.000	10.2	75	1
08/03/19	5:58 a	-38.1	-38.1	-38.1	13.9	ENE	0.23	16.5	-54.9	733.2	0.039	0.000	10.2	76	1
08/03/19	5:59 a	-38.0	-37.9	-38.0	14.8	ENE	0.25	18.3	-55.3	733.2	0.039	0.000	10.2	75	1
08/03/19	6:00 a	-37.9	-37.9	-37.9	14.8	ENE	0.25	16.5	-55.2	733.1	0.039	0.000	10.2	76	1
08/03/19	6:01 a	-37.9	-37.9	-37.9	13.9	ENE	0.23	15.7	-54.8	733.2	0.039	0.000	10.2	75	1
08/03/19	6:02 a	-37.9	-37.8	-37.9	13.9	ENE	0.23	15.7	-54.7	733.2	0.039	0.000	10.2	76	1
08/03/19	6:03 a	-37.8	-37.8	-37.8	13.9	ENE	0.23	15.7	-54.7	733.1	0.039	0.000	10.2	76	1
08/03/19	6:04 a	-37.8	-37.8	-37.8	13.9	ENE	0.23	14.8	-54.7	733.1	0.039	0.000	10.2	76	1
08/03/19	6:05 a	-37.8	-37.8	-37.8	13.0	ENE	0.22	14.8	-54.1	733.2	0.039	0.000	10.2	75	1
08/03/19	6:06 a	-37.8	-37.7	-37.8	13.0	ENE	0.22	15.7	-54.1	733.2	0.039	0.000	10.2	76	1
08/03/19	6:07 a	-37.7	-37.7	-37.7	13.9	ENE	0.23	15.7	-54.5	733.2	0.039	0.000	10.2	75	1
08/03/19	6:08 a	-37.7	-37.7	-37.7	12.2	ENE	0.20	13.9	-53.6	733.2	0.039	0.000	10.2	75	1
08/03/19	6:09 a	-37.7	-37.7	-37.7	13.0	ENE	0.22	13.9	-54.0	733.2	0.039	0.000	10.2	76	1
08/03/19	6:10 a	-37.7	-37.7	-37.7	13.9	ENE	0.23	14.8	-54.4	733.1	0.039	0.000	10.2	75	1
08/03/19	6:11 a	-37.6	-37.6	-37.6	13.9	ENE	0.23	14.8	-54.3	733.1	0.039	0.000	10.2	75	1
08/03/19	6:12 a	-37.6	-37.6	-37.6	13.9	ENE	0.23	14.8	-54.3	733.1	0.039	0.000	10.2	76	1
08/03/19	6:13 a	-37.6	-37.5	-37.6	13.0	ENE	0.22	14.8	-53.8	733.2	0.039	0.000	10.2	76	1
08/03/19	6:14 a	-37.4	-37.4	-37.4	13.0	ENE	0.22	14.8	-53.7	733.2	0.039	0.000	10.2	75	1
08/03/19	6:15 a	-37.4	-37.4	-37.5	13.0	ENE	0.22	13.9	-53.7	733.1	0.039	0.000	10.2	75	1
08/03/19	6:16 a	-37.5	-37.4	-37.5	12.2	ENE	0.20	13.0	-53.3	733.1	0.039	0.000	10.2	76	1
08/03/19	6:17 a	-37.4	-37.4	-37.4	12.2	ENE	0.20	13.0	-53.2	733.1	0.039	0.000	10.2	75	1
08/03/19	6:18 a	-37.4	-37.4	-37.4	12.2	ENE	0.20	13.0	-53.2	733.1	0.039	0.000	10.3	76	1
08/03/19	6:19 a	-37.4	-37.3	-37.4	13.9	ENE	0.23	15.7	-54.1	733.1	0.039	0.000	10.3	76	1
08/03/19	6:20 a	-37.3	-37.3	-37.4	10.4	ENE	0.17	13.9	-52.0	733.1	0.039	0.000	10.3	76	1
08/03/19	6:21 a	-37.3	-37.3	-37.4	12.2	ENE	0.20	13.9	-53.1	733.1	0.039	0.000	10.3	76	1
08/03/19	6:22 a	-37.3	-37.3	-37.3	12.2	ENE	0.20	13.0	-53.1	733.0	0.039	0.000	10.3	76	1
08/03/19	6:23 a	-37.3	-37.3	-37.3	12.2	ENE	0.20	13.9	-53.1	733.1	0.039	0.000	10.3	76	1
08/03/19	6:24 a	-37.3	-37.3	-37.3	10.4	ENE	0.17	13.0	-51.9	733.0	0.039	0.000	10.3	76	1
08/03/19	6:25 a	-37.3	-37.2	-37.3	10.4	ENE	0.17	12.2	-51.9	733.1	0.039	0.000	10.3	76	1
08/03/19	6:26 a	-37.2	-37.2	-37.3	10.4	ENE	0.17	13.0	-51.9	733.1	0.039	0.000	10.3	76	1
08/03/19	6:27 a	-37.2	-37.2	-37.2	12.2	ENE	0.20	14.8	-52.9	733.1	0.039	0.000	10.3	76	1
08/03/19	6:28 a	-37.2	-37.2	-37.2	12.2	ENE	0.20	13.0	-52.9	733.0	0.039	0.000	10.3	75	1
08/03/19	6:29 a	-37.2	-37.1	-37.2	11.3	ENE	0.19	13.0	-52.3	733.0	0.039	0.000	10.3	75	1
08/03/19	6:30 a	-37.1	-37.1	-37.2	11.3	ENE	0.19	13.9	-52.3	733.0	0.039	0.000	10.3	75	1
08/03/19	6:31 a	-37.1	-37.1	-37.1	8.7	ENE	0.14	13.0	-50.6	732.9	0.039	0.000	10.3	75	1
08/03/19	6:32 a	-37.1	-37.1	-37.1	12.2	ENE	0.20	13.0	-52.8	733.0	0.039	0.000	10.3	75	1
08/03/19	6:33 a	-37.1	-37.1	-37.2	12.2	ENE	0.20	13.9	-52.8	733.0	0.039	0.000	10.3	76	1
08/03/19	6:34 a	-37.1	-37.1	-37.1	11.3	ENE	0.19	13.0	-52.3	733.0	0.039	0.000	10.3	76	1
08/03/19	6:35 a	-37.1	-37.1	-37.1	13.0	ENE	0.22	13.9	-53.3	733.0	0.039	0.000	10.3	75	1
08/03/19	6:36 a	-37.1	-37.1	-37.1	12.2	ENE	0.20	13.9	-52.8	733.0	0.039	0.000	10.3	75	1
08/03/19	6:37 a	-37.1	-37.0	-37.1	11.3	ENE	0.19	12.2	-52.2	732.9	0.038	0.000	10.3	75	1
08/03/19	6:38 a	-37.1	-37.1	-37.1	12.2	ENE	0.20	14.8	-52.7	733.0	0.038	0.000	10.3	75	1
08/03/19	6:39 a	-37.1	-36.9	-37.1	13.0	ENE	0.22	13.9	-53.2	733.0	0.038	0.000	10.3	75	1
08/03/19	6:40 a	-37.0	-36.9	-37.0	12.2	ENE	0.20	14.8	-52.7	732.9	0.038	0.000	10.3	76	1
08/03/19	6:41 a	-37.1	-37.0	-37.1	9.6	ENE	0.16	12.2	-51.1	733.0	0.038	0.000	10.3	75	1
08/03/19	6:42 a	-37.0	-37.0	-37.0	11.3	ENE	0.19	13.0	-52.2	732.9	0.038	0.000	10.3	75	1
08/03/19	6:43 a	-37.0	-36.9	-37.0	11.3	ENE	0.19	12.2	-52.2	733.0	0.038	0.000	10.3	75	1
08/03/19	6:44 a	-36.9	-36.9	-36.9	10.4	ENE	0.17	12.2	-51.6	733.0	0.038	0.000	10.4	75	1
08/03/19	6:45 a	-36.9	-36.9	-37.0	10.4	ENE	0.17	12.2	-51.6	733.0	0.038	0.000	10.4	75	1
08/03/19	6:46 a	-36.9	-36.9	-37.0	11.3	ENE	0.19	13.0	-52.1	732.9	0.038	0.000	10.4	75	1
08/03/19	6:47 a	-36.9	-36.9	-36.9	10.4	ENE	0.17	12.2	-51.6	733.0	0.038	0.000	10.4	75	1
08/03/19	6:48 a	-36.9	-36.9	-36.9	10.4	ENE	0.17	12.2	-51.6	733.0	0.038	0.000	10.4	75	1
08/03/19	6:49 a	-36.9	-36.9	-36.9	10.4	ENE	0.17	12.2	-51.4	732.9	0.038	0.000	10.4	75	1
08/03/19	6:50 a	-36.9	-36.8	-36.9	10.4	ENE	0.17	12.2	-51.4	732.9	0.038	0.000	10.4	76	1
08/03/19	6:51 a	-36.8	-36.8	-36.9	9.6	ENE	0.16	12.2	-50.8	732.9	0.038	0.000	10.4	75	1
08/03/19	6:52 a	-36.8	-36.8	-36.8	7.0	NE	0.12	9.6	-48.8	732.9	0.038	0.000	10.4	75	1
08/03/19	6:53 a	-36.8	-36.8	-36.8	7.8	ENE	0.13	11.3	-49.5	732.9	0.038	0.000	10.4	76	1
08/03/19	6:54 a	-36.8	-36.8	-36.8	9.6	ENE	0.16	11.3	-50.7	732.9	0.038	0.000	10.4	75	1
08/03/19	6:55 a	-36.8	-36.8	-36.8	9.6	ENE	0.16	12.2	-50.7	732.9	0.038	0.000	10.4	75	1
08/03/19	6:56 a	-36.8	-36.7	-36.8	7.8	ENE	0.13	12.2	-49.4	733.0	0.038	0.000	10.4	76	1
08/03/19	6:57 a	-36.7	-36.7	-36.8	8.7	ENE	0.14	10.4	-50.1	733.0	0.038	0.000	10.4	76	1
08/03/19	6:58 a	-36.8	-36.7	-36.8	9.6	E	0.16	12.2	-50.7	733.0	0.038	0.000	10.4	76	1
08/03/19	6:59 a	-36.7	-36.7	-36.8	10.4	E	0.17	12.2	-51.3	733.0	0.038	0.000	10.4	76	1
08/03/19	7:00 a	-36.7	-36.7	-36.7	10.4	E	0.17	12.2	-51.3	733.0	0.038	0.000	10.4	75	1
08/03/19	7:01 a	-36.7	-36.7	-36.7	10.4	E	0.17	12.2	-51.2	732.9	0.038	0.000	10.4	75	1
08/03/19	7:02 a	-36.7	-36.7	-36.7	11.3	E	0.19	13.9	-51.7	733.0	0.038	0.000	10.4	76	1
08/03/19	7:03 a	-36.7	-36.7	-36.7	9.6	E	0.16	14.8	-50.6	732.9	0.038	0.000	10.4	76	1
08/03/19	7:04 a	-36.7	-36.7	-36.7	10.4	E	0.17	13.9	-51.3	733.0	0.038	0.000	10.4	76	1
08/03/19	7:05 a	-36.7	-36.7	-36.8	8.7	ENE	0.14	12.2	-50.0	733.0	0.038	0.000	10.4	75	1
08/03/19	7:06 a	-36.8	-36.7	-36.8	13.9	E	0.23	16.5	-53.3	732.9	0.038	0.000	10.4	75	1
08/03/19	7:07 a	-36.7	-36.7	-36.8	12.2	ENE	0.20	13.9	-52.3	732.9	0.038	0.000	10.4	75	1
08/03/19	7:08 a	-36.8	-36.7	-36.8	13.0	E	0.22	16.5	-52.8	732.9	0.038	0.000	10.4	75	1
08/03/19	7:09 a	-36.8	-36.8	-36.8	12.2	ENE	0.20	14.8	-52.4	732.9	0.038	0.000	10.4	75	1
08/03/19	7:10 a	-36.8	-36.8	-36.8	13.0	ENE	0.22	14.8	-52.9	732.9	0.038	0.000	10.4	75	1
08/03/19	7:11 a	-36.9	-36.8	-36.9	10.4	ENE	0.17	13.0	-51.4	732.9	0.038	0.000	10.4	75	1
08/03/19	7:12 a	-36.9	-36.9	-36.9	12.2	ENE	0.20	13.9	-52.5	732.8	0.038	0.000	10.4	75	1
08/03/19	7:13 a	-36.9	-36.9	-37.0	12.2	ENE	0.20	13.9	-52.6	732.9	0.038	0.000	10.4	75	1
08/03/19	7:14 a	-37.0	-36.9	-37.0	12.2	ENE	0.20	13.0	-52.7	732.9	0.038	0.000	10.4	74	1
08/03/19	7:15 a	-37.1	-37.1	-37.1	11.3	ENE	0.19	12.2	-52.2	732.9	0.038	0.000	10.4	75	1
08/03/19	7:16 a	-37.1	-37.1	-37.1	10.4	ENE	0.17	12.2	-51.7	732.9	0.038	0.000	10.5	75	1
08/03/19	7:17 a	-37.1	-37.1	-37.2	10.4	ENE	0.17	13.9	-51.7	732.9	0.039	0.000	10.5	75	1
08/03/19	7:18 a	-37.2	-37.2	-37.2	11.3	ENE	0.19	13.9	-52.4	732.8	0.039	0.000	10.5	75	1
08/03/19	7:19 a	-37.3	-37.2	-37.3	12.2	ENE	0.20	13.0	-53.0	732.8	0.039	0.000	10.5	75	1
08/03/19	7:20 a	-37.3	-37.3	-37.3	12.2	ENE	0.20	13.0	-53.0	732.9	0.039	0.000	10.5	75	1
08/03/19	7:21 a	-37.3	-37.3	-37.3	12.2	ENE	0.20	13.9	-53.1	732.8	0.039	0.000	10.5	75	1
08/03/19	7:22 a	-37.3	-37.3	-37.4	13.0	ENE	0.22	13.9	-53.6	732.8	0.039	0.000	10.5	75	1
08/03/19	7:23 a	-37.4	-37.3	-37.4	13.0	ENE	0.22	14.8	-53.6	732.8	0.039	0.000	10.5	75	1
08/03/19	7:24 a	-37.4	-37.4	-37.4	12.2	ENE	0.20	13.9	-53.2	732.8	0.039	0.000	10.6	75	1
08/03/19	7:25 a	-37.4	-37.4	-37.5	12.2	ENE	0.20	13.9	-53.2	732.8	0.039	0.000	10.6	75	1
08/03/19	7:26 a	-37.4	-37.4	-37.4	13.0	ENE	0.22	13.9	-53.7	732.8	0.039	0.000	10.6	75	1
08/03/19	7:27 a	-37.5	-37.4	-37.5	12.2	ENE	0.20	13.0	-53.3	732.8	0.039	0.000	10.6	75	1
08/03/19	7:28 a	-37.6	-37.5	-37.6	11.3	ENE	0.19	13.0	-52.8	732.8	0.039	0.000	10.6	75	1
08/03/19	7:29 a	-37.6	-37.6	-37.6	10.4	ENE	0.17	12.2	-52.3	732.7	0.039	0.000	10.6	75	1
08/03/19	7:30 a	-37.6	-37.6	-37.7	10.4	ENE	0.17	12.2	-52.4	732.7	0.039	0.000	10.6	75	1
08/03/19	7:31 a	-37.6	-37.6	-37.7	11.3	ENE	0.19	13.9	-52.9	732.7	0.039	0.000	10.6	75	1
08/03/19	7:32 a	-37.7	-37.7	-37.7	11.3	ENE	0.19	13.9	-53.0	732.7	0.039	0.000	10.6	75	1
08/03/19	7:33 a	-37.7	-37.7	-37.8	9.6	ENE	0.16	13.9	-51.9	732.7	0.039	0.000	10.6	75	1
08/03/19	7:34 a	-37.8	-37.8	-37.8	8.7	ENE	0.14	13.9	-51.4	732.8	0.039	0.000	10.6	75	1
08/03/19	7:35 a	-37.8	-37.8	-37.8	11.3	ENE	0.19	13.0	-53.1	732.8	0.039	0.000	10.6	75	1
08/03/19	7:36 a	-37.8	-37.8	-37.8	11.3	ENE	0.19	13.0	-53.1	732.7	0.039	0.000	10.6	75	1
08/03/19	7:37 a	-37.8	-37.8	-37.8	11.3	E	0.19	13.0	-53.2	732.7	0.039	0.000	10.6	75	1
08/03/19	7:38 a	-37.8	-37.8	-37.9	11.3	E	0.19	13.9	-53.2	732.7	0.039	0.000	10.6	75	1
08/03/19	7:39 a	-37.9	-37.9	-37.9	11.3	E	0.19	14.8	-53.3	732.7	0.039	0.000	10.6	75	1
08/03/19	7:40 a	-37.8	-37.8	-37.9	10.4	E	0.17	12.2	-52.7	732.7	0.039	0.000	10.6	74	1
08/03/19	7:41 a	-37.9	-37.9	-37.9	9.6	ENE	0.16	11.3	-52.1	732.7	0.039	0.000	10.6	74	1
08/03/19	7:42 a	-37.9	-37.8	-37.9	10.4	ENE	0.17	14.8	-52.7	732.7	0.039	0.000	10.6	74	1
08/03/19	7:43 a	-37.9	-37.9	-37.9	10.4	E	0.17	13.0	-52.7	732.7	0.039	0.000	10.6	74	1
08/03/19	7:44 a	-37.9	-37.9	-37.9	10.4	E	0.17	12.2	-52.8	732.7	0.039	0.000	10.6	74	1
08/03/19	7:45 a	-37.9	-37.9	-37.9	10.4	ENE	0.17	11.3	-52.8	732.7	0.039	0.000	10.6	74	1
08/03/19	7:46 a	-37.9	-37.9	-37.9	9.6	ENE	0.16	12.2	-52.1	732.7	0.039	0.000	10.6	74	1
08/03/19	7:47 a	-37.9	-37.9	-37.9	9.6	ENE	0.16	12.2	-52.1	732.7	0.039	0.000	10.6	74	1
08/03/19	7:48 a	-37.9	-37.8	-37.9	9.6	E	0.16	13.0	-52.1	732.6	0.039	0.000	10.6	74	1
08/03/19	7:49 a	-37.9	-37.9	-37.9	10.4	E	0.17	12.2	-52.7	732.7	0.039	0.000	10.6	74	1
08/03/19	7:50 a	-37.9	-37.9	-37.9	10.4	E	0.17	12.2	-52.7	732.6	0.039	0.000	10.6	74	1
08/03/19	7:51 a	-37.8	-37.8	-37.9	10.4	E	0.17	12.2	-52.7	732.7	0.039	0.000	10.6	74	1
08/03/19	7:52 a	-37.9	-37.8	-37.9	9.6	E	0.16	10.4	-52.1	732.7	0.039	0.000	10.6	74	1
08/03/19	7:53 a	-37.8	-37.8	-37.8	9.6	E	0.16	10.4	-52.1	732.7	0.039	0.000	10.6	74	1
08/03/19	7:54 a	-37.8	-37.8	-37.9	9.6	ENE	0.16	10.4	-52.1	732.7	0.039	0.000	10.6	74	1
08/03/19	7:55 a	-37.8	-37.8	-37.9	7.8	ENE	0.13	10.4	-50.7	732.7	0.039	0.000	10.7	74	1
08/03/19	7:56 a	-37.9	-37.9	-37.9	8.7	ENE	0.14	10.4	-51.5	732.7	0.039	0.000	10.6	74	1
08/03/19	7:57 a	-37.8	-37.8	-37.8	8.7	ENE	0.14	10.4	-51.4	732.7	0.039	0.000	10.7	74	1
08/03/19	7:58 a	-37.8	-37.8	-37.8	8.7	ENE	0.14	10.4	-51.4	732.7	0.039	0.000	10.7	74	1
08/03/19	7:59 a	-37.8	-37.8	-37.8	7.8	ENE	0.13	10.4	-50.7	732.7	0.039	0.000	10.7	74	1
08/03/19	8:00 a	-37.8	-37.8	-37.8	7.8	ENE	0.13	11.3	-50.7	732.7	0.039	0.000	10.7	74	1
08/03/19	8:01 a	-37.8	-37.8	-37.8	8.7	ENE	0.14	10.4	-51.4	732.7	0.039	0.000	10.7	74	1
08/03/19	8:02 a	-37.8	-37.8	-37.8	9.6	ENE	0.16	11.3	-52.1	732.7	0.039	0.000	10.7	74	1
08/03/19	8:03 a	-37.8	-37.8	-37.8	9.6	ENE	0.16	11.3	-52.0	732.7	0.039	0.000	10.7	74	1
08/03/19	8:04 a	-37.8	-37.8	-37.8	8.7	ENE	0.14	10.4	-51.4	732.7	0.039	0.000	10.7	75	1
08/03/19	8:05 a	-37.8	-37.8	-37.8	8.7	ENE	0.14	10.4	-51.4	732.7	0.039	0.000	10.7	75	1
08/03/19	8:06 a	-37.8	-37.8	-37.8	9.6	ENE	0.16	10.4	-52.0	732.7	0.039	0.000	10.7	75	1
08/03/19	8:07 a	-37.7	-37.7	-37.8	7.0	ENE	0.12	9.6	-49.8	732.7	0.039	0.000	10.7	76	1
08/03/19	8:08 a	-37.7	-37.7	-37.7	7.8	ENE	0.13	8.7	-50.6	732.8	0.039	0.000	10.7	75	1
08/03/19	8:09 a	-37.7	-37.7	-37.7	7.8	ENE	0.13	8.7	-50.6	732.7	0.039	0.000	10.7	75	1
08/03/19	8:10 a	-37.7	-37.7	-37.7	8.7	ENE	0.14	9.6	-51.3	732.7	0.039	0.000	10.7	75	1
08/03/19	8:11 a	-37.7	-37.7	-37.7	8.7	ENE	0.14	10.4	-51.3	732.6	0.039	0.000	10.7	75	1
08/03/19	8:12 a	-37.8	-37.7	-37.8	8.7	ENE	0.14	9.6	-51.4	732.7	0.039	0.000	10.7	76	1
08/03/19	8:13 a	-37.7	-37.7	-37.8	8.7	ENE	0.14	9.6	-51.3	732.7	0.039	0.000	10.7	76	1
08/03/19	8:14 a	-37.7	-37.7	-37.8	8.7	ENE	0.14	9.6	-51.3	732.7	0.039	0.000	10.7	76	1
08/03/19	8:15 a	-37.7	-37.7	-37.8	7.8	ENE	0.13	9.6	-50.6	732.6	0.039	0.000	10.7	76	1
08/03/19	8:16 a	-37.8	-37.7	-37.8	7.8	ENE	0.13	8.7	-50.7	732.7	0.039	0.000	10.7	76	1
08/03/19	8:17 a	-37.7	-37.7	-37.8	7.8	ENE	0.13	8.7	-50.6	732.7	0.039	0.000	10.7	76	1
08/03/19	8:18 a	-37.7	-37.7	-37.8	7.0	ENE	0.12	8.7	-49.8	732.7	0.039	0.000	10.7	76	1
08/03/19	8:19 a	-37.7	-37.7	-37.7	6.1	ENE	0.10	9.6	-49.0	732.6	0.039	0.000	10.7	76	1
08/03/19	8:20 a	-37.7	-37.7	-37.7	5.2	ENE	0.09	7.8	-48.1	732.6	0.039	0.000	10.7	76	1
08/03/19	8:21 a	-37.7	-37.7	-37.7	7.0	ENE	0.12	9.6	-49.8	732.7	0.039	0.000	10.7	76	1
08/03/19	8:22 a	-37.7	-37.7	-37.7	8.7	ENE	0.14	9.6	-51.2	732.7	0.039	0.000	10.7	76	1
08/03/19	8:23 a	-37.7	-37.7	-37.7	5.2	NE	0.09	7.8	-48.1	732.7	0.039	0.000	10.7	76	1
08/03/19	8:24 a	-37.7	-37.7	-37.7	2.6	NNE	0.04	5.2	-44.1	732.7	0.039	0.000	10.7	76	1
08/03/19	8:25 a	-37.7	-37.7	-37.7	5.2	NNE	0.09	6.1	-48.0	732.7	0.039	0.000	10.7	76	1
08/03/19	8:26 a	-37.7	-37.6	-37.7	5.2	N	0.09	7.0	-48.0	732.7	0.039	0.000	10.7	76	1
08/03/19	8:27 a	-37.7	-37.6	-37.7	4.3	N	0.07	7.8	-46.9	732.7	0.039	0.000	10.7	76	1
08/03/19	8:28 a	-37.6	-37.6	-37.6	5.2	N	0.09	6.1	-47.9	732.6	0.039	0.000	10.7	76	1
08/03/19	8:29 a	-37.6	-37.5	-37.6	4.3	NNE	0.07	6.1	-46.8	732.7	0.039	0.000	10.7	76	1
08/03/19	8:30 a	-37.5	-37.4	-37.5	4.3	N	0.07	6.1	-46.7	732.6	0.039	0.000	10.7	76	1
08/03/19	8:31 a	-37.5	-37.4	-37.5	3.5	NNE	0.06	5.2	-45.4	732.6	0.039	0.000	10.7	76	1
08/03/19	8:32 a	-37.4	-37.4	-37.4	3.5	NNE	0.06	5.2	-45.4	732.6	0.039	0.000	10.7	76	1
08/03/19	8:33 a	-37.4	-37.3	-37.4	3.5	N	0.06	6.1	-45.3	732.6	0.039	0.000	10.7	76	1
08/03/19	8:34 a	-37.3	-37.3	-37.3	5.2	NNE	0.09	6.1	-47.6	732.6	0.039	0.000	10.8	76	1
08/03/19	8:35 a	-37.3	-37.2	-37.3	3.5	N	0.06	6.1	-45.2	732.5	0.039	0.000	10.8	76	1
08/03/19	8:36 a	-37.2	-37.2	-37.2	5.2	N	0.09	6.1	-47.5	732.6	0.039	0.000	10.8	77	1
08/03/19	8:37 a	-37.1	-37.1	-37.1	5.2	NNE	0.09	7.0	-47.3	732.5	0.038	0.000	10.8	76	1
08/03/19	8:38 a	-37.0	-36.9	-37.0	2.6	N	0.04	6.1	-43.3	732.6	0.038	0.000	10.8	76	1
08/03/19	8:39 a	-36.9	-36.8	-36.9	3.5	N	0.06	6.1	-44.7	732.6	0.038	0.000	10.8	76	1
08/03/19	8:40 a	-36.8	-36.8	-36.8	3.5	N	0.06	5.2	-44.7	732.6	0.038	0.000	10.8	76	1
08/03/19	8:41 a	-36.7	-36.7	-36.8	3.5	N	0.06	5.2	-44.6	732.6	0.038	0.000	10.8	76	1
08/03/19	8:42 a	-36.6	-36.6	-36.6	3.5	NNE	0.06	5.2	-44.4	732.6	0.038	0.000	10.8	76	1
08/03/19	8:43 a	-36.6	-36.6	-36.6	4.3	NNE	0.07	6.1	-45.6	732.5	0.038	0.000	10.8	76	1
08/03/19	8:44 a	-36.6	-36.4	-36.6	4.3	NNE	0.07	6.1	-45.6	732.5	0.038	0.000	10.8	76	1
08/03/19	8:45 a	-36.4	-36.4	-36.4	3.5	N	0.06	6.1	-44.2	732.5	0.038	0.000	10.8	76	1
08/03/19	8:46 a	-36.4	-36.3	-36.4	5.2	N	0.09	7.0	-46.5	732.5	0.038	0.000	10.8	76	1
08/03/19	8:47 a	-36.3	-36.2	-36.3	5.2	N	0.09	7.0	-46.3	732.5	0.038	0.000	10.8	76	1
08/03/19	8:48 a	-36.2	-36.2	-36.2	4.3	N	0.07	6.1	-45.2	732.5	0.038	0.000	10.8	76	1
08/03/19	8:49 a	-36.2	-36.2	-36.2	5.2	N	0.09	6.1	-46.2	732.4	0.038	0.000	10.8	76	1
08/03/19	8:50 a	-36.1	-36.1	-36.2	5.2	N	0.09	7.0	-46.2	732.5	0.038	0.000	10.8	76	1
08/03/19	8:51 a	-36.1	-36.0	-36.1	5.2	N	0.09	7.0	-46.1	732.5	0.038	0.000	10.8	76	1
08/03/19	8:52 a	-36.0	-35.9	-36.0	5.2	N	0.09	7.0	-46.0	732.5	0.038	0.000	10.8	76	1
08/03/19	8:53 a	-35.9	-35.9	-35.9	5.2	NE	0.09	6.1	-45.9	732.5	0.038	0.000	10.8	76	1
08/03/19	8:54 a	-35.8	-35.8	-35.8	4.3	N	0.07	5.2	-44.8	732.4	0.038	0.000	10.8	76	1
08/03/19	8:55 a	-35.8	-35.8	-35.8	5.2	N	0.09	7.0	-45.8	732.4	0.038	0.000	10.8	76	1
08/03/19	8:56 a	-35.8	-35.8	-35.8	5.2	N	0.09	6.1	-45.8	732.5	0.038	0.000	10.8	76	1
08/03/19	8:57 a	-35.8	-35.7	-35.8	4.3	N	0.07	5.2	-44.7	732.4	0.038	0.000	10.8	75	1
08/03/19	8:58 a	-35.7	-35.7	-35.7	4.3	N	0.07	5.2	-44.6	732.4	0.038	0.000	10.8	75	1
08/03/19	8:59 a	-35.7	-35.7	-35.7	4.3	N	0.07	5.2	-44.6	732.5	0.038	0.000	10.8	75	1
08/03/19	9:00 a	-35.6	-35.6	-35.6	4.3	N	0.07	7.0	-44.5	732.5	0.037	0.000	10.8	75	1
08/03/19	9:01 a	-35.6	-35.6	-35.6	6.1	N	0.10	7.0	-46.4	732.4	0.037	0.000	10.8	75	1
08/03/19	9:02 a	-35.6	-35.6	-35.6	5.2	N	0.09	7.0	-45.5	732.4	0.037	0.000	10.8	76	1
08/03/19	9:03 a	-35.5	-35.4	-35.5	5.2	NNE	0.09	6.1	-45.4	732.4	0.037	0.000	10.8	76	1
08/03/19	9:04 a	-35.4	-35.4	-35.5	5.2	NNE	0.09	6.1	-45.4	732.4	0.037	0.000	10.8	76	1
08/03/19	9:05 a	-35.4	-35.3	-35.4	5.2	N	0.09	6.1	-45.4	732.4	0.037	0.000	10.8	76	1
08/03/19	9:06 a	-35.4	-35.3	-35.4	4.3	N	0.07	5.2	-44.2	732.4	0.037	0.000	10.8	76	1
08/03/19	9:07 a	-35.3	-35.3	-35.3	4.3	NNE	0.07	5.2	-44.2	732.4	0.037	0.000	10.8	76	1
08/03/19	9:08 a	-35.3	-35.3	-35.3	5.2	N	0.09	6.1	-45.2	732.3	0.037	0.000	10.8	76	1
08/03/19	9:09 a	-35.3	-35.3	-35.3	5.2	N	0.09	6.1	-45.2	732.3	0.037	0.000	10.8	76	1
08/03/19	9:10 a	-35.3	-35.2	-35.3	5.2	N	0.09	6.1	-45.2	732.3	0.037	0.000	10.8	76	1
08/03/19	9:11 a	-35.2	-35.2	-35.2	5.2	NNE	0.09	6.1	-45.1	732.4	0.037	0.000	10.8	75	1
08/03/19	9:12 a	-35.2	-35.2	-35.2	5.2	NNE	0.09	6.1	-45.1	732.4	0.037	0.000	10.8	75	1
08/03/19	9:13 a	-35.2	-35.2	-35.2	5.2	NNE	0.09	5.2	-45.1	732.4	0.037	0.000	10.8	75	1
08/03/19	9:14 a	-35.2	-35.1	-35.2	5.2	NNE	0.09	5.2	-45.1	732.4	0.037	0.000	10.8	76	1
08/03/19	9:15 a	-35.1	-35.1	-35.1	5.2	NNE	0.09	5.2	-44.9	732.4	0.037	0.000	10.9	76	1
08/03/19	9:16 a	-35.1	-35.1	-35.2	5.2	NNE	0.09	5.2	-44.9	732.4	0.037	0.000	10.9	76	1
08/03/19	9:17 a	-35.1	-35.1	-35.1	5.2	NNE	0.09	5.2	-44.9	732.4	0.037	0.000	10.9	76	1
08/03/19	9:18 a	-35.1	-35.1	-35.1	5.2	NNE	0.09	5.2	-44.9	732.4	0.037	0.000	10.9	75	1
08/03/19	9:19 a	-35.1	-35.1	-35.1	5.2	NNE	0.09	5.2	-44.9	732.4	0.037	0.000	10.9	76	1
08/03/19	9:20 a	-35.1	-35.0	-35.1	4.3	NNE	0.07	5.2	-43.8	732.5	0.037	0.000	10.9	76	1
08/03/19	9:21 a	-35.0	-35.0	-35.0	5.2	NNE	0.09	6.1	-44.8	732.4	0.037	0.000	10.9	76	1
08/03/19	9:22 a	-35.0	-35.0	-35.0	5.2	NNE	0.09	6.1	-44.8	732.4	0.037	0.000	10.9	76	1
08/03/19	9:23 a	-35.0	-35.0	-35.0	5.2	NNE	0.09	6.1	-44.8	732.4	0.037	0.000	10.9	76	1
08/03/19	9:24 a	-35.0	-34.9	-35.0	5.2	N	0.09	6.1	-44.8	732.4	0.037	0.000	10.9	75	1
08/03/19	9:25 a	-35.0	-34.9	-35.0	6.1	N	0.10	7.0	-45.7	732.4	0.037	0.000	10.9	75	1
08/03/19	9:26 a	-34.9	-34.9	-34.9	5.2	N	0.09	6.1	-44.8	732.4	0.037	0.000	10.9	75	1
08/03/19	9:27 a	-34.9	-34.9	-34.9	5.2	N	0.09	5.2	-44.8	732.4	0.037	0.000	10.9	75	1
08/03/19	9:28 a	-34.9	-34.9	-34.9	5.2	N	0.09	6.1	-44.8	732.3	0.037	0.000	10.9	75	1
08/03/19	9:29 a	-34.9	-34.9	-34.9	5.2	N	0.09	6.1	-44.7	732.3	0.037	0.000	10.9	75	1
08/03/19	9:30 a	-34.9	-34.9	-34.9	5.2	N	0.09	6.1	-44.7	732.3	0.037	0.000	10.9	75	1
08/03/19	9:31 a	-34.9	-34.9	-34.9	5.2	N	0.09	5.2	-44.7	732.3	0.037	0.000	10.9	75	1
08/03/19	9:32 a	-34.9	-34.8	-34.9	5.2	N	0.09	5.2	-44.7	732.3	0.037	0.000	10.9	75	1
08/03/19	9:33 a	-34.8	-34.8	-34.8	5.2	N	0.09	6.1	-44.6	732.3	0.037	0.000	10.9	75	1
08/03/19	9:34 a	-34.9	-34.8	-34.9	4.3	N	0.07	5.2	-43.7	732.3	0.037	0.000	10.9	75	1
08/03/19	9:35 a	-34.8	-34.8	-34.9	4.3	N	0.07	5.2	-43.6	732.3	0.037	0.000	10.9	76	1
08/03/19	9:36 a	-34.8	-34.8	-34.8	3.5	N	0.06	4.3	-42.4	732.3	0.037	0.000	10.9	75	1
08/03/19	9:37 a	-34.8	-34.8	-34.9	3.5	NNE	0.06	4.3	-42.4	732.3	0.037	0.000	10.9	75	1
08/03/19	9:38 a	-34.8	-34.8	-34.8	4.3	NNE	0.07	4.3	-43.6	732.4	0.037	0.000	10.9	75	1
08/03/19	9:39 a	-34.8	-34.8	-34.8	4.3	NNE	0.07	4.3	-43.6	732.4	0.037	0.000	10.9	75	1
08/03/19	9:40 a	-34.8	-34.8	-34.8	4.3	NNE	0.07	5.2	-43.6	732.3	0.037	0.000	10.9	75	1
08/03/19	9:41 a	-34.8	-34.8	-34.8	5.2	NNE	0.09	5.2	-44.6	732.3	0.037	0.000	10.9	75	1
08/03/19	9:42 a	-34.8	-34.8	-34.8	4.3	NNE	0.07	5.2	-43.6	732.3	0.037	0.000	10.9	75	1
08/03/19	9:43 a	-34.8	-34.8	-34.8	4.3	NNE	0.07	5.2	-43.6	732.2	0.037	0.000	10.9	75	1
08/03/19	9:44 a	-34.8	-34.8	-34.8	4.3	NNE	0.07	5.2	-43.6	732.2	0.037	0.000	10.9	75	1
08/03/19	9:45 a	-34.8	-34.8	-34.8	5.2	NNE	0.09	6.1	-44.6	732.3	0.037	0.000	10.9	75	1
08/03/19	9:46 a	-34.8	-34.8	-34.8	4.3	NNE	0.07	5.2	-43.6	732.2	0.037	0.000	10.9	76	1
08/03/19	9:47 a	-34.8	-34.8	-34.8	5.2	NNE	0.09	5.2	-44.6	732.2	0.037	0.000	10.9	75	1
08/03/19	9:48 a	-34.7	-34.7	-34.7	4.3	NE	0.07	5.2	-43.4	732.2	0.037	0.000	11.0	75	1
08/03/19	9:49 a	-34.7	-34.7	-34.8	4.3	NE	0.07	6.1	-43.4	732.3	0.037	0.000	11.0	75	1
08/03/19	9:50 a	-34.8	-34.8	-34.8	6.1	NE	0.10	7.0	-45.4	732.3	0.037	0.000	11.0	75	1
08/03/19	9:51 a	-34.8	-34.8	-34.8	6.1	NE	0.10	7.0	-45.4	732.2	0.037	0.000	11.0	75	1
08/03/19	9:52 a	-34.8	-34.8	-34.8	6.1	NNE	0.10	7.0	-45.4	732.2	0.037	0.000	11.0	76	1
08/03/19	9:53 a	-34.8	-34.7	-34.8	6.1	NNE	0.10	7.0	-45.4	732.2	0.037	0.000	11.0	76	1
08/03/19	9:54 a	-34.7	-34.7	-34.7	6.1	NNE	0.10	7.0	-45.4	732.2	0.037	0.000	11.0	75	1
08/03/19	9:55 a	-34.7	-34.7	-34.7	6.1	NNE	0.10	7.8	-45.4	732.2	0.037	0.000	11.0	75	1
08/03/19	9:56 a	-34.7	-34.7	-34.7	7.0	NNE	0.12	7.8	-46.1	732.2	0.037	0.000	11.0	76	1
08/03/19	9:57 a	-34.7	-34.7	-34.7	7.8	NNE	0.13	8.7	-46.9	732.1	0.037	0.000	11.0	76	1
08/03/19	9:58 a	-34.7	-34.7	-34.7	7.0	NNE	0.12	8.7	-46.2	732.2	0.037	0.000	11.0	76	1
08/03/19	9:59 a	-34.7	-34.7	-34.7	7.8	NNE	0.13	8.7	-46.8	732.1	0.037	0.000	11.0	76	1
08/03/19	10:00 a	-34.7	-34.7	-34.7	7.0	NNE	0.12	8.7	-46.1	732.1	0.037	0.000	11.0	76	1
08/03/19	10:01 a	-34.6	-34.6	-34.6	7.0	NNE	0.12	7.8	-46.1	732.1	0.037	0.000	11.0	76	1
08/03/19	10:02 a	-34.6	-34.6	-34.7	7.0	NNE	0.12	7.8	-46.1	732.1	0.037	0.000	11.1	76	1
08/03/19	10:03 a	-34.6	-34.6	-34.6	7.8	NNE	0.13	8.7	-46.8	732.1	0.037	0.000	11.1	76	1
08/03/19	10:04 a	-34.6	-34.5	-34.6	7.8	NNE	0.13	8.7	-46.7	732.1	0.037	0.000	11.1	76	1
08/03/19	10:05 a	-34.5	-34.5	-34.6	7.8	N	0.13	9.6	-46.7	732.1	0.037	0.000	11.1	76	1
08/03/19	10:06 a	-34.5	-34.5	-34.5	10.4	NNE	0.17	12.2	-48.4	732.1	0.037	0.000	11.1	76	1
08/03/19	10:07 a	-34.5	-34.4	-34.5	9.6	N	0.16	10.4	-47.9	732.1	0.037	0.000	11.1	76	1
08/03/19	10:08 a	-34.4	-34.4	-34.4	9.6	N	0.16	11.3	-47.8	732.1	0.037	0.000	11.1	76	1
08/03/19	10:09 a	-34.4	-34.4	-34.4	7.8	NNE	0.13	9.6	-46.5	732.1	0.037	0.000	11.1	76	1
08/03/19	10:10 a	-34.4	-34.3	-34.4	9.6	N	0.16	10.4	-47.8	732.1	0.037	0.000	11.1	76	1
08/03/19	10:11 a	-34.3	-34.3	-34.3	9.6	N	0.16	10.4	-47.7	732.0	0.037	0.000	11.1	76	1
08/03/19	10:12 a	-34.3	-34.3	-34.3	8.7	N	0.14	10.4	-47.1	732.0	0.037	0.000	11.1	76	1
08/03/19	10:13 a	-34.3	-34.3	-34.3	7.8	N	0.13	9.6	-46.4	732.0	0.037	0.000	11.1	76	1
08/03/19	10:14 a	-34.3	-34.3	-34.3	8.7	N	0.14	9.6	-47.0	732.1	0.037	0.000	11.1	76	1
08/03/19	10:15 a	-34.2	-34.2	-34.3	9.6	N	0.16	10.4	-47.6	732.1	0.036	0.000	11.1	76	1
08/03/19	10:16 a	-34.2	-34.2	-34.2	10.4	N	0.17	12.2	-48.1	732.0	0.036	0.000	11.1	76	1
08/03/19	10:17 a	-34.2	-34.2	-34.2	10.4	N	0.17	11.3	-48.1	732.1	0.036	0.000	11.1	76	1
08/03/19	10:18 a	-34.2	-34.2	-34.2	10.4	N	0.17	12.2	-48.1	732.0	0.036	0.000	11.1	76	1
08/03/19	10:19 a	-34.2	-34.2	-34.2	11.3	N	0.19	12.2	-48.6	732.1	0.036	0.000	11.1	76	1
08/03/19	10:20 a	-34.2	-34.2	-34.2	9.6	N	0.16	12.2	-47.5	732.1	0.036	0.000	11.1	76	1
08/03/19	10:21 a	-34.2	-34.1	-34.2	12.2	N	0.20	13.9	-49.1	732.0	0.036	0.000	11.1	76	1
08/03/19	10:22 a	-34.1	-34.1	-34.2	13.0	N	0.22	15.7	-49.4	732.0	0.036	0.000	11.1	76	1
08/03/19	10:23 a	-34.1	-34.1	-34.1	9.6	NNE	0.16	11.3	-47.3	732.0	0.036	0.000	11.1	76	1
08/03/19	10:24 a	-34.1	-34.1	-34.1	11.3	N	0.19	13.9	-48.5	732.1	0.036	0.000	11.1	76	1
08/03/19	10:25 a	-34.1	-34.1	-34.1	12.2	N	0.20	13.0	-48.9	732.0	0.036	0.000	11.1	76	1
08/03/19	10:26 a	-34.1	-34.1	-34.1	13.0	NNE	0.22	14.8	-49.3	732.0	0.036	0.000	11.1	76	1
08/03/19	10:27 a	-34.1	-34.1	-34.1	13.0	NNE	0.22	13.9	-49.3	732.0	0.036	0.000	11.1	76	1
08/03/19	10:28 a	-34.1	-34.0	-34.1	13.0	N	0.22	14.8	-49.3	731.9	0.036	0.000	11.1	76	1
08/03/19	10:29 a	-34.1	-34.0	-34.1	13.0	NNE	0.22	15.7	-49.3	732.0	0.036	0.000	11.1	76	1
08/03/19	10:30 a	-34.0	-34.0	-34.1	16.5	N	0.28	19.1	-50.9	731.9	0.036	0.000	11.1	76	1
08/03/19	10:31 a	-34.0	-33.9	-34.0	13.9	NNW	0.23	15.7	-49.7	732.0	0.036	0.000	11.1	76	1
08/03/19	10:32 a	-34.0	-33.9	-34.0	13.0	N	0.22	15.7	-49.3	732.0	0.036	0.000	11.1	76	1
08/03/19	10:33 a	-34.0	-33.9	-34.0	14.8	N	0.25	16.5	-50.1	731.9	0.036	0.000	11.1	76	1
08/03/19	10:34 a	-33.9	-33.9	-33.9	17.4	N	0.29	20.0	-51.2	731.8	0.036	0.000	11.1	76	1
08/03/19	10:35 a	-34.0	-33.9	-34.0	17.4	NNW	0.29	20.9	-51.2	731.9	0.036	0.000	11.1	76	1
08/03/19	10:36 a	-33.9	-33.9	-33.9	19.1	NNW	0.32	20.9	-51.8	731.8	0.036	0.000	11.1	76	1
08/03/19	10:37 a	-33.9	-33.9	-33.9	16.5	NNW	0.28	20.9	-50.8	731.9	0.036	0.000	11.1	76	1
08/03/19	10:38 a	-33.9	-33.9	-33.9	17.4	NNW	0.29	20.9	-51.2	731.7	0.036	0.000	11.1	76	1
08/03/19	10:39 a	-33.9	-33.9	-33.9	16.5	NNW	0.28	20.9	-50.7	731.7	0.036	0.000	11.1	76	1
08/03/19	10:40 a	-33.9	-33.9	-33.9	16.5	NNW	0.28	20.0	-50.7	731.7	0.036	0.000	11.1	76	1
08/03/19	10:41 a	-33.9	-33.8	-33.9	19.1	NNW	0.32	20.9	-51.7	731.7	0.036	0.000	11.0	76	1
08/03/19	10:42 a	-33.9	-33.9	-33.9	19.1	NNW	0.32	21.7	-51.8	731.6	0.036	0.000	11.0	76	1
08/03/19	10:43 a	-33.9	-33.8	-33.9	18.3	NNW	0.30	21.7	-51.5	731.6	0.036	0.000	11.0	76	1
08/03/19	10:44 a	-33.9	-33.8	-33.9	21.7	NNW	0.36	25.2	-52.7	731.6	0.036	0.000	10.9	76	1
08/03/19	10:45 a	-33.9	-33.8	-33.9	22.6	NNW	0.38	25.2	-52.9	731.5	0.036	0.000	10.9	76	1
08/03/19	10:46 a	-33.8	-33.8	-33.8	22.6	NNW	0.38	25.2	-52.8	731.6	0.036	0.000	10.9	76	1
08/03/19	10:47 a	-33.8	-33.8	-33.8	20.9	NNW	0.35	25.2	-52.3	731.6	0.036	0.000	10.9	76	1
08/03/19	10:48 a	-33.9	-33.9	-33.9	20.0	NNW	0.33	21.7	-52.1	731.6	0.036	0.000	10.9	76	1
08/03/19	10:49 a	-33.8	-33.8	-33.9	21.7	NNW	0.36	24.3	-52.6	731.6	0.036	0.000	10.9	76	1
08/03/19	10:50 a	-33.9	-33.9	-33.9	20.9	NNW	0.35	24.3	-52.3	731.6	0.036	0.000	10.9	76	1
08/03/19	10:51 a	-33.9	-33.8	-33.9	20.0	NNW	0.33	22.6	-52.1	731.6	0.036	0.000	10.8	76	1
08/03/19	10:52 a	-33.9	-33.9	-33.9	19.1	NW	0.32	22.6	-51.7	731.8	0.036	0.000	10.8	76	1
08/03/19	10:53 a	-33.9	-33.9	-33.9	20.0	NNW	0.33	22.6	-52.1	731.7	0.036	0.000	10.8	76	1
08/03/19	10:54 a	-33.9	-33.8	-33.9	20.0	NNW	0.33	22.6	-52.1	731.6	0.036	0.000	10.8	76	1
08/03/19	10:55 a	-33.9	-33.9	-33.9	20.9	NW	0.35	22.6	-52.3	731.6	0.036	0.000	10.8	76	1
08/03/19	10:56 a	-33.9	-33.8	-33.9	20.9	NW	0.35	21.7	-52.3	731.6	0.036	0.000	10.8	76	1
08/03/19	10:57 a	-33.9	-33.8	-33.9	20.9	NW	0.35	21.7	-52.3	731.6	0.036	0.000	10.7	76	1
08/03/19	10:58 a	-33.9	-33.8	-33.9	20.9	NW	0.35	21.7	-52.3	731.6	0.036	0.000	10.7	76	1
08/03/19	10:59 a	-33.8	-33.8	-33.9	20.0	NW	0.33	20.9	-52.0	731.6	0.036	0.000	10.7	76	1
08/03/19	11:00 a	-33.9	-33.8	-33.9	20.9	NW	0.35	24.3	-52.3	731.6	0.036	0.000	10.7	76	1
08/03/19	11:01 a	-33.9	-33.8	-33.9	21.7	NW	0.36	23.5	-52.7	731.6	0.036	0.000	10.7	76	1
08/03/19	11:02 a	-33.8	-33.8	-33.8	20.9	NW	0.35	23.5	-52.3	731.5	0.036	0.000	10.7	76	1
08/03/19	11:03 a	-33.8	-33.8	-33.9	20.9	NW	0.35	22.6	-52.3	731.6	0.036	0.000	10.7	76	1
08/03/19	11:04 a	-33.9	-33.8	-33.9	20.0	NW	0.33	21.7	-52.1	731.7	0.036	0.000	10.7	76	1
08/03/19	11:05 a	-33.9	-33.8	-33.9	20.0	NW	0.33	20.9	-52.1	731.7	0.036	0.000	10.6	76	1
08/03/19	11:06 a	-33.9	-33.8	-33.9	19.1	NW	0.32	20.9	-51.7	731.7	0.036	0.000	10.6	76	1
08/03/19	11:07 a	-33.9	-33.9	-33.9	19.1	NW	0.32	20.9	-51.7	731.7	0.036	0.000	10.6	76	1
08/03/19	11:08 a	-33.9	-33.9	-33.9	19.1	NW	0.32	20.9	-51.7	731.7	0.036	0.000	10.6	76	1
08/03/19	11:09 a	-33.9	-33.9	-33.9	18.3	NW	0.30	20.0	-51.5	731.8	0.036	0.000	10.6	76	1
08/03/19	11:10 a	-33.9	-33.9	-33.9	18.3	NW	0.30	19.1	-51.5	731.8	0.036	0.000	10.6	76	1
08/03/19	11:11 a	-33.9	-33.9	-33.9	17.4	NW	0.29	20.0	-51.1	731.9	0.036	0.000	10.6	76	1
08/03/19	11:12 a	-33.9	-33.9	-33.9	18.3	NW	0.30	19.1	-51.5	731.8	0.036	0.000	10.6	76	1
08/03/19	11:13 a	-33.9	-33.9	-33.9	18.3	NW	0.30	20.9	-51.5	731.8	0.036	0.000	10.6	76	1
08/03/19	11:14 a	-34.0	-33.9	-34.1	19.1	NNW	0.32	20.9	-51.9	731.9	0.036	0.000	10.5	76	1
08/03/19	11:15 a	-34.1	-34.1	-34.1	19.1	NW	0.32	20.9	-51.9	731.9	0.036	0.000	10.5	76	1
08/03/19	11:16 a	-34.1	-34.0	-34.1	18.3	NW	0.30	20.0	-51.6	731.9	0.036	0.000	10.5	76	1
08/03/19	11:17 a	-34.1	-34.1	-34.1	17.4	NW	0.29	19.1	-51.3	731.9	0.036	0.000	10.4	76	1
08/03/19	11:18 a	-34.1	-34.1	-34.1	19.1	NW	0.32	20.0	-51.9	731.9	0.036	0.000	10.4	76	1
08/03/19	11:19 a	-34.1	-34.0	-34.2	18.3	NW	0.30	20.0	-51.6	731.9	0.036	0.000	10.4	76	1
08/03/19	11:20 a	-34.1	-34.0	-34.1	18.3	NW	0.30	19.1	-51.6	731.9	0.036	0.000	10.4	76	1
08/03/19	11:21 a	-34.1	-34.1	-34.1	18.3	NW	0.30	20.0	-51.6	731.9	0.036	0.000	10.4	76	1
08/03/19	11:22 a	-34.1	-34.1	-34.2	17.4	NNW	0.29	19.1	-51.4	731.9	0.036	0.000	10.4	76	1
08/03/19	11:23 a	-34.1	-34.1	-34.1	17.4	NW	0.29	19.1	-51.4	731.9	0.036	0.000	10.4	76	1
08/03/19	11:24 a	-34.2	-34.1	-34.2	17.4	NW	0.29	19.1	-51.4	731.9	0.036	0.000	10.4	76	1
08/03/19	11:25 a	-34.1	-34.1	-34.1	18.3	NW	0.30	20.0	-51.7	731.9	0.036	0.000	10.4	76	1
08/03/19	11:26 a	-34.2	-34.1	-34.2	18.3	NW	0.30	20.0	-51.8	731.9	0.036	0.000	10.4	76	1
08/03/19	11:27 a	-34.2	-34.1	-34.2	18.3	NW	0.30	20.0	-51.8	732.0	0.036	0.000	10.4	76	1
08/03/19	11:28 a	-34.2	-34.2	-34.2	17.4	NW	0.29	18.3	-51.4	732.0	0.036	0.000	10.4	76	1
08/03/19	11:29 a	-34.2	-34.1	-34.2	16.5	NW	0.28	17.4	-51.1	731.9	0.036	0.000	10.4	76	1
08/03/19	11:30 a	-34.2	-34.2	-34.2	14.8	NW	0.25	15.7	-50.3	732.0	0.036	0.000	10.3	76	1
08/03/19	11:31 a	-34.2	-34.2	-34.2	14.8	NW	0.25	18.3	-50.3	732.0	0.036	0.000	10.3	76	1
08/03/19	11:32 a	-34.2	-34.2	-34.2	16.5	NW	0.28	17.4	-51.2	732.0	0.036	0.000	10.3	76	1
08/03/19	11:33 a	-34.2	-34.2	-34.2	16.5	NW	0.28	17.4	-51.2	732.0	0.036	0.000	10.3	76	1
08/03/19	11:34 a	-34.2	-34.2	-34.3	14.8	NW	0.25	18.3	-50.4	732.0	0.036	0.000	10.3	76	1
08/03/19	11:35 a	-34.3	-34.3	-34.3	15.7	NW	0.26	16.5	-50.9	732.1	0.037	0.000	10.3	76	1
08/03/19	11:36 a	-34.3	-34.2	-34.3	14.8	NW	0.25	16.5	-50.5	732.1	0.037	0.000	10.3	76	1
08/03/19	11:37 a	-34.3	-34.2	-34.3	15.7	NW	0.26	16.5	-50.9	732.0	0.037	0.000	10.3	76	1
08/03/19	11:38 a	-34.3	-34.3	-34.3	14.8	NW	0.25	16.5	-50.5	732.1	0.037	0.000	10.3	76	1
08/03/19	11:39 a	-34.3	-34.3	-34.3	16.5	NW	0.28	17.4	-51.2	732.1	0.037	0.000	10.3	76	1
08/03/19	11:40 a	-34.3	-34.3	-34.3	15.7	NW	0.26	17.4	-50.9	732.0	0.037	0.000	10.3	76	1
08/03/19	11:41 a	-34.3	-34.3	-34.4	15.7	NW	0.26	16.5	-50.9	732.0	0.037	0.000	10.3	76	1
08/03/19	11:42 a	-34.3	-34.3	-34.4	14.8	NW	0.25	15.7	-50.6	732.0	0.037	0.000	10.3	76	1
08/03/19	11:43 a	-34.4	-34.3	-34.4	13.9	NW	0.23	15.7	-50.2	732.0	0.037	0.000	10.3	76	1
08/03/19	11:44 a	-34.4	-34.3	-34.4	13.9	NW	0.23	14.8	-50.2	732.0	0.037	0.000	10.3	76	1
08/03/19	11:45 a	-34.4	-34.4	-34.4	14.8	NW	0.25	15.7	-50.6	732.0	0.037	0.000	10.3	76	1
08/03/19	11:46 a	-34.4	-34.4	-34.4	14.8	NW	0.25	16.5	-50.6	732.0	0.037	0.000	10.3	76	1
08/03/19	11:47 a	-34.4	-34.4	-34.4	13.9	NW	0.23	15.7	-50.2	732.0	0.037	0.000	10.3	76	1
08/03/19	11:48 a	-34.4	-34.4	-34.5	14.8	NW	0.25	16.5	-50.7	731.9	0.037	0.000	10.3	76	1
08/03/19	11:49 a	-34.5	-34.4	-34.5	15.7	NW	0.26	17.4	-51.2	732.0	0.037	0.000	10.3	76	1
08/03/19	11:50 a	-34.5	-34.4	-34.5	14.8	NW	0.25	16.5	-50.8	732.0	0.037	0.000	10.3	76	1
08/03/19	11:51 a	-34.5	-34.5	-34.5	15.7	NW	0.26	16.5	-51.2	732.1	0.037	0.000	10.3	76	1
08/03/19	11:52 a	-34.5	-34.5	-34.5	13.9	NW	0.23	15.7	-50.3	732.1	0.037	0.000	10.3	76	1
08/03/19	11:53 a	-34.6	-34.6	-34.6	13.9	NW	0.23	15.7	-50.5	732.1	0.037	0.000	10.2	76	1
08/03/19	11:54 a	-34.6	-34.6	-34.6	13.9	NW	0.23	14.8	-50.4	732.0	0.037	0.000	10.2	76	1
08/03/19	11:55 a	-34.6	-34.6	-34.6	13.9	NW	0.23	15.7	-50.4	732.1	0.037	0.000	10.3	76	1
08/03/19	11:56 a	-34.6	-34.6	-34.7	13.0	NW	0.22	14.8	-50.1	732.1	0.037	0.000	10.2	76	1
08/03/19	11:57 a	-34.7	-34.7	-34.7	13.9	NW	0.23	14.8	-50.6	732.1	0.037	0.000	10.2	76	1
08/03/19	11:58 a	-34.7	-34.7	-34.7	13.0	NW	0.22	13.9	-50.1	732.1	0.037	0.000	10.2	76	1
08/03/19	11:59 a	-34.7	-34.7	-34.7	12.2	NW	0.20	13.9	-49.7	732.1	0.037	0.000	10.2	76	1
08/03/19	12:00 p	-34.7	-34.7	-34.7	12.2	NW	0.20	13.9	-49.7	732.2	0.037	0.000	10.2	76	1
08/03/19	12:01 p	-34.7	-34.7	-34.7	13.0	NW	0.22	14.8	-50.2	732.2	0.037	0.000	10.2	76	1
08/03/19	12:02 p	-34.7	-34.7	-34.7	13.0	NW	0.22	15.7	-50.1	732.1	0.037	0.000	10.2	76	1
08/03/19	12:03 p	-34.7	-34.7	-34.7	12.2	NW	0.20	13.9	-49.7	732.2	0.037	0.000	10.2	76	1
08/03/19	12:04 p	-34.7	-34.7	-34.7	13.0	NW	0.22	14.8	-50.2	732.2	0.037	0.000	10.2	76	1
08/03/19	12:05 p	-34.7	-34.7	-34.7	12.2	NW	0.20	14.8	-49.7	732.1	0.037	0.000	10.2	76	1
08/03/19	12:06 p	-34.7	-34.7	-34.7	13.0	NW	0.22	15.7	-50.2	732.1	0.037	0.000	10.2	76	1
08/03/19	12:07 p	-34.7	-34.7	-34.7	12.2	NW	0.20	13.0	-49.7	732.2	0.037	0.000	10.2	76	1
08/03/19	12:08 p	-34.7	-34.7	-34.8	11.3	NW	0.19	13.0	-49.3	732.2	0.037	0.000	10.2	76	1
08/03/19	12:09 p	-34.7	-34.7	-34.8	11.3	NW	0.19	13.0	-49.3	732.2	0.037	0.000	10.2	76	1
08/03/19	12:10 p	-34.8	-34.8	-34.8	10.4	NW	0.17	12.2	-48.8	732.3	0.037	0.000	10.2	76	1
08/03/19	12:11 p	-34.8	-34.8	-34.8	9.6	NW	0.16	10.4	-48.2	732.3	0.037	0.000	10.2	76	1
08/03/19	12:12 p	-34.8	-34.8	-34.8	9.6	NW	0.16	11.3	-48.3	732.3	0.037	0.000	10.2	76	1
08/03/19	12:13 p	-34.8	-34.8	-34.8	11.3	NW	0.19	12.2	-49.4	732.3	0.037	0.000	10.2	76	1
08/03/19	12:14 p	-34.8	-34.8	-34.8	11.3	NW	0.19	12.2	-49.4	732.3	0.037	0.000	10.2	76	1
08/03/19	12:15 p	-34.8	-34.8	-34.8	10.4	NW	0.17	12.2	-48.9	732.4	0.037	0.000	10.2	76	1
08/03/19	12:16 p	-34.8	-34.8	-34.8	10.4	NW	0.17	12.2	-48.9	732.4	0.037	0.000	10.2	76	1
08/03/19	12:17 p	-34.8	-34.8	-34.8	11.3	NW	0.19	13.9	-49.4	732.4	0.037	0.000	10.2	76	1
08/03/19	12:18 p	-34.8	-34.8	-34.8	11.3	NW	0.19	12.2	-49.3	732.3	0.037	0.000	10.2	76	1
08/03/19	12:19 p	-34.8	-34.8	-34.8	12.2	NW	0.20	13.0	-49.9	732.3	0.037	0.000	10.2	76	1
08/03/19	12:20 p	-34.8	-34.8	-34.8	12.2	NW	0.20	13.9	-49.9	732.2	0.037	0.000	10.2	76	1
08/03/19	12:21 p	-34.8	-34.8	-34.8	12.2	NW	0.20	13.0	-49.9	732.3	0.037	0.000	10.3	76	1
08/03/19	12:22 p	-34.8	-34.8	-34.9	12.2	NW	0.20	14.8	-49.9	732.3	0.037	0.000	10.2	76	1
08/03/19	12:23 p	-34.9	-34.8	-34.9	12.2	NW	0.20	13.9	-49.9	732.3	0.037	0.000	10.3	76	1
08/03/19	12:24 p	-34.9	-34.8	-34.9	11.3	NW	0.19	12.2	-49.4	732.3	0.037	0.000	10.2	76	1
08/03/19	12:25 p	-34.9	-34.8	-34.9	12.2	NW	0.20	13.9	-49.9	732.4	0.037	0.000	10.3	76	1
08/03/19	12:26 p	-34.8	-34.8	-34.8	11.3	NW	0.19	12.2	-49.4	732.3	0.037	0.000	10.3	76	1
08/03/19	12:27 p	-34.8	-34.8	-34.8	9.6	NW	0.16	11.3	-48.3	732.4	0.037	0.000	10.3	76	1
08/03/19	12:28 p	-34.8	-34.8	-34.9	8.7	NW	0.14	10.4	-47.7	732.4	0.037	0.000	10.2	76	1
08/03/19	12:29 p	-34.9	-34.9	-34.9	8.7	NW	0.14	8.7	-47.8	732.3	0.037	0.000	10.2	76	1
08/03/19	12:30 p	-34.9	-34.8	-34.9	7.8	NW	0.13	8.7	-47.1	732.5	0.037	0.000	10.2	76	1
08/03/19	12:31 p	-34.8	-34.8	-34.8	9.6	NW	0.16	10.4	-48.3	732.4	0.037	0.000	10.2	76	1
08/03/19	12:32 p	-34.8	-34.8	-34.8	9.6	NW	0.16	11.3	-48.3	732.5	0.037	0.000	10.3	76	1
08/03/19	12:33 p	-34.8	-34.8	-34.8	8.7	NW	0.14	9.6	-47.7	732.5	0.037	0.000	10.3	76	1
08/03/19	12:34 p	-34.8	-34.8	-34.8	9.6	NW	0.16	10.4	-48.3	732.5	0.037	0.000	10.2	76	1
08/03/19	12:35 p	-34.8	-34.8	-34.8	10.4	NW	0.17	11.3	-48.9	732.5	0.037	0.000	10.3	76	1
08/03/19	12:36 p	-34.8	-34.8	-34.8	10.4	NW	0.17	11.3	-48.9	732.5	0.037	0.000	10.3	76	1
08/03/19	12:37 p	-34.8	-34.8	-34.8	10.4	NW	0.17	11.3	-48.8	732.5	0.037	0.000	10.3	76	1
08/03/19	12:38 p	-34.8	-34.8	-34.8	10.4	NW	0.17	11.3	-48.9	732.5	0.037	0.000	10.3	76	1
08/03/19	12:39 p	-34.8	-34.8	-34.8	9.6	NW	0.16	11.3	-48.3	732.5	0.037	0.000	10.3	76	1
08/03/19	12:40 p	-34.8	-34.8	-34.8	10.4	NW	0.17	10.4	-48.9	732.5	0.037	0.000	10.3	76	1
08/03/19	12:41 p	-34.8	-34.8	-34.8	9.6	NW	0.16	10.4	-48.3	732.5	0.037	0.000	10.3	76	1
08/03/19	12:42 p	-34.8	-34.8	-34.8	9.6	NW	0.16	10.4	-48.3	732.5	0.037	0.000	10.3	76	1
08/03/19	12:43 p	-34.8	-34.8	-34.8	8.7	NW	0.14	9.6	-47.7	732.6	0.037	0.000	10.3	75	1
08/03/19	12:44 p	-34.8	-34.8	-34.8	8.7	NW	0.14	9.6	-47.7	732.5	0.037	0.000	10.3	76	1
08/03/19	12:45 p	-34.8	-34.8	-34.8	8.7	NW	0.14	8.7	-47.7	732.4	0.037	0.000	10.3	76	1
08/03/19	12:46 p	-34.8	-34.8	-34.8	7.8	NW	0.13	8.7	-47.1	732.4	0.037	0.000	10.3	76	1
08/03/19	12:47 p	-34.8	-34.8	-34.8	8.7	WNW	0.14	9.6	-47.7	732.5	0.037	0.000	10.3	76	1
08/03/19	12:48 p	-34.8	-34.8	-34.8	8.7	WNW	0.14	9.6	-47.7	732.4	0.037	0.000	10.3	76	1
08/03/19	12:49 p	-34.8	-34.8	-34.8	7.8	NW	0.13	8.7	-47.1	732.5	0.037	0.000	10.3	76	1
08/03/19	12:50 p	-34.8	-34.8	-34.8	7.8	NW	0.13	8.7	-47.1	732.4	0.037	0.000	10.3	76	1
08/03/19	12:51 p	-34.8	-34.8	-34.8	7.8	NW	0.13	8.7	-47.1	732.5	0.037	0.000	10.3	76	1
08/03/19	12:52 p	-34.8	-34.8	-34.8	7.8	NW	0.13	8.7	-47.1	732.5	0.037	0.000	10.3	76	1
08/03/19	12:53 p	-34.8	-34.8	-34.8	7.0	NW	0.12	7.8	-46.3	732.4	0.037	0.000	10.3	76	1
08/03/19	12:54 p	-34.8	-34.8	-34.8	7.8	WNW	0.13	8.7	-47.1	732.4	0.037	0.000	10.3	76	1
08/03/19	12:55 p	-34.8	-34.8	-34.8	7.8	NW	0.13	8.7	-47.0	732.5	0.037	0.000	10.4	76	1
08/03/19	12:56 p	-34.8	-34.8	-34.8	8.7	WNW	0.14	9.6	-47.7	732.4	0.037	0.000	10.4	76	1
08/03/19	12:57 p	-34.8	-34.8	-34.8	8.7	NW	0.14	9.6	-47.7	732.4	0.037	0.000	10.4	76	1
08/03/19	12:58 p	-34.8	-34.8	-34.8	8.7	NW	0.14	9.6	-47.7	732.4	0.037	0.000	10.4	76	1
08/03/19	12:59 p	-34.8	-34.8	-34.8	8.7	NW	0.14	10.4	-47.7	732.4	0.037	0.000	10.4	76	1
08/03/19	1:00 p	-34.8	-34.8	-34.8	8.7	NW	0.14	10.4	-47.7	732.5	0.037	0.000	10.4	76	1
08/03/19	1:01 p	-34.8	-34.8	-34.8	7.8	WNW	0.13	8.7	-47.1	732.5	0.037	0.000	10.4	76	1
08/03/19	1:02 p	-34.8	-34.8	-34.8	7.8	NW	0.13	8.7	-47.0	732.5	0.037	0.000	10.4	76	1
08/03/19	1:03 p	-34.8	-34.8	-34.8	7.8	NW	0.13	8.7	-47.1	732.4	0.037	0.000	10.4	76	1
08/03/19	1:04 p	-34.8	-34.8	-34.8	8.7	NW	0.14	11.3	-47.7	732.4	0.037	0.000	10.4	76	1
08/03/19	1:05 p	-34.8	-34.8	-34.8	7.8	NW	0.13	8.7	-47.0	732.4	0.037	0.000	10.4	76	1
08/03/19	1:06 p	-34.8	-34.8	-34.8	7.0	NW	0.12	7.8	-46.3	732.4	0.037	0.000	10.4	76	1
08/03/19	1:07 p	-34.8	-34.8	-34.8	7.0	WNW	0.12	7.8	-46.3	732.4	0.037	0.000	10.4	76	1
08/03/19	1:08 p	-34.8	-34.8	-34.8	7.8	WNW	0.13	8.7	-47.0	732.3	0.037	0.000	10.4	76	1
08/03/19	1:09 p	-34.8	-34.8	-34.9	8.7	NW	0.14	10.4	-47.7	732.4	0.037	0.000	10.4	76	1
08/03/19	1:10 p	-34.8	-34.7	-34.9	8.7	NW	0.14	10.4	-47.7	732.4	0.037	0.000	10.4	76	1
08/03/19	1:11 p	-34.7	-34.7	-34.8	7.8	NW	0.13	9.6	-46.9	732.4	0.037	0.000	10.4	76	1
08/03/19	1:12 p	-34.8	-34.7	-34.8	7.8	NW	0.13	8.7	-47.0	732.5	0.037	0.000	10.5	76	1
08/03/19	1:13 p	-34.8	-34.7	-34.8	8.7	NW	0.14	9.6	-47.7	732.4	0.037	0.000	10.5	76	1
08/03/19	1:14 p	-34.8	-34.8	-34.9	8.7	NW	0.14	9.6	-47.7	732.3	0.037	0.000	10.5	76	1
08/03/19	1:15 p	-34.8	-34.8	-34.8	7.0	NW	0.12	8.7	-46.3	732.3	0.037	0.000	10.5	76	1
08/03/19	1:16 p	-34.8	-34.7	-34.8	6.1	NW	0.10	7.0	-45.4	732.3	0.037	0.000	10.6	76	1
08/03/19	1:17 p	-34.8	-34.8	-34.8	6.1	NW	0.10	7.0	-45.4	732.4	0.037	0.000	10.6	76	1
08/03/19	1:18 p	-34.8	-34.8	-34.8	7.0	NW	0.12	7.8	-46.3	732.3	0.037	0.000	10.6	76	1
08/03/19	1:19 p	-34.8	-34.8	-34.8	7.8	NW	0.13	7.8	-47.1	732.3	0.037	0.000	10.6	76	1
08/03/19	1:20 p	-34.8	-34.8	-34.8	7.0	NW	0.12	7.0	-46.3	732.4	0.037	0.000	10.6	76	1
08/03/19	1:21 p	-34.8	-34.8	-34.8	6.1	WNW	0.10	7.0	-45.6	732.4	0.037	0.000	10.6	76	1
08/03/19	1:22 p	-34.8	-34.8	-34.8	5.2	WNW	0.09	6.1	-44.6	732.4	0.037	0.000	10.6	76	1
08/03/19	1:23 p	-34.8	-34.8	-34.8	6.1	NW	0.10	7.0	-45.6	732.4	0.037	0.000	10.6	76	1
08/03/19	1:24 p	-34.8	-34.8	-34.8	6.1	WNW	0.10	7.0	-45.6	732.4	0.037	0.000	10.6	76	1
08/03/19	1:25 p	-34.8	-34.8	-34.8	7.0	NW	0.12	7.0	-46.3	732.4	0.037	0.000	10.6	76	1
08/03/19	1:26 p	-34.8	-34.8	-34.8	7.0	NW	0.12	7.8	-46.3	732.4	0.037	0.000	10.7	76	1
08/03/19	1:27 p	-34.8	-34.8	-34.8	7.0	NW	0.12	7.8	-46.3	732.4	0.037	0.000	10.7	76	1
08/03/19	1:28 p	-34.9	-34.8	-34.9	6.1	NW	0.10	7.0	-45.6	732.3	0.037	0.000	10.7	76	1
08/03/19	1:29 p	-34.9	-34.8	-34.9	5.2	NW	0.09	6.1	-44.7	732.4	0.037	0.000	10.7	76	1
08/03/19	1:30 p	-34.8	-34.8	-34.8	5.2	NW	0.09	6.1	-44.6	732.3	0.037	0.000	10.7	76	1
08/03/19	1:31 p	-34.8	-34.8	-34.9	6.1	NW	0.10	7.0	-45.6	732.4	0.037	0.000	10.7	76	1
08/03/19	1:32 p	-34.9	-34.8	-34.9	6.1	NW	0.10	7.0	-45.6	732.3	0.037	0.000	10.7	76	1
08/03/19	1:33 p	-34.9	-34.9	-34.9	5.2	WNW	0.09	6.1	-44.7	732.4	0.037	0.000	10.7	76	1
08/03/19	1:34 p	-34.9	-34.9	-34.9	5.2	NW	0.09	7.0	-44.7	732.3	0.037	0.000	10.7	76	1
08/03/19	1:35 p	-34.9	-34.9	-34.9	6.1	NW	0.10	7.0	-45.7	732.3	0.037	0.000	10.7	76	1
08/03/19	1:36 p	-34.9	-34.9	-34.9	6.1	NW	0.10	7.0	-45.7	732.3	0.037	0.000	10.7	76	1
08/03/19	1:37 p	-34.9	-34.9	-34.9	7.0	NW	0.12	7.0	-46.5	732.4	0.037	0.000	10.7	76	1
08/03/19	1:38 p	-34.9	-34.9	-34.9	7.8	NW	0.13	8.7	-47.2	732.3	0.037	0.000	10.7	76	1
08/03/19	1:39 p	-34.9	-34.9	-34.9	7.8	NW	0.13	8.7	-47.2	732.4	0.037	0.000	10.7	76	1
08/03/19	1:40 p	-34.9	-34.9	-35.0	6.1	NW	0.10	7.8	-45.7	732.4	0.037	0.000	10.7	77	1
08/03/19	1:41 p	-34.9	-34.9	-35.0	6.1	NW	0.10	7.0	-45.7	732.4	0.037	0.000	10.7	76	1
08/03/19	1:42 p	-34.9	-34.9	-34.9	6.1	NW	0.10	7.0	-45.7	732.4	0.037	0.000	10.8	76	1
08/03/19	1:43 p	-34.9	-34.9	-34.9	6.1	NW	0.10	6.1	-45.7	732.4	0.037	0.000	10.8	76	1
08/03/19	1:44 p	-34.9	-34.9	-35.0	5.2	NW	0.09	6.1	-44.8	732.4	0.037	0.000	10.8	76	1
08/03/19	1:45 p	-34.9	-34.9	-35.0	5.2	WNW	0.09	5.2	-44.8	732.3	0.037	0.000	10.8	76	1
08/03/19	1:46 p	-35.0	-34.9	-35.1	5.2	WNW	0.09	6.1	-44.8	732.4	0.037	0.000	10.8	77	1
08/03/19	1:47 p	-35.1	-35.1	-35.1	5.2	WNW	0.09	6.1	-44.9	732.4	0.037	0.000	10.8	77	1
08/03/19	1:48 p	-35.1	-35.0	-35.1	5.2	WNW	0.09	6.1	-44.9	732.4	0.037	0.000	10.8	77	1
08/03/19	1:49 p	-35.0	-35.0	-35.1	5.2	WNW	0.09	5.2	-44.8	732.3	0.037	0.000	10.8	76	1
08/03/19	1:50 p	-35.0	-35.0	-35.0	4.3	WNW	0.07	5.2	-43.8	732.3	0.037	0.000	10.8	76	1
08/03/19	1:51 p	-35.0	-35.0	-35.1	5.2	WNW	0.09	5.2	-44.8	732.4	0.037	0.000	10.8	76	1
08/03/19	1:52 p	-35.1	-35.0	-35.1	5.2	WNW	0.09	6.1	-44.9	732.4	0.037	0.000	10.8	76	1
08/03/19	1:53 p	-35.1	-35.0	-35.1	6.1	NW	0.10	7.0	-45.8	732.4	0.037	0.000	10.8	76	1
08/03/19	1:54 p	-35.1	-35.0	-35.1	6.1	NW	0.10	7.0	-45.8	732.4	0.037	0.000	10.8	76	1
08/03/19	1:55 p	-35.1	-35.1	-35.1	6.1	NW	0.10	7.0	-45.9	732.4	0.037	0.000	10.8	77	1
08/03/19	1:56 p	-35.1	-35.1	-35.1	6.1	NW	0.10	6.1	-45.9	732.4	0.037	0.000	10.9	77	1
08/03/19	1:57 p	-35.0	-35.0	-35.1	6.1	NW	0.10	7.0	-45.7	732.4	0.037	0.000	10.9	76	1
08/03/19	1:58 p	-35.1	-35.1	-35.1	6.1	NW	0.10	7.0	-45.8	732.3	0.037	0.000	10.9	77	1
08/03/19	1:59 p	-35.1	-35.0	-35.1	7.0	NW	0.12	7.8	-46.6	732.3	0.037	0.000	10.9	77	1
08/03/19	2:00 p	-35.1	-35.0	-35.1	7.0	NW	0.12	8.7	-46.7	732.3	0.037	0.000	10.9	76	1
08/03/19	2:01 p	-35.1	-35.0	-35.1	8.7	NW	0.14	9.6	-48.0	732.3	0.037	0.000	10.9	76	1
08/03/19	2:02 p	-35.1	-35.0	-35.1	7.0	NW	0.12	8.7	-46.6	732.4	0.037	0.000	10.9	76	1
08/03/19	2:03 p	-35.1	-35.0	-35.2	7.0	NW	0.12	7.0	-46.6	732.3	0.037	0.000	10.9	77	1
08/03/19	2:04 p	-35.1	-35.1	-35.2	7.0	NW	0.12	7.8	-46.7	732.4	0.037	0.000	10.9	76	1
08/03/19	2:05 p	-35.1	-35.1	-35.1	6.1	NW	0.10	7.0	-45.8	732.4	0.037	0.000	10.9	76	1
08/03/19	2:06 p	-35.1	-35.1	-35.1	6.1	WNW	0.10	7.8	-45.9	732.4	0.037	0.000	10.9	77	1
08/03/19	2:07 p	-35.1	-35.1	-35.1	7.0	WNW	0.12	7.8	-46.7	732.4	0.037	0.000	10.9	76	1
08/03/19	2:08 p	-35.1	-35.0	-35.1	6.1	NW	0.10	7.0	-45.8	732.4	0.037	0.000	10.9	77	1
08/03/19	2:09 p	-35.1	-35.1	-35.1	6.1	NW	0.10	7.0	-45.9	732.4	0.037	0.000	10.9	77	1
08/03/19	2:10 p	-35.1	-35.0	-35.1	5.2	NW	0.09	6.1	-44.9	732.4	0.037	0.000	10.9	77	1
08/03/19	2:11 p	-35.1	-35.0	-35.1	6.1	WNW	0.10	7.0	-45.8	732.4	0.037	0.000	10.9	76	1
08/03/19	2:12 p	-35.0	-35.0	-35.1	7.0	WNW	0.12	7.8	-46.6	732.4	0.037	0.000	10.9	77	1
08/03/19	2:13 p	-35.1	-35.0	-35.1	6.1	NW	0.10	7.8	-45.8	732.4	0.037	0.000	10.9	76	1
08/03/19	2:14 p	-35.1	-35.0	-35.1	5.2	WNW	0.09	6.1	-44.9	732.5	0.037	0.000	10.9	77	1
08/03/19	2:15 p	-35.0	-35.0	-35.1	5.2	WNW	0.09	5.2	-44.8	732.4	0.037	0.000	10.9	76	1
08/03/19	2:16 p	-35.1	-35.0	-35.1	5.2	WNW	0.09	6.1	-44.9	732.5	0.037	0.000	11.0	76	1
08/03/19	2:17 p	-35.0	-35.0	-35.0	5.2	WNW	0.09	6.1	-44.8	732.5	0.037	0.000	11.0	76	1
08/03/19	2:18 p	-35.0	-35.0	-35.0	5.2	WNW	0.09	5.2	-44.8	732.5	0.037	0.000	11.0	76	1
08/03/19	2:19 p	-35.1	-35.0	-35.1	4.3	WNW	0.07	5.2	-43.8	732.5	0.037	0.000	11.0	77	1
08/03/19	2:20 p	-35.1	-35.0	-35.1	4.3	WNW	0.07	5.2	-43.8	732.5	0.037	0.000	11.0	76	1
08/03/19	2:21 p	-35.1	-35.0	-35.1	5.2	NW	0.09	6.1	-44.9	732.5	0.037	0.000	11.0	77	1
08/03/19	2:22 p	-35.1	-35.1	-35.1	5.2	NW	0.09	6.1	-44.9	732.4	0.037	0.000	11.0	76	1
08/03/19	2:23 p	-35.1	-35.1	-35.1	5.2	NW	0.09	6.1	-44.9	732.4	0.037	0.000	11.0	77	1
08/03/19	2:24 p	-35.1	-35.1	-35.1	5.2	NW	0.09	6.1	-44.9	732.5	0.037	0.000	11.1	77	1
08/03/19	2:25 p	-35.1	-35.1	-35.1	5.2	NW	0.09	7.8	-44.9	732.4	0.037	0.000	11.1	76	1
08/03/19	2:26 p	-35.1	-35.1	-35.1	8.7	NW	0.14	9.6	-48.1	732.4	0.037	0.000	11.1	77	1
08/03/19	2:27 p	-35.1	-35.1	-35.1	7.0	NW	0.12	8.7	-46.7	732.5	0.037	0.000	11.1	77	1
08/03/19	2:28 p	-35.1	-35.1	-35.1	7.0	NW	0.12	7.8	-46.7	732.5	0.037	0.000	11.1	77	1
08/03/19	2:29 p	-35.1	-35.1	-35.1	7.0	NW	0.12	8.7	-46.7	732.5	0.037	0.000	11.1	76	1
08/03/19	2:30 p	-35.1	-35.1	-35.1	7.0	NW	0.12	7.8	-46.7	732.5	0.037	0.000	11.1	77	1
08/03/19	2:31 p	-35.1	-35.1	-35.1	6.1	NW	0.10	7.0	-45.9	732.5	0.037	0.000	11.1	77	1
08/03/19	2:32 p	-35.1	-35.1	-35.1	6.1	NW	0.10	7.0	-45.9	732.4	0.037	0.000	11.1	76	1
08/03/19	2:33 p	-35.1	-35.1	-35.1	6.1	NW	0.10	7.0	-45.8	732.4	0.037	0.000	11.1	76	1
08/03/19	2:34 p	-35.1	-35.1	-35.1	7.0	NW	0.12	7.8	-46.6	732.4	0.037	0.000	11.1	76	1
08/03/19	2:35 p	-35.1	-35.1	-35.1	6.1	NW	0.10	7.0	-45.8	732.4	0.037	0.000	11.1	76	1
08/03/19	2:36 p	-35.1	-35.1	-35.1	7.0	NW	0.12	7.8	-46.6	732.4	0.037	0.000	11.1	76	1
08/03/19	2:37 p	-35.1	-35.1	-35.1	6.1	NW	0.10	7.0	-45.9	732.5	0.037	0.000	11.1	76	1
08/03/19	2:38 p	-35.1	-35.0	-35.1	6.1	NW	0.10	7.0	-45.9	732.5	0.037	0.000	11.1	76	1
08/03/19	2:39 p	-35.1	-35.0	-35.1	7.0	NW	0.12	7.8	-46.6	732.5	0.037	0.000	11.1	76	1
08/03/19	2:40 p	-35.1	-35.0	-35.1	7.0	NW	0.12	7.8	-46.6	732.6	0.037	0.000	11.1	76	1
08/03/19	2:41 p	-35.1	-35.1	-35.1	6.1	NW	0.10	7.0	-45.9	732.6	0.037	0.000	11.1	77	1
08/03/19	2:42 p	-35.1	-35.0	-35.1	5.2	NW	0.09	6.1	-44.9	732.6	0.037	0.000	11.1	76	1
08/03/19	2:43 p	-35.1	-35.0	-35.1	5.2	NW	0.09	6.1	-44.9	732.7	0.037	0.000	11.1	76	1
08/03/19	2:44 p	-35.1	-35.1	-35.1	5.2	NW	0.09	6.1	-44.9	732.7	0.037	0.000	11.1	76	1
08/03/19	2:45 p	-35.0	-35.0	-35.1	5.2	NW	0.09	5.2	-44.8	732.6	0.037	0.000	11.1	76	1
08/03/19	2:46 p	-35.1	-35.0	-35.1	4.3	NW	0.07	5.2	-43.8	732.6	0.037	0.000	11.1	76	1
08/03/19	2:47 p	-35.1	-35.0	-35.1	5.2	NW	0.09	6.1	-44.9	732.5	0.037	0.000	11.2	76	1
08/03/19	2:48 p	-35.0	-35.0	-35.1	5.2	NW	0.09	6.1	-44.8	732.6	0.037	0.000	11.2	76	1
08/03/19	2:49 p	-35.1	-35.0	-35.1	6.1	WNW	0.10	6.1	-45.8	732.5	0.037	0.000	11.2	77	1
08/03/19	2:50 p	-35.1	-35.1	-35.1	5.2	WNW	0.09	6.1	-44.9	732.6	0.037	0.000	11.2	76	1
08/03/19	2:51 p	-35.0	-35.0	-35.0	4.3	NW	0.07	5.2	-43.8	732.6	0.037	0.000	11.2	76	1
08/03/19	2:52 p	-35.1	-35.0	-35.1	4.3	NW	0.07	5.2	-43.8	732.5	0.037	0.000	11.2	76	1
08/03/19	2:53 p	-35.1	-35.1	-35.1	4.3	NW	0.07	5.2	-43.8	732.5	0.037	0.000	11.2	77	1
08/03/19	2:54 p	-35.1	-35.0	-35.1	5.2	NW	0.09	5.2	-44.9	732.6	0.037	0.000	11.2	77	1
08/03/19	2:55 p	-35.0	-35.0	-35.1	4.3	NW	0.07	5.2	-43.8	732.5	0.037	0.000	11.2	76	1
08/03/19	2:56 p	-35.0	-35.0	-35.1	4.3	NW	0.07	4.3	-43.8	732.5	0.037	0.000	11.2	76	1
08/03/19	2:57 p	-35.1	-35.0	-35.1	4.3	NW	0.07	5.2	-43.8	732.5	0.037	0.000	11.2	76	1
08/03/19	2:58 p	-35.1	-35.0	-35.1	4.3	NW	0.07	5.2	-43.8	732.4	0.037	0.000	11.2	76	1
08/03/19	2:59 p	-35.1	-35.0	-35.1	4.3	NW	0.07	5.2	-43.8	732.4	0.037	0.000	11.2	76	1
08/03/19	3:00 p	-35.1	-35.0	-35.1	5.2	NW	0.09	6.1	-44.9	732.4	0.037	0.000	11.2	76	1
08/03/19	3:01 p	-35.0	-35.0	-35.0	5.2	NW	0.09	6.1	-44.8	732.4	0.037	0.000	11.2	76	1
08/03/19	3:02 p	-35.0	-35.0	-35.1	4.3	NW	0.07	6.1	-43.8	732.4	0.037	0.000	11.2	76	1
08/03/19	3:03 p	-35.1	-35.0	-35.1	4.3	NW	0.07	5.2	-43.8	732.3	0.037	0.000	11.2	76	1
08/03/19	3:04 p	-35.0	-35.0	-35.1	4.3	NW	0.07	5.2	-43.8	732.4	0.037	0.000	11.2	76	1
08/03/19	3:05 p	-35.1	-35.0	-35.1	5.2	NW	0.09	5.2	-44.9	732.4	0.037	0.000	11.2	76	1
08/03/19	3:07 p	-35.0	-35.0	-35.1	6.1	NW	0.10	7.0	-45.7	732.5	0.037	0.000	11.3	76	1
08/03/19	3:08 p	-35.0	-35.0	-35.1	5.2	NW	0.09	6.1	-44.8	732.4	0.037	0.000	11.3	76	1
08/03/19	3:09 p	-35.1	-35.0	-35.1	5.2	NW	0.09	5.2	-44.9	732.4	0.037	0.000	11.3	76	1
08/03/19	3:10 p	-35.0	-34.9	-35.1	4.3	NW	0.07	6.1	-43.8	732.4	0.037	0.000	11.3	76	1
08/03/19	3:11 p	-35.0	-35.0	-35.1	5.2	NW	0.09	5.2	-44.8	732.4	0.037	0.000	11.3	76	1
08/03/19	3:12 p	-35.0	-35.0	-35.0	4.3	NW	0.07	5.2	-43.8	732.3	0.037	0.000	11.3	76	1
08/03/19	3:13 p	-35.0	-35.0	-35.0	5.2	NW	0.09	5.2	-44.8	732.4	0.037	0.000	11.3	76	1
08/03/19	3:14 p	-34.9	-34.9	-34.9	4.3	NW	0.07	5.2	-43.7	732.4	0.037	0.000	11.3	76	1
08/03/19	3:15 p	-35.0	-34.9	-35.0	4.3	NW	0.07	5.2	-43.8	732.5	0.037	0.000	11.3	76	1
08/03/19	3:16 p	-34.9	-34.9	-34.9	3.5	NW	0.06	4.3	-42.5	732.5	0.037	0.000	11.3	76	1
08/03/19	3:17 p	-35.0	-34.9	-35.0	4.3	NW	0.07	4.3	-43.8	732.5	0.037	0.000	11.3	76	1
08/03/19	3:18 p	-35.0	-34.9	-35.0	3.5	NW	0.06	4.3	-42.6	732.5	0.037	0.000	11.3	76	1
08/03/19	3:19 p	-35.0	-35.0	-35.0	3.5	NW	0.06	4.3	-42.6	732.5	0.037	0.000	11.3	76	1
08/03/19	3:20 p	-35.0	-35.0	-35.0	4.3	NW	0.07	5.2	-43.8	732.5	0.037	0.000	11.3	76	1
08/03/19	3:21 p	-35.0	-34.9	-35.0	4.3	NW	0.07	5.2	-43.8	732.6	0.037	0.000	11.3	76	1
08/03/19	3:22 p	-35.0	-35.0	-35.0	4.3	NW	0.07	4.3	-43.8	732.5	0.037	0.000	11.3	76	1
08/03/19	3:23 p	-34.9	-34.9	-35.0	4.3	NW	0.07	5.2	-43.7	732.6	0.037	0.000	11.4	76	1
08/03/19	3:24 p	-34.9	-34.9	-34.9	4.3	NW	0.07	5.2	-43.7	732.5	0.037	0.000	11.4	76	1
08/03/19	3:25 p	-34.9	-34.9	-34.9	3.5	NW	0.06	4.3	-42.5	732.5	0.037	0.000	11.4	76	1
08/03/19	3:26 p	-34.9	-34.9	-34.9	3.5	NW	0.06	4.3	-42.5	732.5	0.037	0.000	11.4	76	1
08/03/19	3:27 p	-34.9	-34.9	-34.9	4.3	NW	0.07	4.3	-43.7	732.5	0.037	0.000	11.4	76	1
08/03/19	3:28 p	-34.9	-34.9	-34.9	3.5	NW	0.06	4.3	-42.5	732.4	0.037	0.000	11.4	76	1
08/03/19	3:29 p	-34.9	-34.9	-34.9	2.6	NW	0.04	3.5	-40.9	732.4	0.037	0.000	11.4	76	1
08/03/19	3:30 p	-34.9	-34.9	-34.9	2.6	NW	0.04	3.5	-40.9	732.4	0.037	0.000	11.4	76	1
08/03/19	3:31 p	-34.9	-34.9	-34.9	3.5	NW	0.06	4.3	-42.5	732.5	0.037	0.000	11.4	76	1
08/03/19	3:32 p	-34.9	-34.9	-34.9	3.5	NW	0.06	4.3	-42.4	732.5	0.037	0.000	11.4	76	1
08/03/19	3:33 p	-34.9	-34.9	-34.9	3.5	NW	0.06	4.3	-42.4	732.5	0.037	0.000	11.4	76	1
08/03/19	3:34 p	-34.9	-34.8	-34.9	3.5	NW	0.06	4.3	-42.4	732.5	0.037	0.000	11.4	76	1
08/03/19	3:35 p	-34.9	-34.9	-34.9	3.5	NW	0.06	4.3	-42.4	732.5	0.037	0.000	11.4	76	1
08/03/19	3:36 p	-34.9	-34.9	-34.9	3.5	NW	0.06	4.3	-42.4	732.5	0.037	0.000	11.4	76	1
08/03/19	3:37 p	-34.9	-34.8	-34.9	3.5	NW	0.06	4.3	-42.4	732.5	0.037	0.000	11.4	76	1
08/03/19	3:38 p	-34.9	-34.8	-34.9	5.2	NW	0.09	6.1	-44.7	732.6	0.037	0.000	11.4	76	1
08/03/19	3:39 p	-34.8	-34.8	-34.8	6.1	NNW	0.10	7.0	-45.6	732.6	0.037	0.000	11.4	76	1
08/03/19	3:40 p	-34.8	-34.8	-34.9	5.2	NNW	0.09	6.1	-44.6	732.6	0.037	0.000	11.4	75	1
08/03/19	3:41 p	-34.8	-34.8	-34.9	4.3	NNW	0.07	5.2	-43.6	732.7	0.037	0.000	11.4	75	1
08/03/19	3:42 p	-34.8	-34.8	-34.8	4.3	NNW	0.07	7.0	-43.6	732.7	0.037	0.000	11.4	75	1
08/03/19	3:43 p	-34.8	-34.8	-34.8	7.0	N	0.12	7.8	-46.3	732.7	0.037	0.000	11.4	75	1
08/03/19	3:44 p	-34.8	-34.8	-34.9	5.2	NNW	0.09	7.0	-44.6	732.8	0.037	0.000	11.4	76	1
08/03/19	3:45 p	-34.8	-34.8	-34.8	6.1	N	0.10	7.0	-45.6	732.7	0.037	0.000	11.4	76	1
08/03/19	3:46 p	-34.8	-34.8	-34.8	6.1	N	0.10	7.8	-45.4	732.7	0.037	0.000	11.5	76	1
08/03/19	3:47 p	-34.8	-34.7	-34.8	7.0	N	0.12	8.7	-46.3	732.6	0.037	0.000	11.5	75	1
08/03/19	3:48 p	-34.8	-34.7	-34.8	5.2	NNW	0.09	7.0	-44.6	732.7	0.037	0.000	11.5	75	1
08/03/19	3:49 p	-34.8	-34.7	-34.8	6.1	N	0.10	7.0	-45.4	732.6	0.037	0.000	11.5	75	1
08/03/19	3:50 p	-34.7	-34.7	-34.8	6.1	N	0.10	7.0	-45.4	732.6	0.037	0.000	11.5	75	1
08/03/19	3:51 p	-34.8	-34.7	-34.8	4.3	NNW	0.07	6.1	-43.6	732.6	0.037	0.000	11.5	75	1
08/03/19	3:52 p	-34.7	-34.7	-34.8	4.3	N	0.07	5.2	-43.4	732.6	0.037	0.000	11.5	75	1
08/03/19	3:53 p	-34.7	-34.7	-34.7	5.2	N	0.09	7.0	-44.5	732.6	0.037	0.000	11.5	75	1
08/03/19	3:54 p	-34.7	-34.7	-34.7	5.2	NNW	0.09	7.0	-44.5	732.7	0.037	0.000	11.5	75	1
08/03/19	3:55 p	-34.7	-34.6	-34.7	4.3	NW	0.07	5.2	-43.4	732.7	0.037	0.000	11.5	76	1
08/03/19	3:56 p	-34.7	-34.7	-34.7	3.5	NNW	0.06	5.2	-42.2	732.7	0.037	0.000	11.5	76	1
08/03/19	3:57 p	-34.7	-34.7	-34.7	3.5	NNW	0.06	4.3	-42.2	732.7	0.037	0.000	11.5	76	1
08/03/19	3:58 p	-34.6	-34.6	-34.7	1.7	NNW	0.03	2.6	-38.6	732.8	0.037	0.000	11.6	76	1
08/03/19	3:59 p	-34.7	-34.7	-34.7	2.6	NNW	0.04	4.3	-40.7	732.7	0.037	0.000	11.6	76	1
08/03/19	4:00 p	-34.7	-34.6	-34.7	3.5	N	0.06	4.3	-42.2	732.8	0.037	0.000	11.6	76	1
08/03/19	4:01 p	-34.6	-34.6	-34.7	4.3	NE	0.07	5.2	-43.3	732.7	0.037	0.000	11.6	76	1
08/03/19	4:02 p	-34.6	-34.6	-34.6	3.5	NE	0.06	5.2	-42.1	732.8	0.037	0.000	11.6	76	1
08/03/19	4:03 p	-34.6	-34.6	-34.6	5.2	N	0.09	6.1	-44.3	732.8	0.037	0.000	11.6	76	1
08/03/19	4:04 p	-34.6	-34.6	-34.6	5.2	N	0.09	6.1	-44.3	732.8	0.037	0.000	11.6	76	1
08/03/19	4:05 p	-34.6	-34.5	-34.6	5.2	N	0.09	6.1	-44.3	732.7	0.037	0.000	11.6	76	1
08/03/19	4:06 p	-34.5	-34.5	-34.6	5.2	N	0.09	5.2	-44.2	732.8	0.037	0.000	11.6	76	1
08/03/19	4:07 p	-34.5	-34.5	-34.6	4.3	N	0.07	6.1	-43.2	732.8	0.037	0.000	11.6	76	1
08/03/19	4:08 p	-34.5	-34.5	-34.6	5.2	N	0.09	7.0	-44.2	732.9	0.037	0.000	11.6	76	1
08/03/19	4:09 p	-34.5	-34.5	-34.5	4.3	N	0.07	5.2	-43.2	732.9	0.037	0.000	11.6	76	1
08/03/19	4:10 p	-34.5	-34.4	-34.6	5.2	N	0.09	6.1	-44.2	732.9	0.037	0.000	11.6	76	1
08/03/19	4:11 p	-34.5	-34.4	-34.6	4.3	N	0.07	5.2	-43.2	732.9	0.037	0.000	11.6	76	1
08/03/19	4:12 p	-34.5	-34.4	-34.5	5.2	N	0.09	5.2	-44.2	732.9	0.037	0.000	11.6	76	1
08/03/19	4:13 p	-34.4	-34.4	-34.4	5.2	N	0.09	5.2	-44.2	733.0	0.037	0.000	11.6	76	1
08/03/19	4:14 p	-34.4	-34.4	-34.4	5.2	N	0.09	6.1	-44.2	733.0	0.037	0.000	11.7	76	1
08/03/19	4:15 p	-34.4	-34.4	-34.5	5.2	NE	0.09	6.1	-44.2	733.1	0.037	0.000	11.6	76	1
08/03/19	4:16 p	-34.4	-34.4	-34.4	5.2	NE	0.09	6.1	-44.2	733.0	0.037	0.000	11.7	76	1
08/03/19	4:17 p	-34.5	-34.4	-34.5	5.2	NE	0.09	6.1	-44.2	733.1	0.037	0.000	11.7	76	1
08/03/19	4:18 p	-34.4	-34.4	-34.4	5.2	N	0.09	6.1	-44.2	733.0	0.037	0.000	11.7	76	1
08/03/19	4:19 p	-34.4	-34.4	-34.4	5.2	N	0.09	6.1	-44.1	733.0	0.037	0.000	11.7	76	1
08/03/19	4:20 p	-34.4	-34.4	-34.4	5.2	N	0.09	7.0	-44.2	733.0	0.037	0.000	11.7	76	1
08/03/19	4:21 p	-34.4	-34.4	-34.4	4.3	N	0.07	5.2	-43.1	732.9	0.037	0.000	11.7	76	1
08/03/19	4:22 p	-34.4	-34.4	-34.4	4.3	N	0.07	5.2	-43.1	733.0	0.037	0.000	11.7	76	1
08/03/19	4:23 p	-34.4	-34.4	-34.4	4.3	N	0.07	5.2	-43.1	733.0	0.037	0.000	11.7	76	1
08/03/19	4:24 p	-34.4	-34.4	-34.4	3.5	N	0.06	4.3	-41.8	733.0	0.037	0.000	11.7	76	1
08/03/19	4:25 p	-34.4	-34.4	-34.4	3.5	N	0.06	4.3	-41.8	733.0	0.037	0.000	11.7	76	1
08/03/19	4:26 p	-34.4	-34.3	-34.4	3.5	N	0.06	4.3	-41.8	732.9	0.037	0.000	11.7	76	1
08/03/19	4:27 p	-34.4	-34.3	-34.4	3.5	N	0.06	4.3	-41.8	733.0	0.037	0.000	11.7	76	1
08/03/19	4:28 p	-34.3	-34.3	-34.4	3.5	N	0.06	4.3	-41.8	732.9	0.037	0.000	11.7	76	1
08/03/19	4:29 p	-34.3	-34.3	-34.4	3.5	N	0.06	4.3	-41.8	733.0	0.037	0.000	11.7	76	1
08/03/19	4:30 p	-34.3	-34.3	-34.3	4.3	N	0.07	5.2	-43.0	733.0	0.037	0.000	11.7	76	1
08/03/19	4:31 p	-34.3	-34.3	-34.4	4.3	N	0.07	5.2	-43.0	733.0	0.037	0.000	11.7	76	1
08/03/19	4:32 p	-34.3	-34.3	-34.4	3.5	N	0.06	4.3	-41.8	733.1	0.037	0.000	11.7	76	1
08/03/19	4:33 p	-34.4	-34.3	-34.4	4.3	N	0.07	5.2	-43.1	733.1	0.037	0.000	11.7	76	1
08/03/19	4:34 p	-34.4	-34.3	-34.4	5.2	N	0.09	6.1	-44.1	733.0	0.037	0.000	11.7	76	1
08/03/19	4:35 p	-34.4	-34.3	-34.4	5.2	N	0.09	6.1	-44.1	733.1	0.037	0.000	11.7	76	1
08/03/19	4:36 p	-34.4	-34.4	-34.4	5.2	NE	0.09	6.1	-44.1	733.2	0.037	0.000	11.7	76	1
08/03/19	4:37 p	-34.3	-34.3	-34.3	5.2	NE	0.09	5.2	-44.1	733.1	0.037	0.000	11.7	76	1
08/03/19	4:38 p	-34.3	-34.3	-34.4	5.2	NE	0.09	5.2	-44.1	733.1	0.037	0.000	11.7	77	1
08/03/19	4:39 p	-34.3	-34.3	-34.3	4.3	NE	0.07	5.2	-43.0	733.1	0.037	0.000	11.8	76	1
08/03/19	4:40 p	-34.3	-34.3	-34.3	4.3	NE	0.07	4.3	-43.0	733.1	0.037	0.000	11.8	77	1
08/03/19	4:41 p	-34.3	-34.3	-34.3	3.5	NE	0.06	4.3	-41.8	733.1	0.037	0.000	11.8	76	1
08/03/19	4:42 p	-34.3	-34.3	-34.3	3.5	NE	0.06	4.3	-41.8	733.1	0.037	0.000	11.8	76	1
08/03/19	4:43 p	-34.3	-34.3	-34.3	2.6	NE	0.04	3.5	-40.3	733.0	0.037	0.000	11.8	76	1
08/03/19	4:44 p	-34.3	-34.3	-34.3	2.6	NE	0.04	3.5	-40.2	733.1	0.037	0.000	11.8	76	1
08/03/19	4:45 p	-34.3	-34.3	-34.3	2.6	NE	0.04	3.5	-40.3	733.1	0.037	0.000	11.8	76	1
08/03/19	4:46 p	-34.3	-34.3	-34.3	3.5	NNE	0.06	3.5	-41.8	733.2	0.037	0.000	11.8	76	1
08/03/19	4:47 p	-34.3	-34.3	-34.3	2.6	NE	0.04	3.5	-40.2	733.2	0.037	0.000	11.8	77	1
08/03/19	4:48 p	-34.3	-34.3	-34.3	1.7	NE	0.03	2.6	-38.3	733.2	0.037	0.000	11.8	76	1
08/03/19	4:49 p	-34.3	-34.3	-34.3	2.6	NE	0.04	2.6	-40.2	733.2	0.037	0.000	11.8	76	1
08/03/19	4:50 p	-34.3	-34.3	-34.3	2.6	NE	0.04	2.6	-40.2	733.2	0.037	0.000	11.8	76	1
08/03/19	4:51 p	-34.3	-34.3	-34.3	3.5	NE	0.06	4.3	-41.7	733.3	0.037	0.000	11.8	76	1
08/03/19	4:52 p	-34.3	-34.3	-34.3	2.6	NE	0.04	4.3	-40.2	733.3	0.037	0.000	11.8	76	1
08/03/19	4:53 p	-34.3	-34.3	-34.3	2.6	NE	0.04	3.5	-40.2	733.3	0.037	0.000	11.8	76	1
08/03/19	4:54 p	-34.3	-34.3	-34.3	2.6	NE	0.04	3.5	-40.2	733.4	0.037	0.000	11.8	76	1
08/03/19	4:55 p	-34.3	-34.3	-34.3	2.6	NE	0.04	3.5	-40.2	733.4	0.037	0.000	11.8	76	1
08/03/19	4:56 p	-34.3	-34.3	-34.3	1.7	NE	0.03	2.6	-38.2	733.3	0.037	0.000	11.8	76	1
08/03/19	4:57 p	-34.3	-34.2	-34.3	1.7	NE	0.03	2.6	-38.2	733.4	0.037	0.000	11.8	76	1
08/03/19	4:58 p	-34.2	-34.2	-34.2	1.7	NE	0.03	2.6	-38.1	733.5	0.036	0.000	11.8	76	1
08/03/19	4:59 p	-34.3	-34.2	-34.3	1.7	NE	0.03	2.6	-38.2	733.4	0.037	0.000	11.8	76	1
08/03/19	5:00 p	-34.3	-34.2	-34.3	1.7	NE	0.03	1.7	-38.2	733.4	0.037	0.000	11.8	76	1
08/03/19	5:01 p	-34.3	-34.2	-34.3	1.7	NE	0.03	2.6	-38.2	733.5	0.037	0.000	11.8	76	1
08/03/19	5:02 p	-34.2	-34.2	-34.2	0.9	NE	0.01	1.7	-35.0	733.4	0.036	0.000	11.8	76	1
08/03/19	5:03 p	-34.2	-34.2	-34.2	1.7	NE	0.03	2.6	-38.1	733.4	0.036	0.000	11.8	76	1
08/03/19	5:04 p	-34.2	-34.2	-34.2	1.7	NE	0.03	2.6	-38.1	733.4	0.036	0.000	11.8	77	1
08/03/19	5:05 p	-34.3	-34.2	-34.3	1.7	NE	0.03	2.6	-38.2	733.4	0.037	0.000	11.8	76	1
08/03/19	5:06 p	-34.2	-34.2	-34.3	1.7	NE	0.03	2.6	-38.1	733.4	0.036	0.000	11.9	76	1
08/03/19	5:07 p	-34.2	-34.2	-34.3	1.7	NE	0.03	2.6	-38.1	733.4	0.036	0.000	11.9	76	1
08/03/19	5:08 p	-34.2	-34.2	-34.2	1.7	NE	0.03	1.7	-38.1	733.4	0.036	0.000	11.9	76	1
08/03/19	5:09 p	-34.2	-34.2	-34.2	1.7	NE	0.03	1.7	-38.1	733.4	0.036	0.000	11.9	76	1
08/03/19	5:10 p	-34.2	-34.2	-34.2	1.7	NE	0.03	1.7	-38.1	733.5	0.036	0.000	11.9	76	1
08/03/19	5:11 p	-34.2	-34.2	-34.2	1.7	NE	0.03	1.7	-38.1	733.4	0.036	0.000	11.9	76	1
08/03/19	5:12 p	-34.2	-34.2	-34.2	1.7	NE	0.03	1.7	-38.1	733.5	0.036	0.000	11.9	76	1
08/03/19	5:13 p	-34.2	-34.2	-34.2	1.7	NE	0.03	1.7	-38.1	733.5	0.036	0.000	11.9	76	1
08/03/19	5:14 p	-34.2	-34.2	-34.2	1.7	NE	0.03	2.6	-38.1	733.5	0.036	0.000	11.9	76	1
08/03/19	5:15 p	-34.2	-34.2	-34.2	1.7	NE	0.03	1.7	-38.1	733.5	0.036	0.000	11.9	76	1
08/03/19	5:16 p	-34.2	-34.2	-34.2	0.9	NE	0.01	0.9	-34.9	733.5	0.036	0.000	11.9	76	1
08/03/19	5:17 p	-34.2	-34.2	-34.2	0.9	NE	0.01	1.7	-34.9	733.5	0.036	0.000	11.9	76	1
08/03/19	5:18 p	-34.2	-34.2	-34.2	0.9	NE	0.01	0.9	-34.9	733.5	0.036	0.000	11.9	76	1
08/03/19	5:19 p	-34.2	-34.2	-34.2	0.9	NE	0.01	1.7	-34.9	733.5	0.036	0.000	11.9	76	1
08/03/19	5:20 p	-34.2	-34.1	-34.2	0.9	NE	0.01	1.7	-34.9	733.5	0.036	0.000	12.0	76	1
08/03/19	5:21 p	-34.2	-34.2	-34.2	0.9	NE	0.01	1.7	-34.9	733.5	0.036	0.000	12.0	76	1
08/03/19	5:22 p	-34.2	-34.1	-34.2	0.9	NE	0.01	1.7	-34.9	733.5	0.036	0.000	12.0	76	1
08/03/19	5:23 p	-34.2	-34.1	-34.2	0.9	NE	0.01	1.7	-34.9	733.5	0.036	0.000	12.0	77	1
08/03/19	5:24 p	-34.1	-34.1	-34.1	0.9	NE	0.01	1.7	-34.9	733.5	0.036	0.000	12.0	76	1
08/03/19	5:25 p	-34.1	-34.1	-34.2	0.9	NE	0.01	1.7	-34.9	733.5	0.036	0.000	12.0	77	1
08/03/19	5:26 p	-34.1	-34.1	-34.1	0.9	NE	0.01	0.9	-34.9	733.6	0.036	0.000	12.0	76	1
08/03/19	5:27 p	-34.1	-34.1	-34.1	0.9	NE	0.01	0.9	-34.8	733.6	0.036	0.000	12.0	77	1
08/03/19	5:28 p	-34.1	-34.1	-34.1	0.0	NE	0.00	0.9	-34.0	733.6	0.036	0.000	12.0	77	1
08/03/19	5:29 p	-34.1	-34.1	-34.1	1.7	NE	0.03	2.6	-37.9	733.5	0.036	0.000	12.0	77	1
08/03/19	5:30 p	-34.1	-34.1	-34.1	2.6	E	0.04	3.5	-39.9	733.6	0.036	0.000	12.0	76	1
08/03/19	5:31 p	-34.1	-34.1	-34.1	3.5	E	0.06	5.2	-41.4	733.5	0.036	0.000	12.1	77	1
08/03/19	5:32 p	-34.1	-34.1	-34.1	5.2	ENE	0.09	6.1	-43.7	733.6	0.036	0.000	12.1	77	1
08/03/19	5:33 p	-34.1	-34.1	-34.1	5.2	ENE	0.09	6.1	-43.8	733.6	0.036	0.000	12.1	77	1
08/03/19	5:34 p	-34.1	-34.1	-34.1	5.2	E	0.09	6.1	-43.7	733.6	0.036	0.000	12.1	77	1
08/03/19	5:35 p	-34.1	-34.1	-34.1	3.5	E	0.06	4.3	-41.4	733.6	0.036	0.000	12.1	76	1
08/03/19	5:36 p	-34.1	-34.1	-34.1	4.3	ENE	0.07	4.3	-42.7	733.6	0.036	0.000	12.1	76	1
08/03/19	5:37 p	-34.1	-34.1	-34.1	4.3	ENE	0.07	5.2	-42.7	733.6	0.036	0.000	12.1	76	1
08/03/19	5:38 p	-34.1	-34.1	-34.1	4.3	E	0.07	4.3	-42.7	733.5	0.036	0.000	12.1	76	1
08/03/19	5:39 p	-34.1	-34.1	-34.1	3.5	E	0.06	4.3	-41.4	733.5	0.036	0.000	12.1	76	1
08/03/19	5:40 p	-34.1	-34.1	-34.1	4.3	E	0.07	4.3	-42.7	733.5	0.036	0.000	12.1	76	1
08/03/19	5:41 p	-34.1	-34.1	-34.1	4.3	E	0.07	5.2	-42.7	733.6	0.036	0.000	12.1	76	1
08/03/19	5:42 p	-34.1	-34.1	-34.1	4.3	E	0.07	4.3	-42.7	733.5	0.036	0.000	12.1	76	1
08/03/19	5:43 p	-34.1	-34.1	-34.1	4.3	E	0.07	5.2	-42.7	733.6	0.036	0.000	12.1	76	1
08/03/19	5:44 p	-34.1	-34.1	-34.1	4.3	E	0.07	4.3	-42.7	733.5	0.036	0.000	12.1	76	1
08/03/19	5:45 p	-34.1	-34.1	-34.1	4.3	E	0.07	4.3	-42.7	733.6	0.036	0.000	12.1	76	1
08/03/19	5:46 p	-34.1	-34.1	-34.1	3.5	E	0.06	4.3	-41.5	733.6	0.036	0.000	12.1	76	1
08/03/19	5:47 p	-34.1	-34.1	-34.2	3.5	E	0.06	4.3	-41.5	733.6	0.036	0.000	12.1	76	1
08/03/19	5:48 p	-34.2	-34.1	-34.2	3.5	E	0.06	4.3	-41.6	733.6	0.036	0.000	12.2	76	1
08/03/19	5:49 p	-34.1	-34.1	-34.1	3.5	E	0.06	4.3	-41.5	733.6	0.036	0.000	12.2	76	1
08/03/19	5:50 p	-34.1	-34.1	-34.2	3.5	E	0.06	4.3	-41.5	733.6	0.036	0.000	12.2	76	1
08/03/19	5:51 p	-34.1	-34.1	-34.2	2.6	E	0.04	3.5	-40.0	733.7	0.036	0.000	12.2	76	1
08/03/19	5:52 p	-34.2	-34.1	-34.2	2.6	E	0.04	2.6	-40.1	733.7	0.036	0.000	12.2	76	1
08/03/19	5:53 p	-34.2	-34.2	-34.2	1.7	E	0.03	2.6	-38.1	733.7	0.036	0.000	12.2	76	1
08/03/19	5:54 p	-34.2	-34.2	-34.2	2.6	E	0.04	2.6	-40.1	733.6	0.036	0.000	12.2	76	1
08/03/19	5:55 p	-34.2	-34.2	-34.2	2.6	E	0.04	2.6	-40.2	733.6	0.036	0.000	12.2	76	1
08/03/19	5:56 p	-34.2	-34.2	-34.2	1.7	E	0.03	2.6	-38.1	733.6	0.036	0.000	12.2	76	1
08/03/19	5:57 p	-34.2	-34.2	-34.2	1.7	E	0.03	1.7	-38.1	733.7	0.036	0.000	12.2	76	1
08/03/19	5:58 p	-34.2	-34.2	-34.2	0.9	E	0.01	1.7	-35.0	733.6	0.036	0.000	12.2	76	1
08/03/19	5:59 p	-34.2	-34.2	-34.2	0.9	E	0.01	1.7	-35.0	733.6	0.036	0.000	12.2	76	1
08/03/19	6:00 p	-34.2	-34.2	-34.2	1.7	E	0.03	2.6	-38.1	733.6	0.036	0.000	12.2	76	1
08/03/19	6:01 p	-34.2	-34.2	-34.3	2.6	E	0.04	2.6	-40.2	733.6	0.036	0.000	12.2	76	1
08/03/19	6:02 p	-34.2	-34.2	-34.2	1.7	E	0.03	1.7	-38.1	733.6	0.036	0.000	12.2	76	1
08/03/19	6:03 p	-34.2	-34.2	-34.2	1.7	E	0.03	2.6	-38.1	733.6	0.036	0.000	12.2	76	1
08/03/19	6:04 p	-34.3	-34.2	-34.3	1.7	E	0.03	1.7	-38.2	733.6	0.037	0.000	12.2	76	1
08/03/19	6:05 p	-34.2	-34.2	-34.2	1.7	E	0.03	1.7	-38.1	733.7	0.036	0.000	12.3	76	1
08/03/19	6:07 p	-34.2	-34.2	-34.3	1.7	E	0.03	1.7	-38.1	733.6	0.036	0.000	12.3	76	1
08/03/19	6:08 p	-34.3	-34.2	-34.3	0.9	E	0.01	1.7	-35.1	733.6	0.037	0.000	12.3	75	1
08/03/19	6:09 p	-34.3	-34.2	-34.3	0.9	E	0.01	0.9	-35.1	733.7	0.037	0.000	12.3	76	1
08/03/19	6:10 p	-34.3	-34.2	-34.3	0.9	E	0.01	1.7	-35.1	733.6	0.037	0.000	12.3	75	1
08/03/19	6:11 p	-34.3	-34.3	-34.3	0.9	E	0.01	1.7	-35.1	733.7	0.037	0.000	12.3	76	1
08/03/19	6:12 p	-34.3	-34.2	-34.3	0.9	E	0.01	1.7	-35.1	733.6	0.037	0.000	12.3	76	1
08/03/19	6:13 p	-34.3	-34.3	-34.3	1.7	E	0.03	1.7	-38.2	733.7	0.037	0.000	12.3	76	1
08/03/19	6:14 p	-34.3	-34.2	-34.3	1.7	E	0.03	2.6	-38.2	733.8	0.037	0.000	12.3	75	1
08/03/19	6:15 p	-34.3	-34.2	-34.3	2.6	E	0.04	2.6	-40.2	733.7	0.037	0.000	12.3	75	1
08/03/19	6:16 p	-34.3	-34.2	-34.3	1.7	E	0.03	2.6	-38.2	733.7	0.037	0.000	12.3	75	1
08/03/19	6:17 p	-34.2	-34.2	-34.3	1.7	E	0.03	1.7	-38.1	733.7	0.036	0.000	12.3	76	1
08/03/19	6:18 p	-34.3	-34.3	-34.3	0.9	E	0.01	1.7	-35.1	733.7	0.037	0.000	12.3	75	1
08/03/19	6:19 p	-34.3	-34.3	-34.3	0.9	E	0.01	1.7	-35.1	733.8	0.037	0.000	12.3	75	1
08/03/19	6:20 p	-34.3	-34.2	-34.3	0.9	E	0.01	1.7	-35.1	733.7	0.037	0.000	12.3	75	1
08/03/19	6:21 p	-34.3	-34.3	-34.3	0.9	E	0.01	0.9	-35.1	733.7	0.037	0.000	12.3	75	1
08/03/19	6:22 p	-34.2	-34.2	-34.2	0.9	E	0.01	1.7	-35.0	733.8	0.036	0.000	12.4	75	1
08/03/19	6:23 p	-34.2	-34.2	-34.2	0.9	E	0.01	0.9	-35.0	733.8	0.036	0.000	12.4	75	1
08/03/19	6:24 p	-34.2	-34.2	-34.3	0.9	E	0.01	0.9	-35.0	733.8	0.036	0.000	12.4	76	1
08/03/19	6:25 p	-34.3	-34.2	-34.3	0.9	E	0.01	1.7	-35.1	733.8	0.037	0.000	12.4	75	1
08/03/19	6:26 p	-34.2	-34.2	-34.2	1.7	E	0.03	1.7	-38.1	733.8	0.036	0.000	12.4	75	1
08/03/19	6:27 p	-34.2	-34.2	-34.2	1.7	E	0.03	2.6	-38.1	733.8	0.036	0.000	12.4	75	1
08/03/19	6:28 p	-34.2	-34.2	-34.2	1.7	E	0.03	2.6	-38.1	733.8	0.036	0.000	12.4	76	1
08/03/19	6:29 p	-34.2	-34.2	-34.2	1.7	E	0.03	2.6	-38.1	733.9	0.036	0.000	12.4	76	1
08/03/19	6:30 p	-34.2	-34.2	-34.2	2.6	E	0.04	3.5	-40.2	733.8	0.036	0.000	12.4	76	1
08/03/19	6:31 p	-34.2	-34.2	-34.2	2.6	E	0.04	3.5	-40.2	733.8	0.036	0.000	12.4	76	1
08/03/19	6:32 p	-34.2	-34.2	-34.2	3.5	E	0.06	3.5	-41.7	733.9	0.036	0.000	12.4	76	1
08/03/19	6:33 p	-34.2	-34.2	-34.2	2.6	E	0.04	3.5	-40.1	733.9	0.036	0.000	12.4	76	1
08/03/19	6:34 p	-34.2	-34.2	-34.2	2.6	E	0.04	3.5	-40.1	733.8	0.036	0.000	12.4	76	1
08/03/19	6:35 p	-34.2	-34.2	-34.2	2.6	E	0.04	3.5	-40.2	733.9	0.036	0.000	12.4	76	1
08/03/19	6:36 p	-34.2	-34.2	-34.2	3.5	E	0.06	4.3	-41.7	733.9	0.036	0.000	12.4	76	1
08/03/19	6:37 p	-34.2	-34.2	-34.2	4.3	E	0.07	5.2	-42.9	733.9	0.036	0.000	12.4	76	1
08/03/19	6:38 p	-34.2	-34.2	-34.2	4.3	E	0.07	5.2	-42.9	733.9	0.036	0.000	12.4	76	1
08/03/19	6:39 p	-34.2	-34.2	-34.2	5.2	E	0.09	5.2	-43.9	733.9	0.036	0.000	12.4	76	1
08/03/19	6:40 p	-34.3	-34.3	-34.3	5.2	E	0.09	6.1	-43.9	734.0	0.037	0.000	12.4	76	1
08/03/19	6:41 p	-34.2	-34.2	-34.3	5.2	ENE	0.09	7.0	-43.9	734.0	0.036	0.000	12.5	76	1
08/03/19	6:42 p	-34.3	-34.3	-34.3	7.0	ENE	0.12	7.8	-45.7	733.9	0.037	0.000	12.5	76	1
08/03/19	6:43 p	-34.3	-34.3	-34.3	6.1	ENE	0.10	7.0	-44.9	734.0	0.037	0.000	12.5	76	1
08/03/19	6:44 p	-34.3	-34.3	-34.3	6.1	ENE	0.10	6.1	-44.9	734.0	0.037	0.000	12.5	76	1
08/03/19	6:45 p	-34.3	-34.3	-34.3	5.2	ENE	0.09	6.1	-44.1	734.0	0.037	0.000	12.5	76	1
08/03/19	6:46 p	-34.3	-34.3	-34.4	4.3	ENE	0.07	6.1	-43.0	734.0	0.037	0.000	12.5	76	1
08/03/19	6:47 p	-34.3	-34.3	-34.3	3.5	E	0.06	5.2	-41.8	734.0	0.037	0.000	12.5	75	1
08/03/19	6:48 p	-34.3	-34.3	-34.3	5.2	ENE	0.09	6.1	-44.1	733.9	0.037	0.000	12.5	76	1
08/03/19	6:49 p	-34.4	-34.4	-34.4	4.3	ENE	0.07	5.2	-43.1	734.1	0.037	0.000	12.5	75	1
08/03/19	6:50 p	-34.4	-34.4	-34.4	3.5	ENE	0.06	4.3	-41.8	734.0	0.037	0.000	12.6	76	1
08/03/19	6:51 p	-34.4	-34.4	-34.4	4.3	ENE	0.07	5.2	-43.1	734.0	0.037	0.000	12.6	76	1
08/03/19	6:52 p	-34.4	-34.4	-34.5	3.5	ENE	0.06	4.3	-41.9	734.0	0.037	0.000	12.6	76	1
08/03/19	6:53 p	-34.4	-34.4	-34.4	1.7	ENE	0.03	2.6	-38.4	734.1	0.037	0.000	12.6	76	1
08/03/19	6:54 p	-34.4	-34.4	-34.5	1.7	ENE	0.03	3.5	-38.4	734.0	0.037	0.000	12.6	76	1
08/03/19	6:55 p	-34.5	-34.4	-34.5	2.6	ENE	0.04	3.5	-40.4	734.0	0.037	0.000	12.6	76	1
08/03/19	6:56 p	-34.5	-34.4	-34.6	2.6	ENE	0.04	3.5	-40.4	734.1	0.037	0.000	12.6	76	1
08/03/19	6:57 p	-34.5	-34.5	-34.5	2.6	ENE	0.04	3.5	-40.4	734.1	0.037	0.000	12.6	75	1
08/03/19	6:58 p	-34.5	-34.5	-34.6	2.6	ENE	0.04	3.5	-40.4	734.1	0.037	0.000	12.6	75	1
08/03/19	6:59 p	-34.6	-34.6	-34.6	2.6	ENE	0.04	3.5	-40.5	734.1	0.037	0.000	12.6	75	1
08/03/19	7:00 p	-34.6	-34.6	-34.6	2.6	ENE	0.04	3.5	-40.5	734.1	0.037	0.000	12.6	75	1
08/03/19	7:01 p	-34.6	-34.6	-34.6	3.5	ENE	0.06	4.3	-42.1	734.1	0.037	0.000	12.6	76	1
08/03/19	7:02 p	-34.6	-34.6	-34.6	4.3	E	0.07	5.2	-43.3	734.1	0.037	0.000	12.6	76	1
08/03/19	7:03 p	-34.6	-34.6	-34.6	4.3	E	0.07	6.1	-43.3	734.2	0.037	0.000	12.6	76	1
08/03/19	7:04 p	-34.6	-34.6	-34.7	4.3	E	0.07	6.1	-43.3	734.1	0.037	0.000	12.6	76	1
08/03/19	7:05 p	-34.7	-34.6	-34.7	4.3	E	0.07	5.2	-43.4	734.2	0.037	0.000	12.6	76	1
08/03/19	7:06 p	-34.7	-34.6	-34.7	4.3	E	0.07	5.2	-43.4	734.2	0.037	0.000	12.6	76	1
08/03/19	7:07 p	-34.7	-34.6	-34.7	4.3	E	0.07	5.2	-43.4	734.2	0.037	0.000	12.7	76	1
08/03/19	7:08 p	-34.7	-34.6	-34.7	4.3	E	0.07	4.3	-43.4	734.2	0.037	0.000	12.7	76	1
08/03/19	7:09 p	-34.7	-34.7	-34.7	3.5	E	0.06	4.3	-42.2	734.2	0.037	0.000	12.7	76	1
08/03/19	7:10 p	-34.7	-34.7	-34.7	3.5	E	0.06	4.3	-42.2	734.2	0.037	0.000	12.7	76	1
08/03/19	7:11 p	-34.7	-34.7	-34.7	3.5	E	0.06	4.3	-42.2	734.2	0.037	0.000	12.7	75	1
08/03/19	7:12 p	-34.7	-34.7	-34.7	3.5	ENE	0.06	4.3	-42.2	734.2	0.037	0.000	12.7	75	1
08/03/19	7:13 p	-34.7	-34.7	-34.7	3.5	ENE	0.06	4.3	-42.2	734.2	0.037	0.000	12.7	76	1
08/03/19	7:14 p	-34.7	-34.7	-34.7	3.5	ENE	0.06	4.3	-42.2	734.2	0.037	0.000	12.7	76	1
08/03/19	7:15 p	-34.7	-34.7	-34.7	2.6	ENE	0.04	3.5	-40.7	734.2	0.037	0.000	12.7	75	1
08/03/19	7:16 p	-34.7	-34.7	-34.8	2.6	ENE	0.04	3.5	-40.7	734.2	0.037	0.000	12.7	76	1
08/03/19	7:17 p	-34.8	-34.7	-34.8	1.7	ENE	0.03	2.6	-38.7	734.3	0.037	0.000	12.7	76	1
08/03/19	7:18 p	-34.7	-34.7	-34.7	1.7	ENE	0.03	1.7	-38.7	734.3	0.037	0.000	12.7	76	1
08/03/19	7:19 p	-34.7	-34.7	-34.7	0.9	ENE	0.01	1.7	-35.5	734.3	0.037	0.000	12.7	76	1
08/03/19	7:20 p	-34.7	-34.7	-34.7	0.9	ENE	0.01	0.9	-35.5	734.3	0.037	0.000	12.7	76	1
08/03/19	7:21 p	-34.7	-34.7	-34.7	0.9	ENE	0.01	0.9	-35.5	734.4	0.037	0.000	12.7	75	1
08/03/19	7:22 p	-34.7	-34.7	-34.7	0.9	ENE	0.01	0.9	-35.5	734.3	0.037	0.000	12.7	75	1
08/03/19	7:23 p	-34.7	-34.7	-34.7	0.9	ENE	0.01	0.9	-35.5	734.2	0.037	0.000	12.7	76	1
08/03/19	7:24 p	-34.8	-34.7	-34.8	0.9	ENE	0.01	0.9	-35.6	734.3	0.037	0.000	12.7	76	1
08/03/19	7:25 p	-34.7	-34.7	-34.8	0.9	ENE	0.01	1.7	-35.5	734.3	0.037	0.000	12.7	76	1
08/03/19	7:26 p	-34.7	-34.7	-34.7	1.7	ENE	0.03	1.7	-38.7	734.3	0.037	0.000	12.7	76	1
08/03/19	7:27 p	-34.7	-34.7	-34.7	1.7	ENE	0.03	2.6	-38.7	734.3	0.037	0.000	12.7	76	1
08/03/19	7:28 p	-34.7	-34.7	-34.7	1.7	ENE	0.03	1.7	-38.7	734.3	0.037	0.000	12.8	75	1
08/03/19	7:29 p	-34.7	-34.7	-34.7	1.7	ENE	0.03	1.7	-38.7	734.3	0.037	0.000	12.7	76	1
08/03/19	7:30 p	-34.7	-34.7	-34.7	1.7	ENE	0.03	1.7	-38.7	734.4	0.037	0.000	12.7	76	1
08/03/19	7:31 p	-34.7	-34.6	-34.7	1.7	ENE	0.03	1.7	-38.6	734.3	0.037	0.000	12.8	76	1
08/03/19	7:32 p	-34.7	-34.7	-34.7	1.7	ENE	0.03	1.7	-38.7	734.3	0.037	0.000	12.8	76	1
08/03/19	7:33 p	-34.7	-34.6	-34.7	1.7	ENE	0.03	2.6	-38.6	734.3	0.037	0.000	12.8	75	1
08/03/19	7:34 p	-34.6	-34.6	-34.6	1.7	ENE	0.03	2.6	-38.6	734.3	0.037	0.000	12.8	75	1
08/03/19	7:35 p	-34.7	-34.6	-34.7	2.6	ENE	0.04	2.6	-40.7	734.3	0.037	0.000	12.8	75	1
08/03/19	7:36 p	-34.6	-34.6	-34.6	2.6	ENE	0.04	2.6	-40.6	734.3	0.037	0.000	12.8	76	1
08/03/19	7:37 p	-34.6	-34.6	-34.6	2.6	ENE	0.04	2.6	-40.6	734.3	0.037	0.000	12.8	76	1
08/03/19	7:38 p	-34.6	-34.6	-34.6	1.7	ENE	0.03	2.6	-38.5	734.3	0.037	0.000	12.8	76	1
08/03/19	7:39 p	-34.6	-34.5	-34.6	1.7	ENE	0.03	2.6	-38.5	734.4	0.037	0.000	12.8	75	1
08/03/19	7:40 p	-34.5	-34.5	-34.6	1.7	ENE	0.03	1.7	-38.4	734.4	0.037	0.000	12.8	76	1
08/03/19	7:41 p	-34.5	-34.5	-34.6	1.7	ENE	0.03	1.7	-38.4	734.3	0.037	0.000	12.8	75	1
08/03/19	7:42 p	-34.5	-34.5	-34.5	1.7	ENE	0.03	1.7	-38.4	734.4	0.037	0.000	12.8	76	1
08/03/19	7:43 p	-34.5	-34.5	-34.5	1.7	ENE	0.03	2.6	-38.4	734.3	0.037	0.000	12.8	76	1
08/03/19	7:44 p	-34.5	-34.4	-34.5	1.7	ENE	0.03	2.6	-38.4	734.3	0.037	0.000	12.8	76	1
08/03/19	7:45 p	-34.5	-34.5	-34.5	1.7	ENE	0.03	2.6	-38.4	734.4	0.037	0.000	12.8	76	1
08/03/19	7:46 p	-34.5	-34.4	-34.5	1.7	ENE	0.03	2.6	-38.4	734.3	0.037	0.000	12.8	76	1
08/03/19	7:47 p	-34.4	-34.4	-34.5	1.7	ENE	0.03	3.5	-38.4	734.4	0.037	0.000	12.8	76	1
08/03/19	7:48 p	-34.4	-34.4	-34.4	1.7	ENE	0.03	2.6	-38.4	734.4	0.037	0.000	12.8	76	1
08/03/19	7:49 p	-34.4	-34.4	-34.4	3.5	ENE	0.06	4.3	-41.9	734.4	0.037	0.000	12.8	76	1
08/03/19	7:50 p	-34.4	-34.4	-34.4	5.2	ENE	0.09	6.1	-44.2	734.4	0.037	0.000	12.8	76	1
08/03/19	7:51 p	-34.4	-34.4	-34.4	4.3	ENE	0.07	5.2	-43.1	734.4	0.037	0.000	12.8	76	1
08/03/19	7:52 p	-34.4	-34.4	-34.4	4.3	NE	0.07	4.3	-43.1	734.4	0.037	0.000	12.9	76	1
08/03/19	7:53 p	-34.4	-34.4	-34.4	3.5	NE	0.06	4.3	-41.9	734.4	0.037	0.000	12.9	76	1
08/03/19	7:54 p	-34.4	-34.4	-34.4	2.6	NE	0.04	3.5	-40.4	734.4	0.037	0.000	12.9	76	1
08/03/19	7:55 p	-34.4	-34.4	-34.4	3.5	NE	0.06	3.5	-41.8	734.4	0.037	0.000	12.9	76	1
08/03/19	7:56 p	-34.4	-34.4	-34.4	3.5	NNE	0.06	4.3	-41.8	734.5	0.037	0.000	12.9	76	1
08/03/19	7:57 p	-34.4	-34.4	-34.4	3.5	NNE	0.06	3.5	-41.8	734.4	0.037	0.000	12.9	76	1
08/03/19	7:58 p	-34.4	-34.4	-34.4	3.5	NNE	0.06	4.3	-41.8	734.5	0.037	0.000	12.9	76	1
08/03/19	7:59 p	-34.3	-34.3	-34.4	3.5	NNE	0.06	4.3	-41.8	734.6	0.037	0.000	12.9	76	1
08/03/19	8:00 p	-34.3	-34.3	-34.3	4.3	NNE	0.07	4.3	-43.0	734.6	0.037	0.000	12.9	76	1
08/03/19	8:01 p	-34.3	-34.3	-34.3	4.3	NNE	0.07	4.3	-43.0	734.6	0.037	0.000	12.9	76	1
08/03/19	8:02 p	-34.3	-34.3	-34.3	4.3	NNE	0.07	5.2	-43.0	734.6	0.037	0.000	12.9	76	1
08/03/19	8:03 p	-34.3	-34.3	-34.3	4.3	NNE	0.07	5.2	-42.9	734.6	0.037	0.000	12.9	76	1
08/03/19	8:04 p	-34.3	-34.3	-34.3	5.2	NNE	0.09	5.2	-43.9	734.6	0.037	0.000	12.9	76	1
08/03/19	8:05 p	-34.3	-34.2	-34.3	5.2	NNE	0.09	5.2	-43.9	734.6	0.037	0.000	12.9	76	1
08/03/19	8:07 p	-34.2	-34.2	-34.3	4.3	NNE	0.07	5.2	-42.9	734.6	0.036	0.000	12.9	76	1
08/03/19	8:08 p	-34.2	-34.2	-34.2	4.3	N	0.07	5.2	-42.8	734.6	0.036	0.000	12.9	76	1
08/03/19	8:09 p	-34.2	-34.2	-34.2	4.3	N	0.07	5.2	-42.8	734.6	0.036	0.000	12.9	76	1
08/03/19	8:10 p	-34.2	-34.1	-34.2	4.3	N	0.07	5.2	-42.8	734.6	0.036	0.000	12.9	76	1
08/03/19	8:11 p	-34.2	-34.1	-34.2	4.3	N	0.07	5.2	-42.8	734.6	0.036	0.000	12.9	76	1
08/03/19	8:12 p	-34.2	-34.1	-34.2	4.3	N	0.07	5.2	-42.8	734.6	0.036	0.000	12.9	76	1
08/03/19	8:13 p	-34.1	-34.1	-34.2	4.3	N	0.07	5.2	-42.7	734.7	0.036	0.000	13.0	76	1
08/03/19	8:14 p	-34.1	-34.1	-34.1	4.3	N	0.07	4.3	-42.7	734.7	0.036	0.000	13.0	76	1
08/03/19	8:15 p	-34.1	-34.1	-34.1	3.5	N	0.06	4.3	-41.4	734.7	0.036	0.000	13.0	76	1
08/03/19	8:16 p	-34.1	-34.0	-34.1	4.3	N	0.07	5.2	-42.7	734.7	0.036	0.000	13.0	76	1
08/03/19	8:17 p	-34.1	-34.0	-34.1	4.3	N	0.07	4.3	-42.7	734.6	0.036	0.000	13.0	76	1
08/03/19	8:18 p	-34.0	-34.0	-34.1	4.3	N	0.07	5.2	-42.6	734.6	0.036	0.000	13.0	76	1
08/03/19	8:19 p	-34.1	-34.0	-34.1	3.5	N	0.06	4.3	-41.4	734.7	0.036	0.000	13.0	76	1
08/03/19	8:20 p	-34.0	-34.0	-34.1	4.3	N	0.07	4.3	-42.6	734.7	0.036	0.000	13.0	75	1
08/03/19	8:21 p	-34.0	-33.9	-34.0	4.3	N	0.07	5.2	-42.6	734.7	0.036	0.000	13.0	75	1
08/03/19	8:22 p	-33.9	-33.9	-33.9	3.5	N	0.06	4.3	-41.3	734.8	0.036	0.000	13.0	75	1
08/03/19	8:23 p	-34.0	-33.9	-34.0	3.5	N	0.06	3.5	-41.4	734.8	0.036	0.000	13.0	75	1
08/03/19	8:24 p	-33.9	-33.9	-33.9	3.5	N	0.06	3.5	-41.3	734.8	0.036	0.000	13.0	75	1
08/03/19	8:25 p	-33.9	-33.9	-33.9	4.3	N	0.07	5.2	-42.6	734.8	0.036	0.000	13.0	75	1
08/03/19	8:26 p	-33.9	-33.9	-33.9	4.3	N	0.07	6.1	-42.6	734.8	0.036	0.000	13.0	75	1
08/03/19	8:27 p	-33.9	-33.9	-33.9	4.3	NNE	0.07	5.2	-42.6	734.9	0.036	0.000	13.1	75	1
08/03/19	8:28 p	-33.9	-33.9	-33.9	4.3	NNE	0.07	5.2	-42.6	734.8	0.036	0.000	13.1	75	1
08/03/19	8:29 p	-33.9	-33.9	-34.0	5.2	NNE	0.09	5.2	-43.6	734.7	0.036	0.000	13.1	76	1
08/03/19	8:30 p	-33.9	-33.9	-33.9	4.3	N	0.07	5.2	-42.6	734.8	0.036	0.000	13.1	75	1
08/03/19	8:31 p	-33.9	-33.9	-33.9	4.3	N	0.07	5.2	-42.6	734.9	0.036	0.000	13.1	76	1
08/03/19	8:32 p	-33.9	-33.9	-33.9	4.3	N	0.07	4.3	-42.6	734.9	0.036	0.000	13.1	75	1
08/03/19	8:33 p	-33.9	-33.9	-33.9	4.3	N	0.07	5.2	-42.5	734.9	0.036	0.000	13.1	76	1
08/03/19	8:34 p	-33.9	-33.9	-33.9	4.3	N	0.07	4.3	-42.5	734.9	0.036	0.000	13.1	76	1
08/03/19	8:35 p	-33.9	-33.8	-33.9	4.3	N	0.07	4.3	-42.5	734.8	0.036	0.000	13.1	76	1
08/03/19	8:36 p	-33.9	-33.9	-33.9	4.3	N	0.07	4.3	-42.5	734.9	0.036	0.000	13.1	76	1
08/03/19	8:37 p	-33.9	-33.9	-33.9	3.5	N	0.06	4.3	-41.3	735.0	0.036	0.000	13.1	76	1
08/03/19	8:38 p	-33.9	-33.9	-33.9	3.5	N	0.06	4.3	-41.3	734.9	0.036	0.000	13.1	76	1
08/03/19	8:39 p	-33.9	-33.8	-33.9	3.5	N	0.06	4.3	-41.3	734.9	0.036	0.000	13.1	76	1
08/03/19	8:40 p	-33.9	-33.9	-33.9	3.5	N	0.06	4.3	-41.3	735.0	0.036	0.000	13.1	76	1
08/03/19	8:41 p	-33.8	-33.8	-33.9	3.5	N	0.06	4.3	-41.2	735.1	0.036	0.000	13.1	76	1
08/03/19	8:42 p	-33.8	-33.8	-33.8	4.3	N	0.07	4.3	-42.4	735.1	0.036	0.000	13.1	76	1
08/03/19	8:43 p	-33.8	-33.8	-33.9	4.3	N	0.07	5.2	-42.4	735.0	0.036	0.000	13.1	76	1
08/03/19	8:44 p	-33.8	-33.8	-33.9	4.3	N	0.07	5.2	-42.4	735.1	0.036	0.000	13.1	76	1
08/03/19	8:45 p	-33.8	-33.8	-33.9	4.3	N	0.07	4.3	-42.4	735.0	0.036	0.000	13.1	76	1
08/03/19	8:46 p	-33.8	-33.8	-33.9	4.3	N	0.07	4.3	-42.4	735.1	0.036	0.000	13.1	76	1
08/03/19	8:47 p	-33.8	-33.8	-33.8	3.5	ENE	0.06	4.3	-41.2	735.1	0.036	0.000	13.1	76	1
08/03/19	8:48 p	-33.9	-33.8	-33.9	3.5	ENE	0.06	4.3	-41.3	735.2	0.036	0.000	13.1	76	1
08/03/19	8:49 p	-33.8	-33.8	-33.8	2.6	ENE	0.04	3.5	-39.7	735.2	0.036	0.000	13.1	76	1
08/03/19	8:50 p	-33.8	-33.8	-33.8	2.6	ENE	0.04	3.5	-39.7	735.2	0.036	0.000	13.1	76	1
08/03/19	8:51 p	-33.8	-33.8	-33.9	2.6	ENE	0.04	2.6	-39.7	735.2	0.036	0.000	13.1	76	1
08/03/19	8:52 p	-33.8	-33.8	-33.8	2.6	ENE	0.04	3.5	-39.7	735.2	0.036	0.000	13.1	76	1
08/03/19	8:53 p	-33.8	-33.8	-33.8	2.6	ENE	0.04	3.5	-39.7	735.2	0.036	0.000	13.2	76	1
08/03/19	8:54 p	-33.8	-33.8	-33.8	2.6	ENE	0.04	3.5	-39.7	735.2	0.036	0.000	13.2	76	1
08/03/19	8:55 p	-33.8	-33.8	-33.8	2.6	ENE	0.04	3.5	-39.7	735.2	0.036	0.000	13.2	76	1
08/03/19	8:56 p	-33.8	-33.8	-33.8	2.6	ENE	0.04	2.6	-39.7	735.2	0.036	0.000	13.2	76	1
08/03/19	8:57 p	-33.8	-33.8	-33.8	1.7	ENE	0.03	2.6	-37.7	735.2	0.036	0.000	13.2	76	1
08/03/19	8:58 p	-33.8	-33.8	-33.8	1.7	ENE	0.03	2.6	-37.7	735.3	0.036	0.000	13.2	76	1
08/03/19	8:59 p	-33.8	-33.8	-33.8	1.7	ENE	0.03	2.6	-37.7	735.2	0.036	0.000	13.2	76	1
08/03/19	9:00 p	-33.8	-33.8	-33.8	1.7	ENE	0.03	2.6	-37.7	735.3	0.036	0.000	13.2	76	1
08/03/19	9:01 p	-33.8	-33.8	-33.8	2.6	ENE	0.04	2.6	-39.7	735.2	0.036	0.000	13.2	76	1
08/03/19	9:02 p	-33.8	-33.8	-33.8	2.6	ENE	0.04	2.6	-39.7	735.2	0.036	0.000	13.2	76	1
08/03/19	9:03 p	-33.8	-33.8	-33.8	2.6	ENE	0.04	2.6	-39.7	735.3	0.036	0.000	13.2	76	1
08/03/19	9:04 p	-33.8	-33.8	-33.8	1.7	ENE	0.03	2.6	-37.7	735.2	0.036	0.000	13.2	76	1
08/03/19	9:05 p	-33.8	-33.8	-33.8	1.7	ENE	0.03	2.6	-37.7	735.3	0.036	0.000	13.2	76	1
08/03/19	9:06 p	-33.8	-33.8	-33.8	2.6	ENE	0.04	2.6	-39.7	735.3	0.036	0.000	13.2	76	1
08/03/19	9:07 p	-33.8	-33.8	-33.8	2.6	ENE	0.04	2.6	-39.7	735.3	0.036	0.000	13.2	76	1
08/03/19	9:08 p	-33.8	-33.8	-33.8	1.7	ENE	0.03	2.6	-37.7	735.2	0.036	0.000	13.2	76	1
08/03/19	9:09 p	-33.8	-33.8	-33.8	1.7	ENE	0.03	2.6	-37.7	735.3	0.036	0.000	13.2	76	1
08/03/19	9:10 p	-33.8	-33.8	-33.8	1.7	ENE	0.03	2.6	-37.7	735.4	0.036	0.000	13.2	76	1
08/03/19	9:11 p	-33.8	-33.8	-33.8	2.6	ENE	0.04	2.6	-39.7	735.4	0.036	0.000	13.2	76	1
08/03/19	9:12 p	-33.8	-33.8	-33.8	2.6	ENE	0.04	2.6	-39.7	735.4	0.036	0.000	13.2	76	1
08/03/19	9:13 p	-33.8	-33.8	-33.8	3.5	N	0.06	3.5	-41.2	735.4	0.036	0.000	13.2	76	1
08/03/19	9:14 p	-33.8	-33.8	-33.8	2.6	N	0.04	3.5	-39.7	735.4	0.036	0.000	13.2	76	1
08/03/19	9:15 p	-33.8	-33.8	-33.8	2.6	N	0.04	3.5	-39.7	735.4	0.036	0.000	13.2	76	1
08/03/19	9:16 p	-33.8	-33.8	-33.8	2.6	N	0.04	3.5	-39.7	735.3	0.036	0.000	13.2	76	1
08/03/19	9:17 p	-33.8	-33.7	-33.8	2.6	N	0.04	3.5	-39.7	735.4	0.036	0.000	13.3	76	1
08/03/19	9:18 p	-33.8	-33.7	-33.8	3.5	N	0.06	3.5	-41.2	735.4	0.036	0.000	13.3	76	1
08/03/19	9:19 p	-33.8	-33.7	-33.8	3.5	N	0.06	3.5	-41.2	735.4	0.036	0.000	13.3	76	1
08/03/19	9:20 p	-33.7	-33.7	-33.7	3.5	N	0.06	4.3	-41.1	735.4	0.036	0.000	13.3	76	1
08/03/19	9:21 p	-33.7	-33.7	-33.7	3.5	N	0.06	3.5	-41.1	735.4	0.036	0.000	13.3	76	1
08/03/19	9:22 p	-33.7	-33.7	-33.7	3.5	N	0.06	3.5	-41.1	735.6	0.036	0.000	13.3	76	1
08/03/19	9:23 p	-33.7	-33.7	-33.7	3.5	N	0.06	3.5	-41.0	735.5	0.036	0.000	13.3	76	1
08/03/19	9:24 p	-33.7	-33.7	-33.7	2.6	N	0.04	3.5	-39.5	735.6	0.036	0.000	13.3	76	1
08/03/19	9:25 p	-33.7	-33.7	-33.7	3.5	N	0.06	3.5	-41.0	735.6	0.036	0.000	13.3	76	1
08/03/19	9:26 p	-33.7	-33.6	-33.7	3.5	N	0.06	4.3	-41.0	735.6	0.036	0.000	13.3	76	1
08/03/19	9:27 p	-33.6	-33.6	-33.7	3.5	N	0.06	3.5	-40.9	735.7	0.036	0.000	13.3	76	1
08/03/19	9:28 p	-33.6	-33.6	-33.6	3.5	N	0.06	4.3	-40.9	735.7	0.036	0.000	13.3	75	1
08/03/19	9:29 p	-33.6	-33.6	-33.6	3.5	N	0.06	3.5	-40.9	735.6	0.036	0.000	13.3	76	1
08/03/19	9:30 p	-33.6	-33.6	-33.6	3.5	N	0.06	3.5	-40.9	735.6	0.036	0.000	13.3	75	1
08/03/19	9:31 p	-33.6	-33.6	-33.6	3.5	N	0.06	3.5	-40.9	735.7	0.036	0.000	13.3	76	1
08/03/19	9:32 p	-33.6	-33.5	-33.6	3.5	N	0.06	4.3	-40.9	735.7	0.036	0.000	13.3	76	1
08/03/19	9:33 p	-33.6	-33.6	-33.6	3.5	N	0.06	4.3	-40.9	735.7	0.036	0.000	13.3	76	1
08/03/19	9:34 p	-33.6	-33.6	-33.6	4.3	N	0.07	4.3	-42.1	735.6	0.036	0.000	13.3	75	1
08/03/19	9:35 p	-33.5	-33.5	-33.6	4.3	N	0.07	4.3	-42.0	735.7	0.036	0.000	13.3	75	1
08/03/19	9:36 p	-33.5	-33.4	-33.5	4.3	N	0.07	4.3	-42.0	735.7	0.036	0.000	13.3	75	1
08/03/19	9:37 p	-33.5	-33.4	-33.5	4.3	N	0.07	4.3	-42.0	735.7	0.036	0.000	13.3	75	1
08/03/19	9:38 p	-33.4	-33.4	-33.5	4.3	N	0.07	4.3	-41.9	735.7	0.036	0.000	13.3	75	1
08/03/19	9:39 p	-33.5	-33.4	-33.5	4.3	N	0.07	4.3	-42.0	735.8	0.036	0.000	13.3	75	1
08/03/19	9:40 p	-33.4	-33.4	-33.4	4.3	N	0.07	4.3	-41.9	735.7	0.036	0.000	13.3	75	1
08/03/19	9:41 p	-33.4	-33.4	-33.4	4.3	N	0.07	4.3	-41.9	735.8	0.036	0.000	13.3	75	1
08/03/19	9:42 p	-33.4	-33.4	-33.4	3.5	N	0.06	4.3	-40.8	735.8	0.036	0.000	13.3	75	1
08/03/19	9:43 p	-33.4	-33.4	-33.4	4.3	N	0.07	4.3	-41.9	735.8	0.036	0.000	13.3	75	1
08/03/19	9:44 p	-33.4	-33.4	-33.4	4.3	N	0.07	4.3	-41.9	735.8	0.036	0.000	13.3	75	1
08/03/19	9:45 p	-33.4	-33.4	-33.4	4.3	N	0.07	4.3	-41.9	735.8	0.036	0.000	13.3	75	1
08/03/19	9:46 p	-33.4	-33.4	-33.4	3.5	N	0.06	4.3	-40.7	735.9	0.036	0.000	13.4	75	1
08/03/19	9:47 p	-33.4	-33.4	-33.4	3.5	N	0.06	4.3	-40.8	735.9	0.036	0.000	13.4	75	1
08/03/19	9:48 p	-33.4	-33.4	-33.4	3.5	N	0.06	4.3	-40.8	735.8	0.036	0.000	13.4	75	1
08/03/19	9:49 p	-33.4	-33.4	-33.4	3.5	N	0.06	4.3	-40.7	735.9	0.036	0.000	13.4	75	1
08/03/19	9:50 p	-33.4	-33.3	-33.4	3.5	N	0.06	4.3	-40.7	735.9	0.036	0.000	13.4	75	1
08/03/19	9:51 p	-33.4	-33.3	-33.4	4.3	N	0.07	4.3	-41.9	735.9	0.036	0.000	13.4	75	1
08/03/19	9:52 p	-33.4	-33.4	-33.4	4.3	N	0.07	4.3	-41.9	735.9	0.036	0.000	13.4	75	1
08/03/19	9:53 p	-33.3	-33.3	-33.3	4.3	N	0.07	5.2	-41.8	735.9	0.036	0.000	13.4	75	1
08/03/19	9:54 p	-33.3	-33.3	-33.3	4.3	N	0.07	5.2	-41.8	735.9	0.036	0.000	13.4	76	1
08/03/19	9:55 p	-33.3	-33.3	-33.4	4.3	N	0.07	5.2	-41.8	735.9	0.036	0.000	13.4	76	1
08/03/19	9:56 p	-33.3	-33.3	-33.4	4.3	N	0.07	5.2	-41.8	735.9	0.036	0.000	13.4	76	1
08/03/19	9:57 p	-33.3	-33.3	-33.3	4.3	N	0.07	5.2	-41.8	735.8	0.036	0.000	13.4	76	1
08/03/19	9:58 p	-33.4	-33.3	-33.4	5.2	N	0.09	5.2	-42.9	735.9	0.036	0.000	13.4	75	1
08/03/19	9:59 p	-33.3	-33.3	-33.4	5.2	N	0.09	5.2	-42.8	735.9	0.036	0.000	13.4	76	1
08/03/19	10:00 p	-33.3	-33.3	-33.3	4.3	N	0.07	5.2	-41.8	735.8	0.036	0.000	13.4	76	1
08/03/19	10:01 p	-33.3	-33.3	-33.4	4.3	N	0.07	5.2	-41.8	736.0	0.036	0.000	13.4	75	1
08/03/19	10:02 p	-33.3	-33.3	-33.3	4.3	N	0.07	4.3	-41.8	735.9	0.036	0.000	13.4	76	1
08/03/19	10:03 p	-33.4	-33.3	-33.4	4.3	N	0.07	4.3	-41.9	735.9	0.036	0.000	13.4	76	1
08/03/19	10:04 p	-33.3	-33.3	-33.3	3.5	N	0.06	4.3	-40.6	736.1	0.036	0.000	13.4	76	1
08/03/19	10:05 p	-33.3	-33.3	-33.3	3.5	N	0.06	4.3	-40.6	736.0	0.036	0.000	13.4	76	1
08/03/19	10:06 p	-33.3	-33.3	-33.3	4.3	N	0.07	4.3	-41.8	736.0	0.036	0.000	13.4	75	1
08/03/19	10:07 p	-33.3	-33.3	-33.4	3.5	N	0.06	4.3	-40.6	736.0	0.036	0.000	13.4	76	1
08/03/19	10:08 p	-33.3	-33.3	-33.3	3.5	N	0.06	3.5	-40.6	736.0	0.036	0.000	13.4	75	1
08/03/19	10:09 p	-33.3	-33.3	-33.4	3.5	N	0.06	3.5	-40.6	736.0	0.036	0.000	13.4	76	1
08/03/19	10:10 p	-33.3	-33.3	-33.4	3.5	N	0.06	3.5	-40.6	736.0	0.036	0.000	13.4	76	1
08/03/19	10:11 p	-33.3	-33.3	-33.3	3.5	N	0.06	4.3	-40.6	736.1	0.036	0.000	13.4	76	1
08/03/19	10:12 p	-33.3	-33.3	-33.3	3.5	N	0.06	4.3	-40.6	736.1	0.036	0.000	13.4	76	1
08/03/19	10:13 p	-33.3	-33.3	-33.3	3.5	N	0.06	3.5	-40.6	736.1	0.036	0.000	13.4	76	1
08/03/19	10:14 p	-33.4	-33.3	-33.4	3.5	N	0.06	3.5	-40.7	736.1	0.036	0.000	13.4	76	1
08/03/19	10:15 p	-33.3	-33.3	-33.4	2.6	N	0.04	3.5	-39.2	736.1	0.036	0.000	13.4	75	1
08/03/19	10:16 p	-33.3	-33.3	-33.4	2.6	N	0.04	3.5	-39.2	736.1	0.036	0.000	13.4	75	1
08/03/19	10:17 p	-33.3	-33.3	-33.3	2.6	N	0.04	2.6	-39.2	736.1	0.036	0.000	13.5	75	1
08/03/19	10:18 p	-33.3	-33.3	-33.4	2.6	N	0.04	3.5	-39.2	736.1	0.036	0.000	13.5	75	1
08/03/19	10:19 p	-33.3	-33.3	-33.3	2.6	N	0.04	3.5	-39.2	736.1	0.036	0.000	13.5	76	1
08/03/19	10:20 p	-33.4	-33.4	-33.4	2.6	N	0.04	2.6	-39.2	736.2	0.036	0.000	13.5	75	1
08/03/19	10:21 p	-33.3	-33.3	-33.4	2.6	N	0.04	2.6	-39.2	736.2	0.036	0.000	13.5	75	1
08/03/19	10:22 p	-33.4	-33.3	-33.4	2.6	N	0.04	2.6	-39.2	736.1	0.036	0.000	13.5	76	1
08/03/19	10:23 p	-33.4	-33.3	-33.4	1.7	N	0.03	2.6	-37.2	736.1	0.036	0.000	13.5	75	1
08/03/19	10:24 p	-33.4	-33.4	-33.4	1.7	N	0.03	2.6	-37.2	736.1	0.036	0.000	13.5	76	1
08/03/19	10:25 p	-33.4	-33.4	-33.4	1.7	N	0.03	2.6	-37.2	736.1	0.036	0.000	13.5	75	1
08/03/19	10:26 p	-33.4	-33.3	-33.4	1.7	N	0.03	2.6	-37.2	736.1	0.036	0.000	13.5	75	1
08/03/19	10:27 p	-33.3	-33.3	-33.4	1.7	N	0.03	2.6	-37.2	736.1	0.036	0.000	13.5	76	1
08/03/19	10:28 p	-33.4	-33.3	-33.4	1.7	N	0.03	2.6	-37.2	736.2	0.036	0.000	13.5	75	1
08/03/19	10:29 p	-33.4	-33.3	-33.4	2.6	N	0.04	2.6	-39.2	736.2	0.036	0.000	13.5	75	1
08/03/19	10:30 p	-33.4	-33.3	-33.4	2.6	N	0.04	2.6	-39.2	736.2	0.036	0.000	13.6	75	1
08/03/19	10:31 p	-33.3	-33.3	-33.4	2.6	N	0.04	3.5	-39.2	736.1	0.036	0.000	13.6	75	1
08/03/19	10:32 p	-33.4	-33.3	-33.4	2.6	N	0.04	3.5	-39.2	736.1	0.036	0.000	13.6	75	1
08/03/19	10:33 p	-33.4	-33.4	-33.4	2.6	N	0.04	3.5	-39.2	736.2	0.036	0.000	13.6	75	1
08/03/19	10:34 p	-33.3	-33.3	-33.3	2.6	N	0.04	3.5	-39.2	736.1	0.036	0.000	13.6	75	1
08/03/19	10:35 p	-33.4	-33.4	-33.4	2.6	N	0.04	3.5	-39.2	736.1	0.036	0.000	13.6	75	1
08/03/19	10:36 p	-33.3	-33.3	-33.3	2.6	N	0.04	3.5	-39.2	736.1	0.036	0.000	13.6	75	1
08/03/19	10:37 p	-33.4	-33.3	-33.4	2.6	N	0.04	3.5	-39.2	736.1	0.036	0.000	13.6	75	1
08/03/19	10:38 p	-33.3	-33.3	-33.3	2.6	N	0.04	2.6	-39.2	736.2	0.036	0.000	13.6	75	1
08/03/19	10:39 p	-33.3	-33.3	-33.4	1.7	N	0.03	2.6	-37.2	736.1	0.036	0.000	13.6	75	1
08/03/19	10:40 p	-33.3	-33.3	-33.3	1.7	N	0.03	1.7	-37.2	736.2	0.036	0.000	13.6	75	1
08/03/19	10:41 p	-33.3	-33.3	-33.4	1.7	N	0.03	2.6	-37.2	736.2	0.036	0.000	13.6	75	1
08/03/19	10:42 p	-33.3	-33.3	-33.3	1.7	N	0.03	1.7	-37.2	736.2	0.036	0.000	13.6	75	1
08/03/19	10:43 p	-33.3	-33.3	-33.3	1.7	N	0.03	1.7	-37.2	736.2	0.036	0.000	13.6	75	1
08/03/19	10:44 p	-33.3	-33.3	-33.3	1.7	N	0.03	2.6	-37.2	736.2	0.036	0.000	13.6	75	1
08/03/19	10:45 p	-33.3	-33.3	-33.3	1.7	N	0.03	2.6	-37.2	736.2	0.036	0.000	13.6	75	1
08/03/19	10:46 p	-33.3	-33.3	-33.3	1.7	N	0.03	1.7	-37.2	736.3	0.036	0.000	13.6	75	1
08/03/19	10:47 p	-33.3	-33.3	-33.3	1.7	N	0.03	1.7	-37.2	736.3	0.036	0.000	13.6	75	1
08/03/19	10:48 p	-33.3	-33.3	-33.3	1.7	N	0.03	1.7	-37.2	736.2	0.036	0.000	13.6	75	1
08/03/19	10:49 p	-33.3	-33.3	-33.3	0.9	N	0.01	1.7	-34.1	736.3	0.036	0.000	13.6	75	1
08/03/19	10:50 p	-33.3	-33.3	-33.3	0.9	N	0.01	1.7	-34.1	736.3	0.036	0.000	13.6	75	1
08/03/19	10:51 p	-33.3	-33.3	-33.3	1.7	N	0.03	2.6	-37.1	736.2	0.036	0.000	13.6	75	1
08/03/19	10:52 p	-33.3	-33.3	-33.3	1.7	N	0.03	2.6	-37.2	736.2	0.036	0.000	13.6	75	1
08/03/19	10:53 p	-33.3	-33.3	-33.3	1.7	N	0.03	2.6	-37.1	736.3	0.036	0.000	13.6	75	1
08/03/19	10:54 p	-33.3	-33.3	-33.3	1.7	N	0.03	2.6	-37.1	736.2	0.036	0.000	13.7	75	1
08/03/19	10:55 p	-33.3	-33.3	-33.3	1.7	N	0.03	2.6	-37.2	736.2	0.036	0.000	13.6	75	1
08/03/19	10:56 p	-33.3	-33.3	-33.3	1.7	N	0.03	2.6	-37.2	736.2	0.036	0.000	13.7	75	1
08/03/19	10:57 p	-33.3	-33.2	-33.3	1.7	N	0.03	1.7	-37.1	736.2	0.036	0.000	13.7	75	1
08/03/19	10:58 p	-33.3	-33.2	-33.3	0.9	N	0.01	1.7	-34.0	736.2	0.036	0.000	13.7	75	1
08/03/19	10:59 p	-33.3	-33.3	-33.3	0.9	N	0.01	1.7	-34.0	736.3	0.036	0.000	13.7	75	1
08/03/19	11:00 p	-33.3	-33.2	-33.3	0.9	N	0.01	0.9	-34.0	736.2	0.036	0.000	13.7	75	1
08/03/19	11:01 p	-33.3	-33.2	-33.3	0.9	N	0.01	1.7	-34.0	736.3	0.036	0.000	13.7	75	1
08/03/19	11:02 p	-33.2	-33.2	-33.3	0.9	N	0.01	1.7	-33.9	736.2	0.036	0.000	13.7	75	1
08/03/19	11:03 p	-33.3	-33.2	-33.3	0.0	---	0.00	0.0	-33.2	736.1	0.036	0.000	13.7	75	1
08/03/19	11:04 p	-33.3	-33.2	-33.3	0.0	---	0.00	0.9	-33.2	736.2	0.036	0.000	13.7	75	1
08/03/19	11:05 p	-33.2	-33.2	-33.3	0.9	N	0.01	1.7	-33.9	736.2	0.036	0.000	13.7	75	1
08/03/19	11:06 p	-33.2	-33.2	-33.2	0.9	N	0.01	1.7	-33.9	736.2	0.036	0.000	13.7	75	1
08/03/19	11:07 p	-33.2	-33.2	-33.2	0.9	N	0.01	0.9	-33.9	736.3	0.036	0.000	13.7	75	1
08/03/19	11:08 p	-33.2	-33.2	-33.2	0.0	N	0.00	0.9	-33.2	736.3	0.036	0.000	13.7	75	1
08/03/19	11:09 p	-33.2	-33.2	-33.2	0.9	N	0.01	0.9	-33.9	736.2	0.036	0.000	13.7	75	1
08/03/19	11:10 p	-33.2	-33.2	-33.2	0.9	N	0.01	1.7	-33.9	736.2	0.036	0.000	13.7	75	1
08/03/19	11:11 p	-33.2	-33.2	-33.2	0.9	N	0.01	0.9	-33.9	736.2	0.036	0.000	13.7	75	1
08/03/19	11:12 p	-33.2	-33.2	-33.2	0.9	N	0.01	2.6	-33.9	736.1	0.036	0.000	13.7	75	1
08/03/19	11:13 p	-33.2	-33.2	-33.2	0.9	N	0.01	1.7	-33.9	736.2	0.036	0.000	13.7	75	1
08/03/19	11:14 p	-33.2	-33.2	-33.2	0.9	N	0.01	1.7	-33.9	736.2	0.036	0.000	13.7	75	1
08/03/19	11:15 p	-33.2	-33.2	-33.2	1.7	N	0.03	1.7	-36.9	736.2	0.036	0.000	13.7	75	1
08/03/19	11:16 p	-33.2	-33.2	-33.2	1.7	N	0.03	2.6	-36.9	736.2	0.036	0.000	13.8	75	1
08/03/19	11:17 p	-33.2	-33.2	-33.2	1.7	N	0.03	2.6	-36.9	736.2	0.036	0.000	13.8	75	1
08/03/19	11:18 p	-33.2	-33.2	-33.2	2.6	N	0.04	3.5	-38.9	736.2	0.036	0.000	13.8	75	1
08/03/19	11:19 p	-33.2	-33.2	-33.2	2.6	WNW	0.04	2.6	-38.9	736.3	0.036	0.000	13.8	75	1
08/03/19	11:20 p	-33.2	-33.1	-33.2	2.6	WNW	0.04	3.5	-38.9	736.3	0.036	0.000	13.8	75	1
08/03/19	11:21 p	-33.2	-33.1	-33.2	3.5	WNW	0.06	4.3	-40.4	736.2	0.036	0.000	13.8	75	1
08/03/19	11:22 p	-33.1	-33.1	-33.1	3.5	WNW	0.06	4.3	-40.4	736.3	0.036	0.000	13.8	75	1
08/03/19	11:23 p	-33.1	-33.1	-33.1	3.5	WNW	0.06	4.3	-40.4	736.3	0.036	0.000	13.8	75	1
08/03/19	11:24 p	-33.1	-33.1	-33.2	2.6	WNW	0.04	3.5	-38.9	736.4	0.036	0.000	13.8	74	1
08/03/19	11:25 p	-33.1	-33.1	-33.1	1.7	WNW	0.03	2.6	-36.9	736.4	0.036	0.000	13.8	75	1
08/03/19	11:26 p	-33.1	-33.1	-33.1	1.7	WNW	0.03	2.6	-36.9	736.4	0.036	0.000	13.8	75	1
08/03/19	11:27 p	-33.1	-33.1	-33.1	1.7	WNW	0.03	2.6	-36.8	736.3	0.036	0.000	13.8	74	1
08/03/19	11:28 p	-33.1	-33.1	-33.1	2.6	WNW	0.04	3.5	-38.8	736.4	0.036	0.000	13.8	75	1
08/03/19	11:29 p	-33.1	-33.1	-33.1	3.5	WNW	0.06	3.5	-40.3	736.4	0.036	0.000	13.8	75	1
08/03/19	11:30 p	-33.1	-33.1	-33.1	2.6	WNW	0.04	3.5	-38.8	736.3	0.036	0.000	13.8	74	1
08/03/19	11:31 p	-33.1	-33.1	-33.1	2.6	WNW	0.04	2.6	-38.9	736.4	0.036	0.000	13.8	75	1
08/03/19	11:32 p	-33.1	-33.1	-33.1	1.7	WNW	0.03	2.6	-36.8	736.4	0.036	0.000	13.8	75	1
08/03/19	11:33 p	-33.1	-33.1	-33.1	1.7	WNW	0.03	2.6	-36.8	736.4	0.036	0.000	13.8	75	1
08/03/19	11:34 p	-33.1	-33.1	-33.1	1.7	WNW	0.03	2.6	-36.8	736.5	0.036	0.000	13.8	75	1
08/03/19	11:35 p	-33.1	-33.1	-33.1	1.7	WNW	0.03	1.7	-36.8	736.5	0.036	0.000	13.8	74	1
08/03/19	11:36 p	-33.1	-33.1	-33.1	0.9	WNW	0.01	1.7	-33.8	736.5	0.036	0.000	13.8	75	1
08/03/19	11:37 p	-33.1	-33.0	-33.1	0.9	WNW	0.01	0.9	-33.8	736.5	0.036	0.000	13.8	74	1
08/03/19	11:38 p	-33.1	-33.1	-33.1	0.9	WNW	0.01	0.9	-33.8	736.5	0.036	0.000	13.9	74	1
08/03/19	11:39 p	-33.1	-33.1	-33.1	1.7	WNW	0.03	1.7	-36.8	736.5	0.036	0.000	13.8	75	1
08/03/19	11:40 p	-33.1	-33.1	-33.1	1.7	WNW	0.03	2.6	-36.8	736.5	0.036	0.000	13.8	75	1
08/03/19	11:41 p	-33.1	-33.1	-33.1	2.6	WNW	0.04	3.5	-38.8	736.5	0.036	0.000	13.9	75	1
08/03/19	11:42 p	-33.1	-33.0	-33.1	2.6	WNW	0.04	3.5	-38.8	736.5	0.036	0.000	13.9	75	1
08/03/19	11:43 p	-33.1	-33.0	-33.1	2.6	WNW	0.04	2.6	-38.8	736.4	0.036	0.000	13.9	75	1
08/03/19	11:44 p	-33.0	-33.0	-33.0	1.7	WNW	0.03	2.6	-36.8	736.4	0.036	0.000	13.9	75	1
08/03/19	11:45 p	-33.0	-33.0	-33.1	1.7	WNW	0.03	2.6	-36.8	736.5	0.036	0.000	13.9	75	1
08/03/19	11:46 p	-33.1	-33.0	-33.1	1.7	WNW	0.03	2.6	-36.8	736.5	0.036	0.000	13.9	75	1
08/03/19	11:47 p	-33.1	-33.0	-33.1	0.9	WNW	0.01	1.7	-33.8	736.5	0.036	0.000	13.9	75	1
08/03/19	11:48 p	-33.1	-33.1	-33.1	0.9	WNW	0.01	1.7	-33.8	736.5	0.036	0.000	13.9	75	1
08/03/19	11:49 p	-33.0	-33.0	-33.0	0.9	WNW	0.01	1.7	-33.7	736.5	0.036	0.000	13.9	74	1
08/03/19	11:50 p	-33.1	-33.0	-33.1	0.9	WNW	0.01	1.7	-33.8	736.6	0.036	0.000	13.9	74	1
08/03/19	11:51 p	-33.0	-33.0	-33.0	1.7	WNW	0.03	1.7	-36.8	736.6	0.036	0.000	13.9	75	1
08/03/19	11:52 p	-33.0	-32.9	-33.0	0.9	WNW	0.01	1.7	-33.7	736.6	0.036	0.000	13.9	75	1
08/03/19	11:53 p	-33.0	-33.0	-33.0	0.9	WNW	0.01	1.7	-33.7	736.6	0.036	0.000	13.9	75	1
08/03/19	11:54 p	-33.0	-32.9	-33.0	1.7	WNW	0.03	2.6	-36.8	736.6	0.036	0.000	13.9	75	1
08/03/19	11:55 p	-33.0	-32.9	-33.0	1.7	WNW	0.03	2.6	-36.8	736.7	0.036	0.000	13.9	75	1
08/03/19	11:56 p	-33.0	-32.9	-33.0	1.7	WNW	0.03	2.6	-36.8	736.7	0.036	0.000	13.9	75	1
08/03/19	11:57 p	-32.9	-32.9	-33.0	1.7	WNW	0.03	1.7	-36.7	736.7	0.036	0.000	13.9	75	1
08/03/19	11:58 p	-32.9	-32.9	-33.0	1.7	WNW	0.03	2.6	-36.7	736.7	0.036	0.000	13.9	75	1
08/03/19	11:59 p	-32.9	-32.9	-33.0	1.7	WNW	0.03	1.7	-36.7	736.6	0.036	0.000	13.9	75	1
08/04/19	12:00 a	-33.0	-32.9	-33.0	1.7	WNW	0.03	1.7	-36.8	736.7	0.036	0.000	13.9	75	1